GFSWCAN_sfc_wetblb_000.txt.gz
Wetbulb
49.64 49.80 49.80 49.85 49.84 49.98 50.28 50.37 50.26 50.05 50.00 50.05 50.29 50.96 50.62 50.15 50.35 51.66 49.58 50.08 46.82 38.12 41.66 45.52 44.98 41.97 40.63 38.23 33.83 37.87 37.38 34.73 35.29 32.51 28.51 28.73 19.68 27.81 27.38 30.61 27.51 26.80 22.52 21.00 25.47 24.97 21.99 35.87 37.29 32.70 37.10 39.36 39.96 40.15
49.64 49.43 48.99 49.33 49.31 49.59 49.80 49.92 49.70 49.67 49.47 49.41 49.87 50.10 50.39 50.21 50.21 50.44 48.89 49.92 48.72 44.06 42.80 46.93 48.01 47.30 45.81 44.74 41.24 37.04 38.38 37.04 35.83 32.76 32.25 29.07 25.70 28.72 29.12 29.39 32.27 28.42 31.86 30.46 32.87 29.20 35.64 39.26 40.41 41.12 41.63 39.98 38.28 37.63
48.81 49.30 48.81 48.95 49.09 49.27 49.34 49.39 49.31 49.27 49.17 49.13 49.31 49.87 50.14 50.33 50.48 50.49 48.28 47.31 45.32 37.17 41.89 43.83 43.30 47.62 51.37 48.82 48.32 39.76 34.10 41.12 38.31 39.18 32.84 31.31 27.00 29.97 32.16 32.10 29.08 36.28 38.67 33.78 34.29 36.63 39.71 42.39 42.67 42.48 41.71 41.21 39.58 39.14
47.85 47.96 49.13 48.45 48.74 48.91 49.02 49.11 49.00 48.79 49.04 48.86 48.91 49.33 49.53 49.78 50.08 49.84 47.65 46.62 44.86 39.78 33.71 38.68 45.05 45.03 48.48 49.80 47.95 47.72 45.40 44.03 41.27 37.77 33.34 32.30 33.17 39.13 33.65 37.21 35.83 37.89 39.07 36.63 35.58 40.28 40.13 40.37 40.30 41.22 40.50 40.71 39.84 39.63
47.47 47.43 47.38 48.41 48.25 48.57 48.64 48.65 48.30 48.77 48.63 49.13 49.76 49.28 49.12 49.73 49.51 48.76 48.10 48.66 48.90 45.08 35.25 37.00 42.78 45.57 46.96 47.40 46.57 45.83 45.90 43.26 39.37 36.45 33.53 34.60 34.74 35.91 34.06 34.38 34.32 38.98 37.41 33.28 35.05 40.34 41.19 41.71 42.16 42.90 40.00 38.98 39.25 37.90
47.13 47.05 47.07 47.29 47.87 47.72 48.07 48.07 48.07 47.89 48.27 48.55 48.90 49.26 49.60 49.16 49.61 48.49 44.41 46.59 48.33 50.08 38.94 34.60 40.49 39.55 42.84 44.45 44.41 43.06 44.57 42.89 41.65 40.09 35.15 38.49 41.83 38.02 32.82 33.93 37.86 40.90 42.12 43.42 41.26 43.98 43.36 41.71 40.32 39.41 37.60 36.80 36.58 36.03
46.54 46.71 46.77 46.66 46.93 47.51 47.49 47.32 47.49 47.67 47.69 48.05 48.37 48.72 49.08 48.85 50.95 47.88 43.28 44.75 48.28 46.59 35.90 34.62 34.36 34.97 38.92 41.51 40.63 41.10 41.96 40.53 41.07 39.97 36.61 37.12 37.59 41.23 32.97 34.53 39.36 41.13 42.03 42.50 42.53 42.14 37.54 37.57 36.17 38.11 37.82 37.29 36.18 35.57
46.27 46.18 46.19 46.37 46.53 46.60 46.89 47.31 47.49 47.67 47.87 48.05 48.23 48.23 48.59 48.75 48.75 46.53 46.48 48.73 49.38 43.91 39.13 34.24 34.72 33.29 39.00 34.50 34.26 38.40 35.13 37.82 40.50 39.99 36.75 34.60 36.45 34.44 33.50 38.08 39.03 39.98 40.61 39.11 38.10 38.34 37.23 38.95 38.22 36.85 35.10 33.59 31.71 30.91
46.12 45.68 45.48 45.67 46.07 46.09 46.23 46.77 47.42 47.83 48.01 48.17 48.19 48.15 47.47 45.70 42.03 43.96 47.27 47.54 46.84 43.67 36.43 32.81 33.35 33.17 40.08 36.29 34.72 32.52 35.16 32.97 36.87 32.79 34.06 36.11 32.96 33.43 36.67 34.71 34.61 35.54 35.63 35.62 36.30 35.83 35.64 32.33 31.78 32.08 31.68 30.71 29.47 29.20
45.92 45.51 45.14 45.34 46.01 46.12 46.30 46.77 47.11 47.60 48.01 47.81 46.14 42.24 35.53 39.13 46.80 46.95 43.74 39.79 38.56 36.43 37.06 33.18 35.93 33.86 40.58 33.34 32.81 33.70 32.61 32.25 31.63 32.48 34.70 32.23 32.31 36.99 34.60 36.01 36.20 35.31 35.54 35.28 31.97 31.12 30.56 30.13 30.45 30.54 30.86 30.24 30.00 29.53
46.23 45.52 45.29 45.31 46.02 45.56 46.26 46.68 47.18 47.51 46.52 42.63 37.65 35.16 42.00 46.51 42.26 37.99 33.68 34.05 34.38 32.81 33.67 33.68 34.16 34.38 37.80 33.46 32.79 33.14 31.65 31.30 23.21 24.05 30.09 27.83 26.38 30.56 32.20 32.03 32.57 32.94 33.09 32.58 32.36 32.10 32.34 32.65 31.48 31.14 30.32 29.62 29.12 28.44
46.45 45.65 45.17 45.32 45.78 46.11 45.06 46.16 46.20 44.34 42.78 42.45 42.36 43.65 41.69 39.60 34.74 34.79 31.87 31.49 32.22 29.66 32.38 32.17 33.41 36.03 33.86 38.25 32.88 31.87 29.04 28.69 23.11 27.07 26.35 19.67 25.59 30.33 31.56 31.26 31.39 32.30 31.96 31.64 32.43 32.20 32.27 32.21 32.18 31.05 30.20 29.74 28.38 27.70
45.64 45.32 45.25 45.46 45.55 45.39 45.36 45.64 45.46 45.32 44.37 40.78 37.83 34.90 36.31 32.88 30.56 29.99 25.09 28.72 29.10 31.62 32.75 32.76 32.01 32.76 33.56 34.09 30.91 29.04 23.33 21.21 23.61 20.97 19.34 22.34 27.98 28.98 29.11 31.01 31.53 31.79 30.16 28.46 29.71 29.90 29.90 29.60 29.15 26.23 27.16 27.74 25.91 26.34
45.26 45.18 45.23 45.50 44.97 44.43 44.99 44.30 44.05 42.81 39.46 32.97 30.57 30.70 29.10 27.66 29.57 29.02 28.96 23.60 27.05 32.41 32.61 32.76 30.91 30.18 28.87 27.69 26.48 19.31 21.32 21.44 21.45 14.85 15.37 21.14 27.10 28.19 29.00 29.73 29.83 29.78 25.88 25.34 28.23 28.96 26.93 25.75 25.96 26.10 23.60 24.31 22.95 24.07
45.27 45.17 45.12 44.66 43.67 43.92 43.88 43.66 42.72 40.11 35.49 30.25 27.31 23.97 27.44 27.29 29.45 32.23 32.25 32.79 32.43 33.73 32.75 31.25 29.21 27.34 25.27 21.83 23.87 19.04 20.34 17.85 18.96 15.98 16.20 22.95 27.84 28.96 29.09 29.75 28.93 26.44 24.24 24.48 28.93 26.34 24.25 24.15 23.86 25.45 26.85 25.08 24.08 23.01
45.49 44.56 42.82 44.07 43.80 43.84 43.36 41.97 39.93 36.31 30.34 28.33 25.36 20.43 27.02 29.08 28.57 30.47 32.07 32.08 33.86 32.70 30.10 27.15 19.91 19.78 17.84 16.61 14.62 17.73 15.28 13.64 15.58 13.88 20.10 24.28 28.44 29.11 29.06 28.01 28.25 28.16 27.56 28.36 28.51 27.28 27.02 23.67 23.93 27.49 27.31 25.42 24.57 23.41
44.13 40.19 43.92 43.73 43.33 42.00 41.73 37.71 34.97 29.73 25.76 21.59 19.28 28.63 21.87 20.30 22.98 24.97 31.65 31.75 33.89 30.92 25.71 21.70 14.61 15.46 17.63 10.46 12.84 17.70 12.78 15.24 16.51 19.84 22.71 26.36 28.48 28.93 28.85 28.20 26.33 26.87 28.04 27.51 27.74 26.98 26.99 26.62 23.83 22.06 23.12 27.97 26.42 26.02
40.52 43.34 43.80 43.75 41.09 39.19 35.97 32.27 27.51 26.00 22.27 22.39 21.46 20.88 28.73 24.25 22.79 27.44 28.26 26.98 31.94 29.17 26.07 22.98 21.37 11.64 8.14 8.88 11.61 15.86 17.59 17.90 20.60 21.04 24.39 26.76 28.28 28.53 28.85 28.13 29.02 29.07 28.71 28.16 25.54 25.30 24.72 22.28 24.00 26.67 27.33 27.86 27.56 27.28
42.51 42.72 43.24 41.94 39.13 31.91 28.51 28.58 29.11 21.23 20.23 19.85 20.86 22.62 20.93 22.08 26.68 24.96 23.55 26.07 31.20 31.37 27.69 20.64 10.94 12.55 15.74 16.35 14.61 10.85 9.99 14.56 21.03 24.67 25.26 27.65 27.40 27.67 28.04 28.55 28.63 28.53 27.98 26.84 27.15 27.63 28.00 26.95 27.29 27.89 27.72 27.16 28.90 30.77
43.20 42.48 41.56 40.70 38.52 28.58 24.89 23.51 28.07 24.16 20.64 22.88 20.45 21.48 20.45 20.48 24.42 26.34 28.80 25.44 24.16 29.70 27.69 22.55 19.32 18.39 17.98 20.60 21.85 21.14 22.20 22.93 22.02 22.64 25.82 24.69 26.54 27.54 27.89 28.55 28.71 28.71 28.11 26.60 24.46 21.96 24.51 25.70 26.27 26.06 25.95 30.50 30.67 31.11
40.65 40.13 39.69 36.39 30.39 28.86 25.71 21.42 21.03 21.58 22.95 21.16 21.01 20.32 16.70 24.28 25.30 24.61 26.04 29.61 26.65 24.46 20.48 22.66 18.71 23.55 25.89 25.33 25.16 25.66 26.14 25.73 25.55 23.81 24.11 25.34 26.38 26.43 27.81 28.26 27.33 24.61 21.07 18.65 21.57 27.81 28.76 28.91 29.41 30.43 31.78 30.72 31.01 31.59
38.33 40.02 34.56 33.86 26.16 23.08 23.98 23.26 21.88 21.58 19.05 17.44 16.46 17.63 10.53 9.52 19.37 23.86 26.83 25.70 24.89 22.20 25.12 24.52 27.16 26.16 26.48 26.71 27.09 27.40 28.10 27.99 27.83 26.65 24.64 25.17 25.38 24.34 24.11 24.56 18.66 20.58 18.90 19.94 23.03 24.80 29.15 30.02 30.48 31.79 31.85 30.83 30.96 32.03
37.36 33.51 28.36 24.74 21.57 16.95 19.05 22.47 16.03 18.94 13.37 13.28 14.15 12.83 9.69 7.70 13.43 24.53 22.54 25.59 22.73 25.71 25.85 25.40 27.40 28.56 28.19 29.00 27.24 28.23 28.43 27.94 27.06 26.78 26.41 26.44 26.73 24.88 20.80 21.38 18.79 21.00 20.80 23.18 22.51 24.22 29.40 30.07 30.40 31.85 32.15 30.88 30.67 30.53
35.56 27.62 23.47 20.66 17.05 15.49 23.11 19.82 19.16 15.91 12.15 10.10 9.42 12.16 10.36 9.88 15.01 19.85 15.88 11.71 22.10 22.39 23.88 27.50 26.31 24.94 24.43 25.02 24.42 26.75 27.97 26.68 26.61 25.37 24.23 21.31 22.25 24.37 21.81 22.15 19.14 19.61 22.44 25.30 24.74 29.22 27.76 28.74 31.79 30.85 31.46 29.65 28.92 28.37
24.28 24.12 18.95 19.43 21.77 17.67 16.15 8.15 10.22 19.99 18.78 8.43 9.07 7.43 8.78 9.06 8.95 6.72 8.89 14.77 12.54 13.61 19.16 20.09 20.41 23.80 21.70 18.91 20.28 23.29 23.40 25.37 23.86 22.58 25.86 22.20 20.08 15.21 19.27 19.62 20.26 21.71 19.72 15.33 18.06 21.58 28.52 30.34 29.57 28.86 29.61 29.21 28.31 27.64
13.50 22.47 20.20 15.98 19.57 10.93 9.19 10.34 15.93 15.03 1.46 3.82 11.61 7.27 0.29 2.57 4.92 9.30 13.74 14.76 10.60 13.04 11.47 12.81 13.78 15.77 19.70 23.96 22.95 22.20 25.51 21.63 20.91 19.75 26.05 22.44 22.49 21.84 18.78 17.34 19.56 20.33 17.99 25.45 28.09 28.79 28.72 28.31 27.92 27.74 27.46 28.16 27.66 27.59
13.37 19.91 24.75 22.40 19.50 15.26 7.06 3.57 7.96 4.40 1.64 6.51 4.99 2.66 3.40 5.34 4.81 13.51 17.70 18.31 20.36 20.44 21.36 21.64 22.41 23.24 25.00 25.09 24.47 24.22 21.25 19.20 22.48 24.50 20.60 20.75 22.16 23.08 21.85 19.38 25.22 26.65 26.65 28.08 26.48 27.95 27.23 27.22 27.13 27.29 27.69 28.01 28.12 28.63
14.13 15.01 17.03 17.81 19.58 14.52 5.91 1.46 3.94 7.08 8.55 13.48 8.20 7.23 9.39 9.75 12.98 18.07 21.80 23.27 21.77 21.22 21.23 21.99 22.41 23.37 23.13 24.04 21.66 17.52 23.29 23.15 21.95 14.08 18.60 25.01 25.44 25.73 23.10 19.75 25.13 27.98 25.75 27.48 28.33 28.59 28.48 28.74 28.22 27.07 27.03 26.69 26.81 28.58
22.63 18.67 16.08 15.60 8.35 6.72 11.18 12.61 11.32 14.95 19.53 17.10 13.27 9.05 12.46 17.35 17.98 17.78 19.33 18.44 15.25 18.81 19.66 17.87 19.79 13.10 18.19 18.78 20.67 29.33 26.29 26.20 27.45 25.19 23.47 23.18 15.34 21.87 22.29 19.87 22.64 27.11 27.76 27.41 28.18 28.33 26.78 21.61 20.08 21.11 21.30 24.37 26.68 28.02
20.15 18.89 13.20 8.91 12.05 14.22 17.39 21.43 14.95 12.28 14.37 17.06 17.35 18.81 18.37 16.36 12.58 14.60 14.95 16.11 18.79 20.42 22.68 22.66 24.47 23.83 25.12 25.31 26.68 25.84 22.47 22.50 23.81 24.41 22.76 17.42 15.88 14.47 14.38 15.44 16.23 20.24 23.24 26.20 27.07 26.34 25.56 11.89 13.34 14.90 17.68 19.05 18.26 18.42
11.92 15.15 17.23 14.84 11.91 12.07 14.91 5.88 1.90 3.76 3.85 10.32 9.96 16.56 21.92 14.51 13.85 7.99 13.36 9.49 11.30 11.80 12.98 11.85 13.00 14.34 14.19 15.33 16.31 18.49 20.93 17.75 18.06 15.91 15.60 15.45 15.40 15.06 13.95 12.68 11.51 12.44 16.39 19.76 23.16 24.05 16.91 11.92 8.40 5.59 10.25 18.82 15.37 13.59
17.76 11.72 10.78 6.90 9.55 8.75 2.55 10.52 2.72 3.94 5.22 3.76 18.04 2.67 5.12 6.69 1.10 7.45 13.35 10.86 10.58 10.69 10.88 11.52 11.03 11.98 15.79 18.01 18.71 18.49 18.37 16.71 16.69 16.16 16.05 15.58 14.86 12.69 10.81 8.47 5.70 6.84 6.28 9.97 12.47 8.56 8.47 7.39 5.10 4.69 4.59 7.47 7.41 7.57
3.77 1.80 5.81 0.19 5.80 6.35 2.08 4.33 1.92 5.27 -1.13 -2.89 -0.45 -0.37 -1.98 3.74 5.78 10.57 14.79 14.73 13.20 11.53 10.77 12.00 14.57 15.89 17.50 16.36 15.85 16.04 16.15 15.85 15.81 14.62 13.68 14.60 10.72 8.36 4.75 2.48 0.03 -0.49 -0.47 0.61 1.49 0.66 2.71 1.41 0.96 0.96 1.78 2.10 2.45 2.78

GFSWCAN_sfc_wetblb_003.txt.gz
Wetbulb
49.50 49.03 49.42 49.55 49.42 49.61 49.88 49.95 49.93 50.29 50.09 49.83 49.88 50.31 49.94 49.70 50.00 52.05 50.37 49.75 47.36 39.63 43.37 46.58 45.55 42.12 41.88 40.67 37.92 40.36 40.27 38.67 37.13 33.37 33.19 32.96 31.11 33.22 32.39 33.61 31.24 31.39 30.15 27.62 28.00 26.96 25.36 38.34 38.66 36.57 40.30 40.58 41.44 41.20
49.10 49.44 48.99 49.05 49.12 49.33 49.54 49.76 49.78 49.73 49.65 49.39 49.48 49.61 50.19 50.02 50.12 50.76 49.89 49.58 48.61 45.64 44.88 48.91 50.61 49.21 48.04 46.09 42.42 39.32 41.36 39.18 39.84 34.87 33.47 32.98 31.53 29.04 31.66 32.02 35.04 31.96 35.14 33.37 33.32 33.85 39.34 40.35 41.56 43.07 42.11 41.12 40.13 39.55
48.08 48.59 49.03 48.59 48.68 48.88 49.20 49.18 49.09 49.10 48.85 49.10 49.02 49.20 50.04 49.97 50.18 50.47 49.10 48.07 45.70 38.84 43.13 45.77 45.95 48.89 51.66 49.80 49.67 42.55 38.90 42.84 40.67 41.73 36.93 34.33 33.37 33.76 31.36 31.64 33.85 37.07 38.96 36.30 35.51 39.95 40.41 42.38 43.08 43.50 42.25 41.43 40.37 40.74
47.49 47.53 47.76 48.65 48.41 48.45 48.77 48.77 48.68 48.66 48.68 48.74 48.57 48.88 49.48 49.64 49.59 49.55 48.93 46.95 45.43 39.66 34.28 40.70 45.74 46.67 50.13 51.34 50.52 49.18 45.68 44.05 42.38 40.56 34.46 33.37 33.19 39.57 34.40 38.51 37.21 40.18 39.81 37.11 36.42 41.02 41.34 41.81 43.04 44.30 41.37 41.59 40.00 40.40
47.11 47.09 47.11 47.36 48.07 48.23 48.43 48.61 48.37 48.43 48.85 49.35 48.20 48.74 48.79 49.69 49.50 49.28 48.93 49.65 48.45 46.72 36.71 38.02 44.26 46.58 47.54 49.09 49.06 47.89 46.64 44.30 41.51 37.36 34.28 35.18 37.84 37.56 36.09 34.99 34.40 40.80 39.71 37.17 36.36 41.39 41.72 41.38 43.27 43.06 40.10 39.27 39.09 37.76
46.74 46.99 46.99 47.08 47.06 47.71 47.87 48.07 48.20 48.25 48.23 48.41 48.92 49.06 49.69 49.12 49.13 49.00 45.21 47.85 49.25 49.38 38.96 35.91 42.05 41.29 43.51 46.25 46.71 45.99 46.24 44.45 43.49 40.73 35.55 39.98 43.01 39.88 33.01 32.77 40.12 42.08 43.82 44.21 41.69 42.81 41.22 40.62 40.47 40.38 38.12 37.51 37.51 37.64
46.54 46.57 46.72 46.66 46.79 47.09 47.49 47.55 47.87 48.05 47.85 48.23 48.40 48.74 48.92 48.53 51.32 48.37 44.04 46.06 48.30 47.22 37.00 35.00 35.47 37.64 40.76 41.82 41.23 41.43 43.13 43.13 43.74 41.59 36.80 38.17 39.70 41.34 33.19 33.91 40.30 42.08 42.99 42.47 42.47 41.15 36.79 37.56 36.32 38.06 38.23 37.76 37.22 36.73
46.38 46.16 46.21 46.36 46.39 46.46 46.86 46.95 47.49 47.83 47.98 48.00 48.21 48.41 48.56 48.64 48.60 47.13 48.48 48.39 48.26 44.26 40.21 34.20 34.46 34.86 40.30 36.16 35.53 39.09 37.31 39.83 41.69 41.13 37.34 36.81 37.55 36.45 33.84 39.33 38.85 38.69 40.35 39.05 38.56 39.68 38.76 37.75 36.62 36.25 36.90 36.15 34.68 33.77
45.96 45.45 45.61 45.79 46.32 46.41 46.45 47.11 47.29 47.62 48.12 48.21 48.00 48.48 47.98 46.26 42.76 45.16 47.56 47.79 47.58 44.17 37.00 33.37 33.55 33.73 39.73 36.80 35.62 35.25 36.76 33.91 37.99 33.55 34.44 36.67 34.46 33.41 35.97 34.84 35.74 36.40 37.42 35.94 36.22 34.99 35.54 35.14 35.62 35.77 35.33 34.77 33.29 32.86
46.05 45.57 45.27 45.64 45.57 45.73 46.27 46.80 47.17 47.47 47.92 48.01 46.84 43.41 36.07 39.66 46.97 47.27 44.13 40.77 38.22 37.51 37.54 33.55 36.28 34.82 40.57 34.64 34.09 34.82 33.37 32.83 32.46 33.82 34.90 32.28 32.86 35.81 34.64 36.74 36.94 36.16 36.59 36.51 33.59 32.81 33.99 33.62 33.66 33.77 33.70 34.46 33.30 32.33
46.25 45.66 45.27 45.62 45.59 45.52 46.25 46.80 47.31 47.11 46.75 43.06 37.85 35.35 42.18 46.62 42.76 38.70 33.69 34.35 34.55 33.01 34.58 34.33 34.21 34.58 38.08 34.35 33.19 32.81 31.92 32.10 28.12 28.88 31.28 29.94 29.59 32.10 33.75 33.56 34.38 34.87 35.67 35.41 35.78 35.25 34.56 33.39 32.69 32.68 32.78 33.16 32.42 31.62
46.68 45.84 45.41 45.85 45.98 45.49 46.68 46.89 46.40 44.63 43.30 43.36 42.44 43.77 42.01 40.01 35.47 33.49 31.72 31.68 32.42 31.42 32.95 32.98 33.49 36.02 34.25 38.22 33.08 31.68 29.83 29.59 22.80 29.18 29.04 26.01 29.39 32.51 33.83 34.07 34.42 34.40 34.03 33.39 33.59 32.64 32.41 32.07 32.65 31.83 31.63 31.25 30.75 30.43
46.05 45.44 45.47 45.57 45.40 45.46 46.04 46.18 45.84 45.61 44.38 42.18 38.85 34.92 36.40 33.11 31.35 30.90 28.44 29.88 30.59 32.45 32.96 33.14 32.07 33.35 33.55 34.45 31.24 29.45 25.55 24.86 26.78 25.19 23.89 26.34 30.20 30.47 31.34 32.61 33.30 33.88 32.23 31.04 32.26 32.23 32.36 32.04 31.33 28.56 28.71 29.30 28.33 28.85
45.53 45.20 45.41 45.75 44.97 45.24 45.61 45.85 45.38 42.69 39.78 33.76 32.99 30.67 29.75 29.28 30.04 26.46 26.22 27.30 29.81 32.81 33.01 32.99 30.71 31.04 29.72 28.71 27.45 24.59 23.67 24.11 22.17 19.77 20.77 25.94 29.24 29.96 30.87 31.97 31.57 31.49 26.90 26.85 30.04 30.90 29.26 27.96 27.76 27.46 25.22 26.20 25.53 26.71
45.39 45.05 45.46 44.51 44.45 44.68 44.64 44.72 43.86 42.21 34.79 29.58 29.94 26.91 28.62 27.65 31.39 32.42 32.64 33.01 32.63 33.82 33.16 31.32 30.09 30.26 25.61 24.67 24.34 22.44 22.34 20.15 21.10 20.96 23.91 27.29 29.93 30.54 30.94 30.82 30.96 28.21 25.86 26.59 30.96 29.35 27.09 26.33 26.17 27.24 28.48 28.09 28.42 26.22
45.53 44.74 42.03 43.95 43.89 44.61 43.83 43.04 41.95 37.34 30.74 29.14 26.21 24.77 27.72 27.01 28.82 31.90 32.28 32.10 34.00 32.21 30.97 29.53 24.29 25.47 23.26 22.56 21.00 18.55 18.29 17.11 21.87 22.64 25.39 27.27 29.57 30.44 30.63 30.00 29.69 30.01 29.20 29.63 30.05 29.26 28.84 26.66 25.34 28.89 28.47 27.66 26.46 25.98
44.99 40.50 44.11 43.78 42.78 41.55 41.59 37.48 35.91 30.33 27.72 23.76 21.87 25.85 24.07 24.67 27.93 30.16 32.24 33.19 34.60 32.10 26.11 24.44 22.33 22.26 21.28 18.03 18.45 20.25 18.00 22.09 22.94 24.83 25.55 27.47 29.71 30.37 30.49 29.56 27.19 27.87 28.96 29.40 29.75 29.33 29.04 28.79 26.08 25.46 26.43 30.15 29.65 29.29
40.90 43.48 44.04 43.36 41.08 39.85 36.32 33.10 29.52 27.83 23.05 23.87 23.01 26.41 27.64 26.93 24.93 25.00 30.81 32.04 32.90 29.43 27.15 24.43 23.43 17.27 16.41 16.26 18.13 21.16 22.79 23.66 23.68 25.12 27.66 28.67 30.39 30.62 30.59 30.00 30.45 30.21 30.14 29.87 28.44 27.84 27.32 25.70 27.37 29.21 29.17 29.90 29.10 30.29
42.83 42.97 43.36 42.36 39.74 32.65 30.27 29.84 29.50 22.27 20.49 21.25 23.42 26.01 26.23 27.14 27.42 27.23 27.76 30.69 32.51 30.65 26.88 23.16 18.08 18.98 20.03 21.34 22.19 20.51 19.89 21.45 25.39 27.38 28.01 29.34 29.33 29.12 28.91 29.31 29.03 29.41 29.63 29.19 29.54 29.66 29.42 28.25 27.89 28.69 29.54 29.81 29.59 30.42
42.43 41.46 40.72 40.29 38.56 29.55 26.43 24.95 28.37 24.17 21.21 23.63 23.93 25.58 22.91 24.31 27.10 27.83 29.63 30.81 31.94 31.91 29.01 25.87 23.17 23.93 22.81 24.08 24.63 25.32 25.83 25.27 24.82 25.15 27.39 27.78 29.08 28.95 28.90 29.75 30.12 30.70 30.32 29.73 28.11 24.18 27.25 28.72 29.91 30.67 29.93 29.66 30.35 29.93
40.02 39.91 38.94 36.75 31.39 29.41 26.70 23.94 22.64 23.49 24.18 22.10 21.84 21.74 20.05 26.29 25.85 26.25 27.45 30.78 29.00 27.33 25.41 25.93 24.60 27.12 27.18 27.24 27.90 28.11 27.79 27.42 27.03 26.93 27.25 27.33 29.37 28.63 29.19 29.83 30.11 28.77 27.64 27.50 25.92 26.89 24.06 28.61 30.39 31.19 30.21 30.37 31.34 31.64
38.17 39.47 33.85 31.85 26.10 24.69 23.69 24.17 22.88 22.42 20.47 18.87 18.34 19.27 12.80 13.93 22.43 24.44 27.72 26.74 25.92 25.41 26.43 25.78 27.21 27.74 27.79 27.79 28.74 29.10 29.48 29.30 29.38 28.65 26.16 26.88 26.67 27.49 27.13 28.25 26.68 27.54 26.75 27.06 27.23 27.03 28.26 28.95 30.82 30.73 30.12 30.98 31.93 31.55
37.05 34.10 27.67 24.07 21.29 17.42 20.96 23.73 16.97 19.19 14.35 14.53 15.09 14.10 11.27 10.22 15.50 25.27 22.50 25.28 25.20 26.31 27.66 27.33 28.46 29.55 28.74 29.39 27.65 28.76 28.98 28.56 28.03 27.89 27.22 27.33 28.06 28.19 27.53 27.69 26.44 25.65 25.73 27.49 27.42 27.66 27.27 30.14 30.55 30.60 31.45 32.02 31.72 31.59
34.01 25.87 20.70 17.16 13.78 15.79 24.55 16.34 20.98 19.90 14.87 13.89 11.35 14.52 11.99 13.06 19.66 20.03 18.76 17.32 22.42 23.68 25.10 28.00 27.80 26.88 26.26 25.52 25.83 27.35 28.58 28.36 27.85 27.21 27.04 26.19 26.47 27.78 28.03 27.76 26.75 25.55 26.58 28.61 26.92 26.99 28.61 29.82 27.68 30.91 30.33 28.41 28.34 29.50
23.86 22.87 18.78 16.80 18.64 17.17 10.39 17.77 19.31 21.00 17.55 17.83 15.06 13.07 9.81 12.58 10.12 13.25 16.03 17.43 16.32 18.04 20.36 20.41 21.41 25.25 24.15 23.32 23.01 25.02 24.49 27.01 26.56 25.84 28.62 25.51 26.94 25.07 26.71 26.74 24.80 25.72 26.95 26.04 26.34 26.12 26.77 29.81 30.99 29.94 28.14 27.77 27.44 27.84
15.50 22.53 12.87 9.65 11.30 11.46 8.64 14.84 16.59 17.15 11.26 11.25 15.24 8.00 3.69 6.21 7.34 11.30 15.29 17.75 15.97 17.82 17.18 18.30 20.48 20.69 22.01 24.49 25.11 25.16 27.26 25.55 25.45 24.68 28.08 26.80 26.06 25.89 26.28 25.29 24.82 26.52 27.58 27.01 27.42 28.50 28.32 28.43 28.28 27.92 27.99 28.39 28.05 27.44
16.08 19.69 22.79 21.41 18.26 14.07 6.67 6.92 10.18 5.87 10.89 10.89 7.21 4.73 4.94 6.80 6.14 15.11 19.31 19.95 22.04 22.32 23.01 23.65 24.32 24.45 26.09 27.36 25.68 25.69 25.07 23.52 25.10 27.17 26.15 25.11 26.18 25.81 26.15 26.95 27.13 29.06 29.78 29.51 29.50 28.07 27.21 27.34 27.54 28.17 27.68 27.69 27.74 27.29
14.63 13.49 13.53 19.07 17.77 12.23 5.74 1.79 4.16 8.84 10.34 13.88 9.52 8.68 9.84 10.82 13.88 19.52 21.63 22.49 20.65 22.41 23.14 22.41 22.06 23.12 23.84 25.13 24.92 24.11 24.19 26.44 26.85 25.97 23.71 25.82 26.80 25.41 25.15 25.00 26.12 26.23 28.05 28.30 28.77 28.73 28.39 28.01 27.50 25.58 26.11 26.56 25.63 27.29
19.52 14.98 15.21 18.93 17.05 16.69 10.26 14.70 14.90 16.24 18.80 15.21 12.21 8.69 13.27 18.23 16.73 16.19 17.58 17.25 18.27 21.99 21.75 21.69 23.49 22.11 23.58 26.72 28.37 27.97 27.74 27.49 26.26 25.32 26.57 25.49 24.39 22.88 19.13 20.05 20.26 21.71 23.81 25.85 27.29 28.50 28.98 27.14 25.48 24.36 24.15 24.03 23.56 22.97
18.91 14.68 10.55 10.35 10.83 12.83 17.16 18.78 15.43 13.29 15.00 16.24 16.43 18.18 18.18 13.19 13.90 13.03 13.12 12.43 12.04 12.08 14.01 16.24 17.80 18.00 17.49 16.47 16.30 19.11 19.52 19.29 18.76 19.53 20.40 20.62 17.14 15.97 16.36 16.34 16.64 17.39 18.13 19.95 22.49 25.20 26.65 21.55 19.69 18.76 18.14 19.85 16.97 16.35
11.49 17.70 14.44 12.65 10.59 12.56 12.09 3.26 0.66 2.69 3.69 9.09 5.61 15.56 18.18 11.89 11.59 9.10 12.07 8.58 6.10 7.13 10.22 9.53 10.03 12.62 13.34 13.46 14.77 15.88 17.65 17.84 18.00 17.41 17.36 16.50 15.59 14.71 13.82 13.21 13.15 12.72 13.04 14.59 21.10 21.57 18.76 15.76 13.27 12.00 11.89 11.24 10.13 9.78
19.91 17.11 14.15 12.52 10.47 6.33 4.18 9.98 0.91 3.03 0.91 3.04 7.70 -0.35 3.67 6.37 1.46 7.75 11.67 10.45 9.57 8.99 9.82 10.35 10.22 11.83 15.62 18.01 16.92 16.37 15.62 14.53 13.21 13.42 13.91 13.78 12.89 11.83 10.50 9.43 7.67 7.56 8.53 9.10 9.88 11.02 9.81 8.76 8.10 7.55 7.35 6.43 6.04 5.82
14.52 14.82 14.09 11.02 11.05 7.81 1.83 2.33 2.58 6.10 1.00 -2.36 -2.46 -2.36 -1.07 0.66 -1.67 5.26 8.64 10.98 10.19 8.53 7.21 8.58 11.47 16.04 14.91 13.61 12.73 12.91 12.62 12.54 12.30 11.05 9.98 9.80 8.13 5.87 5.33 4.21 3.25 3.62 5.10 5.57 5.21 5.33 4.95 4.52 3.94 3.40 2.86 2.67 2.30 1.93

GFSWCAN_sfc_wetblb_006.txt.gz
Wetbulb
49.42 49.36 49.57 49.61 49.53 49.57 49.74 49.77 49.79 50.29 50.67 50.38 50.48 50.26 50.06 50.00 50.32 56.64 55.53 55.27 55.04 49.65 49.69 50.32 50.02 48.54 48.49 50.52 47.80 47.78 47.62 46.94 44.94 38.30 36.31 39.00 35.59 40.20 37.93 39.45 37.49 36.82 36.58 33.63 33.68 29.97 28.70 43.17 42.94 37.44 43.32 44.03 42.25 42.51
49.23 49.48 49.21 48.99 48.80 49.16 49.35 49.44 49.54 49.87 50.19 50.03 50.00 50.04 50.23 49.88 49.88 52.51 56.35 54.65 54.59 54.53 51.61 53.58 53.93 53.12 53.13 53.16 50.85 49.19 48.21 47.71 49.43 43.55 39.16 37.35 34.14 33.77 39.13 35.96 41.83 36.37 40.31 38.21 37.20 39.06 45.89 46.91 44.61 46.07 44.35 42.80 44.39 42.68
47.83 48.32 48.80 48.36 48.45 48.74 48.92 49.13 48.97 49.23 49.28 49.49 49.66 49.86 50.45 50.17 49.98 52.87 56.41 55.57 55.31 51.09 51.59 53.01 51.67 53.44 55.91 54.49 56.21 50.54 49.59 49.72 48.42 49.58 46.17 40.84 35.04 42.10 33.77 37.55 40.03 43.12 44.60 40.23 39.80 43.14 44.78 46.47 47.58 46.86 45.32 43.15 42.37 42.51
47.12 47.22 47.62 48.04 48.35 48.29 48.51 48.68 48.63 48.70 48.71 48.90 49.23 49.28 50.01 50.13 49.89 51.58 55.92 53.68 53.99 47.97 37.04 48.80 50.12 51.25 53.47 55.80 55.48 55.13 52.02 50.34 49.63 50.35 38.49 36.49 37.40 45.48 38.54 43.88 41.81 44.24 44.18 41.14 40.52 44.27 45.19 45.39 45.71 44.56 43.88 42.42 41.84 42.60
46.76 46.87 46.96 47.19 47.64 47.95 48.24 48.25 48.29 48.43 48.40 47.78 48.76 48.62 49.34 49.87 49.82 55.07 56.64 55.46 55.47 54.16 43.93 48.02 49.43 49.87 51.55 53.93 54.26 54.04 52.99 51.19 48.30 42.11 35.95 38.62 44.59 43.56 42.27 40.49 40.73 45.60 43.20 39.45 37.41 43.34 43.89 42.42 43.03 44.48 43.04 42.01 41.39 39.76
46.47 46.49 46.54 46.76 47.03 47.35 47.60 47.73 48.04 48.09 48.43 48.87 48.94 49.28 50.03 49.61 50.08 56.71 53.72 55.59 55.40 55.88 48.43 42.29 49.41 47.45 49.22 51.87 52.52 52.24 52.56 51.57 50.99 45.08 40.81 45.20 47.75 46.25 35.04 35.34 42.57 46.50 47.52 46.34 43.15 43.46 43.69 43.27 42.65 43.75 41.24 40.29 40.21 39.64
46.40 46.33 46.34 46.58 46.65 46.85 47.40 47.21 47.68 47.80 48.31 48.27 48.63 49.14 49.34 48.90 56.33 53.59 51.64 52.01 50.82 55.79 45.01 41.75 43.65 45.17 45.32 47.89 47.62 49.65 50.10 50.88 48.34 46.79 42.73 44.99 46.40 44.97 35.59 34.86 43.36 44.90 44.56 44.38 44.02 42.17 40.33 41.79 41.01 41.11 40.03 39.90 40.92 41.18
46.36 46.01 45.83 46.06 46.31 46.45 46.74 47.01 47.19 47.91 47.87 48.07 48.25 48.47 48.56 48.50 49.72 51.53 53.41 49.94 52.25 49.54 46.34 38.49 38.12 42.10 44.98 42.47 40.00 42.79 42.16 45.21 46.06 45.21 40.64 42.60 43.01 42.86 36.13 42.83 42.18 41.11 40.65 41.19 41.79 43.44 42.87 41.68 40.62 39.99 41.08 40.60 38.75 38.09
45.67 45.76 45.47 45.47 46.13 46.27 46.40 47.03 47.13 47.51 48.02 48.22 48.06 48.34 49.21 48.04 45.18 47.60 47.65 49.55 51.92 50.69 42.42 36.31 35.77 35.59 44.25 39.72 39.88 40.55 42.81 37.40 42.08 36.49 37.86 40.38 36.85 34.79 40.32 40.46 38.00 38.83 40.08 39.27 40.74 40.83 40.14 38.72 38.51 38.69 38.23 37.51 36.35 36.36
45.16 45.73 45.36 45.36 45.40 45.43 46.35 46.90 47.30 47.31 47.84 48.15 48.09 44.85 36.84 41.71 47.40 48.14 46.61 45.01 42.21 40.66 41.21 37.22 44.15 40.08 44.15 37.68 36.49 38.29 38.49 36.48 34.50 35.26 37.30 32.87 33.72 37.24 37.57 39.53 39.53 40.15 40.95 40.45 37.53 35.92 36.66 35.85 35.54 35.61 35.80 36.49 36.41 35.93
45.74 46.15 45.37 45.47 45.92 45.45 46.60 46.97 47.15 47.44 47.24 44.09 38.47 36.31 42.77 46.74 44.23 40.82 35.75 36.29 35.74 33.59 36.38 35.31 36.20 35.92 39.54 37.70 35.77 35.59 32.87 33.77 32.68 34.85 34.69 33.86 34.33 37.46 39.14 40.16 40.49 41.09 41.16 39.75 38.93 37.61 36.79 36.37 35.43 35.46 35.55 35.78 35.40 34.92
46.04 46.13 45.50 45.58 46.08 45.71 46.68 46.68 46.85 45.51 44.02 43.91 43.02 44.30 42.79 40.36 35.51 34.65 32.87 32.14 33.05 33.26 34.09 34.09 34.77 36.89 35.04 39.75 35.89 33.03 33.05 32.84 30.57 35.97 31.41 30.46 36.51 37.69 38.43 38.30 39.01 39.57 38.47 36.51 36.70 35.98 36.53 36.22 36.88 36.04 35.25 34.78 34.88 34.19
43.33 45.29 45.21 45.53 45.69 45.76 46.59 46.51 46.07 45.58 45.30 44.21 39.61 34.12 35.38 33.41 31.78 31.78 30.69 31.78 32.14 35.22 34.66 34.29 32.85 35.93 35.50 36.11 32.32 34.32 31.05 31.00 34.23 28.72 29.52 34.40 36.60 37.97 38.68 38.85 38.42 38.57 36.87 34.93 35.97 36.80 37.20 36.82 36.41 34.11 33.48 33.91 33.35 33.50
43.32 44.44 45.30 45.58 45.21 45.79 45.92 45.81 45.19 44.10 41.79 36.45 33.94 31.42 32.87 31.60 33.33 33.78 35.26 35.40 35.03 35.95 35.59 35.04 32.87 34.75 32.67 30.97 32.47 30.51 29.25 31.19 27.28 25.23 28.20 33.89 35.71 36.31 36.31 36.74 35.89 35.04 34.96 33.29 34.47 35.50 35.02 34.30 33.78 33.74 32.13 32.19 31.30 31.26
43.42 44.53 45.33 45.49 44.64 44.62 44.83 43.84 43.74 43.59 39.10 33.49 35.51 30.26 31.24 31.81 34.32 34.14 35.04 35.59 35.18 36.77 36.19 34.04 32.96 35.44 31.30 29.47 30.30 28.48 26.06 25.24 27.52 28.20 32.94 35.47 34.72 34.90 34.74 34.18 34.63 34.34 33.86 32.84 34.60 34.59 33.68 33.03 32.79 32.93 34.03 34.18 33.71 32.09
44.12 44.85 44.71 44.74 44.52 44.40 43.44 43.34 42.66 39.85 35.37 33.16 32.20 30.39 31.46 32.14 31.60 32.50 33.23 32.87 35.39 33.88 34.45 35.38 32.18 31.05 28.74 30.01 26.75 27.11 25.45 24.61 28.92 33.49 35.87 34.99 33.94 34.16 34.62 35.47 34.29 34.68 33.63 33.34 33.76 33.67 33.64 32.92 32.12 33.37 33.54 32.94 32.22 32.26
43.75 41.94 44.32 43.82 42.38 41.27 41.07 39.85 39.80 32.78 31.71 32.13 30.13 32.20 32.02 32.87 33.77 33.95 35.59 34.32 35.92 34.39 31.75 31.57 29.04 27.69 27.37 26.50 25.67 27.20 26.15 30.59 33.82 33.76 34.41 33.68 33.84 34.62 35.42 34.92 33.59 33.17 32.81 33.38 33.94 34.18 34.06 34.42 33.72 31.72 31.79 33.82 33.72 34.42
41.53 43.86 44.23 43.17 42.94 41.23 38.28 38.20 35.15 32.69 28.98 30.02 30.83 31.22 32.16 32.35 32.68 33.41 35.37 35.43 35.05 32.46 31.66 30.56 28.99 25.66 25.68 24.51 26.39 30.28 31.26 33.98 33.24 33.90 34.17 34.58 34.76 35.16 35.34 34.82 34.66 34.21 33.82 33.78 34.11 33.48 33.24 32.24 32.41 34.35 33.33 33.17 32.10 32.41
43.21 43.87 43.78 43.18 42.79 39.48 35.21 34.32 33.83 29.26 28.38 30.15 29.91 31.12 31.60 31.77 31.13 31.40 33.17 33.68 35.68 35.26 32.30 31.39 28.65 26.94 27.03 28.35 31.51 32.84 33.44 33.58 33.60 34.25 34.30 34.62 34.43 33.61 33.40 33.65 32.84 32.81 33.51 33.76 34.20 34.96 35.68 34.63 34.14 34.23 33.97 33.50 30.60 32.13
43.53 42.28 40.62 39.97 41.10 37.24 32.52 32.06 34.84 31.35 29.29 29.93 30.36 30.82 30.67 30.17 30.49 31.39 32.87 34.94 34.96 35.27 32.27 30.34 30.24 31.71 31.96 33.25 33.65 34.77 34.63 34.58 33.04 31.42 31.88 33.78 34.29 33.72 33.31 33.91 34.18 35.18 34.71 34.65 34.95 32.37 33.53 34.53 35.93 35.67 35.12 33.87 32.30 31.55
38.18 39.66 39.25 39.22 35.56 34.38 32.36 31.21 31.05 31.27 30.61 30.25 29.09 31.59 28.47 30.07 29.55 29.76 30.63 33.11 32.23 31.63 30.22 32.92 34.20 35.31 34.38 33.80 34.15 34.46 33.73 33.61 32.53 32.92 32.20 32.06 34.75 34.70 34.07 34.58 34.62 34.48 33.77 34.38 34.45 34.79 32.31 34.18 35.51 35.02 34.07 32.68 32.58 33.41
37.21 39.64 35.58 34.98 31.71 31.28 30.10 30.89 31.55 30.59 30.94 29.67 30.01 30.52 29.39 28.31 27.28 27.92 31.05 28.78 29.07 31.46 33.62 34.02 34.30 34.67 33.93 32.50 33.87 34.13 34.38 33.97 33.99 33.67 32.01 32.55 32.51 33.59 34.13 34.65 34.10 34.37 34.59 35.29 35.06 34.68 35.00 35.45 35.01 34.44 33.03 32.13 32.02 33.39
37.86 36.00 32.36 32.41 28.60 29.04 26.20 30.85 28.38 27.50 26.53 27.03 28.21 26.89 26.99 27.96 26.96 28.08 25.76 27.91 29.85 33.25 34.30 34.14 34.33 34.38 33.60 34.48 33.38 33.62 33.54 32.89 33.46 34.29 34.36 34.43 34.78 35.39 34.53 34.78 35.23 33.50 33.41 34.88 35.69 35.10 34.58 32.97 33.31 32.82 33.59 32.58 32.10 30.75
35.58 31.00 27.94 26.18 27.35 23.90 28.99 25.51 27.95 26.28 27.10 25.07 25.09 21.26 22.20 25.94 24.95 23.74 22.47 25.87 30.20 32.33 31.41 32.21 33.42 33.14 33.36 30.91 31.82 33.32 33.93 34.36 34.49 34.86 35.31 33.99 33.59 34.35 35.62 35.40 35.41 35.05 34.21 34.24 34.43 34.49 33.98 32.50 32.22 32.60 32.14 31.66 30.65 30.50
29.35 25.52 26.43 22.25 25.73 23.01 22.17 22.98 23.03 24.73 21.52 22.30 19.90 21.42 22.22 22.96 22.71 21.71 21.89 27.59 30.88 31.32 32.64 32.09 31.16 31.73 31.82 33.33 33.53 33.93 32.95 33.64 33.68 33.16 35.66 35.44 34.31 33.96 34.04 35.23 35.79 34.81 34.68 31.60 31.60 32.14 32.14 32.14 32.14 31.78 31.14 30.72 29.67 29.98
21.39 24.27 22.93 22.21 22.23 22.19 22.17 19.64 20.32 21.15 21.54 19.33 20.89 21.64 21.95 23.78 20.96 21.70 25.16 30.39 31.75 32.41 33.64 34.46 34.57 32.50 31.99 32.56 32.20 33.18 34.88 34.48 33.40 32.06 33.81 34.91 33.42 32.30 30.87 30.78 31.08 32.89 34.15 33.24 31.78 30.68 30.64 30.10 29.70 29.26 29.18 28.99 28.35 28.01
20.16 21.59 26.12 26.14 25.04 22.13 20.65 20.24 21.06 21.55 18.59 18.85 22.77 19.48 21.79 19.14 20.33 25.75 29.78 28.53 29.59 28.94 29.78 30.48 29.75 29.73 29.86 30.50 31.65 32.64 33.05 32.79 31.63 31.86 32.94 31.48 31.44 31.13 29.97 28.83 28.96 31.00 31.93 32.32 31.60 30.87 29.69 28.93 28.93 29.04 29.02 29.39 28.69 28.22
24.29 25.40 20.74 23.49 23.13 24.18 20.92 20.99 20.77 20.03 23.32 24.18 23.40 19.61 20.48 21.82 23.69 26.51 25.29 24.53 24.33 26.50 28.31 29.06 28.59 26.88 27.46 28.53 28.69 28.54 28.34 29.54 30.23 31.28 31.24 30.69 30.03 29.95 27.72 28.21 28.22 26.26 29.36 30.51 30.49 30.59 30.11 29.62 28.96 27.82 27.63 27.88 27.96 28.04
25.91 25.41 25.31 20.55 20.78 21.91 23.07 23.77 24.30 26.19 27.27 25.43 24.63 24.34 24.95 25.05 20.10 19.63 20.27 20.09 22.59 23.05 21.83 21.12 22.58 23.18 25.28 25.14 26.41 26.09 25.06 24.21 23.05 22.67 23.71 25.83 29.38 23.78 23.59 23.94 24.51 24.97 25.38 26.17 26.36 27.42 27.98 28.51 26.97 26.48 26.64 26.65 26.25 26.20
24.42 26.79 24.12 20.87 19.91 21.89 27.78 28.28 28.96 28.29 27.38 28.72 28.39 26.88 24.26 18.53 16.78 19.08 18.43 17.95 17.02 16.71 17.34 18.11 18.26 18.55 17.79 18.45 19.54 21.81 22.24 21.59 20.28 18.68 18.24 18.19 18.10 20.05 20.57 20.33 20.39 21.11 21.57 22.68 24.02 25.80 25.99 25.76 24.80 25.15 23.56 22.66 20.97 20.25
25.81 25.48 24.55 24.22 23.56 28.01 26.52 21.66 23.09 22.85 24.81 27.41 27.03 27.98 27.26 15.77 15.53 15.97 14.76 16.07 16.13 15.97 15.21 14.84 16.10 17.81 17.52 16.98 16.36 16.50 17.04 18.13 16.40 16.50 16.68 18.51 18.29 17.82 17.28 16.56 17.36 17.74 18.92 19.97 21.29 22.37 21.23 21.65 20.30 19.03 17.13 15.04 13.73 14.10
24.90 24.02 23.96 20.88 24.44 23.80 22.01 22.57 23.40 24.08 25.52 24.00 25.84 20.33 18.25 18.12 11.85 12.34 12.95 14.35 13.61 11.65 10.85 12.25 12.53 14.38 16.40 17.14 16.71 16.72 14.43 14.92 14.61 13.50 12.33 13.32 13.74 13.56 13.84 13.73 13.95 15.02 16.20 17.34 17.64 17.24 16.42 16.09 15.29 14.71 13.63 11.64 10.21 9.50
20.23 20.32 20.06 20.37 21.08 22.10 20.62 19.28 19.46 18.63 19.98 19.57 17.86 17.06 13.82 13.52 6.69 10.19 14.21 14.28 12.82 11.43 10.65 11.68 13.22 14.45 16.64 14.96 14.16 14.68 13.94 14.31 12.98 11.85 9.97 9.65 8.27 7.73 9.16 10.56 10.72 12.28 13.22 14.05 13.64 13.75 12.38 11.27 10.59 9.35 7.80 6.72 5.86 4.96

GFSWCAN_sfc_wetblb_009.txt.gz
Wetbulb
49.39 49.91 50.01 49.65 49.70 49.91 49.89 50.15 50.49 50.99 51.05 51.07 51.05 50.72 50.41 50.19 50.65 57.09 58.91 59.47 58.57 53.87 52.62 53.46 53.70 52.64 52.82 52.84 49.22 51.53 49.79 50.11 49.61 38.95 39.67 41.95 38.17 42.28 40.51 42.08 39.37 37.68 36.97 33.53 35.85 32.44 29.99 45.98 44.70 39.08 44.95 47.47 46.41 44.38
49.20 49.25 49.71 49.18 49.00 49.18 49.53 49.65 49.81 50.15 50.60 50.55 50.82 50.61 50.82 50.13 50.37 52.13 59.46 58.94 59.33 57.45 54.62 56.62 56.16 56.24 56.35 56.32 53.77 52.88 50.58 50.40 50.70 47.13 43.51 43.06 36.38 37.81 40.42 37.32 45.25 38.48 42.30 40.52 40.13 40.17 47.00 47.45 46.48 49.04 47.95 45.89 45.25 43.21
47.88 48.48 48.93 48.88 48.75 48.70 48.91 49.07 49.24 49.69 50.20 50.21 50.27 51.67 50.90 50.54 50.50 52.52 60.31 60.00 59.98 56.03 54.77 54.51 53.13 55.99 57.46 57.78 59.60 52.16 53.82 53.27 52.42 54.94 48.98 43.80 35.14 44.29 35.30 40.32 44.17 45.12 47.81 43.05 42.02 44.62 45.55 46.31 48.03 48.08 47.48 45.56 44.02 43.44
47.32 47.23 47.68 48.37 48.59 48.48 48.64 48.55 48.60 49.09 49.47 49.66 49.98 50.31 50.76 50.27 50.46 51.55 59.30 58.51 58.50 53.07 40.21 52.36 54.12 54.42 56.37 58.34 57.69 58.09 55.65 55.29 54.96 53.42 42.50 38.40 38.76 48.49 41.73 45.06 43.90 46.18 46.54 43.90 43.41 46.06 46.14 47.64 46.63 46.68 45.50 45.49 44.90 45.60
46.80 46.87 46.87 47.11 47.75 48.53 48.33 48.10 47.99 48.31 48.60 48.71 49.06 49.02 49.92 50.69 50.90 57.60 59.76 58.79 58.68 55.97 46.78 50.86 52.93 53.14 54.90 56.44 56.08 56.17 55.20 53.35 52.05 44.93 38.22 40.31 48.48 47.70 46.28 43.71 43.26 46.84 45.17 42.80 41.20 46.25 45.00 45.05 46.54 46.70 45.51 44.49 44.19 42.32
46.68 46.55 46.53 46.69 46.93 47.34 47.81 47.68 47.90 47.95 47.76 48.04 49.38 49.34 50.15 50.54 50.77 58.86 54.77 59.12 58.59 58.51 51.97 44.53 52.63 50.77 52.85 54.67 54.82 54.35 54.53 54.13 53.16 48.40 41.84 49.07 51.47 47.94 36.41 38.57 44.99 47.59 48.67 49.17 46.42 47.91 46.26 45.30 44.81 46.03 44.56 43.22 42.85 41.97
46.25 46.43 46.46 46.44 46.42 46.66 47.21 47.48 47.34 47.66 48.04 48.57 48.87 49.20 49.42 49.58 57.17 54.79 52.87 54.25 51.58 59.63 50.00 44.02 47.44 48.85 49.80 52.72 53.32 52.99 53.68 52.84 51.66 48.54 46.12 46.89 48.33 47.69 40.40 38.62 44.73 47.24 48.19 47.77 47.77 45.78 40.50 42.77 42.50 44.00 43.20 42.37 42.62 42.51
46.16 46.10 45.82 45.96 46.46 46.37 46.39 47.11 47.36 47.79 47.97 48.21 48.41 48.61 48.91 48.58 50.02 53.63 56.38 51.94 54.15 55.53 52.65 42.39 41.59 44.89 48.94 46.71 44.89 48.88 47.25 47.90 48.94 48.78 44.41 43.90 47.47 45.04 38.57 44.24 46.65 47.46 45.86 44.04 43.62 43.88 43.11 44.20 43.98 42.59 42.66 41.69 39.37 38.81
45.18 45.41 45.48 45.59 45.71 45.87 46.10 46.85 47.39 47.59 47.97 48.17 48.33 48.57 50.71 50.46 49.26 53.55 48.19 51.22 56.99 53.73 46.57 37.13 37.13 36.59 47.83 42.95 43.20 43.27 44.83 39.13 45.60 39.31 41.28 43.56 40.02 37.72 42.62 44.44 45.09 44.51 43.29 40.74 42.86 43.85 43.36 41.24 40.41 39.85 39.14 38.72 37.70 37.60
45.46 45.66 45.48 45.46 45.62 45.62 46.12 46.89 47.21 47.43 47.77 47.79 48.48 45.98 38.76 43.44 47.90 48.81 52.56 49.64 46.02 47.10 47.78 38.76 46.07 39.60 46.06 40.36 37.86 38.95 40.03 37.99 34.78 38.06 38.63 33.51 34.88 42.86 44.71 44.96 45.46 44.73 45.30 44.75 41.11 39.53 39.41 37.82 37.48 37.53 37.70 38.43 37.99 37.06
45.90 45.80 45.64 45.47 46.01 45.82 47.11 46.78 47.19 47.38 47.47 44.79 39.67 36.39 43.59 47.01 45.72 42.81 37.48 38.22 39.98 36.23 39.31 41.75 42.73 40.65 45.08 38.97 36.59 38.58 35.32 35.14 33.51 35.76 35.36 35.67 35.19 41.16 43.99 42.34 43.37 44.16 44.18 43.61 42.71 40.80 38.78 37.80 37.40 37.26 37.41 37.65 36.80 36.47
45.05 45.78 45.98 45.61 45.83 45.69 47.02 46.71 46.96 46.62 45.11 44.05 43.60 45.01 43.69 40.47 36.49 38.04 33.87 33.51 34.40 35.72 35.95 34.90 37.52 41.35 38.63 41.58 35.12 33.10 32.78 33.69 32.60 39.08 33.91 31.33 39.37 41.89 42.15 42.27 42.86 43.32 42.51 40.20 38.95 37.88 38.10 37.96 38.35 37.96 37.36 36.40 36.35 36.04
43.88 44.56 45.68 45.64 45.66 45.71 46.85 45.80 45.35 45.85 46.51 44.00 37.59 34.02 34.23 32.40 31.15 31.51 30.05 32.60 32.42 33.69 34.09 34.19 32.95 34.75 35.41 37.06 32.96 34.05 32.06 33.14 37.52 31.17 30.91 36.97 40.78 40.97 42.54 42.16 41.44 41.66 39.82 37.01 37.23 38.00 38.21 38.02 37.98 36.43 35.76 36.41 35.42 35.47
43.55 44.40 45.59 45.75 45.11 45.97 45.68 45.63 44.82 44.70 43.97 35.19 32.78 31.69 32.42 31.88 32.78 34.04 35.14 34.59 35.50 35.86 34.78 34.23 33.14 33.69 33.87 33.33 34.05 32.24 32.38 34.19 28.99 27.42 30.99 38.83 39.37 40.80 41.99 41.70 40.54 38.90 36.13 35.23 35.74 36.57 36.68 36.88 36.39 36.42 34.41 34.49 33.45 33.41
43.57 44.25 45.55 45.74 44.96 44.68 43.76 44.04 43.84 45.02 40.27 34.74 35.35 30.97 31.69 33.33 34.23 33.51 34.59 35.32 36.13 38.15 37.31 37.42 36.90 37.99 34.23 32.24 33.96 31.40 28.36 27.52 30.00 31.66 36.24 39.19 40.06 39.95 37.98 37.38 36.80 35.34 35.18 35.30 36.57 35.97 35.41 35.50 35.28 35.13 36.54 36.39 36.09 34.23
43.70 44.91 46.22 45.14 44.71 43.79 43.79 43.82 43.11 42.01 37.92 35.15 33.74 32.06 33.33 33.51 32.42 32.60 33.14 32.96 37.06 37.25 38.72 38.58 34.31 32.96 31.66 33.04 29.43 29.67 29.27 27.63 32.32 36.22 39.10 38.21 36.27 36.50 36.62 37.33 36.93 36.89 35.76 35.70 35.66 35.43 35.44 35.35 34.01 35.37 36.42 35.04 33.87 33.33
43.18 44.40 44.79 43.82 42.69 41.54 42.55 41.58 40.48 34.85 35.21 34.62 32.06 35.68 34.59 34.78 33.87 33.14 35.68 35.82 38.64 36.41 33.14 34.67 30.61 30.16 31.06 29.94 28.92 32.53 30.35 34.31 36.75 37.13 37.85 36.93 36.10 36.37 37.81 37.67 35.56 35.94 35.89 35.79 35.64 35.62 36.04 36.49 36.22 34.97 33.30 36.02 36.54 35.82
43.53 45.59 44.45 43.32 44.81 43.12 39.67 41.84 38.52 36.47 31.64 34.46 33.88 32.95 34.33 35.46 34.41 34.78 36.41 36.96 36.46 34.07 33.87 32.22 32.45 29.02 28.78 27.38 29.74 35.24 35.73 37.42 37.74 36.41 36.30 36.48 37.07 37.18 37.66 37.32 37.70 37.20 35.90 35.74 36.02 35.61 35.46 35.11 34.60 35.65 36.34 36.72 36.28 36.07
44.87 46.18 43.99 43.56 43.95 40.01 36.42 36.69 38.63 32.73 33.05 33.87 32.99 34.54 34.14 33.37 33.94 34.86 35.50 35.03 36.40 36.38 34.58 33.21 31.33 29.39 29.98 31.97 34.05 36.16 37.08 36.58 35.30 36.53 37.25 37.49 36.80 35.54 35.32 35.86 35.66 35.47 35.32 35.21 35.54 36.17 36.69 36.82 36.99 37.44 37.28 36.89 36.11 36.01
42.87 42.99 41.54 40.44 42.04 39.57 34.52 34.72 38.24 34.46 33.03 33.42 33.69 33.51 33.14 32.60 32.95 32.90 34.41 35.32 35.61 35.95 33.21 32.11 32.39 34.05 35.62 36.52 37.46 37.55 37.59 37.76 36.38 34.68 34.49 35.80 37.16 36.27 35.85 35.81 35.83 36.29 36.18 36.27 36.79 34.12 36.89 36.99 37.63 37.78 38.03 36.99 35.32 34.13
39.17 39.74 39.30 40.91 40.73 39.09 36.46 35.48 33.94 34.59 33.79 32.77 32.70 34.91 30.48 31.80 30.84 31.63 32.27 35.49 33.91 33.82 31.88 35.14 37.37 38.21 38.50 38.24 38.25 38.24 37.17 36.79 34.87 34.96 34.22 33.95 36.49 36.55 36.13 36.75 37.09 37.07 36.33 36.59 37.23 36.91 36.27 37.67 37.63 38.27 35.82 34.23 34.23 34.78
37.67 38.65 34.37 36.32 35.31 34.88 33.87 35.39 34.51 35.29 34.38 32.44 32.96 35.16 30.59 29.43 29.36 30.05 32.41 30.62 30.96 34.31 36.18 36.63 37.09 37.53 36.97 36.12 36.84 37.12 37.02 36.49 36.38 35.79 33.12 34.14 34.57 35.65 35.94 36.72 36.72 36.79 37.02 37.81 37.29 37.29 38.01 38.07 38.95 38.56 35.49 32.60 34.22 34.96
37.18 36.06 33.49 33.51 31.14 31.85 28.54 35.63 31.61 31.10 29.34 29.15 31.84 29.22 29.28 29.47 30.43 31.74 28.66 32.08 33.45 36.79 37.75 37.34 37.21 37.18 36.34 36.89 36.21 36.30 36.69 35.79 35.62 35.99 36.32 36.57 36.81 37.88 37.51 37.34 38.26 36.81 36.23 36.66 37.85 38.23 37.91 35.98 36.08 33.64 33.51 33.69 33.45 32.78
36.50 32.19 29.88 29.18 30.89 26.57 31.22 28.27 31.29 29.92 30.52 28.99 28.39 25.57 26.25 29.69 28.65 27.91 26.90 30.97 34.28 36.49 34.98 34.56 35.98 35.32 35.89 34.48 34.71 35.33 36.17 37.08 36.40 36.81 37.28 36.48 35.57 36.02 37.26 36.73 37.67 38.77 37.74 37.82 37.22 35.86 35.85 33.51 32.83 33.26 32.96 32.24 32.24 31.66
30.37 27.26 28.96 24.76 28.73 26.52 25.70 25.61 26.13 27.58 25.11 26.18 25.05 25.45 26.26 28.61 26.31 25.29 25.50 31.23 34.46 34.72 34.46 35.57 35.32 35.21 34.10 34.69 35.27 35.81 36.77 36.55 35.39 34.66 37.18 37.63 37.13 36.96 36.15 36.09 36.60 37.13 38.14 34.59 32.60 32.24 32.24 32.78 32.42 32.06 32.09 31.69 30.08 29.76
24.29 26.20 26.44 26.64 26.03 26.23 26.47 23.56 24.31 24.90 25.66 24.30 25.27 27.12 27.68 27.03 23.92 23.90 28.22 32.48 33.73 32.57 31.06 31.93 33.33 33.59 33.74 34.63 33.41 33.65 34.75 35.86 34.54 32.78 34.67 36.53 35.82 34.75 32.74 30.64 32.39 34.34 37.43 35.68 32.78 31.69 31.79 32.28 31.34 30.68 30.68 30.59 30.03 29.85
23.61 24.59 28.03 29.86 29.28 27.66 26.00 26.39 27.66 26.53 23.36 23.03 25.90 24.58 25.18 21.21 22.51 28.02 31.36 29.49 31.06 29.62 31.20 31.80 31.12 30.97 30.49 30.90 31.62 30.70 30.08 29.75 29.41 29.39 30.60 31.11 31.24 31.37 31.20 30.43 29.84 30.56 30.68 31.73 31.69 31.33 30.79 30.74 29.98 29.80 29.97 30.62 30.84 30.64
27.76 28.58 23.47 26.67 27.72 29.90 25.02 25.61 24.58 24.21 26.36 28.94 28.19 23.27 22.11 23.91 25.78 27.39 26.25 26.18 26.90 28.44 29.54 29.35 28.82 27.21 27.56 26.88 27.09 26.95 26.35 26.38 27.26 29.77 31.35 32.67 32.31 26.69 26.45 27.26 28.37 26.97 28.44 29.64 29.40 29.62 29.86 29.93 29.55 29.75 28.81 28.73 29.41 30.10
27.78 29.23 28.21 22.45 24.87 26.56 26.83 26.59 27.49 29.81 32.04 29.84 27.80 27.04 28.50 25.50 23.10 23.31 23.21 23.99 25.92 25.63 24.40 23.46 24.41 25.04 25.92 25.79 26.49 26.10 23.75 22.51 20.50 18.55 19.18 21.19 22.55 23.36 23.85 23.88 24.16 24.76 24.76 25.12 26.08 27.39 28.02 27.98 27.08 26.59 26.77 27.57 27.00 26.95
26.23 30.40 27.30 24.02 22.82 24.30 30.56 32.85 31.94 31.88 32.62 33.38 32.80 29.51 25.66 21.34 19.60 21.68 21.58 21.72 20.55 19.91 20.72 21.37 21.51 21.36 20.55 20.07 20.19 22.41 22.78 20.98 18.84 17.22 15.90 16.10 17.92 20.73 21.21 20.89 20.48 21.06 21.42 22.80 23.42 24.42 26.26 26.97 26.45 26.50 23.98 22.90 21.65 21.57
29.13 28.56 26.35 27.09 26.70 30.89 29.82 28.95 29.70 29.74 30.02 30.66 32.86 30.05 24.76 18.82 18.24 18.28 18.07 19.30 19.53 19.02 18.60 17.99 18.87 19.23 18.00 17.50 17.16 16.67 16.52 19.82 17.80 16.91 16.24 16.32 17.34 17.78 17.64 16.95 18.69 18.64 19.27 20.21 21.08 21.92 21.35 22.05 22.48 21.13 19.35 17.44 16.33 16.03
27.43 26.00 25.54 23.18 26.26 28.52 28.90 27.87 28.75 28.19 29.72 28.22 28.66 25.62 22.07 21.51 16.43 15.56 16.33 17.69 17.39 15.74 14.61 15.51 15.17 15.54 17.57 18.61 18.34 18.64 16.01 17.28 16.58 15.68 14.60 13.04 13.82 14.03 14.00 14.55 15.78 16.00 16.63 17.02 18.91 18.98 17.88 18.21 17.49 16.91 16.56 13.76 12.25 11.69
24.14 24.44 24.24 23.82 24.49 23.88 26.70 25.43 25.62 24.01 25.21 24.61 22.85 21.88 18.66 18.60 12.09 14.74 17.83 17.44 15.57 14.09 13.64 14.45 15.58 16.46 17.56 18.05 17.23 16.79 16.05 16.42 15.85 15.08 13.89 11.72 10.85 10.88 10.92 12.35 10.87 10.46 12.74 15.15 15.86 15.68 14.33 13.74 13.15 12.16 10.63 9.45 7.92 6.50

GFSWCAN_sfc_wetblb_012.txt.gz
Wetbulb
50.64 50.37 49.90 49.83 49.82 49.95 50.38 50.77 51.08 51.46 51.55 51.93 51.21 50.99 50.54 50.28 50.59 56.02 59.68 60.89 59.26 54.27 53.80 55.66 55.54 54.79 53.69 53.75 49.73 51.70 49.97 51.64 50.60 38.74 39.10 42.95 38.38 42.27 41.57 42.67 37.82 35.13 35.27 32.73 35.43 32.54 30.07 46.38 44.92 39.05 44.79 47.84 46.82 45.57
49.43 49.55 49.35 49.42 49.65 49.59 49.74 50.00 50.39 50.77 50.99 51.56 52.23 50.85 50.94 50.54 50.52 51.97 59.11 59.85 60.88 58.07 54.66 58.24 56.98 57.42 56.00 55.31 55.05 54.11 50.93 50.61 51.02 46.16 45.07 44.85 35.75 37.56 39.94 38.45 45.01 39.03 42.91 40.49 39.55 38.90 47.17 48.96 46.23 48.09 47.65 45.89 45.15 44.76
47.93 48.58 49.02 49.29 49.11 49.14 49.26 49.36 49.64 50.14 50.85 50.74 51.57 51.60 50.96 50.70 51.01 52.40 60.01 60.03 61.19 58.02 54.58 54.28 53.15 56.53 58.70 58.15 60.53 52.55 55.82 54.44 53.37 55.37 47.24 42.27 34.21 43.56 34.68 40.44 43.01 44.99 47.09 43.90 42.92 44.94 45.72 47.37 48.44 48.72 48.04 46.19 45.81 45.29
47.01 47.26 47.93 48.78 49.32 48.96 48.69 48.69 49.05 49.44 50.09 50.36 50.87 51.45 50.98 50.91 50.96 51.61 59.14 59.45 59.16 52.85 38.38 52.91 56.18 54.83 57.32 58.47 58.02 59.11 57.35 57.40 56.64 52.28 41.03 37.47 36.39 48.25 42.43 43.81 43.70 45.27 46.39 44.07 43.28 46.20 47.22 47.39 47.72 46.85 46.12 46.32 45.42 45.69
46.76 46.79 46.76 47.08 48.24 49.19 48.83 48.46 48.22 48.49 48.98 48.24 49.02 49.02 49.56 51.78 51.17 56.35 60.14 59.38 59.21 56.31 45.40 52.21 54.05 55.06 56.06 57.14 56.42 56.76 56.82 54.91 52.58 43.79 36.75 38.56 48.47 48.64 46.94 44.74 43.35 46.08 43.76 41.67 40.70 46.94 46.45 45.86 46.37 46.27 44.99 44.59 45.24 42.68
46.40 46.40 46.47 46.58 46.76 47.46 48.33 47.88 47.97 47.88 47.17 48.29 49.16 49.27 50.08 50.12 50.05 58.94 54.09 58.79 58.59 59.32 51.41 43.08 53.63 51.88 53.82 55.22 55.25 54.34 55.03 54.67 53.16 47.72 41.88 48.19 51.55 48.60 37.47 38.38 44.99 46.96 48.05 48.50 45.67 48.84 47.90 46.85 45.89 45.96 44.99 44.24 43.28 42.12
46.12 46.01 46.31 46.44 46.40 46.56 47.19 47.68 47.37 47.61 47.68 48.13 49.07 49.06 49.23 49.30 56.86 54.06 51.38 52.69 50.88 58.07 49.62 42.55 46.92 49.83 50.75 53.70 53.68 53.32 54.34 53.13 52.01 51.25 46.97 46.62 48.72 47.96 37.47 37.30 44.67 46.92 47.78 48.37 48.64 46.86 43.33 43.81 42.22 44.30 43.58 43.06 42.35 42.00
45.86 45.83 45.76 45.92 46.08 46.10 46.33 47.03 47.48 47.81 47.77 48.58 48.64 48.64 49.05 48.44 49.87 53.62 55.11 52.93 52.73 55.75 52.92 42.73 42.37 45.66 50.07 48.55 46.11 49.28 46.72 48.32 49.13 48.07 45.22 44.72 48.07 42.84 37.65 44.35 46.16 47.27 47.79 46.58 46.00 45.86 44.86 44.84 44.41 43.91 43.35 41.62 38.90 38.15
45.36 45.60 45.44 45.55 45.81 45.81 46.22 46.92 47.33 47.71 48.09 48.31 48.49 48.58 53.12 52.76 52.26 54.41 48.53 50.25 58.30 54.00 47.26 36.57 36.93 36.39 48.97 42.82 42.44 44.19 45.88 37.84 46.69 38.20 41.29 43.35 40.37 36.93 42.27 44.16 45.43 47.13 44.94 43.71 44.49 44.33 44.07 43.39 41.90 40.87 39.40 38.49 37.30 37.07
45.62 45.25 45.18 45.53 45.69 45.90 46.40 46.08 46.72 47.44 47.93 47.95 48.96 46.07 39.47 43.80 48.45 48.90 52.93 51.34 49.38 51.46 48.64 38.56 46.16 40.67 45.83 40.80 38.20 39.06 38.38 37.80 34.94 38.50 40.26 34.57 36.87 43.64 45.86 46.81 47.49 46.10 46.07 44.92 42.29 40.59 41.27 39.54 38.67 37.62 37.50 38.12 37.62 36.51
46.00 45.94 45.46 45.76 45.89 46.06 47.05 46.67 47.30 47.35 47.93 45.42 39.83 36.75 43.53 46.90 48.30 45.14 41.10 41.63 41.77 37.29 41.95 42.04 44.51 40.09 45.39 38.46 36.39 39.29 34.94 36.02 33.30 35.59 35.99 34.40 34.07 40.39 44.62 45.54 45.43 46.20 46.17 45.33 44.56 43.47 40.76 38.83 37.29 37.10 37.90 37.63 35.90 35.36
45.45 46.01 45.71 45.67 45.55 46.20 46.08 46.63 46.99 47.37 45.60 43.88 43.41 44.76 43.51 40.21 35.87 36.93 34.57 34.75 35.30 37.92 38.12 35.27 38.19 42.66 40.46 45.29 39.14 35.20 34.03 33.12 31.85 38.13 32.94 31.95 38.73 43.55 43.82 42.93 43.72 44.54 44.21 42.61 41.34 39.00 38.62 38.04 38.36 37.77 37.20 36.12 35.17 34.43
44.01 45.55 45.71 45.37 45.65 46.60 45.97 45.69 45.99 45.72 45.90 42.80 37.90 34.71 35.91 32.20 31.30 31.49 30.57 32.03 32.94 33.30 34.31 34.33 33.27 35.81 36.16 37.93 33.12 32.94 31.49 31.85 36.35 32.73 30.63 35.74 40.50 41.76 43.02 42.77 42.65 41.58 38.12 38.26 38.40 38.40 38.21 37.42 36.52 34.98 34.02 34.82 32.97 34.23
43.52 45.12 45.69 45.42 44.93 45.48 45.75 45.02 45.28 45.81 42.31 35.51 32.58 31.49 32.03 31.67 32.40 32.40 32.58 32.58 33.67 33.85 34.03 34.21 32.94 33.85 32.94 32.58 32.22 31.67 32.94 34.72 30.19 29.06 30.02 38.33 39.69 41.14 42.51 42.64 41.04 37.18 32.06 34.16 35.40 36.38 34.39 35.25 34.86 33.43 32.75 32.45 30.75 32.21
43.69 44.94 45.84 45.17 44.34 44.20 43.75 43.61 43.90 45.53 41.88 35.54 34.39 30.95 31.85 33.12 33.49 32.94 32.58 33.67 34.18 36.11 34.56 33.65 33.67 35.34 32.40 31.67 32.58 32.22 29.17 28.46 30.55 31.07 34.43 38.51 39.34 39.08 37.93 39.05 35.81 33.89 31.83 33.33 36.48 34.30 31.94 32.31 33.07 33.73 34.49 34.81 35.10 32.54
43.86 43.79 45.44 44.83 44.40 44.23 44.08 44.63 43.64 43.22 39.82 36.66 34.84 32.40 33.49 32.94 32.40 32.22 32.03 32.40 36.57 35.10 37.11 36.75 32.58 32.22 31.67 32.58 30.27 30.36 29.58 28.22 33.12 36.70 38.93 36.93 36.05 36.19 36.16 36.04 35.97 36.33 35.02 35.24 35.27 34.26 33.38 32.34 31.24 34.36 35.09 34.11 32.78 32.68
42.93 44.33 44.90 43.94 42.88 42.89 43.14 42.54 39.71 34.77 35.66 32.62 33.38 36.20 34.57 33.85 32.76 33.12 34.94 35.12 38.98 35.12 32.40 34.03 31.49 28.50 32.00 30.30 29.29 32.47 30.91 33.95 37.19 37.73 36.14 36.12 35.25 36.02 36.78 36.51 33.95 34.61 35.53 35.85 35.46 34.73 34.60 34.31 33.68 33.47 32.67 34.58 34.66 34.55
43.80 45.51 44.12 43.92 45.03 43.34 41.02 41.70 37.75 36.35 32.37 34.94 34.18 34.16 35.35 35.48 34.21 34.39 36.20 37.97 37.21 35.14 35.62 32.07 33.88 29.69 29.24 27.95 30.21 35.19 36.53 38.07 37.66 36.50 35.98 36.50 37.05 37.12 36.97 36.48 36.96 35.99 35.62 34.76 33.71 34.22 34.10 32.65 33.36 34.20 34.85 35.69 35.06 34.66
43.28 45.90 44.09 43.82 44.01 41.17 35.93 36.96 39.16 32.89 33.22 34.66 33.71 34.91 34.73 34.16 35.30 35.73 35.30 36.20 36.94 36.52 36.15 34.39 31.32 29.72 31.92 33.97 35.54 37.29 38.30 37.82 35.65 35.68 36.65 37.06 36.36 35.00 34.41 34.67 34.57 35.03 34.57 34.55 34.68 34.94 35.40 35.35 35.31 35.85 36.60 36.57 35.39 36.12
41.78 41.91 41.89 41.29 41.65 38.50 34.70 35.63 39.76 34.96 33.05 34.25 35.15 33.96 32.95 31.89 32.96 33.09 33.85 34.39 35.66 35.48 32.16 31.37 32.87 36.15 36.58 37.25 38.21 38.79 38.94 38.73 37.15 35.18 34.94 36.14 37.09 36.22 36.00 36.13 35.89 35.83 35.62 35.48 35.62 33.56 35.97 36.37 37.29 36.86 36.71 36.06 35.21 34.89
40.33 39.83 39.62 41.23 40.79 39.85 37.19 35.52 34.18 35.89 34.08 32.68 33.71 34.89 30.00 32.35 31.94 33.47 33.21 35.78 32.94 33.24 31.99 35.95 39.03 39.29 39.07 38.54 38.76 39.07 37.64 37.73 35.68 36.00 34.60 33.81 36.77 36.49 35.62 36.25 36.72 36.72 36.16 36.36 36.42 35.59 34.93 35.91 36.61 37.71 35.37 33.85 33.29 32.69
37.86 38.89 35.07 35.50 34.57 34.32 34.74 36.88 34.98 36.03 33.73 32.79 33.13 34.40 29.84 29.01 29.10 30.57 33.12 31.45 31.51 34.11 36.02 37.12 37.80 38.63 38.22 36.98 37.80 38.09 37.55 36.49 36.85 36.31 33.18 33.75 34.13 35.12 35.93 37.10 36.44 35.93 36.19 36.20 35.63 35.00 35.56 36.83 36.74 36.49 34.56 33.30 33.45 33.30
37.49 36.06 34.39 32.58 31.49 32.17 29.76 36.13 32.30 32.97 28.56 29.17 31.86 28.76 28.36 28.51 30.27 31.85 28.52 31.85 33.76 37.26 38.20 38.06 38.03 38.52 37.53 38.40 36.94 37.03 37.24 36.51 35.42 36.08 36.56 37.00 37.24 37.65 37.49 36.77 36.68 34.84 34.56 35.49 36.72 35.95 35.68 34.42 34.74 33.49 32.94 32.58 32.58 32.22
36.16 32.40 31.31 30.62 31.85 27.61 32.81 28.89 32.26 30.82 31.36 29.53 28.22 26.75 27.96 28.83 29.96 28.49 27.35 31.66 34.72 36.76 35.16 35.08 35.97 35.28 36.22 35.15 34.44 35.82 36.25 36.86 35.98 36.70 37.53 36.13 34.82 35.27 36.15 35.95 36.21 36.10 35.90 36.10 35.55 34.72 34.28 33.12 32.52 32.24 32.38 31.85 31.82 31.30
30.14 27.96 29.90 25.69 30.37 27.95 26.48 26.83 27.45 28.28 25.74 27.48 26.38 26.28 26.95 29.02 26.60 26.06 26.16 31.41 32.73 30.64 31.98 35.06 35.65 35.23 34.02 35.17 35.66 35.36 35.36 34.65 33.43 32.88 34.85 35.25 34.58 34.42 33.93 34.30 34.52 35.05 35.24 33.71 32.76 32.76 32.40 32.40 32.07 32.19 32.03 31.07 29.94 29.60
25.73 27.63 27.91 28.03 27.35 27.36 26.90 24.25 25.54 26.38 26.85 25.54 26.15 27.71 28.68 27.34 24.28 23.94 28.16 30.38 29.70 29.34 29.46 30.28 31.65 32.45 32.78 32.30 30.81 30.04 29.31 30.43 28.64 27.03 29.84 29.83 28.65 27.64 27.26 27.58 28.42 30.11 28.28 29.23 29.32 29.49 29.95 30.88 31.04 31.02 30.40 30.06 29.98 30.06
24.33 25.19 28.26 30.56 30.16 28.89 27.45 28.67 29.40 27.35 24.51 23.97 26.45 24.97 24.98 21.17 22.46 27.61 28.71 26.70 27.13 27.36 29.02 29.34 28.24 27.78 26.97 27.47 27.44 27.51 27.95 27.09 25.09 24.88 27.11 28.95 29.46 26.84 25.38 23.37 22.77 24.19 26.91 27.75 27.73 27.37 26.89 27.57 28.68 29.15 29.15 30.27 30.14 29.65
27.98 28.63 24.05 28.30 28.51 30.11 25.99 26.26 25.27 24.81 26.90 29.75 28.56 23.75 23.03 23.98 24.30 25.21 24.27 25.49 26.21 27.39 28.24 28.31 26.83 25.69 25.76 24.81 25.95 26.10 24.60 24.33 25.13 26.27 27.71 28.75 28.97 25.99 23.66 24.02 24.15 23.70 24.25 24.50 24.61 25.24 25.45 26.07 26.43 27.12 26.55 26.40 27.78 28.36
27.02 29.83 28.43 23.49 26.84 27.74 27.77 27.19 27.71 29.91 32.20 30.97 27.92 26.84 27.48 23.16 22.75 23.18 22.53 23.91 25.88 25.09 23.17 22.49 22.91 24.74 24.69 25.11 26.33 24.37 22.45 20.58 17.12 14.49 14.29 16.57 17.55 18.83 20.70 21.11 20.62 20.80 21.32 21.08 22.03 22.99 24.06 25.21 25.73 25.97 25.79 26.17 25.03 25.04
26.02 30.25 27.36 25.71 24.50 26.06 29.43 32.57 31.19 31.47 33.28 32.98 33.32 28.62 24.53 20.20 19.98 22.78 22.38 21.70 20.53 19.81 21.27 21.86 21.80 20.56 19.62 19.06 19.11 20.27 22.22 19.67 17.67 14.70 12.06 11.87 13.41 16.63 17.57 17.25 16.19 17.55 18.63 18.71 18.90 19.83 22.51 23.06 23.77 25.64 22.75 20.97 19.19 20.03
28.75 28.94 27.10 27.43 26.82 28.98 28.96 29.29 29.70 29.66 30.44 30.59 30.93 29.25 22.06 18.32 18.30 19.13 19.17 20.72 20.90 19.78 18.85 18.05 18.51 19.29 17.11 16.73 15.99 14.93 14.67 18.12 17.76 16.35 15.43 15.33 14.62 14.72 14.35 14.11 14.11 15.80 15.99 16.01 16.18 17.68 19.06 18.83 20.36 20.17 17.79 15.73 14.91 13.99
27.79 26.16 25.61 24.06 26.83 28.90 29.21 28.00 27.58 27.48 30.01 27.39 28.24 25.07 23.53 22.70 17.08 16.37 17.24 18.89 18.07 15.84 14.89 15.45 14.45 14.55 16.56 17.83 19.40 18.57 16.52 16.85 16.92 16.06 14.92 14.11 12.84 12.71 12.52 11.95 13.21 13.27 11.32 11.38 14.06 16.65 16.32 15.59 16.11 13.89 13.63 11.39 10.04 8.89
25.85 25.94 25.30 24.96 24.95 24.57 27.28 26.37 25.62 24.90 25.97 24.92 24.63 23.00 19.07 18.51 13.88 15.45 18.85 18.88 16.65 14.81 13.95 14.42 15.35 16.55 17.64 16.74 15.30 18.06 15.73 15.81 15.15 15.85 15.00 13.32 11.50 10.87 10.44 10.98 11.45 9.72 8.03 8.09 12.42 14.44 12.90 11.49 9.94 9.43 7.81 6.57 4.61 2.96

GFSWCAN_sfc_wetblb_015.txt.gz
Wetbulb
50.54 50.17 49.83 49.57 49.72 49.86 50.55 50.87 51.09 51.22 51.43 51.34 50.54 50.57 50.33 50.18 50.33 54.84 54.82 55.84 55.16 46.91 48.51 51.93 52.58 49.43 49.00 47.52 39.35 45.15 41.67 41.51 36.18 34.62 30.52 31.21 28.87 32.02 32.47 37.14 32.71 28.91 25.72 28.51 30.95 26.33 22.19 43.48 42.09 33.77 37.98 42.89 42.99 41.64
49.92 49.56 49.36 49.15 49.43 49.63 50.10 50.20 50.44 50.84 50.99 52.50 50.84 50.55 50.58 50.36 50.54 51.93 53.98 56.24 57.19 52.60 50.15 53.75 52.87 52.61 51.77 51.55 48.73 47.05 43.06 46.27 44.39 36.67 34.55 35.12 32.78 34.70 32.37 27.66 40.33 31.55 35.14 31.73 32.42 30.59 39.78 43.33 42.02 44.05 44.28 42.73 41.79 41.41
49.39 49.15 49.08 49.06 49.34 49.67 49.51 49.52 49.65 50.28 50.67 50.99 51.49 50.41 50.42 50.60 50.74 51.74 54.98 55.16 56.09 47.81 48.79 49.43 49.08 53.53 55.33 54.15 54.73 45.91 45.72 50.17 48.06 48.45 39.88 39.33 30.74 37.06 28.56 32.31 32.60 39.76 43.59 33.83 36.05 41.12 42.47 43.02 45.24 45.73 44.77 43.19 43.56 44.50
47.56 48.40 48.58 48.76 49.01 49.48 48.92 48.72 49.01 49.60 50.24 50.35 51.58 49.18 48.57 50.46 50.70 51.61 54.46 55.04 53.07 46.89 36.05 45.54 53.18 51.26 54.41 55.18 54.65 54.36 52.03 52.35 50.52 44.39 37.42 36.41 31.64 42.05 33.14 35.60 33.46 38.51 41.65 39.07 35.82 41.29 42.49 44.17 43.95 43.59 43.58 44.46 44.89 44.19
46.65 46.74 47.25 48.30 48.85 49.41 48.68 48.12 48.33 48.85 47.92 48.13 48.44 48.57 49.18 49.00 50.20 53.19 55.40 54.78 54.49 51.01 38.46 40.11 50.51 52.20 53.87 53.72 52.65 53.35 51.87 49.78 44.26 38.29 34.76 34.12 34.51 37.12 34.12 34.15 32.84 42.72 39.23 34.55 32.79 41.83 41.63 41.88 43.55 44.85 44.87 44.19 44.59 43.96
46.42 46.44 46.38 46.69 47.38 48.44 48.80 48.28 47.85 46.90 47.41 48.24 49.03 49.41 49.48 49.18 49.33 54.42 50.22 54.04 52.12 55.04 43.38 35.92 48.43 48.32 50.42 51.19 50.88 50.28 50.61 49.19 47.46 39.80 35.12 41.34 47.27 39.35 33.66 31.62 41.23 45.01 45.89 45.19 41.13 45.94 44.51 43.87 43.70 45.82 43.70 44.16 44.08 40.65
45.99 46.15 46.31 46.37 46.41 46.93 47.68 48.04 47.56 46.92 46.87 48.26 48.78 49.19 49.60 49.27 51.92 49.34 47.62 49.55 49.06 52.34 40.36 36.57 40.42 45.57 47.18 49.17 47.91 48.47 49.89 47.39 46.73 41.29 39.11 36.37 39.38 42.98 33.84 34.17 41.54 44.85 45.19 45.16 45.55 43.52 40.48 42.55 41.75 43.91 42.92 41.88 41.46 39.76
45.53 45.59 45.76 46.04 46.26 46.42 46.84 47.25 47.84 48.15 47.41 47.61 48.44 49.15 49.56 48.76 48.74 49.97 51.38 50.60 49.70 49.94 44.19 37.20 38.11 37.62 46.74 38.93 38.55 44.48 39.26 42.74 45.44 42.15 40.15 36.16 38.35 35.36 33.64 41.21 43.92 45.64 45.48 44.29 43.43 43.71 43.05 43.15 43.68 42.37 41.88 38.35 35.73 34.53
45.27 45.33 45.58 45.65 46.24 46.22 46.13 46.57 47.55 48.22 48.42 48.33 49.04 49.17 51.79 49.45 45.22 49.40 48.46 48.66 53.82 49.00 38.37 34.04 33.81 33.07 44.02 39.70 38.35 37.36 41.53 34.94 41.42 35.12 36.75 39.36 34.93 35.00 39.27 41.84 43.05 43.32 42.21 41.75 42.93 43.51 43.40 42.14 42.15 38.71 36.29 35.05 33.72 32.81
45.23 45.19 45.26 45.42 46.01 46.33 46.35 46.35 47.21 47.88 47.95 48.30 49.29 46.72 39.28 42.72 47.34 48.26 49.06 42.75 40.53 40.21 42.50 35.67 40.46 35.98 41.37 35.67 34.76 35.47 34.20 33.85 32.93 35.00 38.70 32.95 34.41 39.41 41.99 43.45 43.48 43.15 43.60 43.80 40.60 39.91 41.35 37.61 34.87 34.26 34.10 34.45 33.92 32.66
45.73 45.41 45.36 45.67 45.78 45.68 46.56 46.91 47.68 47.66 48.16 45.15 39.80 36.57 42.93 46.89 46.64 41.68 37.12 37.53 38.13 35.12 38.91 38.90 37.83 37.15 40.48 34.62 34.02 34.91 33.11 33.30 31.15 30.80 33.49 31.18 32.01 36.71 40.81 41.88 43.11 44.47 44.44 44.42 41.99 39.35 38.05 36.26 34.28 34.02 33.60 32.20 31.22 30.84
45.95 45.70 45.54 46.05 45.67 45.83 46.62 46.67 47.02 46.08 43.77 43.54 42.91 44.21 42.61 39.44 35.68 35.86 34.22 34.00 34.40 34.68 35.06 34.75 36.19 39.06 36.54 41.14 34.11 33.66 33.22 32.37 28.94 35.45 32.00 28.89 32.28 39.11 40.05 40.54 41.88 42.86 40.63 38.56 38.45 37.22 36.80 36.18 35.29 32.50 31.59 31.04 31.50 31.01
45.01 45.38 45.51 46.01 45.71 45.52 45.56 45.75 45.30 45.03 44.95 42.25 38.23 34.60 36.52 31.98 31.26 31.26 30.31 31.41 32.21 32.37 33.82 33.43 32.93 33.66 35.15 36.41 32.57 32.53 31.62 30.57 33.58 31.47 28.54 29.36 38.31 39.65 40.06 35.69 35.50 35.99 34.89 35.25 35.82 35.91 34.95 34.29 33.83 30.78 29.38 30.91 27.22 30.36
44.31 45.20 45.05 45.15 45.65 44.98 44.21 44.49 45.41 45.02 41.22 34.59 32.95 30.64 31.62 30.32 30.88 30.32 31.05 31.65 32.37 32.57 32.75 32.93 32.18 32.72 32.21 32.36 31.98 30.29 31.06 31.39 28.49 25.19 22.75 33.46 37.79 39.09 38.65 36.10 34.26 32.55 30.92 31.51 31.93 32.44 31.07 30.60 29.86 28.49 27.27 27.46 23.50 27.89
43.78 45.15 45.24 44.23 44.05 44.01 44.21 44.27 44.41 43.04 38.85 33.23 33.22 29.53 30.14 31.27 31.83 32.01 32.19 32.21 32.86 34.70 33.48 32.54 32.56 33.61 31.45 30.32 31.09 29.57 27.36 26.40 28.11 27.96 30.74 33.38 34.66 35.43 33.88 33.76 31.42 29.74 28.66 30.11 31.88 30.75 27.22 27.11 28.19 29.78 29.67 29.73 30.37 26.25
43.73 43.88 44.21 44.30 44.18 44.36 44.44 44.07 41.23 40.76 33.19 33.68 32.50 30.40 31.61 32.00 31.66 32.06 32.06 31.88 35.05 32.92 34.04 33.46 31.27 31.44 29.39 29.98 28.11 28.28 27.32 26.05 29.63 31.29 32.69 32.55 32.53 32.55 32.80 32.87 32.23 32.53 31.43 31.71 32.01 31.66 30.56 27.23 25.27 30.30 30.26 28.94 28.09 29.30
43.43 42.90 44.43 43.48 43.19 43.32 44.00 41.25 37.59 34.15 32.40 32.06 30.71 33.31 32.71 32.54 32.19 32.24 32.78 32.93 36.60 33.30 31.44 31.83 29.14 26.58 29.63 27.55 27.16 30.37 28.50 30.91 31.68 31.20 31.47 32.40 32.27 32.28 32.68 32.95 31.16 32.03 32.30 31.96 32.11 31.20 30.84 30.71 27.39 27.68 28.62 31.46 30.63 30.82
42.09 43.95 44.24 43.94 44.12 43.37 40.93 40.34 34.51 32.23 28.85 32.07 31.47 31.83 32.53 32.57 32.71 32.75 33.30 34.22 33.48 31.37 31.17 29.62 31.17 27.15 26.55 25.26 26.48 30.70 30.59 31.09 31.34 30.76 30.89 32.17 32.90 32.47 33.46 31.34 33.45 31.22 30.64 30.69 29.16 30.57 30.56 27.08 29.44 30.19 31.08 31.98 30.86 30.00
42.73 43.94 43.83 43.84 42.04 38.68 34.03 33.91 35.42 29.54 30.14 31.72 31.44 31.79 31.57 32.15 32.71 32.74 32.75 33.46 33.78 33.40 32.38 29.59 27.26 25.77 26.39 28.43 29.66 30.19 30.24 29.85 29.61 30.69 31.64 32.54 32.49 32.05 31.79 31.74 31.39 30.88 31.13 31.04 31.09 29.83 30.23 31.52 30.85 30.90 30.87 30.24 29.88 29.97
41.57 41.63 42.12 42.32 42.04 33.97 31.74 29.74 34.70 29.37 30.14 30.49 32.09 31.05 30.01 29.76 31.27 32.04 32.57 32.75 32.86 31.91 28.04 25.57 27.14 29.15 29.19 29.99 30.79 31.15 31.10 31.00 30.01 28.55 29.32 30.39 31.04 31.78 30.88 30.64 30.02 31.23 30.33 31.36 30.62 27.72 29.10 30.23 30.03 29.57 29.04 26.79 24.89 26.55
40.80 39.56 39.96 40.35 36.62 37.33 31.64 31.67 32.04 32.16 29.28 30.12 31.27 31.10 28.33 30.42 30.10 30.71 31.82 32.48 32.15 27.01 25.31 27.24 27.14 30.24 32.72 31.45 31.09 30.93 31.44 31.87 30.00 28.66 27.93 27.84 29.22 29.14 29.28 29.90 30.58 29.35 27.90 26.78 25.56 28.25 24.84 28.05 30.92 29.71 26.58 28.69 30.53 29.59
37.62 39.14 34.12 35.58 32.51 32.42 29.76 30.85 29.93 29.13 30.17 27.53 30.71 29.32 27.76 26.92 27.39 28.51 30.38 27.97 26.90 26.81 29.75 28.32 30.13 29.64 30.52 31.88 32.20 32.65 32.49 31.56 31.35 29.39 27.91 27.18 27.06 27.41 27.83 28.29 26.83 25.28 26.43 26.74 28.59 29.65 29.19 29.83 26.79 25.40 29.26 31.97 32.71 32.04
37.46 35.67 32.77 32.19 30.50 30.67 28.23 31.15 29.79 29.67 24.24 27.83 29.67 26.81 26.39 26.74 28.23 28.62 26.53 27.55 26.50 30.78 30.59 31.87 32.53 32.54 31.74 32.03 31.29 31.36 31.65 30.89 28.01 27.69 28.88 27.96 27.74 26.88 27.24 28.43 26.50 24.15 27.34 28.62 28.25 27.40 29.05 26.11 25.26 21.51 23.79 31.06 31.94 31.83
36.73 31.92 30.84 29.95 30.69 26.77 30.16 27.98 27.51 26.02 28.33 26.77 25.24 23.69 25.69 26.49 24.02 23.97 19.15 21.56 26.82 30.10 30.25 30.48 29.94 28.46 28.90 30.05 29.00 28.96 29.38 30.07 29.14 28.92 29.82 29.03 27.64 28.41 29.33 28.51 28.43 27.87 28.08 28.94 28.78 29.00 30.72 31.16 26.38 29.79 30.40 29.88 30.22 26.59
28.98 27.66 28.28 25.78 27.54 23.87 24.49 24.73 25.46 21.22 16.27 20.61 17.42 19.38 17.86 20.50 18.29 14.93 16.38 23.55 26.72 26.23 29.42 28.47 29.54 29.40 28.19 27.56 27.32 27.18 26.93 25.80 24.22 23.53 25.45 25.26 23.33 23.04 23.64 24.75 24.56 24.79 25.14 24.19 24.24 24.02 24.70 26.19 26.61 26.46 28.45 28.72 27.64 23.28
22.60 25.86 25.21 26.30 25.07 25.88 24.46 19.50 23.03 20.50 18.56 19.64 21.95 22.39 20.61 16.58 13.27 13.03 23.76 26.41 25.87 25.76 26.37 25.60 23.49 25.44 25.22 25.41 24.01 23.76 24.43 24.27 22.76 20.17 22.23 23.21 23.97 22.45 20.06 19.25 18.77 18.76 20.50 22.31 21.64 20.29 19.62 20.36 21.51 22.91 24.93 26.65 25.88 26.28
23.16 24.42 27.80 29.15 29.38 28.11 26.58 26.80 26.83 24.45 21.13 19.55 20.95 18.60 15.72 10.16 10.40 21.88 24.97 24.69 25.02 26.22 27.89 26.83 25.40 24.31 23.91 23.83 24.00 25.49 22.75 21.01 19.45 21.02 22.36 24.93 21.91 20.48 18.20 16.02 15.41 17.27 19.56 19.63 18.36 17.97 18.43 18.87 19.75 19.79 21.80 23.83 24.51 25.50
26.76 27.00 22.93 26.36 26.25 26.27 21.59 20.89 19.19 18.15 20.05 24.25 21.30 13.85 12.47 12.69 17.78 22.53 22.92 24.33 24.81 26.67 26.63 24.32 23.75 22.25 23.37 22.09 24.03 18.31 14.19 14.44 15.03 15.54 18.84 22.80 18.82 14.88 14.37 14.73 15.71 16.76 14.45 16.35 15.24 16.50 17.02 17.75 17.79 19.96 21.04 22.28 23.51 20.41
26.39 28.60 25.46 19.49 20.70 21.43 20.27 19.43 19.81 24.43 27.49 23.84 17.73 16.49 19.38 20.07 19.60 21.64 21.94 22.75 23.74 22.35 19.68 18.27 18.15 18.01 17.10 16.03 19.92 17.28 9.30 7.42 7.22 3.10 0.10 0.27 6.08 7.27 12.57 12.87 11.95 10.97 11.72 13.50 14.43 16.58 16.89 17.91 19.64 18.95 20.63 19.71 19.27 15.00
24.25 27.84 22.95 19.54 16.53 20.80 26.19 27.62 27.97 29.01 26.22 27.11 25.05 21.71 19.38 17.85 17.99 18.61 18.81 17.00 15.42 15.69 16.75 17.63 15.28 7.69 6.56 4.74 5.58 8.16 14.41 8.29 3.31 2.25 -0.03 0.51 7.25 9.16 10.19 9.60 9.28 8.83 10.15 10.74 9.21 10.46 13.82 16.90 17.95 19.77 16.31 14.63 14.89 11.10
27.13 27.87 25.93 25.25 25.24 26.83 27.37 27.57 28.14 27.90 28.44 28.58 27.30 23.08 15.04 12.96 13.02 14.49 14.35 17.02 15.46 9.80 8.80 6.28 6.89 6.29 2.96 4.61 7.10 2.13 2.21 2.65 7.05 9.00 5.21 3.86 3.73 0.22 3.31 7.05 6.75 7.74 8.95 6.29 5.93 7.60 8.63 13.25 15.00 13.63 10.74 9.63 8.94 6.98
26.57 24.39 23.95 20.75 23.57 25.42 27.57 25.58 25.54 25.25 19.93 24.89 23.64 21.85 18.03 12.85 6.28 8.57 7.55 11.50 7.33 4.72 4.82 2.77 2.31 4.95 3.77 8.16 5.92 6.92 13.12 9.48 5.69 2.64 4.74 5.98 2.64 2.95 1.90 3.59 5.90 7.07 2.56 1.59 3.99 4.73 9.93 10.39 9.12 8.06 7.37 4.68 3.62 2.57
21.80 18.58 19.03 14.64 13.72 14.20 19.96 14.71 14.17 13.20 13.60 12.79 17.13 14.93 10.85 7.21 3.00 7.29 11.94 12.59 5.84 1.98 1.57 1.02 1.14 2.58 8.63 3.33 0.81 5.98 1.90 0.18 2.97 12.73 9.39 9.80 5.05 2.67 0.77 3.69 6.55 5.47 -0.29 1.05 3.33 7.68 5.68 6.44 3.76 2.73 1.50 0.28 -1.13 -2.01

GFSWCAN_sfc_wetblb_018.txt.gz
Wetbulb
50.18 49.85 49.58 49.18 49.39 49.66 50.29 50.49 50.35 50.33 50.15 49.72 49.85 49.79 49.66 50.04 50.41 53.94 51.94 53.90 51.08 44.06 46.45 50.71 50.64 46.65 46.81 44.02 38.43 43.19 40.34 39.13 35.22 29.60 27.16 31.25 25.09 31.19 31.01 34.94 31.79 28.70 26.09 24.61 25.45 16.90 21.59 39.85 40.57 33.49 36.24 40.43 41.84 40.48
49.63 49.21 48.91 48.87 48.95 49.63 49.92 49.82 50.04 50.22 50.89 49.63 49.49 49.71 49.73 49.97 50.25 53.25 50.36 54.66 55.00 49.24 47.83 51.54 51.68 51.14 50.67 49.18 46.40 43.78 41.14 41.76 40.23 34.64 33.23 35.44 27.04 32.67 29.51 28.17 38.03 30.78 32.16 29.56 31.83 30.92 38.07 41.03 40.68 41.22 43.05 41.54 40.54 40.26
49.27 48.75 48.62 48.69 48.88 49.38 49.63 49.54 49.71 49.90 50.28 50.19 48.93 47.21 48.17 49.90 50.61 53.16 52.13 52.70 51.54 43.63 45.67 47.46 47.97 52.31 53.77 52.49 52.21 43.74 42.57 48.29 45.58 43.18 37.79 32.78 27.34 33.54 29.06 31.71 32.71 38.04 41.18 32.81 34.53 39.30 39.91 41.84 42.79 43.85 43.25 42.06 42.27 42.65
48.63 48.66 48.55 48.61 48.64 48.79 49.05 48.66 48.95 49.36 49.45 48.82 47.91 48.13 48.53 48.15 49.88 52.82 51.83 52.17 48.60 43.34 34.92 43.31 51.89 49.91 53.67 53.70 53.63 51.94 50.42 49.55 46.08 41.59 35.57 33.80 29.27 38.06 29.90 33.05 31.74 36.05 39.99 37.68 34.13 39.08 40.97 42.51 42.33 42.40 42.37 42.76 42.98 44.83
48.16 47.98 48.00 48.14 48.27 48.41 48.45 48.23 48.29 46.63 48.09 48.55 48.62 49.12 49.45 49.20 49.12 53.20 52.36 50.81 51.90 46.60 37.78 38.86 48.64 51.03 52.13 52.37 52.14 51.60 50.05 47.43 41.74 36.29 33.29 33.30 31.87 34.74 33.51 31.95 31.63 40.38 38.09 33.76 33.20 39.53 39.60 40.65 42.04 43.31 42.52 43.19 44.55 43.76
46.69 46.97 47.77 47.99 48.04 48.17 48.04 47.84 46.40 46.54 47.71 48.58 49.26 49.65 49.40 49.16 50.31 52.94 47.46 51.84 49.90 50.90 40.49 34.05 44.75 45.98 47.80 50.44 49.91 49.80 48.97 47.23 43.87 38.47 34.69 37.68 43.96 36.01 33.32 34.06 39.40 43.41 44.82 43.64 40.69 43.61 43.77 43.11 42.98 44.29 43.85 44.52 44.81 40.10
46.22 46.47 46.69 46.99 47.43 48.00 48.09 47.68 46.45 46.40 47.50 47.68 48.95 49.23 48.71 48.56 49.89 48.28 44.50 48.96 48.66 49.48 38.90 35.86 35.71 43.46 45.70 47.45 44.49 45.44 46.17 45.03 44.27 37.95 35.45 35.14 36.71 40.59 33.41 32.35 39.94 43.16 44.55 44.20 44.60 42.96 40.19 40.95 40.53 44.36 45.49 42.07 38.21 35.54
45.68 46.04 46.11 46.31 46.54 46.99 47.48 47.84 47.79 47.21 47.10 48.02 49.39 49.50 49.54 48.76 49.65 49.08 49.41 48.66 49.12 46.40 41.06 34.25 32.81 36.30 44.83 37.06 37.26 42.15 38.17 41.70 41.75 40.53 38.54 35.75 37.08 34.33 34.35 40.12 42.67 44.54 44.67 43.82 42.97 42.34 41.80 42.68 42.28 42.07 40.20 36.24 34.54 32.66
45.24 45.54 45.71 45.68 45.88 45.97 46.46 47.53 48.29 48.29 48.11 48.54 49.00 49.82 48.71 47.37 43.97 48.35 47.55 47.32 50.92 46.12 37.38 33.06 33.35 32.20 41.69 38.96 36.90 35.44 39.20 33.27 38.42 35.84 35.83 38.50 34.54 35.10 38.32 40.07 42.04 43.10 41.78 41.48 41.58 42.15 42.95 42.12 41.90 37.09 35.69 34.44 32.54 31.83
44.90 45.15 45.27 45.20 45.63 45.95 46.10 47.10 47.70 48.46 48.35 48.47 47.64 43.46 40.94 43.04 47.12 47.73 45.97 41.23 40.14 40.85 39.66 33.82 37.97 34.68 40.33 34.18 34.01 34.16 33.64 33.83 33.47 34.21 38.49 33.09 34.39 39.44 39.59 42.00 42.34 42.50 42.52 42.63 40.63 40.04 41.00 35.78 34.40 34.47 34.08 33.78 33.22 32.06
45.40 45.47 45.48 45.93 46.31 46.27 46.54 47.03 47.59 48.04 47.77 45.23 40.69 37.09 42.96 46.37 44.12 40.50 36.95 36.45 37.28 35.09 37.79 37.57 36.77 35.52 37.80 34.19 34.18 33.70 32.73 32.73 31.02 29.59 32.59 27.17 31.09 34.43 39.49 39.93 41.65 42.60 42.81 40.93 41.59 41.11 37.31 35.94 34.65 33.74 32.94 31.67 31.21 30.55
45.67 46.01 45.46 45.47 45.58 45.72 46.08 46.74 46.58 44.87 43.55 43.88 43.19 44.27 42.26 39.34 36.20 36.34 33.98 34.00 33.98 33.77 34.25 34.53 35.07 38.68 35.98 38.42 34.48 33.62 32.08 32.32 28.53 34.50 32.16 28.92 33.01 37.78 36.20 36.36 36.87 37.55 37.30 36.41 37.13 36.05 35.70 34.71 34.03 31.70 29.86 29.45 29.82 29.59
44.78 45.22 45.90 45.15 44.60 45.26 45.45 45.28 45.33 45.27 44.54 42.50 38.67 34.84 37.09 32.82 32.56 33.12 32.78 31.71 32.19 32.32 33.61 33.45 33.64 33.45 35.28 36.38 32.73 32.52 31.45 30.34 33.57 31.24 29.51 30.85 37.86 36.52 34.71 34.73 34.60 35.61 34.51 34.23 34.77 35.09 34.62 33.33 32.44 30.31 28.60 29.68 25.90 29.28
44.55 44.38 44.86 44.80 44.39 44.31 44.43 44.82 45.28 44.07 40.98 35.08 33.64 30.20 31.78 29.37 30.11 30.09 31.00 31.78 32.16 32.19 32.55 32.55 31.96 32.52 32.19 32.55 31.98 30.48 31.04 31.24 28.63 25.32 22.67 32.67 36.55 37.08 35.10 34.89 33.67 32.37 30.06 31.53 32.14 31.91 31.20 30.40 29.67 28.25 26.47 25.71 22.35 26.40
43.80 44.76 44.46 43.97 44.21 44.41 44.25 43.82 44.08 41.40 35.11 33.02 30.76 28.50 27.28 30.46 31.81 32.16 32.17 32.17 32.50 33.95 32.91 32.35 32.34 33.41 31.42 30.27 30.68 29.16 27.07 25.61 27.49 26.61 30.51 32.31 34.56 34.24 32.00 32.18 30.91 29.60 29.64 30.65 31.04 29.91 27.23 26.37 26.54 28.19 28.26 28.00 28.91 24.91
43.67 44.20 42.71 43.66 43.74 44.09 44.14 42.11 40.05 37.17 31.94 32.68 32.10 29.90 31.42 31.49 31.43 32.02 32.02 31.84 34.28 32.90 33.27 32.68 31.24 30.48 28.24 28.99 27.31 27.10 26.34 24.49 28.30 31.25 31.72 32.39 32.53 32.51 32.41 33.44 32.76 32.67 31.76 31.35 31.16 31.36 30.14 26.15 23.25 29.12 29.16 27.51 25.17 24.29
43.75 40.33 43.96 43.33 43.51 44.04 43.32 38.22 34.32 32.82 31.93 31.26 30.29 32.71 32.34 31.54 31.42 32.03 32.58 32.73 35.83 33.08 30.48 30.79 22.46 23.70 28.81 26.77 26.54 29.93 27.31 30.48 32.28 32.37 31.94 32.02 31.86 31.73 32.04 32.13 30.71 31.63 31.84 31.59 31.32 30.36 29.98 29.91 25.69 25.97 26.89 30.72 30.06 29.95
41.15 41.81 44.34 43.98 43.67 41.89 38.49 38.82 32.51 30.99 28.58 30.86 30.19 31.08 31.42 31.81 32.37 32.37 32.55 32.91 31.80 30.83 30.20 28.63 30.23 26.54 25.10 24.13 26.03 29.95 30.61 31.17 31.61 31.00 31.01 31.81 32.18 31.92 32.36 30.77 32.03 30.52 29.84 29.87 28.30 29.96 29.69 25.39 28.36 29.24 30.19 30.78 29.60 28.89
41.86 42.59 43.36 43.28 41.67 34.13 33.43 31.21 33.66 28.15 30.04 30.76 30.73 31.02 31.27 31.43 31.52 31.96 32.37 32.84 30.40 29.45 28.13 25.47 23.85 24.17 24.81 27.13 27.85 29.26 27.75 27.77 28.51 29.66 30.51 31.51 31.62 31.55 31.36 31.14 30.82 30.30 30.44 30.58 30.59 29.08 29.12 30.50 29.81 29.60 29.57 28.09 27.01 25.77
41.65 41.44 41.83 42.35 40.83 29.44 31.09 27.45 31.45 27.75 25.89 27.18 31.29 29.90 29.36 29.16 30.58 32.02 32.19 32.37 32.26 31.45 26.95 20.65 22.26 24.22 25.85 26.62 27.17 27.21 27.57 27.78 27.98 26.78 27.89 29.26 30.08 30.75 30.36 30.00 28.64 29.95 29.47 30.27 29.53 25.78 28.51 28.91 29.67 29.50 28.35 26.88 29.90 31.59
39.79 39.45 39.42 39.62 36.20 34.26 27.45 29.13 31.06 31.31 31.01 29.66 30.20 29.98 27.93 29.52 29.37 30.22 30.73 31.31 25.35 21.43 23.71 25.71 23.47 27.09 28.95 28.24 27.19 27.17 29.32 29.80 28.11 26.10 25.35 25.66 27.35 27.04 27.77 28.61 29.02 27.67 26.26 25.96 23.02 26.66 23.45 25.55 28.94 29.13 27.25 29.64 27.81 29.20
37.38 39.26 34.28 35.47 32.38 31.65 26.15 30.76 29.06 26.45 30.21 28.60 29.89 29.04 26.94 26.37 27.20 27.99 29.62 24.33 26.99 24.92 27.69 25.83 28.27 27.64 29.32 30.76 30.60 30.49 30.56 29.88 29.73 27.93 26.85 25.93 26.96 26.94 27.09 27.06 26.69 23.28 23.74 22.85 26.52 27.85 27.21 28.18 28.43 28.76 28.86 25.85 23.38 29.98
37.39 36.06 32.87 31.60 23.41 26.14 22.55 32.10 27.21 26.76 23.66 26.57 28.74 25.99 24.35 25.99 27.68 28.61 25.89 28.00 25.09 28.51 28.53 29.46 30.64 31.31 29.85 29.47 29.09 28.28 28.73 29.02 27.33 26.73 27.02 25.64 25.71 24.35 23.86 24.14 22.54 20.67 23.13 24.71 26.10 24.55 24.06 23.44 25.41 26.71 28.50 28.89 29.27 28.87
37.03 31.45 27.99 20.98 27.52 22.70 26.03 23.12 27.03 27.92 26.92 25.58 24.94 22.92 24.87 25.60 25.55 21.99 14.21 22.39 29.20 27.78 27.20 27.24 27.53 27.80 27.92 27.09 25.17 24.28 24.54 25.26 24.66 24.13 24.34 22.46 21.55 22.15 23.13 23.07 22.22 21.23 21.04 21.77 21.19 19.95 20.22 19.79 19.80 21.15 22.57 23.75 25.69 25.83
27.86 19.49 20.98 14.27 26.11 23.52 16.97 17.34 21.47 22.98 22.83 24.11 22.48 21.75 16.63 17.84 11.95 9.56 12.12 22.97 26.14 25.98 25.15 24.22 25.85 27.28 26.60 25.04 24.83 24.31 24.04 22.68 20.95 20.42 21.22 21.82 16.95 16.98 19.09 19.72 20.04 18.41 17.34 15.52 16.10 15.44 15.02 15.65 16.38 17.14 18.61 19.59 19.94 22.53
17.44 18.53 15.95 14.79 15.36 23.28 21.42 15.30 17.78 18.41 18.61 18.83 18.32 21.14 15.65 13.63 16.37 10.20 21.34 24.08 24.07 24.20 23.86 24.44 23.96 22.78 23.08 23.26 21.84 21.56 19.86 21.04 19.98 18.41 20.71 19.96 17.54 13.51 10.99 10.75 11.28 11.95 14.25 13.35 14.45 11.66 11.73 12.75 13.19 14.24 14.32 15.87 18.40 20.98
14.41 14.05 24.08 27.86 27.70 27.85 24.70 23.61 25.82 23.56 20.99 18.95 18.27 17.03 13.82 10.59 7.38 21.00 23.52 23.24 24.02 25.52 25.16 24.90 24.67 23.71 22.22 21.91 21.32 18.37 17.01 16.88 15.53 16.09 19.76 17.17 15.22 14.01 11.39 9.16 8.85 10.84 12.06 10.43 11.37 10.70 10.00 10.91 11.71 12.17 13.13 16.00 17.93 19.69
23.61 20.88 17.08 23.70 26.56 27.10 23.55 22.47 22.46 22.25 22.65 24.86 22.14 17.03 15.89 13.09 15.98 19.57 21.48 23.92 24.62 23.79 22.97 22.73 21.80 20.67 20.53 18.33 15.71 11.80 11.87 10.49 10.75 13.45 16.71 12.72 11.04 7.88 6.62 3.61 5.35 11.93 6.01 5.80 8.67 9.55 8.46 8.98 10.41 11.93 14.44 15.39 16.31 13.96
25.45 27.85 25.91 22.60 21.93 20.33 21.22 21.00 19.98 24.93 27.79 21.22 14.29 12.21 17.41 17.48 16.52 19.67 19.44 20.30 21.21 20.85 17.01 15.42 14.68 14.82 14.21 14.31 9.68 7.00 3.82 4.52 2.77 -2.33 -6.22 -7.67 -4.95 -0.49 2.61 -0.36 -1.60 2.77 4.39 5.77 8.12 9.06 8.56 9.91 10.82 13.66 16.66 14.21 11.32 10.02
23.92 26.02 20.31 17.39 18.01 20.30 24.44 25.89 26.12 26.72 25.61 24.26 20.71 19.25 17.07 15.01 15.85 16.71 15.32 14.88 14.80 12.69 13.94 12.02 7.35 5.53 -3.13 -2.41 -3.13 2.23 5.77 -3.68 -2.87 -2.67 -6.94 -6.76 -0.28 3.80 -1.54 0.05 3.43 2.95 3.34 4.96 3.23 3.47 5.75 5.22 8.27 12.30 10.68 10.66 8.39 6.45
25.98 25.85 24.48 23.11 23.07 24.84 25.40 26.57 27.43 27.99 27.52 27.37 23.28 17.22 12.76 10.60 10.77 10.95 12.14 10.86 8.64 6.84 6.32 0.66 0.31 -5.31 0.13 1.55 -0.05 -4.04 -2.24 3.03 2.21 1.37 -1.32 -0.80 -2.23 -7.49 -4.58 -2.00 -1.32 -1.43 2.06 2.80 -0.61 -0.17 1.97 2.19 5.79 5.40 3.57 3.22 3.05 2.34
24.84 22.82 22.08 20.35 19.31 23.92 26.43 24.53 21.74 21.88 13.62 23.68 18.26 17.51 12.79 5.73 -0.79 5.41 6.46 5.47 1.37 -1.87 -5.13 -7.67 -4.77 0.13 0.06 0.93 -0.45 -3.50 -0.53 -2.96 -2.95 -0.60 2.61 0.61 -4.04 -6.22 -4.95 -2.83 -3.17 -1.01 -0.27 -6.79 -5.94 -1.33 1.93 0.06 -0.68 -1.11 -1.26 -2.20 -1.36 -1.88
9.57 4.35 5.32 2.50 7.53 8.06 12.83 7.84 5.51 5.99 9.49 11.99 12.75 6.66 3.59 4.19 1.20 4.96 6.17 -0.47 -0.46 -3.87 -4.95 -5.67 -6.94 -6.58 -2.23 -3.52 -4.71 -6.24 -4.42 -7.12 -6.76 2.67 3.03 5.66 -0.61 -2.59 -5.13 -7.12 -8.03 -11.84 -12.74 -11.84 -9.14 -4.05 -6.94 -8.39 -8.03 -3.13 -4.66 -4.67 -4.51 -4.69

GFSWCAN_sfc_wetblb_021.txt.gz
Wetbulb
49.75 49.37 49.19 47.56 47.90 49.19 49.78 49.89 49.76 49.55 50.63 49.48 49.41 49.28 49.55 49.85 51.59 51.83 51.39 52.40 49.40 42.78 46.03 49.31 49.12 45.43 44.69 42.51 37.63 42.01 39.86 38.22 32.28 29.15 25.92 26.71 22.86 30.34 29.96 32.96 31.37 29.37 27.74 23.85 24.88 17.69 22.02 38.20 38.23 33.18 36.75 37.28 41.49 40.47
49.25 48.82 48.60 48.57 49.05 49.44 49.38 49.55 49.60 49.47 49.17 50.11 46.75 47.29 48.44 49.79 50.88 52.13 50.73 53.51 52.34 47.35 47.22 49.96 50.30 50.11 49.20 47.30 44.63 41.90 41.52 39.94 39.42 32.68 28.48 30.48 24.98 32.85 28.27 26.75 35.65 29.19 31.79 29.22 30.42 30.14 37.00 38.72 38.34 39.97 40.64 40.52 40.62 40.39
48.68 48.63 48.63 48.96 48.94 49.03 49.17 49.15 49.30 49.23 48.01 46.60 47.65 48.01 48.36 49.20 51.49 52.40 51.53 51.13 48.26 42.59 44.87 46.68 46.93 51.14 52.57 51.22 50.49 42.33 40.47 45.14 42.16 40.36 35.99 34.49 25.68 30.27 28.31 30.29 31.00 36.21 38.61 31.34 33.00 37.06 37.80 39.09 40.63 41.85 42.01 41.27 40.81 41.62
48.43 48.38 48.54 48.58 48.53 48.54 48.65 48.80 48.50 47.40 47.45 47.90 48.08 48.61 48.39 49.58 51.48 51.99 50.85 49.98 46.01 40.97 34.76 42.21 50.50 48.93 52.30 52.83 52.13 49.91 48.35 46.01 43.27 39.61 33.66 33.15 27.52 36.03 29.27 32.46 31.79 35.68 38.04 35.66 32.81 37.28 39.39 41.87 41.93 42.25 42.12 41.98 42.43 43.22
48.04 48.09 48.08 48.26 48.13 48.13 48.13 47.13 46.87 47.78 47.96 48.44 49.02 48.86 48.74 50.06 51.21 51.80 49.98 49.02 50.03 44.99 36.54 37.67 47.19 49.29 49.64 51.62 50.79 50.10 48.27 45.32 40.57 35.71 33.15 32.79 30.99 33.89 33.42 31.83 31.77 38.43 37.22 32.00 32.64 38.44 39.16 38.88 41.96 42.45 41.42 41.14 42.57 42.69
47.90 47.79 47.67 47.79 47.81 47.77 47.07 45.81 46.78 47.45 47.90 48.85 48.70 48.88 48.55 49.76 51.84 49.03 44.16 50.06 49.77 48.06 40.23 34.74 43.58 44.97 47.02 49.19 48.65 48.45 47.90 45.09 42.18 38.43 34.37 35.93 39.88 34.87 33.23 33.74 38.90 41.48 42.72 40.85 38.74 40.88 40.75 41.26 41.34 42.58 42.11 43.19 43.20 38.11
47.49 47.78 47.76 47.63 47.52 47.31 45.99 45.97 46.69 47.43 47.56 48.62 48.50 49.04 48.42 49.37 49.31 45.62 40.97 47.07 48.10 46.98 38.61 35.93 33.60 41.93 44.13 45.42 43.03 44.49 44.51 43.71 42.81 38.69 34.16 35.35 36.62 39.46 33.77 32.38 38.99 41.68 42.70 43.03 43.21 42.04 38.64 40.33 40.29 43.63 44.02 40.54 37.68 35.71
46.13 46.73 46.96 47.34 47.47 47.40 46.80 46.55 46.29 46.84 47.70 48.62 49.63 48.48 48.39 49.08 49.15 47.95 48.48 47.51 47.67 43.70 39.12 33.05 31.77 34.84 43.57 37.26 36.96 41.51 37.96 40.58 40.45 38.80 37.82 36.74 36.26 35.08 33.06 38.84 41.24 43.03 43.05 41.92 42.22 41.87 41.30 41.80 42.67 40.75 37.10 35.58 33.80 33.08
45.63 45.72 45.71 45.92 46.57 47.07 47.18 47.43 47.09 46.71 47.83 49.05 48.90 48.34 47.95 46.44 44.43 47.18 47.13 47.09 48.33 44.51 35.65 32.74 31.35 31.03 40.52 38.15 36.53 36.35 38.87 33.86 38.73 34.98 35.15 36.26 34.03 32.59 37.88 39.19 40.37 41.24 41.00 40.66 41.09 41.10 41.21 39.76 35.83 35.73 35.25 34.93 33.04 31.76
45.19 45.14 45.54 45.54 45.80 46.44 46.75 47.11 47.56 47.13 48.08 47.71 46.64 41.99 34.93 43.64 47.04 46.84 44.58 39.63 38.87 40.38 37.59 32.76 36.95 33.90 40.13 34.06 33.88 33.82 33.50 35.48 33.51 33.50 38.61 33.14 34.46 37.71 37.87 39.11 40.65 41.35 41.85 41.68 38.30 37.87 35.65 34.56 34.99 35.37 35.38 35.06 33.81 32.73
45.67 46.06 46.10 46.06 46.19 46.46 46.78 47.31 47.79 47.85 47.34 42.92 41.86 37.14 43.15 45.93 43.07 38.61 35.82 33.51 37.64 35.31 37.59 36.37 35.81 35.38 38.53 34.48 33.51 31.96 32.76 32.41 31.69 29.60 33.68 30.53 31.23 33.50 36.45 37.06 37.78 38.24 38.66 38.52 39.47 37.41 36.96 35.96 34.05 32.94 31.71 32.17 31.79 30.95
45.66 45.27 45.22 45.27 45.52 46.03 46.71 46.68 46.31 45.22 42.80 42.45 41.66 43.37 39.85 37.14 34.16 34.26 33.08 33.86 34.00 33.26 34.15 34.22 35.10 38.57 35.84 37.30 34.71 33.68 31.46 31.99 28.57 33.23 31.85 28.70 31.06 32.57 33.25 34.02 35.12 35.80 35.68 35.19 35.97 35.09 34.88 33.76 33.24 31.76 30.70 29.57 29.62 29.31
45.00 45.07 44.95 44.69 44.64 45.42 45.59 45.60 45.67 45.25 44.81 43.26 39.08 35.53 38.02 33.63 33.27 33.12 31.58 31.48 31.99 32.19 33.47 33.14 33.50 33.14 35.06 36.01 32.94 32.73 31.46 30.08 32.62 30.93 29.40 31.13 35.05 34.26 34.98 36.67 36.51 37.29 35.94 35.44 35.30 34.99 34.18 32.68 32.03 30.47 29.62 30.31 27.84 29.78
44.38 44.26 44.48 44.52 44.55 44.45 44.45 45.23 45.04 43.62 41.30 35.59 34.22 31.13 32.35 29.94 29.95 30.53 31.25 31.82 31.84 32.20 32.41 32.59 32.20 32.55 32.22 32.53 32.00 30.71 31.10 31.10 28.51 24.16 21.66 31.66 33.78 34.47 32.75 31.62 31.97 30.34 29.80 33.27 32.43 31.14 30.15 29.62 29.29 28.14 27.51 27.03 25.51 27.95
44.23 44.06 43.78 43.66 44.16 44.35 44.22 43.51 43.48 41.81 36.74 32.69 30.74 27.34 27.19 30.18 31.55 31.82 32.03 32.38 32.40 33.62 32.76 32.55 32.37 33.27 31.45 30.48 30.53 28.45 27.12 25.28 25.87 23.17 29.82 31.67 32.58 33.47 31.41 32.36 32.77 31.88 30.74 30.59 30.05 29.35 26.78 25.72 26.40 28.11 28.29 27.77 28.13 22.41
44.08 43.54 42.42 43.74 44.21 44.30 43.50 41.10 38.82 36.28 31.33 32.83 31.79 29.72 31.22 30.75 31.10 32.06 32.19 31.88 34.13 32.77 32.77 32.73 31.25 28.65 27.91 28.81 24.91 24.01 24.33 22.55 26.54 30.56 31.66 32.56 33.00 33.11 33.15 34.23 34.56 34.33 31.63 30.82 30.90 31.10 29.68 25.77 24.32 28.99 27.88 26.36 22.65 21.88
43.32 40.88 43.79 43.48 43.59 43.25 42.67 36.75 33.30 31.54 28.70 31.63 30.33 32.41 32.14 31.81 31.67 32.08 32.44 32.59 35.59 32.94 30.35 30.58 19.90 22.09 28.38 23.90 24.65 29.58 25.87 29.29 31.51 33.23 31.92 33.41 33.19 32.22 31.94 31.89 30.00 31.26 31.15 30.27 30.07 29.68 29.64 29.24 24.77 25.22 26.26 29.98 29.53 28.93
40.84 42.61 43.54 43.68 42.23 39.37 36.76 34.50 29.19 29.13 28.65 30.72 30.09 30.57 31.45 31.85 32.03 32.23 32.41 32.19 29.31 31.10 29.55 27.02 29.12 23.97 22.06 22.15 24.28 29.08 31.46 32.94 32.16 32.05 31.73 32.36 32.09 31.45 31.57 30.10 30.47 29.84 29.87 30.17 28.89 29.62 29.45 25.14 28.18 28.74 29.77 30.21 28.56 27.99
40.23 40.15 42.42 42.78 40.69 32.47 30.59 30.89 31.43 28.75 29.70 30.51 30.47 30.44 30.86 30.71 31.16 31.82 32.23 29.87 28.45 28.24 28.12 24.76 20.45 21.40 24.05 26.70 26.15 27.69 27.27 26.77 28.16 28.90 29.74 30.45 30.66 30.72 30.71 30.49 30.37 30.10 30.04 29.99 29.88 28.32 28.37 29.52 28.60 28.49 29.01 27.91 26.58 26.84
41.43 40.84 40.92 41.56 40.38 29.55 28.54 27.23 30.84 27.58 26.23 29.40 30.71 29.46 29.23 29.13 30.27 31.85 32.23 31.82 27.96 25.10 22.36 20.67 22.49 24.33 24.76 26.06 26.79 26.16 26.15 26.54 27.30 24.58 25.43 27.17 28.31 28.80 28.05 27.89 27.05 28.15 27.63 28.04 27.48 24.50 27.43 27.24 28.41 28.42 27.88 27.49 27.88 28.83
37.42 37.75 38.51 39.01 33.87 30.59 27.74 28.66 30.37 30.63 30.83 29.41 29.78 29.43 27.69 29.50 29.27 29.56 30.36 29.55 21.58 19.68 22.64 24.74 21.13 24.91 27.64 27.09 26.33 26.27 28.29 28.79 26.96 24.89 24.53 24.31 26.10 27.59 27.10 26.79 26.60 26.18 24.20 23.88 26.16 25.87 25.91 25.12 25.87 26.21 25.80 26.57 28.32 28.63
36.06 38.90 32.02 34.99 31.40 28.05 25.51 30.40 29.87 30.08 29.88 29.28 28.98 29.08 26.48 25.64 26.26 27.96 29.37 24.41 24.52 23.95 26.51 24.87 27.46 27.26 29.86 28.82 27.37 27.69 28.54 28.67 28.08 26.98 25.91 25.11 24.66 23.98 23.88 24.61 22.85 21.05 23.26 23.29 23.07 22.35 21.76 22.37 22.11 20.92 21.32 21.87 23.90 25.16
36.89 35.12 32.81 32.35 21.98 25.91 20.87 32.13 27.47 28.78 25.52 26.39 28.27 25.54 24.46 25.54 27.30 28.71 25.19 27.75 27.69 28.78 27.17 28.07 29.46 30.35 28.28 27.25 26.00 25.17 26.14 26.08 24.04 23.63 24.12 23.77 23.66 20.33 20.13 21.85 20.30 17.76 16.95 18.32 19.99 19.08 16.55 14.89 16.05 15.11 16.38 17.38 18.06 18.90
36.51 30.23 27.38 25.42 26.27 14.79 18.34 21.93 26.07 24.81 21.78 22.91 24.63 22.56 24.03 24.98 25.96 23.54 13.98 22.95 28.49 27.45 25.63 26.37 27.04 26.68 26.61 25.71 23.51 21.89 22.27 23.28 23.11 21.36 21.41 20.24 20.11 20.68 20.81 19.48 17.11 14.62 14.48 14.82 15.11 10.96 11.82 10.77 10.23 12.82 12.60 13.37 13.57 14.01
27.08 23.97 25.84 15.81 25.54 14.78 10.60 10.49 18.03 20.34 15.60 22.18 22.72 21.27 21.94 22.16 11.32 17.22 11.23 23.68 25.44 24.88 24.58 25.41 27.42 26.44 24.27 23.71 23.97 22.21 21.44 21.47 20.46 19.67 19.55 18.36 13.73 13.34 14.75 15.57 15.14 13.37 11.83 7.46 6.84 8.77 7.97 8.35 8.84 9.25 9.73 10.29 10.07 11.08
19.82 17.65 21.45 13.12 14.75 18.49 13.82 10.80 15.16 15.59 13.78 17.70 20.47 22.42 18.91 18.80 17.71 12.07 21.42 23.21 23.30 23.76 23.28 23.75 24.21 23.10 22.18 23.26 21.24 18.44 17.49 18.54 19.30 17.34 16.00 15.24 12.52 6.48 3.01 4.09 5.65 6.23 10.08 4.41 5.12 4.48 5.54 5.91 5.92 5.79 7.31 8.21 9.35 11.45
17.50 10.75 21.67 26.97 24.61 24.39 20.94 20.54 23.43 23.62 18.12 20.43 19.25 18.71 21.02 17.91 16.60 18.80 22.13 22.17 23.29 23.13 24.49 24.73 24.53 22.91 21.50 18.14 16.50 15.26 13.86 13.23 12.25 15.83 14.64 13.10 11.73 10.79 5.56 -0.95 1.82 6.00 8.58 4.68 0.85 1.42 3.15 2.89 2.77 3.73 5.34 7.26 11.14 10.61
22.82 19.23 18.40 20.63 23.87 26.23 21.64 22.19 22.32 22.49 23.43 25.41 23.34 19.73 18.59 15.50 15.04 18.41 20.19 22.37 21.86 22.48 20.75 19.84 19.52 18.51 16.15 14.42 12.56 9.96 10.87 9.79 14.90 12.86 12.05 9.35 6.52 1.78 0.44 -1.52 -0.46 7.90 0.00 -2.43 -5.27 0.16 0.78 2.16 2.66 4.34 5.79 7.94 6.71 7.50
24.20 25.52 25.30 22.31 22.49 19.86 22.54 22.89 22.85 25.58 26.95 24.10 16.10 16.96 14.37 15.42 13.68 15.93 17.24 17.89 19.25 17.14 14.32 13.24 12.50 12.66 11.40 10.34 7.22 5.49 2.21 0.60 -0.38 -4.29 -8.17 -10.34 -8.35 -2.74 -0.25 -5.64 -6.37 -5.14 -5.84 -4.72 1.44 6.06 6.20 6.64 6.91 8.32 8.86 9.11 4.37 2.56
21.58 26.24 18.58 16.55 17.07 18.41 22.12 23.76 23.88 25.70 26.35 20.84 19.12 16.81 14.80 12.56 13.45 14.99 13.98 13.58 10.83 9.46 7.69 5.36 1.54 3.47 -7.26 -5.45 -5.63 -0.77 0.81 -3.63 -4.93 -4.74 -9.25 -9.80 -3.14 -1.21 -8.89 -7.10 -6.19 -5.82 -6.35 -9.44 -3.64 -2.42 -0.57 -3.86 -2.91 -4.74 -3.15 -3.25 -0.96 -0.94
23.76 24.35 22.99 21.39 21.22 22.88 24.29 26.02 26.67 26.81 26.56 23.48 19.65 14.71 10.67 8.66 7.94 10.39 9.85 6.86 7.32 3.25 1.40 -3.48 -2.18 -10.16 -4.72 -6.90 -8.71 -9.25 -6.17 -6.94 -8.71 -4.00 -3.64 -5.99 -8.35 -11.43 -9.98 -7.44 -8.53 -10.70 -11.25 -10.16 -12.15 -13.24 -11.07 -10.34 -13.61 -14.33 -11.97 -10.35 -9.80 -8.00
23.59 21.52 21.02 19.74 18.03 21.63 13.35 17.22 18.43 8.66 18.99 21.30 14.33 11.70 3.97 -1.79 -4.72 2.24 5.06 -0.70 -3.01 -4.36 -9.25 -13.24 -8.35 -4.36 -4.00 -3.63 -7.44 -9.07 -4.00 -7.99 -9.25 -9.62 -7.44 -5.63 -7.99 -11.25 -11.25 -9.98 -13.79 -15.60 -17.05 -16.69 -16.69 -14.87 -15.06 -16.69 -17.23 -17.05 -17.59 -16.14 -15.60 -13.79
2.64 1.05 2.99 -0.40 5.62 9.06 10.56 2.22 1.39 4.18 9.37 14.18 5.30 3.47 -1.14 1.36 -0.85 2.85 4.69 -3.45 -3.59 -6.36 -7.27 -8.89 -11.07 -11.07 -7.80 -8.06 -8.32 -9.99 -8.72 -11.43 -11.61 -2.00 -2.18 0.72 -5.63 -6.90 -12.70 -15.78 -18.32 -19.41 -18.50 -19.77 -19.59 -19.23 -16.69 -16.87 -18.68 -18.50 -18.50 -18.32 -17.23 -15.06

GFSWCAN_sfc_wetblb_024.txt.gz
Wetbulb
49.43 49.23 48.49 47.79 48.11 49.29 49.58 49.72 49.67 49.77 49.25 48.78 48.32 48.86 49.98 51.42 51.62 53.94 50.59 51.03 47.71 42.54 45.24 48.06 47.54 43.66 43.03 41.50 37.05 41.19 39.34 38.04 31.73 29.23 26.25 25.72 23.10 29.33 29.48 31.80 31.08 29.20 26.88 21.98 22.83 15.27 22.47 36.46 38.25 32.59 36.10 35.60 39.15 39.21
48.71 48.13 47.77 47.86 48.60 49.08 49.22 49.15 49.55 49.91 46.58 47.23 47.90 48.64 49.96 50.92 51.18 53.01 52.03 52.32 50.59 47.26 46.45 48.91 49.18 48.87 47.75 46.05 43.24 40.63 41.14 39.51 38.77 31.45 26.43 26.01 24.92 29.45 27.70 26.24 33.85 28.76 31.34 28.12 29.38 29.52 35.89 37.15 37.79 38.76 38.65 38.28 39.21 39.42
47.95 47.61 47.97 48.53 48.70 48.90 48.90 48.71 47.95 47.61 47.36 47.86 47.90 48.64 49.92 50.36 52.11 52.88 51.61 48.56 46.99 42.62 44.68 45.97 45.72 50.19 51.50 50.07 48.91 41.91 38.52 43.19 40.13 38.44 32.40 29.25 25.64 29.34 26.53 28.84 29.11 34.51 36.01 29.94 32.19 35.79 36.17 37.27 38.93 40.21 40.26 40.07 40.49 40.96
48.13 48.49 48.67 48.36 48.34 48.42 48.26 47.19 46.51 47.54 47.54 48.26 48.30 48.80 50.21 50.36 50.90 51.57 49.65 48.12 44.07 40.17 35.12 41.59 49.00 47.73 50.71 51.57 50.80 48.24 45.69 43.24 40.84 37.88 32.69 30.08 26.68 33.95 27.21 31.01 30.35 34.94 36.21 34.05 31.79 36.35 36.79 39.14 40.21 40.30 41.14 41.35 41.31 42.14
48.24 47.95 48.04 48.08 48.13 47.63 47.03 47.01 46.94 47.34 48.08 48.33 48.30 49.60 50.60 50.19 50.85 51.10 49.21 48.23 48.11 43.78 36.37 37.71 45.60 47.13 48.47 50.38 48.67 47.97 46.01 43.67 39.98 35.02 32.87 32.00 29.80 32.37 32.28 32.89 31.26 36.88 35.65 31.30 30.98 37.63 37.47 37.84 40.23 41.52 41.70 41.46 42.05 41.92
47.82 47.75 47.55 47.75 47.07 46.47 46.65 47.01 46.94 47.72 47.77 47.88 47.97 48.70 49.54 49.91 49.56 46.16 43.34 48.26 49.18 46.00 40.59 35.19 42.20 43.44 45.83 47.45 47.01 46.53 46.37 42.94 40.97 37.57 34.00 35.20 38.26 34.29 33.02 33.17 37.58 39.45 40.00 39.07 38.11 38.78 39.09 39.37 40.83 41.39 41.35 41.29 41.46 37.79
47.50 47.45 47.39 46.85 46.45 46.42 46.63 46.67 46.87 47.54 48.17 48.32 48.28 48.62 49.14 49.24 49.22 43.09 40.22 45.60 47.18 45.45 38.35 35.56 34.93 40.65 42.52 43.93 41.76 42.67 43.72 42.28 41.20 38.39 33.81 34.27 35.89 36.68 32.99 28.44 38.96 40.47 41.43 41.60 41.84 40.84 38.70 39.27 39.94 41.93 42.16 38.05 36.25 35.30
47.16 47.34 47.30 46.67 46.29 46.07 45.93 46.29 46.82 47.48 48.31 48.69 48.31 48.51 48.73 48.84 48.56 46.87 47.19 47.20 47.27 41.96 37.99 32.57 31.52 34.86 42.18 37.26 37.15 41.62 37.78 40.69 40.64 38.42 37.04 35.41 36.66 34.65 33.16 37.63 39.89 41.46 42.17 41.96 41.50 40.88 39.46 40.30 40.61 35.17 35.10 35.24 34.30 34.26
46.04 46.58 46.69 46.71 46.80 46.53 46.38 45.77 46.51 47.68 48.94 48.20 47.74 48.08 47.87 46.28 45.00 46.27 46.96 46.96 46.39 43.55 34.40 31.73 30.22 29.35 40.03 37.55 36.10 37.02 38.65 35.62 38.32 34.74 34.92 36.96 33.26 33.07 35.39 35.52 37.24 38.82 39.06 39.75 39.72 40.36 39.20 35.16 33.50 34.75 35.76 35.60 34.05 32.43
45.39 45.43 45.72 46.11 46.44 46.73 46.74 45.97 46.29 48.04 47.39 47.10 46.34 42.35 36.00 43.39 46.87 46.30 43.60 39.25 38.43 37.58 39.44 33.02 36.24 33.74 40.52 34.02 33.84 33.76 33.64 34.66 34.43 32.61 38.24 33.28 33.58 36.28 32.36 33.60 35.11 36.90 39.28 40.14 36.86 33.95 33.32 33.85 34.79 34.21 34.63 34.65 33.20 32.47
45.58 45.73 46.09 46.36 46.55 46.62 46.82 46.85 47.11 47.53 47.24 43.54 39.41 37.46 42.66 44.90 42.51 36.41 34.44 32.97 37.85 35.40 36.96 35.77 35.54 35.18 38.56 34.82 34.20 32.31 32.92 32.36 31.69 31.43 33.70 30.94 31.03 31.40 33.20 33.50 34.67 35.44 35.97 35.72 35.68 35.67 35.78 34.68 32.99 32.24 32.34 33.27 33.06 31.03
45.23 45.15 45.44 45.72 46.10 46.73 46.73 46.43 46.48 44.20 41.86 42.35 41.93 42.22 39.36 37.21 35.10 33.25 32.06 33.64 34.12 31.62 33.78 34.70 34.89 38.22 35.27 35.56 34.05 33.64 31.83 31.92 29.20 32.12 31.98 28.66 30.38 33.94 34.95 35.74 36.11 35.82 35.11 34.42 34.94 34.34 34.87 34.94 34.93 33.27 30.92 29.45 29.58 29.39
44.42 44.64 44.78 44.69 44.98 45.60 45.55 45.30 45.36 45.04 44.10 41.30 37.10 33.74 35.70 32.18 32.84 32.62 31.02 31.93 32.19 32.34 33.23 33.28 33.28 32.92 35.02 35.91 33.10 32.85 31.72 30.08 32.60 30.49 29.01 30.47 34.21 34.33 34.72 36.13 34.16 35.17 35.22 34.87 33.95 34.39 33.78 31.87 31.24 30.42 29.52 30.09 27.93 29.63
43.83 43.99 44.41 44.44 44.30 44.19 44.67 45.24 44.79 43.77 42.29 35.92 34.17 33.07 32.46 30.62 30.28 30.67 31.59 31.99 31.62 32.16 32.37 32.73 32.34 32.67 32.19 32.87 31.81 31.41 30.88 31.06 28.26 24.41 23.27 30.29 32.52 32.61 30.99 30.84 31.33 31.65 31.35 31.42 30.65 30.30 29.81 29.39 28.83 27.47 26.69 26.37 24.72 26.83
44.10 43.80 43.62 43.44 44.20 44.06 43.65 43.33 43.50 41.85 37.42 32.70 32.63 27.59 27.66 29.97 31.20 31.42 31.98 32.33 32.15 33.59 32.72 32.70 32.69 33.61 31.41 30.43 30.10 29.11 26.35 23.62 21.21 19.05 29.72 31.02 31.96 32.12 32.14 33.70 33.11 33.95 29.36 28.38 29.11 28.53 23.70 23.39 24.93 26.93 26.72 26.89 27.36 21.45
43.80 43.25 41.96 43.54 43.84 43.71 42.68 40.91 39.17 38.05 33.90 32.76 31.61 29.69 30.68 30.97 30.52 31.81 32.02 32.04 34.11 32.73 32.90 33.19 31.00 25.40 25.50 28.94 25.55 25.54 23.27 19.27 25.23 29.97 31.96 32.12 32.12 32.81 33.29 33.82 33.38 33.80 31.55 30.78 31.24 30.78 29.09 24.78 22.71 28.33 26.84 25.06 20.89 20.50
43.30 40.52 43.09 43.26 43.19 42.06 41.91 36.44 34.19 31.16 29.14 30.99 30.49 32.52 32.18 32.19 31.63 32.04 32.40 32.37 35.21 32.70 30.85 30.30 23.72 23.07 28.73 23.81 25.06 27.99 21.57 27.90 32.03 31.96 32.48 33.08 32.33 32.58 32.90 32.37 29.99 30.91 30.77 29.70 29.65 29.74 29.52 28.83 24.60 25.44 26.95 29.56 28.82 28.59
38.54 38.90 42.46 43.30 41.08 38.10 35.03 33.24 29.97 29.99 29.66 30.68 30.08 30.33 31.23 31.81 32.02 32.01 32.19 31.96 31.37 31.56 28.91 25.18 29.11 20.85 17.83 17.60 20.71 26.16 30.83 28.73 30.11 30.72 31.60 33.85 32.05 31.12 31.01 29.64 30.11 29.84 29.74 29.76 27.94 28.81 27.97 26.15 27.07 27.43 28.08 28.24 26.83 26.45
39.11 39.90 41.44 41.85 39.05 32.09 30.56 30.39 30.40 28.78 29.58 30.32 30.29 30.28 30.65 30.47 30.91 31.60 31.78 30.97 26.50 26.25 26.29 23.08 19.40 19.55 21.00 24.56 23.23 26.77 31.20 30.88 28.73 29.95 29.09 29.50 29.82 29.77 29.24 29.24 29.32 28.60 28.49 28.06 27.63 27.05 26.72 27.26 26.76 26.30 25.92 25.45 24.60 25.86
40.25 40.50 40.54 40.41 38.58 29.19 28.39 26.66 29.90 28.35 28.41 30.07 30.31 29.02 29.02 28.94 30.08 31.75 31.57 28.68 26.85 23.19 22.17 20.67 21.16 22.89 23.90 25.53 26.43 26.38 26.99 26.51 26.54 23.43 24.36 26.23 26.93 27.90 26.98 26.79 26.22 26.96 26.00 26.86 26.51 25.02 24.44 24.09 24.06 23.32 22.11 22.15 22.37 22.65
36.29 36.52 37.46 35.50 30.68 30.37 28.50 27.23 29.94 30.19 30.36 29.18 29.59 29.18 27.53 29.38 28.77 29.20 29.64 30.00 24.51 20.59 22.50 24.05 20.24 24.37 27.21 26.59 26.67 25.93 27.72 27.89 25.94 24.34 24.00 25.05 26.23 25.60 25.04 24.49 23.84 23.52 21.85 20.13 18.13 21.01 20.79 20.25 20.28 19.17 15.90 15.62 16.91 18.03
35.12 37.73 30.88 31.72 27.13 25.47 26.13 30.57 29.97 30.37 29.39 28.80 28.19 28.78 25.97 25.28 25.97 27.69 29.17 27.57 24.27 23.54 26.19 25.84 29.26 30.09 28.41 26.15 26.42 26.86 27.39 27.24 27.14 26.28 24.74 22.97 21.44 21.33 21.46 20.94 19.81 18.22 18.30 15.80 17.81 14.58 13.70 16.29 15.23 13.94 12.09 12.72 13.85 15.21
35.62 32.05 28.56 25.74 20.83 20.41 21.73 31.16 23.73 28.74 25.43 26.06 27.28 23.79 24.41 24.91 26.95 28.74 24.98 27.53 27.88 28.93 28.89 29.25 28.64 28.46 26.35 26.09 25.40 24.11 24.91 23.60 21.81 21.78 21.94 21.66 21.99 21.20 19.32 17.18 14.44 10.24 10.43 12.82 14.66 14.29 11.43 8.57 10.01 8.12 9.82 9.92 10.24 10.09
33.38 27.88 27.10 26.19 26.21 15.35 18.08 16.17 23.90 20.57 16.66 19.17 17.49 16.23 20.38 23.83 25.79 23.04 21.19 23.53 27.70 27.66 27.15 28.12 27.81 25.99 25.82 24.12 21.02 20.36 21.73 23.01 20.49 19.29 19.73 19.43 17.77 18.08 17.75 15.44 12.82 10.76 10.39 9.75 8.84 5.76 6.42 2.51 2.51 5.96 5.41 4.93 5.60 6.82
17.97 16.30 23.64 19.94 24.67 12.78 7.36 7.38 15.47 18.29 10.65 12.04 17.34 15.05 19.98 19.18 14.78 18.93 16.08 23.09 23.86 23.50 24.62 27.11 27.09 26.32 23.84 22.83 21.51 19.03 19.33 20.84 19.18 16.53 16.08 15.35 12.54 12.30 12.05 12.68 12.16 10.59 9.18 2.01 1.08 -0.29 0.14 -0.75 -2.14 -0.43 2.21 1.64 4.02 5.29
18.13 16.19 21.65 15.54 9.36 17.27 9.46 8.83 7.01 10.35 12.44 14.12 16.13 18.49 16.03 16.53 15.93 15.91 20.24 21.15 22.34 22.25 21.42 20.92 22.83 21.95 20.24 21.30 19.15 17.14 16.04 16.97 19.03 14.30 12.85 12.37 9.85 5.56 3.25 -0.14 0.00 2.49 6.24 -3.13 -6.21 -6.21 -1.91 -0.77 -1.46 -2.30 -1.17 1.01 2.88 4.73
13.44 10.63 19.90 26.79 25.71 23.59 16.90 14.59 19.49 16.81 15.50 18.30 18.36 16.88 20.64 18.07 13.76 17.56 21.61 21.30 21.45 21.27 21.66 21.97 23.65 21.92 18.18 15.85 14.62 13.51 12.96 13.29 14.20 13.00 12.65 11.74 10.49 8.52 0.46 -5.49 -3.67 2.51 5.80 0.57 -8.39 -11.83 -7.30 -3.13 -2.60 -2.14 -0.58 1.51 2.22 2.18
18.77 18.72 16.95 16.81 19.66 22.57 21.76 18.87 19.57 20.66 21.94 25.00 22.96 18.79 18.24 16.19 14.39 17.29 18.43 21.30 20.09 19.51 17.66 16.95 16.17 15.11 13.29 12.15 10.93 9.20 10.29 12.08 11.35 10.12 8.67 6.02 4.79 -1.15 -2.81 -4.95 -3.80 4.48 -5.32 -10.56 -12.19 -8.75 -8.75 -3.86 -0.70 0.49 1.58 0.94 -2.06 -6.39
20.73 23.08 21.43 16.52 17.23 19.56 21.93 21.92 22.46 24.79 25.80 24.46 19.89 16.74 13.36 13.36 12.38 13.34 15.95 17.15 17.54 15.98 13.13 11.40 10.49 10.49 10.18 8.69 5.59 3.61 0.92 -2.81 -3.16 -6.10 -8.93 -11.65 -10.93 -4.20 -5.31 -10.74 -11.48 -10.21 -12.92 -11.65 -4.58 2.28 2.28 2.28 1.39 -3.13 -9.29 -8.02 -6.21 -8.21
17.04 20.90 14.63 11.30 12.99 15.18 20.50 19.38 18.47 21.68 22.20 19.99 18.57 15.70 13.24 11.51 12.07 14.15 13.82 12.70 10.17 6.74 4.31 2.34 0.76 3.12 -3.86 -6.76 -7.66 -3.86 -6.03 -11.11 -9.33 -7.00 -10.74 -12.19 -6.98 -3.26 -13.28 -14.73 -12.56 -10.38 -13.83 -18.54 -14.37 -12.29 -6.03 -12.40 -9.85 -13.88 -13.95 -14.28 -15.50 -17.81
22.85 23.18 17.70 12.60 11.85 15.35 16.78 22.96 25.45 23.48 22.90 16.06 15.77 12.74 9.55 6.33 7.18 9.43 6.93 3.79 2.87 -0.52 -0.51 -6.94 -7.48 -14.91 -10.20 -10.93 -12.38 -12.19 -8.58 -9.88 -12.56 -8.57 -8.39 -10.20 -8.57 -13.28 -14.37 -13.46 -15.46 -19.08 -21.62 -21.80 -22.71 -21.98 -20.72 -20.17 -22.17 -22.71 -20.90 -18.54 -18.18 -19.63
21.79 19.30 16.88 11.68 12.36 11.16 10.71 9.96 12.92 11.92 17.87 18.88 11.65 5.98 -2.30 -1.34 -4.94 3.06 2.39 -0.70 -4.71 -5.87 -10.20 -16.55 -11.11 -7.12 -8.93 -10.56 -14.19 -14.37 -7.66 -11.29 -11.29 -11.83 -12.19 -10.93 -10.38 -10.74 -14.19 -14.91 -20.72 -22.17 -21.62 -21.62 -22.71 -22.53 -22.17 -22.17 -23.07 -23.25 -23.43 -23.07 -21.26 -20.90
1.50 0.30 2.65 3.02 8.29 8.96 7.54 0.82 -1.79 2.66 11.89 10.74 0.62 -1.03 -2.29 -0.42 -1.99 1.02 2.70 -2.99 -4.59 -7.75 -9.33 -10.74 -11.47 -14.73 -12.74 -11.65 -11.35 -13.10 -12.19 -14.19 -13.28 -4.04 -2.77 1.76 -2.04 -1.50 -11.83 -19.99 -22.35 -22.35 -20.35 -21.80 -23.25 -24.89 -21.80 -20.90 -21.98 -22.89 -23.62 -24.52 -24.34 -23.62

GFSWCAN_sfc_wetblb_027.txt.gz
Wetbulb
49.41 48.91 48.39 48.07 47.94 47.91 48.81 49.53 49.22 49.07 49.15 49.04 49.10 49.46 49.73 50.43 51.07 53.91 51.13 52.46 49.48 44.45 47.32 49.52 48.49 44.05 43.82 43.96 40.63 43.00 42.28 41.55 36.84 34.64 34.64 32.31 32.91 33.58 33.15 34.61 33.67 33.21 31.06 30.20 25.67 26.87 28.25 38.65 41.00 37.89 41.95 41.75 41.91 42.61
48.41 47.91 47.80 47.84 48.77 48.98 49.14 49.15 48.34 47.28 47.31 48.02 48.89 49.71 49.75 50.48 51.09 52.77 51.58 53.10 50.66 48.20 47.58 50.27 50.70 50.86 50.65 47.85 44.85 42.90 44.18 41.80 41.95 36.81 33.35 32.07 32.70 31.94 31.42 32.75 36.24 33.01 36.22 35.01 34.02 35.34 40.22 40.46 42.63 43.35 42.39 42.10 43.09 43.04
47.60 47.64 48.20 48.55 48.48 48.57 48.47 47.76 47.06 47.22 47.62 48.11 48.89 50.15 50.43 50.95 51.36 52.18 52.65 50.12 48.20 44.82 46.52 47.87 47.66 51.00 51.44 50.49 50.86 44.30 41.37 45.10 41.84 41.34 36.15 34.50 33.49 34.34 32.65 33.06 35.05 37.04 37.79 35.95 36.00 39.87 38.19 40.14 42.23 42.27 43.23 43.77 44.03 44.74
47.78 48.32 48.26 48.16 47.96 46.82 46.99 47.06 47.58 47.37 47.60 48.33 49.07 49.61 50.17 50.75 51.41 52.25 50.60 49.20 45.66 42.71 36.60 44.02 49.12 48.05 50.34 52.20 51.99 49.27 45.75 43.55 41.94 40.52 35.23 34.00 34.79 36.13 33.06 35.64 35.54 37.71 37.77 36.30 35.55 38.77 39.57 41.24 41.94 44.46 44.28 43.52 43.96 44.54
47.89 47.80 47.71 46.99 46.46 46.77 46.82 47.20 47.80 47.60 48.20 49.24 49.40 49.55 50.35 50.70 51.68 51.90 50.43 49.32 48.10 45.03 38.14 40.63 46.31 47.21 48.94 49.86 47.97 47.61 46.22 44.68 41.92 37.92 34.56 35.79 34.46 35.89 34.56 34.99 34.32 38.75 38.37 36.51 36.86 41.52 41.69 41.90 43.24 44.39 44.00 44.05 44.53 43.79
47.73 47.37 46.32 46.41 46.21 46.50 46.50 47.01 47.42 47.46 48.04 48.56 49.99 50.53 50.68 50.19 49.31 48.39 45.94 48.72 48.33 46.47 42.41 37.01 43.06 43.37 45.86 47.29 46.84 46.40 46.74 44.29 43.13 40.42 35.72 37.27 39.46 37.57 33.86 33.83 39.33 40.68 41.58 41.34 41.25 42.76 42.33 43.47 43.22 44.74 44.27 43.64 43.42 41.09
47.17 46.43 46.07 46.21 46.59 46.64 46.86 47.06 47.89 48.02 47.89 48.29 49.07 50.02 50.32 49.71 49.92 43.44 41.46 46.30 46.83 45.87 39.99 36.13 36.68 41.05 42.86 44.43 43.42 44.19 45.65 43.19 43.32 39.43 35.76 36.39 38.93 38.16 34.12 34.27 39.05 40.96 42.44 43.34 43.65 43.14 42.49 42.85 41.94 41.93 38.47 36.83 36.95 36.63
46.63 46.27 45.72 45.96 45.96 46.28 46.52 46.88 47.64 48.14 47.76 48.26 48.42 48.56 48.97 48.81 48.22 47.69 47.55 46.95 46.51 41.94 39.65 34.04 33.56 37.01 42.64 39.78 37.89 41.96 39.52 42.32 41.38 39.71 37.76 36.62 37.99 37.03 35.06 37.01 37.46 38.90 39.68 42.10 41.88 42.90 41.97 37.44 36.49 35.58 37.18 37.68 35.62 34.40
46.66 46.50 45.78 45.25 45.54 45.69 46.16 46.90 47.75 47.53 47.47 47.49 47.72 47.70 48.35 46.79 45.38 46.66 47.04 46.53 46.26 43.69 35.26 31.19 32.72 33.22 42.23 37.94 37.00 38.31 39.79 36.60 39.01 35.51 37.13 40.30 34.41 32.90 31.34 32.82 34.33 35.19 36.89 38.22 36.84 35.85 36.65 35.88 36.20 36.28 35.53 33.94 32.25 31.86
46.01 46.03 46.21 46.37 46.21 45.81 45.85 46.93 47.26 47.13 47.33 47.20 47.30 43.60 38.25 44.18 46.29 46.49 43.93 40.31 39.35 37.92 39.75 33.52 36.38 34.39 40.63 35.51 34.42 35.68 36.05 34.79 36.44 35.13 38.54 34.23 33.12 32.13 33.92 34.89 35.35 35.97 36.06 38.48 36.95 33.66 34.29 33.54 33.42 34.01 34.07 34.67 34.23 34.08
46.07 46.25 46.32 46.48 46.37 46.52 46.21 46.18 46.18 47.16 47.58 44.53 41.21 39.30 44.17 44.99 43.29 37.60 34.70 34.98 35.92 33.53 36.79 35.94 36.89 36.04 39.14 37.08 34.60 34.59 33.70 33.34 32.66 34.07 34.69 32.37 30.55 30.92 35.08 35.01 35.02 35.56 36.05 35.78 35.49 35.16 35.04 35.23 34.00 33.40 33.95 34.34 34.75 34.17
45.25 45.50 45.80 46.01 45.80 45.64 45.49 45.91 46.42 44.84 42.77 44.01 43.52 43.30 41.49 39.00 35.77 34.83 32.96 33.52 33.67 33.33 34.18 34.77 35.28 38.27 36.22 37.67 35.68 34.47 32.60 33.12 30.76 35.06 32.79 28.97 29.95 34.99 35.63 35.53 36.28 36.42 36.17 35.55 35.94 35.38 35.37 35.47 35.37 35.19 34.10 31.96 31.13 30.94
44.31 44.56 44.79 44.82 45.34 45.53 45.16 44.94 45.22 44.97 44.07 42.06 38.26 34.73 36.54 33.33 28.99 27.50 30.75 32.61 32.41 32.97 33.80 33.67 33.32 34.24 36.02 36.35 33.52 34.24 32.43 31.69 33.77 31.66 29.86 30.50 33.33 34.04 34.98 35.32 35.01 36.02 35.18 34.59 34.19 34.52 34.03 32.68 32.20 31.84 31.27 31.40 30.51 31.21
43.57 43.79 44.11 44.33 44.46 44.42 44.64 44.50 44.07 43.75 41.24 34.74 33.83 32.32 28.92 32.25 31.48 31.45 32.34 32.79 32.07 32.43 32.79 33.70 32.79 33.88 32.97 33.15 32.25 32.25 30.91 32.14 29.37 26.61 24.63 30.50 31.81 31.73 32.33 33.29 34.67 33.19 30.05 31.03 30.91 31.15 30.12 29.76 29.62 28.55 27.00 26.87 26.29 29.55
43.76 43.36 43.25 43.31 43.97 43.64 43.20 43.23 43.17 41.65 37.68 32.96 32.96 27.55 28.23 30.54 31.59 31.63 32.22 32.38 32.38 33.62 33.15 33.34 33.34 34.52 32.05 31.42 30.90 30.36 27.29 24.13 24.90 23.51 28.99 31.33 31.41 31.99 32.89 33.31 33.53 33.63 29.59 30.64 31.61 30.70 26.86 26.50 27.77 29.13 29.78 30.02 29.48 27.33
43.36 42.61 41.01 43.15 43.36 42.80 42.02 41.28 39.92 39.07 34.67 32.82 31.90 29.51 31.06 30.80 31.15 32.07 32.07 31.89 34.33 32.76 33.29 33.47 31.48 30.62 28.64 29.68 26.68 25.61 24.67 22.01 26.04 30.61 31.74 32.73 32.51 33.06 33.43 34.04 34.36 34.77 32.77 31.98 31.44 30.56 29.46 27.56 27.22 29.21 28.91 28.99 27.14 26.99
42.19 38.30 41.29 42.94 42.53 41.32 41.13 37.56 35.55 32.22 31.96 31.42 30.50 32.43 32.25 32.07 31.52 31.89 32.25 32.05 34.83 33.12 31.52 31.42 27.18 27.07 29.72 27.18 26.51 29.35 26.56 28.64 31.78 32.57 33.41 33.64 33.51 33.89 34.49 34.27 31.53 31.30 30.81 30.99 30.86 30.27 29.54 29.10 27.49 27.60 26.49 27.46 26.87 27.44
36.46 37.84 41.76 41.91 39.79 38.00 35.19 33.36 31.47 31.47 29.47 30.25 29.88 29.97 31.59 31.84 32.07 32.07 32.01 31.84 32.84 32.45 31.27 29.36 31.12 26.42 23.18 20.90 24.34 28.31 30.41 31.90 32.72 33.44 33.83 33.84 33.23 33.44 32.24 30.80 30.68 30.69 30.10 28.97 28.15 28.07 27.36 26.15 25.19 24.27 24.09 23.73 24.27 24.95
38.35 38.89 40.56 40.65 37.72 32.29 30.94 30.93 31.21 28.71 29.59 30.47 30.49 30.64 30.83 30.86 31.40 31.78 31.99 31.63 30.45 29.61 29.70 26.70 23.67 23.91 25.51 26.77 27.15 29.35 32.05 31.56 31.71 31.09 29.64 30.07 30.76 30.31 29.87 29.91 29.53 28.78 27.06 26.69 26.21 25.27 25.07 24.65 23.47 22.82 21.34 20.93 20.04 21.55
39.35 39.32 39.14 39.00 38.06 30.35 28.52 27.10 31.53 30.55 28.35 30.08 30.27 28.81 29.05 29.29 30.09 31.80 31.60 30.55 28.95 26.71 24.92 22.92 24.13 25.84 26.25 27.59 28.29 30.07 31.72 30.87 29.71 28.17 26.38 27.61 28.13 27.56 26.86 26.56 26.01 25.22 23.93 24.37 23.15 22.23 22.05 21.61 20.99 19.55 17.99 16.83 16.13 15.95
35.57 35.72 36.71 34.08 29.81 30.75 28.52 28.39 29.73 30.38 30.49 28.95 29.73 29.44 27.73 29.67 29.03 29.25 29.64 30.20 24.81 24.66 24.83 26.18 25.58 27.19 28.21 27.83 28.56 28.80 28.69 29.48 27.59 28.44 26.98 25.39 25.85 24.67 23.35 23.18 23.23 20.86 19.31 19.10 18.67 16.75 15.94 16.24 16.27 15.63 14.38 13.47 14.22 14.74
34.17 36.58 30.59 30.60 26.75 26.61 27.18 31.12 29.79 30.51 29.58 29.02 28.41 28.90 26.58 26.22 26.49 28.01 29.33 28.88 26.24 25.79 28.12 28.30 29.82 29.89 27.94 26.58 26.11 26.36 27.30 27.66 27.34 25.83 24.77 24.40 22.74 21.56 19.19 18.29 17.51 16.22 15.46 14.73 15.56 13.79 13.21 13.62 12.76 11.76 10.89 11.03 11.47 12.74
33.73 30.72 26.30 25.73 22.52 23.21 23.65 29.79 22.11 27.70 25.37 24.55 27.49 22.49 24.83 25.18 26.51 28.81 25.60 27.37 27.85 28.82 29.19 29.34 27.71 28.02 25.88 25.69 25.18 24.54 24.70 23.72 22.26 22.16 21.81 21.37 20.86 19.23 16.43 14.95 13.85 12.09 11.58 11.81 12.38 11.49 10.05 6.56 8.75 7.32 8.38 8.57 9.25 9.12
31.81 24.86 23.44 25.15 22.16 21.49 18.44 19.15 25.70 20.79 18.45 20.74 18.59 15.81 19.58 22.28 24.95 23.47 22.29 24.39 27.35 28.00 28.37 27.83 27.27 24.86 24.47 22.54 20.87 21.21 22.32 21.70 19.34 17.96 19.58 19.27 17.73 16.87 16.30 14.48 12.31 10.76 9.83 9.20 7.91 5.99 5.64 4.59 1.97 5.05 4.38 4.15 5.04 6.01
18.11 18.67 16.82 15.59 19.05 12.09 12.13 8.86 16.84 21.20 11.58 14.96 16.20 14.74 18.84 20.44 17.43 19.56 19.20 22.19 22.64 22.76 24.39 27.29 27.32 25.95 21.72 20.29 20.01 19.34 19.64 21.04 18.13 15.17 15.09 15.50 14.28 13.68 12.61 12.12 11.23 9.68 8.95 5.79 4.00 2.75 2.12 2.53 2.17 2.53 2.98 2.64 3.54 4.59
16.24 20.06 20.94 19.19 18.96 13.67 13.67 8.98 7.05 10.09 9.54 11.16 15.43 18.15 17.90 17.01 13.87 15.30 17.72 18.79 20.92 20.95 20.98 22.98 22.19 19.58 18.46 19.84 17.94 16.84 15.89 17.79 17.65 13.35 12.15 12.44 10.74 8.75 6.80 5.30 4.75 6.21 7.73 4.09 1.76 0.84 1.51 1.33 1.22 0.40 1.26 3.00 1.92 3.57
12.93 18.14 22.99 27.17 25.48 23.28 13.83 17.61 20.82 21.23 10.85 13.21 18.03 16.84 18.08 14.29 11.64 16.08 20.59 19.70 19.96 19.22 19.39 18.86 21.83 19.51 16.54 14.85 14.37 14.38 14.74 14.45 14.73 12.83 12.27 11.20 9.88 8.51 5.78 3.55 2.38 5.41 6.32 4.00 0.11 -1.65 -1.83 -1.65 -1.31 0.09 1.18 3.59 4.53 3.03
22.91 19.60 14.75 14.75 13.30 18.93 13.87 12.11 14.37 18.34 20.34 23.77 22.52 16.41 16.31 14.33 13.24 15.49 17.02 19.65 18.81 17.64 16.05 15.11 14.70 14.12 12.34 10.96 11.29 12.68 11.81 11.22 10.15 9.08 8.59 7.79 6.40 4.97 3.22 3.11 2.07 3.24 -0.97 -2.18 -2.08 -1.72 -1.05 -1.47 0.06 2.08 2.27 1.26 1.02 1.42
16.02 17.77 17.53 10.21 12.95 14.91 14.05 14.56 16.08 21.87 24.21 23.38 19.35 15.42 12.33 12.37 12.13 12.36 15.02 15.92 16.57 15.74 13.07 11.52 10.69 11.16 9.40 7.78 5.25 3.85 3.78 6.19 5.21 -0.21 -0.90 0.37 0.17 3.93 3.51 0.93 -0.53 -1.07 -2.44 -3.52 -2.40 1.88 4.25 5.47 3.80 1.20 -1.78 -2.70 -2.90 -3.14
15.79 17.70 13.37 9.45 11.69 14.64 20.25 21.78 17.74 19.68 20.30 18.99 17.33 14.92 12.40 10.57 11.12 12.64 12.64 11.79 9.52 6.56 4.24 4.04 4.06 6.08 0.80 1.56 0.89 2.11 0.42 -1.30 0.70 1.80 0.57 -0.58 0.81 2.95 0.39 -1.47 -1.83 -1.70 -5.10 -5.70 -5.51 -4.52 -2.94 -3.99 -2.68 -4.87 -6.03 -6.20 -6.51 -6.51
21.13 22.08 17.40 12.10 13.21 13.12 11.36 10.12 24.55 23.58 18.01 14.19 13.22 10.07 8.11 8.13 8.69 8.24 7.06 4.87 4.51 2.29 3.14 -0.58 -0.80 -6.73 -0.80 -2.01 -1.29 -1.90 -0.38 0.02 -6.55 -3.10 -2.01 -2.38 -2.38 -0.99 -0.58 -2.01 -3.46 -6.18 -7.63 -7.67 -7.78 -7.85 -7.82 -6.67 -8.08 -9.04 -7.89 -8.61 -10.21 -10.73
17.63 11.48 7.05 7.88 11.43 8.73 7.09 6.06 1.79 14.99 16.71 13.26 3.19 5.48 1.76 2.38 -2.20 4.94 3.93 2.29 0.74 0.27 -7.27 -9.99 -4.73 -0.38 -4.19 -4.73 -7.63 -5.82 -6.92 -3.11 -2.38 -3.10 -4.19 -3.46 -2.01 -1.65 -2.04 -3.46 -7.63 -8.90 -7.45 -7.09 -8.09 -9.02 -9.99 -9.27 -8.95 -9.53 -10.06 -10.66 -11.58 -12.16
4.58 3.21 6.05 4.83 11.94 14.39 3.20 0.25 -1.80 2.07 2.34 2.03 0.59 -1.02 -1.57 1.02 -1.37 3.18 3.79 0.29 2.67 -1.25 -3.95 -4.02 -3.86 -5.82 -6.73 -7.82 -3.81 -3.80 -8.42 -4.60 -7.09 -4.55 -2.01 -1.11 -1.65 -0.75 -0.22 -5.28 -8.54 -8.72 -8.00 -7.63 -8.19 -10.38 -9.36 -9.83 -9.04 -10.60 -11.52 -13.50 -13.42 -14.35

GFSWCAN_sfc_wetblb_030.txt.gz
Wetbulb
46.73 46.68 45.79 47.04 48.50 48.73 48.89 48.82 48.39 48.48 49.27 49.32 49.37 49.50 49.63 50.26 51.51 58.78 56.73 57.93 58.17 52.81 51.82 53.22 52.09 50.82 50.04 52.46 48.99 48.22 47.87 47.35 46.57 44.71 44.55 42.57 41.68 40.70 39.79 40.75 39.39 39.02 38.24 37.01 35.18 34.97 33.34 44.05 44.63 41.07 45.93 48.41 47.57 48.32
45.66 45.92 46.66 47.83 47.87 47.94 48.32 48.96 48.65 48.65 48.63 48.69 48.85 49.29 49.58 50.35 51.78 55.00 56.23 57.20 58.64 55.64 52.89 55.30 54.44 54.63 53.93 53.77 52.83 50.52 50.95 49.24 50.70 47.31 44.75 43.02 38.44 37.15 40.25 39.54 41.89 38.48 42.86 42.18 41.17 42.35 45.11 46.49 47.89 49.20 48.85 47.86 48.06 48.39
47.67 47.54 47.54 47.94 48.44 48.16 47.81 47.65 47.63 47.83 48.21 48.32 48.44 49.34 49.91 50.74 51.41 54.76 56.98 56.71 57.30 54.20 52.69 54.17 52.28 54.69 56.27 55.54 56.17 51.30 50.81 51.50 49.78 50.27 47.85 46.13 37.79 44.18 37.43 41.18 41.74 43.05 43.47 42.24 40.46 44.61 45.43 46.73 47.94 48.46 48.27 48.19 49.41 49.76
47.97 48.06 47.76 47.43 47.27 47.11 47.11 47.04 47.27 47.42 47.76 48.23 48.73 49.09 49.58 50.81 51.27 53.70 56.74 54.72 56.42 53.55 42.14 50.03 53.95 52.24 54.43 56.27 55.68 54.40 52.86 50.78 49.53 51.19 47.75 41.86 43.10 44.23 43.01 43.35 43.32 44.28 43.61 42.42 42.08 45.25 45.92 46.80 47.22 47.93 48.85 49.93 49.77 49.98
47.38 46.86 46.68 46.69 46.89 47.40 47.90 47.45 47.27 48.08 48.16 48.75 49.14 49.45 50.30 50.82 51.45 54.91 55.39 53.81 54.64 52.68 45.54 49.50 51.73 51.76 53.38 54.04 52.74 53.37 52.58 51.45 50.78 47.57 42.65 45.42 44.12 43.75 42.16 42.72 42.25 44.30 43.26 42.04 41.65 44.69 44.84 46.18 48.37 48.86 48.01 48.54 49.26 48.68
46.44 46.26 46.33 46.53 46.75 47.52 47.36 47.54 48.28 48.70 48.82 49.31 49.93 50.40 50.48 50.64 50.56 57.64 52.93 54.71 53.19 54.44 52.28 45.43 49.96 49.03 51.69 53.00 52.29 51.57 51.67 51.27 51.68 49.94 43.34 45.07 43.22 45.56 38.80 41.68 42.91 44.79 46.15 46.45 44.93 47.82 47.66 48.27 48.31 47.89 46.20 45.09 45.45 44.69
46.24 46.31 46.26 46.26 46.78 47.27 47.31 47.88 48.55 48.89 48.65 49.04 49.59 49.35 48.81 50.50 55.77 51.37 49.42 51.31 48.52 52.77 50.49 42.43 45.40 47.61 48.47 50.62 48.51 50.79 51.70 50.56 51.37 45.96 40.65 42.97 45.26 46.60 39.57 42.21 40.93 42.26 43.77 45.48 46.41 47.49 46.04 43.25 41.57 42.54 42.48 42.40 41.63 39.99
45.95 46.13 46.17 46.42 46.76 47.11 47.11 47.29 47.81 48.14 48.77 49.14 49.36 49.07 49.32 48.89 49.95 51.80 51.89 48.12 48.85 51.19 51.52 42.19 41.52 46.75 48.42 45.21 43.67 45.64 45.36 49.99 45.24 42.27 42.05 41.07 41.93 42.96 39.54 36.91 39.83 40.97 42.90 43.96 41.97 44.45 42.36 41.91 41.46 39.49 39.32 38.48 35.69 34.60
45.46 45.45 45.46 45.48 46.20 46.55 46.72 46.66 46.88 47.23 47.53 47.97 48.67 48.97 53.81 51.91 52.98 52.93 46.93 47.32 53.22 52.18 45.71 37.79 41.60 38.88 45.41 41.13 41.65 43.93 46.78 39.96 43.79 40.85 41.20 43.70 38.11 35.56 33.09 34.55 36.33 37.78 38.35 38.81 40.77 41.27 39.42 37.27 36.47 36.10 35.95 35.27 34.59 34.15
46.17 46.06 45.66 45.32 45.83 45.87 46.09 46.27 47.00 47.44 47.16 47.76 52.38 51.19 47.74 49.24 46.20 48.28 50.56 49.83 48.51 46.92 44.68 35.98 41.72 38.63 44.16 41.56 38.88 40.77 41.66 38.75 38.86 40.06 41.22 38.33 31.58 34.19 35.21 35.58 36.19 37.44 39.66 40.10 36.19 33.87 33.86 33.17 33.60 34.41 34.99 36.11 36.86 36.93
46.37 46.02 45.83 45.96 45.94 45.85 46.35 46.52 46.61 48.47 50.15 51.46 47.88 45.02 50.76 46.64 50.82 46.39 41.99 41.85 42.90 39.03 40.40 39.49 42.07 39.81 42.60 40.17 38.43 39.40 37.25 38.15 35.73 38.42 38.24 35.31 30.32 32.30 35.62 34.74 36.57 37.80 37.99 38.13 37.46 36.04 36.26 36.71 35.94 34.60 36.31 37.47 37.29 36.26
45.74 45.67 45.41 45.26 45.06 45.24 45.89 46.72 47.35 49.20 48.17 48.23 48.69 47.77 48.30 45.55 43.95 37.62 34.71 37.79 38.51 36.79 37.89 38.48 38.53 40.96 40.00 43.25 39.31 38.05 35.43 36.11 33.65 40.19 35.65 31.27 31.45 34.97 35.13 35.56 36.92 38.13 38.28 38.16 39.31 38.13 38.22 37.85 38.08 37.18 35.69 34.03 33.91 33.78
44.32 44.73 44.89 44.77 44.73 44.79 44.72 45.38 45.17 45.22 45.59 49.14 46.30 40.24 43.66 38.16 35.43 36.16 32.15 35.05 35.02 35.43 35.65 36.08 35.05 39.36 40.35 42.77 36.50 37.54 34.89 33.98 38.11 33.71 32.27 31.39 34.13 35.08 35.53 36.23 36.61 37.16 37.80 37.02 36.61 36.50 35.90 35.12 35.04 34.97 33.91 34.19 34.32 34.38
43.52 43.48 43.93 44.41 44.32 44.13 44.05 44.05 44.73 46.15 46.36 39.44 37.59 34.16 34.89 34.53 33.80 34.53 36.10 35.43 33.62 34.16 35.43 37.25 35.61 38.88 37.25 35.80 34.53 33.98 32.17 34.51 31.99 29.84 29.65 31.78 33.18 33.60 35.10 36.17 36.09 35.18 32.87 34.58 34.82 34.85 33.07 33.15 32.63 32.92 32.64 32.39 33.02 32.53
43.07 42.76 43.00 43.22 43.63 43.69 43.48 43.18 43.67 44.79 41.12 35.81 37.41 30.70 31.07 31.97 32.71 32.53 32.89 33.98 34.31 34.90 35.80 36.88 36.52 38.59 34.35 33.62 33.98 33.26 30.90 30.29 31.74 31.60 31.98 33.03 34.22 35.28 35.47 35.85 35.37 34.74 33.39 34.91 35.89 32.86 31.87 32.28 32.72 33.00 33.10 32.31 31.12 30.31
43.03 42.92 41.06 42.87 42.56 42.64 42.37 42.45 42.03 41.46 36.38 35.39 33.93 31.63 32.53 32.17 31.81 32.35 32.53 32.17 35.26 34.53 35.40 37.09 34.04 34.16 31.99 33.98 31.99 31.23 31.19 29.39 30.05 33.36 33.56 34.30 34.03 34.42 34.69 35.12 35.64 36.36 35.43 34.69 34.08 33.52 32.72 31.60 31.78 32.21 31.59 29.30 28.34 28.53
42.06 39.84 40.64 42.12 41.83 41.38 41.64 41.54 38.88 34.41 34.46 32.71 32.17 32.89 32.71 32.53 31.99 31.99 32.53 32.71 34.87 33.80 32.17 35.57 32.89 30.23 33.34 31.42 30.20 33.70 31.98 33.57 34.31 34.33 34.34 34.66 33.94 33.82 36.27 35.75 34.54 34.03 34.23 34.29 33.72 32.59 31.58 30.91 29.55 28.19 26.82 26.97 27.26 27.60
39.14 40.87 40.90 41.35 42.08 41.67 39.54 38.78 37.30 34.84 30.46 31.91 31.75 31.61 32.89 32.35 32.71 32.53 33.26 33.84 36.54 36.00 35.95 32.90 34.91 30.84 31.06 28.90 30.98 33.02 32.55 34.80 36.01 35.49 35.76 36.37 36.85 37.35 37.08 35.01 34.71 34.32 32.80 30.09 29.00 28.83 28.32 27.64 27.47 27.08 25.60 25.22 25.67 25.89
39.65 39.67 39.95 40.05 40.87 39.80 35.94 35.08 36.67 30.76 31.14 32.64 33.08 33.30 33.32 33.08 33.98 34.16 33.63 33.72 34.25 35.82 36.11 34.84 32.96 32.03 32.64 34.85 34.52 32.00 34.13 34.41 33.14 32.83 31.10 33.12 35.63 34.16 33.70 33.49 31.60 29.83 29.52 29.14 28.82 28.66 27.98 26.09 25.34 24.91 24.03 23.44 22.53 23.41
38.87 39.35 38.77 38.65 41.44 37.86 32.93 33.47 38.35 32.98 30.31 31.43 32.65 30.75 31.60 31.97 33.50 33.24 34.53 35.20 35.27 35.65 33.17 32.36 31.67 32.41 33.92 33.51 34.68 34.74 37.64 38.44 35.26 32.02 29.14 30.36 32.89 32.65 32.01 31.55 30.04 29.09 28.59 27.18 25.05 24.09 25.33 24.97 23.74 22.24 21.09 20.01 20.01 19.65
39.29 38.78 38.48 40.18 38.37 36.42 32.84 32.48 32.04 32.54 32.22 30.32 31.74 31.17 30.00 32.53 32.03 32.15 33.03 34.85 34.15 29.13 29.60 30.03 29.92 29.68 30.02 30.94 33.83 35.20 33.57 36.97 34.65 33.76 31.85 28.04 30.01 29.48 28.20 27.24 26.21 26.13 25.50 24.84 23.62 21.88 20.88 20.54 20.19 19.53 18.93 18.94 18.58 19.62
37.16 37.18 37.44 36.84 34.65 34.08 33.34 33.13 32.52 33.88 32.18 31.55 31.11 31.32 30.60 29.77 29.75 29.98 31.49 32.43 29.11 29.32 29.67 30.35 31.40 31.06 29.79 28.27 29.94 31.34 30.99 31.48 30.89 29.85 28.76 28.05 26.05 25.26 24.30 24.49 24.87 22.59 21.22 20.71 20.63 19.47 19.09 18.01 16.47 16.45 16.84 16.59 16.87 18.38
36.27 36.34 35.18 33.92 30.46 30.55 28.08 34.15 30.82 30.47 27.10 28.25 30.49 27.65 28.84 29.68 30.33 32.39 29.11 29.74 29.26 30.75 30.97 29.50 28.89 29.55 27.55 27.48 27.60 27.63 28.92 28.54 26.91 25.96 25.60 25.09 23.93 23.28 22.10 20.60 20.61 19.59 19.02 17.30 17.77 17.33 16.13 11.84 14.23 13.46 15.13 15.32 15.93 16.21
34.70 29.84 27.80 27.64 27.79 24.50 27.93 26.48 29.51 28.56 29.45 27.05 26.74 24.14 26.02 27.97 30.44 28.42 24.87 26.93 27.05 28.78 29.76 28.72 28.09 26.31 26.13 25.40 24.14 24.36 24.61 25.61 24.11 24.08 25.06 24.28 22.14 20.29 19.93 18.03 16.78 15.47 14.79 15.28 15.15 14.28 13.92 13.12 10.56 13.08 12.59 12.65 12.92 12.71
26.54 23.65 26.16 22.79 25.72 24.25 22.98 23.04 24.40 26.01 23.48 24.50 23.90 24.82 25.65 28.33 24.53 22.60 21.91 23.04 24.26 23.95 25.82 28.29 28.21 26.67 23.53 22.68 22.77 21.74 23.44 24.25 22.30 19.31 19.58 21.18 19.79 18.93 17.19 16.29 14.74 13.56 14.31 13.64 12.22 11.40 11.56 10.99 10.98 10.88 10.60 11.09 9.81 9.67
20.64 23.85 23.54 23.07 23.62 23.47 22.06 22.19 22.35 22.39 22.71 22.99 24.37 25.48 27.37 25.91 20.53 17.56 18.94 21.10 22.47 21.88 21.37 22.79 24.66 22.07 20.04 21.48 20.55 19.41 18.76 21.66 21.06 17.03 15.58 16.57 16.44 16.26 14.27 13.85 14.54 13.56 13.31 12.15 10.22 8.98 9.06 8.89 8.51 7.56 8.84 9.73 8.80 8.94
21.16 22.36 25.58 28.41 26.32 25.60 25.33 25.44 26.03 23.84 21.99 22.25 25.25 24.34 24.57 18.58 15.83 18.26 22.16 20.87 21.04 20.23 20.11 20.10 21.30 19.93 17.94 17.03 17.14 16.93 17.56 18.08 18.02 16.08 15.43 14.45 13.90 13.78 12.97 11.12 9.11 10.50 11.38 9.97 8.60 8.01 6.97 6.53 6.81 7.51 8.23 10.07 10.15 8.77
24.71 25.86 21.58 24.03 25.72 27.08 22.98 23.77 23.14 22.72 24.39 26.60 26.31 20.16 18.50 17.96 16.66 18.44 19.08 21.05 20.97 19.89 18.45 17.41 16.86 16.27 15.29 15.41 16.94 17.02 15.76 15.04 14.37 14.24 13.92 13.48 13.45 12.96 10.78 11.92 10.27 7.23 7.65 7.61 6.72 6.83 7.25 7.03 7.11 7.67 8.11 7.19 6.63 7.28
25.43 26.60 25.67 19.38 22.53 24.39 23.62 23.43 23.87 25.48 25.66 26.06 23.84 19.22 15.55 14.99 15.88 16.70 17.90 18.85 20.68 20.45 17.93 16.11 15.40 16.20 14.54 13.17 12.83 13.29 13.99 14.84 13.04 9.42 8.51 11.07 11.69 12.09 11.87 10.90 10.37 9.66 9.04 7.53 6.31 6.37 7.13 8.26 7.62 6.21 4.94 4.78 5.06 5.18
24.44 26.23 24.50 19.96 19.81 21.29 24.29 26.01 26.13 26.33 23.83 22.44 20.47 17.17 15.13 14.16 14.33 16.35 16.75 16.57 15.28 13.07 12.37 12.13 13.16 15.25 12.45 14.24 12.32 11.19 11.12 10.97 10.06 9.44 8.57 7.72 8.50 9.93 9.63 9.24 8.74 8.65 7.01 6.30 5.75 5.64 5.39 5.30 5.57 5.51 4.02 3.72 4.13 2.61
26.96 27.58 24.30 23.36 22.11 24.76 23.21 22.04 26.40 25.48 23.23 19.61 18.23 16.67 13.19 13.09 14.05 13.79 12.62 12.16 12.28 13.28 13.84 12.07 10.93 11.14 11.46 10.13 10.69 10.18 9.77 10.13 6.27 6.60 6.70 7.49 8.26 8.60 9.14 8.32 8.33 7.40 6.07 4.60 4.06 3.68 2.32 2.83 3.77 2.12 2.19 0.47 -1.09 -1.53
22.60 18.22 19.77 18.83 21.70 21.65 20.86 22.42 20.58 23.04 21.87 18.46 13.59 13.64 11.84 12.89 9.03 11.71 10.94 13.10 13.08 11.11 3.92 8.95 10.97 10.09 9.14 10.04 8.03 9.20 0.40 7.64 7.95 6.42 5.75 6.53 8.02 8.98 8.17 7.70 6.19 5.38 4.54 3.56 3.46 2.46 1.41 0.42 1.01 0.75 0.26 -0.73 -2.12 -3.56
19.78 20.39 19.67 19.91 19.74 19.00 17.82 16.83 14.76 15.74 15.91 14.24 11.37 11.28 10.39 10.77 5.94 10.12 11.37 10.92 10.42 10.06 9.25 9.53 10.32 10.09 7.10 4.98 6.86 8.37 3.44 8.03 4.57 3.42 2.59 2.39 1.66 3.78 4.73 7.47 5.99 4.47 2.79 2.89 2.78 1.94 0.06 -0.53 -0.37 -0.77 -1.52 -3.73 -4.32 -4.52

GFSWCAN_sfc_wetblb_033.txt.gz
Wetbulb
45.01 45.32 45.58 45.77 46.05 46.09 46.37 46.18 47.15 46.65 48.21 48.64 48.89 49.09 49.39 49.80 51.04 53.08 60.49 62.13 59.54 54.79 54.36 55.21 54.45 52.08 53.91 53.48 50.46 51.66 50.10 50.35 49.94 45.61 47.14 46.01 44.33 44.39 43.36 44.68 42.22 40.73 40.17 37.88 40.47 35.75 33.52 46.92 46.66 41.80 47.65 49.37 49.34 49.69
45.25 45.53 45.76 45.91 45.84 44.68 45.62 45.84 48.16 48.55 48.67 48.54 48.52 48.76 49.12 49.84 50.91 52.44 59.25 61.69 63.22 57.72 55.04 58.63 57.31 57.66 56.80 57.53 55.54 53.42 52.24 52.06 52.45 49.46 49.74 49.63 41.97 41.34 44.64 40.25 46.16 41.29 45.58 44.60 43.65 43.77 47.94 48.71 47.68 49.67 50.20 49.13 49.49 49.62
45.93 45.37 45.45 45.01 45.65 47.01 47.19 48.05 48.09 48.16 48.31 48.50 48.75 49.03 49.37 50.03 50.71 53.27 60.44 62.24 60.80 56.88 54.92 55.31 54.09 57.08 58.76 58.85 59.75 53.53 55.76 55.70 54.44 56.77 52.23 50.93 41.32 48.36 39.33 44.21 45.29 46.56 47.40 44.68 43.36 45.95 46.82 48.01 49.35 49.91 50.55 50.20 51.08 51.44
45.03 45.15 45.81 47.53 47.66 47.79 47.89 47.80 48.07 48.20 48.45 48.63 48.86 49.08 49.44 49.98 51.14 53.24 59.09 61.17 60.83 56.76 46.34 51.81 57.08 54.64 57.45 58.78 58.34 58.32 57.51 56.61 56.10 56.09 53.00 44.08 43.86 49.88 47.16 47.24 45.98 47.39 47.02 44.75 44.73 47.09 47.64 48.61 49.77 50.26 50.42 51.54 51.54 52.03
47.17 46.97 47.01 47.01 47.06 46.92 47.01 47.21 47.21 47.62 47.95 48.20 48.61 49.11 49.64 50.51 52.40 56.32 59.74 59.23 59.71 56.44 48.40 50.83 55.11 54.99 56.43 57.00 56.40 57.00 56.14 54.76 53.39 51.35 44.83 48.05 49.80 48.42 48.08 47.44 46.24 48.05 45.87 44.50 43.58 46.98 46.99 48.20 50.26 50.17 49.72 48.70 48.76 49.08
46.76 46.61 46.79 47.05 47.05 47.03 47.08 47.14 47.30 47.52 47.70 48.07 48.52 49.20 49.81 50.88 52.15 56.68 55.41 56.50 57.24 59.50 53.56 47.86 53.80 52.52 55.04 56.23 55.25 55.43 55.86 55.92 55.95 53.03 48.89 50.33 48.36 50.58 42.70 44.21 46.07 46.84 47.10 47.42 46.86 49.43 49.34 48.95 47.21 47.33 45.36 45.74 45.51 44.51
46.58 46.76 46.96 47.14 47.52 47.97 48.38 48.26 47.84 47.57 48.02 48.36 48.74 49.51 50.19 50.19 57.46 54.72 50.95 53.43 51.77 59.04 53.34 46.29 47.86 51.66 52.82 54.05 53.58 54.48 55.56 54.86 55.36 51.74 46.23 49.83 48.46 49.60 42.45 43.85 44.39 44.44 46.05 47.34 47.44 48.66 45.96 44.99 43.58 45.23 42.22 40.51 39.56 38.37
46.36 46.56 46.70 46.98 47.19 47.84 48.45 48.74 48.84 48.50 48.54 48.88 49.22 49.45 49.47 49.95 49.50 54.35 50.21 48.18 52.15 54.89 55.11 43.74 43.57 48.62 52.38 50.29 47.21 51.71 51.21 53.67 48.96 45.60 46.61 44.87 46.50 47.02 43.65 41.77 43.14 43.86 46.02 44.04 45.03 46.05 45.00 44.32 43.13 41.11 40.23 38.20 36.22 35.03
46.03 46.07 45.86 46.39 46.67 46.71 47.12 48.35 48.06 48.68 48.55 48.97 48.89 49.38 55.80 55.23 55.04 53.31 46.62 49.35 56.78 53.85 48.54 38.60 41.30 39.09 49.99 45.66 47.17 47.74 51.45 42.52 47.73 42.88 44.14 46.33 41.02 38.66 37.87 39.75 40.06 41.18 40.74 41.05 41.87 41.55 40.73 39.10 37.28 36.69 36.53 35.77 35.61 35.98
45.69 45.73 45.90 46.02 46.55 46.23 46.25 46.80 47.38 48.08 48.33 49.29 55.67 53.61 50.16 51.36 46.60 49.82 52.76 52.06 51.86 50.27 47.82 40.23 47.17 43.26 47.70 44.70 42.32 42.96 43.28 42.65 39.62 41.91 45.45 40.90 36.09 37.15 37.36 37.55 39.14 39.76 42.17 40.52 36.13 34.25 35.41 35.14 36.93 38.12 38.97 39.60 39.08 38.85
45.37 45.14 45.23 45.63 46.58 45.98 46.37 46.81 47.56 48.07 48.52 54.57 51.62 47.08 51.18 47.68 52.84 50.04 44.69 45.35 47.12 41.70 42.66 41.65 45.86 42.28 46.16 41.81 38.40 42.17 39.85 40.85 36.92 40.13 39.46 36.82 33.77 34.91 36.48 37.19 39.06 40.16 42.49 41.77 39.39 39.77 40.34 39.91 37.57 37.42 37.91 38.21 37.88 36.39
45.16 44.86 44.74 44.61 45.23 45.49 46.05 46.93 48.41 51.20 50.42 50.38 51.23 51.10 51.24 49.13 46.55 39.42 36.60 39.29 40.99 38.25 39.18 39.34 40.38 42.04 42.06 46.27 40.95 41.37 36.63 39.02 35.62 42.46 37.94 34.49 32.98 35.01 35.64 37.28 39.09 40.63 40.68 39.92 40.52 39.67 39.71 39.21 38.84 37.71 36.17 35.92 35.64 35.68
44.22 44.56 44.68 44.24 44.18 44.74 45.36 45.32 45.08 45.69 47.45 53.83 49.57 43.15 45.92 40.18 36.78 35.51 32.04 35.96 34.78 37.87 37.55 39.24 36.72 41.73 42.43 43.73 38.99 39.07 36.24 36.76 41.65 35.63 33.91 32.96 34.18 35.21 36.59 37.72 37.75 39.08 39.20 39.11 38.37 38.17 37.72 36.69 36.83 36.35 34.87 35.39 37.08 35.40
43.42 43.71 43.84 44.15 44.08 43.76 44.38 44.89 46.23 49.05 50.47 44.13 40.72 35.33 36.24 34.06 34.43 34.61 36.06 35.70 34.61 35.70 38.60 39.78 37.87 39.73 39.68 37.69 37.33 37.33 33.52 36.65 33.34 31.15 32.16 32.12 33.44 34.50 36.65 37.84 38.30 36.75 35.58 36.59 36.77 36.15 34.92 34.71 33.97 33.83 33.29 33.02 32.95 32.43
42.74 42.53 43.50 43.06 43.53 43.53 43.54 44.57 45.41 47.40 42.52 37.07 39.15 32.61 32.25 32.80 33.52 33.16 33.88 35.15 35.36 36.99 40.01 39.39 39.55 41.37 36.24 34.61 37.00 34.43 31.53 31.43 33.60 33.13 33.89 33.99 33.46 34.84 36.19 37.63 36.56 34.73 33.64 36.40 37.15 34.13 34.03 34.87 34.31 34.07 33.55 32.57 31.13 29.53
43.07 42.94 40.84 42.57 42.53 43.03 43.71 45.23 46.33 45.68 39.99 36.60 34.64 32.25 32.98 32.98 32.07 32.61 32.80 32.61 35.82 35.88 39.65 42.67 37.24 35.33 32.96 34.75 32.95 34.03 33.49 32.34 32.83 34.83 35.17 35.78 33.85 35.56 36.95 36.87 37.40 37.91 37.76 36.54 36.12 34.98 33.89 32.91 34.11 33.64 31.26 29.61 30.51 28.92
43.58 42.24 40.94 42.08 42.19 43.07 43.51 43.06 40.64 36.46 36.01 34.33 32.78 33.70 33.52 32.80 31.89 32.07 32.80 32.75 35.40 34.79 33.34 36.43 34.96 32.65 35.85 33.13 32.12 35.18 33.14 34.74 35.17 34.87 36.37 36.39 35.07 35.58 36.24 36.48 35.33 36.36 36.23 36.20 35.92 35.15 33.76 32.54 31.03 29.79 28.62 28.72 28.75 28.89
42.43 43.37 40.81 41.40 43.93 44.01 41.58 41.72 37.84 36.25 32.41 34.65 32.66 32.61 33.88 33.34 33.52 33.34 34.43 35.09 35.48 34.12 35.29 34.35 37.22 32.77 32.75 31.02 31.65 33.21 34.16 37.02 36.55 34.68 35.29 36.56 37.15 38.01 37.99 37.07 36.81 36.73 35.30 33.13 32.16 32.06 30.78 29.89 29.87 29.68 28.21 27.67 27.59 27.52
40.30 40.86 40.27 40.87 43.36 42.68 37.20 36.87 39.10 31.86 32.89 34.13 34.52 34.82 34.92 34.43 35.26 35.88 35.71 37.46 38.63 39.60 38.42 36.88 34.38 33.68 33.16 34.16 33.11 34.03 35.48 34.55 33.22 33.23 33.68 35.75 37.58 36.25 36.77 35.81 33.75 33.20 32.67 32.57 32.39 32.04 30.35 28.30 27.73 27.54 26.77 25.65 24.54 25.49
39.60 39.78 40.25 40.77 43.55 39.84 33.92 35.03 40.70 34.47 31.43 32.43 34.61 32.98 33.85 33.74 35.21 34.53 36.06 38.37 37.43 37.39 32.90 31.39 29.59 29.75 30.65 31.75 34.47 36.19 36.73 36.42 34.64 32.32 31.98 33.37 35.55 35.18 33.79 33.01 33.24 32.55 30.88 28.89 27.63 27.63 28.97 28.67 26.85 25.17 23.94 22.92 22.90 22.04
42.08 40.73 41.39 44.00 41.74 39.46 35.88 34.91 34.12 34.51 34.26 31.92 33.66 33.46 32.73 35.31 34.09 33.52 34.08 37.74 33.97 29.82 28.92 30.95 30.31 30.86 31.96 33.33 35.24 35.55 36.51 36.71 36.04 36.03 33.34 31.29 32.75 32.79 31.31 31.09 30.89 30.73 29.81 29.02 27.83 25.52 24.69 23.88 23.25 22.37 22.52 22.77 21.65 22.38
39.90 39.74 41.60 41.15 37.73 35.98 35.10 37.14 34.37 36.50 34.10 33.48 33.06 34.05 31.70 31.18 31.62 31.82 34.63 33.60 29.90 29.75 30.53 30.17 31.76 32.22 31.13 30.97 32.55 33.10 34.13 33.52 32.70 31.63 31.34 31.09 29.68 29.24 28.73 28.94 28.57 26.57 25.68 24.87 24.14 23.05 22.69 21.27 19.56 19.59 20.46 20.19 20.48 21.58
39.12 39.81 38.33 36.52 32.89 32.56 29.97 37.47 32.34 32.24 29.20 29.94 32.47 29.32 29.52 30.21 31.85 35.46 30.21 30.63 29.31 30.71 31.54 30.52 30.51 31.28 30.02 30.24 29.99 30.43 31.95 31.48 29.99 29.36 28.73 28.37 27.38 27.02 26.02 25.28 25.97 24.86 22.98 20.59 21.23 20.60 19.65 16.21 18.36 17.24 19.34 19.14 19.56 19.35
37.40 32.83 30.37 30.01 31.38 27.18 32.36 28.93 31.25 29.92 30.45 27.63 27.38 26.14 26.36 28.13 32.20 29.76 26.08 25.62 26.79 29.00 29.90 30.33 31.09 29.25 28.71 26.78 25.01 25.10 27.14 28.61 27.66 27.80 28.03 27.01 24.82 23.40 23.27 21.43 20.29 19.38 19.00 19.67 19.46 18.96 18.70 17.80 15.75 17.66 16.75 16.17 16.86 15.67
29.66 26.45 29.77 26.14 30.88 28.59 27.07 27.01 27.30 28.24 25.02 26.81 26.46 26.44 27.01 30.21 26.43 24.59 23.52 24.08 25.21 25.51 26.34 28.38 28.29 28.06 25.95 25.22 24.37 23.06 24.50 25.79 23.34 21.07 22.67 24.36 22.91 21.76 20.16 19.14 17.93 17.04 18.27 17.74 16.53 15.98 16.10 15.83 15.65 14.94 13.90 14.54 13.49 12.54
23.47 26.24 25.88 26.40 26.73 26.03 26.16 24.38 24.18 23.98 25.44 25.31 25.36 27.63 29.19 27.94 22.21 19.63 21.06 22.50 23.20 23.05 23.23 24.10 26.51 24.45 21.32 21.75 20.81 19.63 19.79 23.55 22.21 18.58 18.02 19.50 20.23 20.43 18.82 17.91 18.60 16.97 16.83 16.17 14.63 13.34 13.56 13.39 12.50 11.36 11.96 12.96 12.58 12.26
23.22 24.34 27.79 29.48 27.58 27.74 26.94 27.46 27.85 26.56 24.04 23.87 25.87 26.01 26.38 20.17 19.18 19.96 22.86 21.91 22.09 22.25 22.60 22.66 23.10 22.26 20.69 19.58 19.40 19.60 20.04 19.69 19.06 17.79 18.31 17.65 17.20 17.15 16.46 14.66 12.81 13.35 14.62 13.95 12.77 12.32 10.96 10.67 10.92 11.14 11.19 12.94 13.21 12.23
25.89 26.70 23.73 26.03 27.00 28.58 24.73 25.54 24.89 24.00 25.19 26.71 27.44 22.36 20.94 19.75 18.29 20.35 20.94 22.78 23.11 22.64 21.54 20.90 20.29 19.62 19.17 19.48 20.49 20.45 19.84 19.20 17.96 18.27 18.44 18.20 17.61 16.80 15.20 15.76 14.01 9.58 12.17 12.42 10.77 10.15 10.45 10.16 10.02 11.11 11.24 10.67 9.98 11.28
25.55 27.15 28.03 22.78 26.00 26.25 25.33 24.53 24.35 25.19 26.02 25.93 25.12 22.10 18.83 17.45 18.06 19.60 19.76 21.57 23.52 23.51 20.73 19.69 19.13 20.36 18.94 18.29 18.12 18.09 18.25 17.73 16.30 12.97 12.76 14.19 15.09 15.81 15.68 14.60 14.29 13.79 13.55 12.60 11.07 10.69 10.23 8.80 9.50 9.39 8.63 8.44 9.51 9.80
25.29 28.45 26.27 24.32 23.11 22.48 24.28 26.46 26.07 26.37 25.83 24.90 23.56 20.22 18.19 16.73 17.09 20.13 19.72 19.27 18.16 17.08 17.55 17.57 18.14 18.04 16.78 17.82 16.06 14.95 15.44 14.37 12.66 11.89 11.12 10.57 11.31 13.09 13.18 13.14 12.70 12.68 12.27 11.52 10.32 10.19 10.15 9.65 9.69 10.15 9.06 8.49 8.55 7.46
28.98 29.16 26.06 25.70 23.19 24.90 25.59 27.50 29.03 26.86 25.79 22.71 22.71 20.66 17.21 15.77 16.66 17.14 16.55 17.47 17.46 17.63 17.62 16.24 15.21 16.00 14.52 13.25 13.65 13.32 13.40 14.22 10.55 10.47 9.61 10.44 11.80 12.31 12.82 12.12 11.98 11.93 10.57 9.85 8.79 8.28 7.76 6.58 7.24 7.35 7.27 6.04 4.98 3.89
26.55 23.09 23.23 20.79 23.19 24.83 26.40 25.00 24.95 25.17 24.52 22.28 18.66 18.95 17.16 17.53 13.19 14.22 14.91 17.26 16.39 14.87 11.34 14.93 14.43 12.96 12.91 13.82 13.38 14.37 5.58 11.05 11.57 10.32 9.41 9.70 10.62 11.80 11.74 11.48 11.49 10.84 9.49 8.11 7.45 7.74 7.15 5.64 5.28 5.19 5.18 4.54 3.59 1.51
24.13 24.72 23.59 23.37 23.03 21.30 23.18 22.63 21.37 19.17 20.16 18.01 15.92 16.55 15.34 14.85 9.38 13.07 15.92 15.89 13.80 13.06 12.85 13.50 14.22 14.28 12.26 10.55 11.29 11.57 9.62 12.42 10.23 8.81 8.33 6.60 4.38 6.05 6.94 9.46 10.18 9.96 8.34 7.45 7.09 6.90 6.12 5.04 4.15 3.73 2.62 1.67 1.15 0.30

GFSWCAN_sfc_wetblb_036.txt.gz
Wetbulb
43.72 43.83 44.48 44.86 45.17 45.66 45.78 46.18 46.69 46.85 47.35 47.35 46.96 46.71 46.85 46.92 48.47 50.47 51.60 54.18 55.63 52.50 54.49 56.03 55.64 52.81 53.82 52.65 49.02 51.65 50.29 51.22 52.21 46.50 47.35 47.27 43.79 45.91 44.56 44.65 41.55 39.69 40.10 36.84 41.13 34.34 32.43 47.51 46.49 41.54 47.51 49.80 49.16 49.10
44.38 44.45 44.65 45.06 45.34 45.43 45.92 46.27 46.50 46.98 47.12 46.94 47.44 47.48 47.80 48.46 49.30 51.03 48.39 53.84 56.33 55.03 55.48 59.02 57.88 58.69 57.90 57.42 55.63 53.53 53.20 51.74 52.24 49.92 50.34 50.60 40.33 40.85 44.41 41.11 47.61 41.82 45.58 43.76 42.85 42.48 48.87 49.43 48.06 49.98 50.68 49.03 49.51 49.92
44.73 45.18 45.34 45.39 45.55 45.65 46.15 46.27 46.02 46.15 46.60 46.96 47.49 47.90 48.10 48.81 49.74 50.45 49.86 53.30 56.99 55.79 54.60 55.29 54.38 57.39 59.51 59.76 61.60 52.90 56.88 56.30 55.15 58.75 53.31 51.30 39.34 49.26 38.54 45.13 46.94 47.26 48.82 45.95 44.95 46.28 47.29 48.62 49.56 50.55 50.56 49.87 50.61 51.17
45.08 45.15 45.04 45.02 45.07 45.19 45.28 45.17 45.70 46.50 46.18 46.96 47.74 48.35 48.74 49.04 50.10 50.92 50.20 55.10 59.65 55.78 46.60 51.32 57.98 55.19 58.49 59.82 59.75 60.54 59.97 60.16 59.08 57.92 54.26 43.29 42.03 51.60 48.40 49.09 47.80 47.47 47.70 44.97 45.16 47.10 48.17 49.13 49.63 49.65 50.28 50.73 50.02 50.61
44.03 43.21 43.01 43.20 44.68 44.63 44.90 46.23 45.68 46.87 47.59 47.94 48.23 48.49 48.76 49.39 50.35 52.24 53.51 57.00 59.92 55.79 47.40 49.93 54.84 56.27 57.41 58.37 57.06 58.72 58.80 57.09 55.59 51.40 41.81 49.19 51.27 50.01 49.46 49.31 47.66 48.28 46.40 45.24 44.59 47.34 47.45 46.42 47.34 48.81 46.98 45.88 46.36 45.28
43.97 44.55 44.55 45.07 46.21 46.67 46.71 46.76 47.18 47.45 47.83 48.20 48.38 48.85 49.24 49.83 50.23 52.84 51.83 58.12 58.07 61.25 52.98 46.51 53.16 53.52 56.03 57.00 56.21 56.36 56.97 57.24 55.92 53.33 50.10 51.29 51.04 51.50 41.93 44.83 47.38 48.16 48.92 48.74 47.15 48.97 48.90 46.75 45.70 44.62 42.90 42.56 42.37 41.24
46.47 46.67 46.85 46.83 46.80 46.78 46.96 46.80 47.10 47.30 47.70 48.02 48.63 49.44 49.94 50.00 54.15 52.67 49.79 51.97 51.58 61.03 53.22 44.31 45.69 51.97 54.83 54.74 54.15 54.71 56.80 55.68 54.85 51.85 49.41 49.46 48.51 50.20 41.74 44.93 45.74 46.33 47.28 47.10 47.75 48.21 44.01 46.05 41.08 41.68 40.17 39.31 39.46 38.77
47.43 47.66 47.56 47.01 46.96 46.78 46.80 46.71 47.14 47.50 47.83 48.31 48.95 49.44 49.63 48.86 50.29 50.77 52.66 49.28 50.98 55.88 55.09 43.22 39.27 48.05 52.92 50.83 48.05 52.96 52.94 53.06 50.14 46.62 48.00 48.01 46.81 48.97 44.16 44.38 44.70 45.73 45.72 45.34 45.02 46.02 44.41 43.43 41.81 39.86 39.81 39.04 37.23 36.24
45.90 46.41 46.87 47.84 47.61 47.12 46.94 47.10 47.56 47.81 48.18 48.72 49.19 49.53 54.27 54.39 54.17 51.70 48.96 48.49 57.08 53.72 46.21 38.76 40.21 37.68 50.85 46.42 47.24 48.59 51.35 41.94 47.46 42.93 45.58 46.53 41.19 40.42 42.93 42.42 42.09 43.53 43.04 41.89 42.81 42.82 42.25 39.73 38.22 38.21 38.16 38.00 36.24 36.20
45.59 45.77 45.73 45.82 47.23 48.31 48.49 48.07 47.85 48.58 49.05 49.48 52.72 52.48 45.24 51.84 47.51 49.42 53.29 49.80 47.71 50.71 47.77 41.66 47.37 42.81 47.09 44.58 41.64 43.39 43.52 41.97 39.70 41.36 44.96 40.20 35.85 39.20 40.25 41.39 41.66 42.37 42.92 41.68 37.00 35.64 36.59 36.37 36.85 37.53 38.06 38.54 37.96 36.09
45.16 45.14 45.32 45.47 45.84 46.68 47.16 48.46 48.78 49.67 50.06 56.02 52.22 45.82 51.67 48.71 53.05 49.80 43.44 43.08 44.20 42.12 42.41 43.40 45.55 42.83 46.89 41.37 38.60 42.90 39.42 40.79 37.28 39.75 40.01 36.78 34.95 36.30 38.92 39.50 41.13 42.49 42.40 41.26 40.24 39.88 40.20 39.12 37.28 36.95 36.71 36.98 35.67 35.18
44.89 44.76 44.49 44.65 45.05 46.02 46.76 47.78 48.21 52.31 53.00 52.33 51.52 52.31 52.51 49.71 46.20 38.43 37.13 39.67 40.23 37.87 39.11 40.11 41.80 42.69 43.40 47.47 41.28 41.42 36.32 39.38 35.04 41.67 36.82 34.88 34.93 36.65 37.63 38.85 40.52 41.22 40.85 40.36 40.51 39.21 39.34 39.21 38.68 37.17 35.98 35.08 34.99 34.13
43.82 43.95 44.14 44.04 44.48 45.28 46.22 46.46 46.25 47.65 47.92 54.43 48.54 41.34 44.88 38.81 36.23 35.50 32.59 36.36 33.90 36.36 37.29 39.34 36.64 41.92 42.52 43.19 38.91 37.86 34.76 36.08 43.17 35.83 34.13 33.86 34.45 35.90 38.13 38.71 38.77 39.79 39.78 39.28 38.70 38.20 37.58 36.41 36.70 35.38 33.92 34.73 33.95 34.35
43.68 43.63 43.15 43.48 43.92 44.55 45.34 46.11 46.86 49.38 50.01 43.55 38.76 34.05 34.96 33.69 32.96 32.78 33.87 34.23 34.05 34.59 37.50 39.49 37.86 38.29 39.13 36.04 36.23 32.78 33.51 37.40 32.90 30.99 33.00 32.66 33.82 36.03 37.35 38.20 37.79 36.70 35.31 36.43 36.09 35.56 34.09 33.33 32.53 32.18 31.28 31.61 29.82 29.90
43.08 42.87 43.05 42.60 43.52 44.48 45.04 45.64 46.19 47.71 43.13 37.29 38.06 31.33 31.33 32.40 32.96 32.78 33.51 34.41 34.70 38.15 40.00 40.20 39.82 40.01 35.86 34.78 36.59 33.51 31.88 31.16 32.75 33.42 33.90 33.63 34.35 36.04 36.50 37.29 35.07 34.77 33.83 35.29 35.14 33.27 32.22 32.37 33.09 32.46 31.66 30.99 29.49 26.93
44.19 44.07 41.80 42.54 43.24 44.27 45.05 46.54 45.63 44.70 38.72 34.06 33.22 32.06 32.60 32.78 32.04 32.42 32.60 32.42 35.30 36.95 40.13 42.76 37.13 34.41 33.14 34.59 33.14 33.31 32.68 32.23 32.84 34.51 34.03 33.99 34.41 35.76 36.74 35.36 35.78 36.52 36.96 35.79 34.73 33.95 33.56 32.49 32.01 31.60 29.88 28.28 27.19 26.14
44.40 41.74 40.78 42.27 43.48 43.94 44.33 44.59 43.01 37.70 35.43 33.87 31.88 32.42 32.96 32.21 31.51 31.69 32.22 32.15 35.28 35.32 33.33 37.08 32.96 32.31 35.73 33.65 32.65 34.88 32.06 33.64 34.30 34.81 34.44 34.41 34.56 36.05 36.72 36.41 35.43 35.90 36.13 35.69 35.19 34.50 33.14 32.54 30.97 29.99 28.77 27.88 28.58 28.37
42.42 43.62 42.24 42.95 45.22 44.68 43.09 42.21 38.90 36.66 31.97 33.16 31.32 31.88 32.96 32.42 32.78 32.60 32.96 34.35 35.11 33.49 34.34 33.33 37.07 33.10 32.60 31.42 31.38 33.39 33.78 33.99 35.06 35.20 35.20 35.79 36.59 36.83 37.30 36.39 36.51 36.51 35.03 33.63 32.90 32.42 31.55 30.26 30.18 28.98 28.06 26.68 27.41 26.79
40.36 41.73 41.79 42.73 43.96 42.61 37.28 38.21 40.24 32.20 33.11 34.40 34.19 34.71 34.58 33.69 35.27 35.95 35.86 37.32 38.15 37.78 36.57 34.78 32.37 30.73 30.03 30.93 32.22 33.51 33.76 33.20 31.84 32.93 34.66 36.58 36.66 36.30 36.09 35.30 34.11 33.13 32.00 32.44 32.70 31.57 28.64 28.01 26.90 26.64 25.53 24.77 23.82 24.58
41.16 40.87 41.27 42.62 44.41 39.91 34.49 35.83 41.61 34.54 31.41 33.34 35.21 34.12 34.39 34.02 35.60 34.38 35.86 37.41 35.92 35.09 30.58 28.81 26.88 27.79 28.55 30.53 32.00 34.61 34.95 34.41 33.37 31.46 31.82 34.10 35.01 34.41 34.30 34.12 33.03 32.12 30.25 28.56 28.00 28.77 28.96 27.56 25.68 24.51 23.12 22.81 22.22 20.70
42.33 41.40 42.47 44.38 42.20 39.78 36.66 35.68 34.11 34.84 34.47 32.23 34.11 34.56 33.08 36.29 34.48 33.51 34.38 37.05 32.24 28.87 28.11 30.11 30.55 31.38 33.31 32.32 32.78 33.31 33.76 35.97 35.57 35.20 33.33 32.05 33.49 33.64 32.55 32.33 32.18 31.50 30.04 29.08 27.44 25.24 24.98 23.05 22.16 22.03 22.28 22.55 21.02 21.38
40.30 40.96 42.39 41.63 37.41 36.07 35.31 38.16 34.73 36.76 34.21 33.68 33.51 34.53 32.10 31.73 32.04 32.33 35.83 30.75 27.54 28.82 29.95 29.58 29.94 30.47 29.52 28.92 29.90 32.06 32.80 33.32 33.55 32.98 32.67 32.53 30.25 29.39 29.08 29.83 28.99 26.83 25.34 24.74 24.41 23.15 22.31 20.03 18.96 19.32 19.99 19.85 19.67 21.43
40.44 41.00 39.23 37.14 32.16 31.27 30.21 37.80 32.49 32.52 28.38 29.62 32.60 29.49 29.64 29.81 31.70 35.74 29.29 28.02 27.35 31.09 31.68 30.48 29.87 30.60 28.99 29.00 28.69 28.82 31.01 30.74 28.93 28.70 28.33 27.75 27.47 26.93 25.70 25.14 26.49 25.05 21.33 19.92 21.33 20.54 19.16 17.13 17.74 17.48 19.43 18.88 18.83 19.15
38.51 32.58 30.56 30.81 32.19 27.25 33.91 28.93 31.74 29.81 29.96 28.84 27.78 25.78 26.18 28.15 32.57 29.57 23.92 24.93 26.64 28.39 28.64 28.71 30.77 29.19 27.62 25.89 23.92 23.92 27.20 27.96 25.97 26.43 28.73 26.05 23.26 22.48 22.22 20.49 19.47 19.35 20.00 20.48 19.70 19.14 19.06 18.23 15.70 17.34 16.98 15.56 16.09 15.20
29.96 27.15 30.78 27.00 32.32 29.18 27.39 27.04 27.80 27.57 24.98 27.51 26.65 26.15 26.84 30.67 25.96 24.14 22.52 24.01 23.36 23.42 24.15 27.47 26.21 26.01 25.12 23.78 22.97 22.22 24.74 24.73 22.45 19.84 21.76 24.52 22.78 21.28 19.43 18.40 17.26 17.26 18.78 17.76 16.26 16.12 16.08 16.28 15.92 14.52 13.35 13.71 12.70 12.70
23.60 26.37 25.62 25.81 26.14 26.01 25.81 23.69 23.70 24.11 25.86 25.60 24.76 26.69 29.60 27.92 22.96 19.72 20.22 22.34 21.38 21.34 21.67 22.88 24.19 22.54 20.12 20.42 19.53 18.85 19.61 23.48 21.86 17.72 17.53 19.13 19.36 20.50 19.31 18.38 17.54 14.64 16.48 15.95 14.02 12.87 13.14 12.96 12.25 11.45 11.57 12.07 11.05 12.27
22.54 24.28 27.47 30.35 28.63 28.91 27.22 27.91 29.11 27.70 25.05 24.37 26.11 26.45 26.86 22.14 19.11 19.87 21.87 22.23 21.36 21.78 21.95 22.25 22.04 20.98 19.77 19.23 19.59 19.75 19.66 19.54 18.89 17.66 18.32 17.76 17.30 17.11 15.99 13.78 11.78 11.28 14.00 13.61 12.36 10.63 9.63 9.77 10.02 10.32 10.56 12.40 12.82 11.80
25.52 26.16 23.30 27.07 27.33 29.48 25.02 25.68 25.24 23.94 24.60 25.86 28.01 21.90 20.45 18.27 15.97 19.98 20.76 23.11 24.18 23.18 21.73 21.04 20.40 19.66 19.04 19.19 20.27 20.42 21.19 20.06 18.86 19.36 18.85 18.41 18.23 17.33 16.24 16.05 14.31 12.50 13.24 13.28 11.82 11.34 10.30 9.60 8.52 8.99 9.73 9.09 8.88 10.95
25.27 27.92 29.09 22.87 26.09 25.18 24.58 25.03 24.30 24.08 24.91 25.11 24.47 20.69 17.55 17.04 18.65 19.75 21.08 23.24 23.41 22.36 20.48 19.73 20.92 21.56 19.87 19.16 18.78 18.03 17.11 16.27 15.67 13.12 13.25 14.02 15.17 14.59 15.27 14.92 14.79 14.34 14.19 12.96 12.91 12.75 11.97 10.55 9.60 9.15 8.53 8.59 8.82 10.05
24.99 29.83 26.21 25.18 23.53 22.24 24.20 26.40 25.49 25.37 24.88 25.17 22.86 19.47 16.66 16.47 18.01 20.70 19.92 19.61 18.71 17.92 18.17 18.66 18.92 18.13 16.85 17.69 15.96 15.12 14.54 13.06 11.74 10.18 9.18 8.69 9.29 12.66 13.48 13.80 13.07 12.84 12.81 11.69 10.72 10.54 11.64 10.87 10.11 9.44 9.92 9.65 9.32 8.01
28.15 29.16 26.15 25.57 23.57 24.61 25.27 27.46 28.43 26.76 25.18 22.34 23.27 19.82 15.89 15.07 16.60 17.45 16.80 19.31 17.94 18.00 18.66 16.69 14.83 15.06 13.69 12.48 12.25 11.91 12.68 13.28 11.80 11.22 9.47 10.18 11.61 12.06 13.08 12.54 12.86 12.66 11.69 10.46 9.39 8.61 8.23 7.81 7.49 6.71 6.73 6.58 6.03 5.74
26.10 23.17 23.64 22.19 23.75 25.37 26.66 24.67 24.69 26.08 24.70 22.49 19.21 19.42 18.25 18.82 13.13 13.40 15.10 17.65 16.36 14.56 13.50 14.67 13.68 12.87 13.27 13.36 13.86 14.38 7.55 12.14 12.62 10.98 9.49 8.68 8.72 9.40 10.00 10.33 10.63 11.09 10.97 9.47 8.53 8.19 7.74 6.95 6.47 5.84 5.24 5.02 4.67 2.70
25.15 25.15 24.53 23.98 23.39 22.72 24.16 23.45 22.18 20.57 20.52 18.35 16.61 17.47 15.63 14.13 9.21 13.27 17.06 16.71 14.52 13.45 13.05 13.80 14.68 14.89 13.79 12.98 12.60 12.33 11.19 13.42 11.73 12.40 11.78 9.33 4.68 6.63 6.50 7.89 8.21 7.36 6.63 6.87 6.80 6.69 6.09 5.97 5.75 5.18 3.71 2.50 2.19 1.49

GFSWCAN_sfc_wetblb_042.txt.gz
Wetbulb
43.17 43.74 43.96 43.79 43.88 43.84 44.15 44.32 44.43 45.01 45.07 45.05 45.15 45.48 46.00 46.52 46.85 46.27 45.70 49.11 44.84 42.97 46.52 49.53 48.27 43.73 45.44 46.72 41.69 44.78 44.53 43.84 40.72 35.62 34.08 31.85 28.28 34.41 33.85 37.66 34.20 32.35 29.14 24.89 28.70 23.11 25.12 42.85 41.34 36.15 38.02 41.28 42.32 42.57
43.79 43.82 43.72 44.02 44.09 44.18 44.51 44.75 45.29 45.32 45.29 45.43 45.52 45.50 45.92 46.58 47.00 47.78 43.50 48.41 49.20 43.85 46.55 49.15 50.02 51.23 50.48 50.82 47.55 45.76 45.27 45.25 45.78 41.42 36.76 35.53 32.03 29.94 32.43 30.49 40.64 32.55 35.20 32.00 33.78 32.40 40.71 42.21 42.04 43.14 43.99 42.90 43.01 43.92
43.80 43.92 43.91 44.40 44.63 44.72 44.67 45.29 45.77 45.97 45.79 45.45 45.58 45.81 46.14 46.84 48.21 47.35 46.22 47.46 46.87 43.62 44.47 46.67 48.14 52.82 54.95 54.67 54.82 45.70 45.66 49.96 49.39 47.65 42.13 38.66 32.90 33.65 29.63 30.66 35.05 39.51 43.61 37.62 36.98 40.83 42.23 43.61 44.70 44.72 43.33 40.62 40.78 41.99
43.78 44.12 44.31 44.57 44.71 44.56 44.42 45.00 45.32 44.80 45.21 46.39 46.36 46.55 47.31 47.59 47.90 47.00 45.63 49.89 47.00 46.49 39.00 45.28 54.74 51.60 55.31 54.59 53.57 51.95 50.55 51.41 52.15 48.30 39.02 35.49 34.43 40.58 31.03 37.26 35.94 39.48 41.14 38.44 38.37 40.80 42.38 42.09 42.14 40.23 39.73 39.56 38.77 38.86
44.30 44.41 44.56 44.74 45.09 44.98 45.20 45.46 45.49 45.58 46.09 46.76 47.14 47.26 47.42 47.69 47.79 47.05 47.86 49.66 51.65 47.07 39.36 44.26 50.35 53.23 55.29 55.47 52.94 53.57 52.11 50.14 45.50 39.42 34.70 36.65 40.65 39.55 35.58 36.41 33.31 40.77 39.12 34.47 33.47 42.37 40.05 39.28 40.24 41.40 38.96 37.98 37.96 36.78
44.72 44.65 44.75 44.92 45.26 45.33 45.39 45.69 45.86 45.93 46.37 46.73 46.85 46.87 47.21 47.10 47.45 46.33 41.10 47.41 50.54 51.63 43.99 38.03 48.07 50.45 53.31 54.69 52.98 52.76 51.35 49.98 47.59 42.91 39.08 42.42 44.78 37.90 30.81 28.59 40.84 42.25 43.32 43.77 41.08 42.00 40.24 39.06 39.05 39.42 37.69 37.12 36.98 35.73
44.73 44.78 44.79 44.66 45.07 45.41 45.50 45.50 45.50 45.98 46.19 46.48 46.87 47.01 47.17 47.23 47.03 44.02 41.90 47.93 49.13 50.84 43.82 38.04 40.08 49.09 51.97 50.90 49.44 49.58 49.29 46.69 47.98 43.79 37.07 39.26 40.73 39.87 31.08 31.35 41.05 41.99 42.05 41.43 41.01 40.29 37.34 38.60 35.69 37.47 36.62 35.83 36.10 35.07
44.07 44.09 44.15 43.92 43.92 44.48 44.69 44.63 45.32 45.41 45.84 46.20 46.64 47.05 47.64 47.71 47.86 46.37 48.89 49.71 50.76 47.86 47.25 36.43 38.69 41.94 50.03 42.76 43.05 47.79 44.92 43.39 43.19 40.54 37.82 35.03 39.33 31.32 31.87 39.22 40.95 40.75 41.22 40.89 40.03 40.53 38.62 37.49 35.92 34.78 35.27 35.15 33.73 32.60
43.65 43.47 43.63 43.91 43.94 44.35 44.44 44.50 45.01 45.49 46.46 46.50 47.03 47.75 47.88 47.34 45.00 46.55 48.99 49.02 50.94 48.04 39.10 34.27 35.52 35.36 45.84 40.64 39.20 40.54 40.33 36.58 42.87 35.16 34.93 37.84 30.12 31.40 36.93 39.07 38.94 40.01 38.65 36.53 37.35 37.03 36.62 34.59 33.91 34.00 34.06 32.75 31.19 30.13
43.41 43.61 43.76 44.02 44.16 44.45 44.38 44.57 45.54 46.00 46.84 47.18 46.92 45.15 40.07 45.98 49.39 49.20 48.04 44.33 42.99 42.59 40.31 35.71 40.32 37.34 42.49 35.54 36.08 33.15 36.25 34.42 34.31 35.61 39.68 33.27 32.04 35.71 36.67 38.60 38.93 39.14 38.44 37.35 33.92 32.37 33.43 32.82 33.76 34.06 33.29 33.49 32.43 30.57
45.89 45.64 45.47 45.34 45.54 45.72 45.92 46.07 46.59 47.27 47.46 46.13 45.02 41.70 48.70 49.32 48.02 43.77 36.20 34.68 37.55 33.42 35.21 37.92 38.66 38.18 42.37 34.64 34.26 34.00 33.89 32.58 31.24 34.14 33.33 32.43 31.66 35.57 36.96 38.17 38.95 39.38 39.13 37.17 36.65 36.69 36.16 35.79 34.48 33.38 32.81 31.99 30.88 29.47
46.85 46.37 46.38 46.31 46.24 46.35 46.44 46.57 47.09 47.97 48.98 47.81 48.00 48.95 47.12 44.15 37.16 34.15 32.04 33.36 33.95 32.72 34.43 36.05 37.68 40.62 38.15 42.41 36.23 35.46 32.09 31.14 30.45 36.05 33.48 30.38 30.23 34.47 39.10 39.36 40.18 40.00 38.88 37.50 37.61 37.19 37.07 36.31 35.39 33.46 31.43 29.64 28.84 29.22
45.86 46.64 46.83 46.55 46.82 47.27 47.28 47.50 48.20 48.33 48.94 47.41 42.80 36.65 39.03 34.01 30.57 25.46 25.70 31.19 31.06 32.79 34.75 34.60 34.24 35.66 37.24 38.77 34.23 34.17 27.48 29.07 30.11 32.43 26.06 28.45 34.79 36.49 37.90 38.58 37.90 38.86 38.60 37.50 36.54 36.69 35.59 34.36 33.31 31.11 28.73 28.06 28.39 27.63
44.61 44.76 45.59 46.28 46.49 46.66 47.16 46.48 46.55 45.85 43.39 36.76 32.66 30.22 31.00 29.32 29.07 29.50 31.09 31.67 32.26 32.44 33.55 33.53 33.53 34.97 33.00 33.68 32.43 31.50 32.20 32.78 27.80 23.73 24.16 31.06 34.47 35.32 37.09 37.20 35.81 33.97 33.33 33.49 33.11 32.46 31.20 30.83 30.31 30.38 28.32 26.97 26.03 25.01
43.67 43.89 44.28 44.19 45.24 45.40 45.20 44.73 44.43 42.72 36.58 32.57 32.10 27.29 28.12 30.96 32.01 31.87 32.23 32.40 32.56 34.19 33.89 33.52 33.70 34.35 32.62 32.52 31.78 31.62 29.71 27.75 26.76 23.82 30.53 32.75 34.52 34.77 34.39 33.99 32.72 31.63 31.53 31.48 31.70 30.13 29.20 28.99 28.32 27.32 27.61 26.89 25.78 23.17
43.47 42.79 41.92 43.73 44.41 45.13 44.78 43.85 41.39 39.27 34.34 30.12 30.88 30.80 32.22 31.87 31.06 31.24 31.64 31.89 34.31 32.79 32.81 31.46 32.19 31.90 31.12 31.71 30.08 29.15 24.93 23.81 29.28 30.77 32.43 34.62 33.89 32.74 32.57 32.73 33.20 33.16 32.05 31.16 30.89 30.09 28.89 27.62 26.27 26.23 25.77 24.07 21.39 20.57
42.34 39.10 42.74 44.07 44.25 43.89 43.81 40.06 36.72 33.12 32.63 30.13 29.23 31.87 31.31 31.25 30.20 30.75 31.48 31.80 34.27 33.52 32.28 31.38 29.18 29.32 31.42 29.58 27.79 30.08 26.94 29.31 31.12 31.87 33.47 34.42 32.52 32.83 33.71 33.05 32.49 32.64 32.05 31.48 31.10 30.28 28.77 27.76 26.63 25.28 23.40 23.46 24.07 22.47
37.13 38.81 43.75 44.45 43.00 41.59 40.35 38.45 33.74 32.12 29.76 30.91 27.95 30.15 31.75 31.63 31.07 31.56 32.16 34.24 33.42 32.01 32.49 30.38 32.85 26.57 23.60 23.59 25.90 29.62 30.36 31.31 31.86 32.53 33.70 33.39 34.20 34.08 35.19 33.59 34.06 33.03 31.92 30.84 30.22 29.32 27.11 25.95 25.01 23.90 25.02 24.68 23.14 23.43
39.91 40.79 42.87 43.50 41.48 36.02 32.54 33.96 34.83 29.08 29.99 31.31 31.67 31.64 31.49 31.98 32.40 32.22 32.16 32.76 33.39 33.11 31.44 28.47 23.52 22.20 23.23 26.14 25.61 29.03 30.75 31.13 31.12 31.81 32.99 34.22 34.15 33.44 33.08 32.84 32.31 31.63 30.87 29.44 28.11 25.93 24.89 24.28 22.72 22.90 22.64 21.69 19.28 19.86
41.65 41.47 41.41 41.76 40.31 31.45 30.45 29.79 33.75 30.45 29.19 30.74 32.01 31.44 31.56 31.03 31.07 29.56 29.28 29.71 30.28 29.55 26.11 23.56 22.04 22.82 23.57 24.95 27.22 30.33 31.46 31.90 32.18 30.19 29.69 30.82 31.89 31.81 31.69 30.85 28.88 29.06 26.97 25.17 23.32 22.24 21.89 21.24 21.80 21.25 20.07 18.07 15.12 13.65
37.18 37.91 38.51 37.25 33.71 32.82 30.33 29.01 31.54 32.14 31.67 30.70 31.87 31.63 30.57 30.10 25.86 25.17 25.57 28.55 25.00 24.60 22.81 25.14 24.51 25.64 26.75 26.92 27.39 28.74 27.72 31.00 31.75 31.25 30.08 28.51 30.04 29.43 28.67 28.37 27.79 26.29 24.02 21.20 19.34 18.78 19.02 18.48 19.09 18.14 15.57 12.90 9.00 7.34
34.41 38.85 29.95 32.67 28.36 28.40 28.43 31.32 29.64 29.81 29.85 29.97 28.53 28.93 25.29 24.45 24.06 23.88 25.85 22.23 21.33 22.25 26.00 24.81 24.01 23.86 22.82 23.21 24.55 25.33 27.52 26.53 25.87 24.69 23.58 25.11 22.17 22.84 21.97 22.62 21.67 20.04 20.18 19.60 19.18 17.39 16.94 16.89 17.29 16.00 13.57 10.36 11.42 12.18
35.27 32.26 27.51 25.54 21.38 21.17 19.71 27.73 21.58 26.62 19.72 22.33 25.52 23.31 23.45 22.36 28.27 27.13 20.03 22.23 21.60 23.90 25.14 24.75 23.13 23.17 22.00 22.64 22.98 23.80 24.15 24.02 22.32 21.74 20.97 19.89 19.67 19.61 19.40 19.59 20.20 18.44 17.53 18.40 19.35 17.80 16.31 16.26 15.09 13.01 11.39 9.59 7.61 4.08
33.44 25.14 25.25 23.08 21.69 19.76 17.61 22.03 26.18 25.87 20.86 19.70 17.78 18.38 21.97 23.19 24.47 17.91 16.31 16.75 19.41 21.13 21.33 21.23 22.22 20.38 19.71 19.17 17.26 17.89 20.71 21.55 19.56 19.50 21.22 19.05 16.70 16.28 16.92 16.27 15.94 16.58 16.89 16.27 15.43 14.28 13.06 11.31 10.83 9.43 5.98 -0.35 -3.11 -4.70
19.98 19.05 16.53 11.54 16.15 15.02 9.30 14.61 15.99 19.43 11.56 14.56 13.43 12.84 17.54 20.23 13.70 12.69 13.07 15.68 15.15 14.73 16.35 19.76 18.15 17.38 15.67 14.96 15.31 16.37 19.32 18.05 15.48 14.14 15.54 18.94 17.08 15.85 14.12 13.50 12.31 12.87 13.78 10.42 7.79 6.70 6.73 5.22 3.49 2.60 1.71 -9.22 -1.68 -4.69
19.20 20.57 18.59 22.44 21.36 14.78 13.50 11.09 11.82 15.34 11.63 9.44 21.06 21.47 15.18 9.21 4.13 7.03 14.14 13.31 10.56 14.24 12.82 14.77 16.05 14.48 14.10 14.94 13.03 13.10 14.61 18.00 16.06 12.34 12.77 14.42 14.13 13.60 12.44 10.94 9.05 8.43 11.00 7.62 3.92 -0.17 -1.17 -4.90 -8.68 -7.59 -9.22 -2.88 0.45 -2.70
19.14 17.00 24.02 28.31 25.15 21.67 16.85 18.77 18.56 12.98 8.73 15.01 11.97 9.42 14.72 0.86 2.90 13.03 17.90 18.65 16.62 16.47 17.77 17.22 17.20 15.55 14.15 13.93 15.25 15.03 14.51 14.80 13.82 13.28 14.27 13.68 12.47 11.12 5.91 0.39 0.10 3.79 6.52 -0.73 -6.36 -8.32 -7.41 -9.77 -11.03 -11.22 -13.03 -11.76 -9.40 -9.22
22.10 21.29 15.34 16.31 13.97 18.02 8.53 8.34 7.63 9.54 9.99 18.94 15.05 5.06 0.01 1.91 6.70 15.21 16.86 19.24 18.95 18.99 17.77 16.88 16.24 14.84 12.08 10.36 9.55 9.15 9.00 11.70 12.64 12.05 10.88 9.64 8.58 7.41 6.51 4.91 5.11 12.03 3.97 -0.18 -2.54 -1.49 -4.87 -1.64 -3.78 -5.78 -6.87 -11.40 -9.04 -10.50
23.10 24.10 17.38 14.94 12.65 13.49 16.69 12.56 12.20 18.00 21.83 20.22 7.29 5.69 7.14 12.16 13.00 14.76 16.30 17.12 17.62 16.05 12.63 11.32 12.16 11.37 10.08 7.87 5.74 4.86 4.27 2.07 -2.64 -5.96 -10.67 -9.40 -8.13 -2.30 4.59 6.64 5.00 0.83 -5.42 -4.87 1.11 4.56 2.35 0.76 0.50 -4.87 -9.04 -10.31 -4.70 -7.77
17.34 17.87 11.97 7.92 7.27 11.87 14.32 15.33 8.90 12.19 17.81 11.87 12.79 12.03 11.07 10.06 12.48 13.64 13.60 12.85 10.69 8.43 6.61 8.03 7.84 6.22 -0.19 -3.06 -2.51 0.46 -1.08 -2.67 -0.34 -6.56 -11.58 -11.94 -6.52 -2.04 -5.41 -5.60 -1.98 -0.25 1.43 -3.25 -1.64 -0.34 1.28 -9.42 -7.42 -8.70 -7.09 -5.97 -13.94 -14.66
19.94 13.64 9.07 8.42 9.58 18.14 21.01 13.70 14.16 10.57 4.85 2.92 1.63 -0.15 1.02 5.02 6.90 10.52 11.86 9.03 10.78 4.85 5.86 0.43 -2.22 -7.59 -3.24 -3.78 -8.50 -11.22 -7.05 -2.24 -3.43 -5.05 -7.23 -9.22 -12.49 -13.57 -13.21 -13.39 -13.03 -11.58 -10.49 -9.95 -9.77 -7.05 -5.78 -6.69 -7.59 -8.50 -10.67 -5.97 -7.59 -11.40
6.22 5.83 7.73 8.27 9.39 17.99 17.89 19.50 19.63 12.97 6.78 5.22 1.43 -3.42 -0.53 -2.44 -3.24 3.54 6.74 4.29 5.28 3.54 -1.79 -4.33 -3.42 -1.09 -6.87 -10.13 -11.76 -6.87 -1.00 -2.88 -3.78 -5.23 -3.78 -5.41 -6.32 -7.95 -12.12 -11.22 -15.20 -15.93 -16.65 -17.20 -17.56 -14.66 -12.67 -10.31 -9.22 -6.35 -4.09 -5.12 -8.13 -11.40
6.12 3.05 1.39 6.19 10.30 9.95 6.67 9.44 11.73 8.09 5.76 3.44 2.81 1.41 -0.56 -0.19 -2.22 2.74 8.50 1.23 -2.56 -5.60 -6.14 -6.87 -6.14 -1.43 0.08 -2.89 -5.42 -5.61 -5.23 -9.77 -9.95 -1.25 -0.52 -0.70 -2.15 -3.06 -9.77 -12.85 -14.30 -14.84 -12.49 -15.02 -17.02 -18.29 -12.30 -13.39 -15.20 -14.30 -10.50 -8.90 -8.18 -11.77

GFSWCAN_sfc_wetblb_045.txt.gz
Wetbulb
44.95 44.98 44.84 44.92 45.08 45.22 45.19 44.85 44.85 44.72 44.29 44.15 44.49 45.44 45.96 46.30 46.81 44.41 44.05 47.84 44.75 40.19 42.92 46.17 46.30 43.01 43.51 42.69 38.58 42.63 44.22 43.38 37.75 35.10 34.34 32.84 29.38 34.50 32.57 35.66 33.23 33.26 29.48 24.69 25.14 20.95 25.68 40.10 39.26 34.49 36.78 38.95 40.88 40.57
43.80 44.40 44.40 44.42 44.30 44.31 44.10 44.37 44.34 44.08 43.98 44.44 45.11 45.44 45.77 46.10 46.56 45.89 41.96 47.97 49.30 42.83 43.16 46.51 46.00 46.37 46.03 46.91 44.40 44.45 43.81 43.91 43.97 39.46 36.70 35.52 31.52 28.84 32.45 29.35 38.02 32.59 35.51 32.51 33.41 31.98 38.81 40.70 39.70 40.74 41.56 41.53 41.29 42.12
43.62 43.52 43.41 43.24 43.41 43.73 43.96 43.96 43.96 44.03 44.45 44.99 45.15 45.51 45.86 46.12 46.19 45.51 44.63 47.35 46.53 42.01 41.34 42.61 43.86 48.31 50.25 49.75 51.43 44.02 44.22 48.24 46.68 47.20 41.38 37.56 33.42 33.66 29.58 30.38 33.82 37.69 40.54 35.36 36.21 38.88 40.33 41.58 40.97 41.38 42.31 41.63 42.49 43.00
43.78 44.06 44.13 44.01 43.84 43.91 43.99 43.97 44.04 44.12 44.66 44.94 45.06 45.35 45.46 46.19 46.50 46.26 43.62 47.46 45.87 43.86 35.65 41.26 52.80 50.39 53.81 53.52 52.28 50.59 49.74 50.72 49.00 46.29 39.97 35.86 32.45 39.82 30.51 36.79 35.44 38.17 40.27 37.18 36.16 39.05 40.47 40.37 38.33 38.35 38.24 38.58 38.06 38.26
44.05 44.12 44.17 44.25 44.47 44.48 44.72 44.74 44.62 44.72 44.88 45.20 45.48 45.48 45.60 46.23 46.73 45.72 46.35 47.34 47.95 41.82 38.12 40.99 47.64 51.69 54.03 52.88 51.40 51.57 50.74 48.92 44.35 40.27 33.97 35.02 39.07 40.12 35.46 35.99 32.87 40.01 38.08 34.85 33.09 40.83 39.60 39.31 38.45 39.26 37.95 36.72 36.82 35.89
44.42 44.28 43.99 43.57 43.48 44.60 44.91 44.51 44.71 45.54 45.21 45.28 45.60 45.76 45.93 46.24 46.46 44.42 39.24 44.47 48.48 49.95 40.86 35.27 46.18 49.06 50.99 51.50 50.16 50.01 50.88 48.47 47.11 42.63 37.68 42.32 45.30 40.50 32.76 30.84 39.75 41.64 42.25 41.32 40.35 43.51 39.45 38.63 37.82 38.03 36.53 36.05 35.86 34.90
44.48 44.81 44.82 44.66 44.80 45.01 45.08 45.04 45.60 46.09 46.09 45.84 45.68 45.63 46.07 46.53 45.26 41.34 37.93 42.15 47.04 49.59 42.81 35.09 36.95 46.62 51.72 49.51 47.01 48.45 48.34 46.29 47.37 43.30 36.45 39.90 41.15 40.48 31.19 32.17 39.96 40.94 40.57 39.76 39.64 38.87 35.74 36.66 34.85 36.15 35.60 35.33 35.53 34.19
44.65 44.77 45.00 44.98 45.31 45.33 45.43 45.05 45.56 45.93 46.39 46.48 46.53 46.48 46.58 46.67 46.00 40.76 47.55 48.15 48.21 45.17 44.46 34.79 35.71 40.49 49.43 43.19 41.28 46.92 42.73 44.35 43.47 40.69 36.65 35.80 38.16 30.95 32.47 38.28 39.22 39.38 39.26 39.15 38.30 39.26 37.92 35.80 34.98 34.15 34.54 34.07 32.73 31.80
44.23 44.15 44.34 44.81 44.95 44.81 45.06 45.28 45.72 45.79 46.21 46.35 46.60 46.92 45.77 44.30 40.39 43.19 49.05 50.12 51.31 46.14 37.68 33.89 34.43 34.56 46.18 41.58 40.36 41.03 43.06 36.95 42.34 35.49 36.77 39.16 32.56 33.80 36.01 37.96 38.41 39.05 38.20 35.30 35.98 35.14 34.89 33.59 32.97 33.13 32.82 31.94 30.15 29.24
43.88 43.71 43.78 43.64 44.07 44.20 44.43 44.89 45.22 45.66 46.12 46.72 45.73 42.87 37.46 42.93 48.06 48.37 46.23 42.59 42.05 42.53 42.30 35.17 40.10 37.31 42.80 36.39 35.15 36.66 36.01 34.96 34.60 36.43 39.75 33.88 33.22 35.48 35.65 38.45 37.97 37.39 36.84 36.02 32.86 31.13 31.68 31.37 32.02 32.02 31.50 32.40 31.94 31.04
43.83 43.53 43.61 43.75 43.94 44.18 44.30 44.52 45.13 46.28 46.35 44.50 40.41 39.09 46.92 48.47 46.19 41.47 36.01 34.73 36.12 33.15 36.01 37.99 38.70 38.30 41.86 36.41 34.22 34.90 33.86 33.25 32.92 35.46 35.11 32.60 33.01 34.59 36.67 37.02 37.87 37.91 37.61 36.73 36.80 36.10 35.65 34.44 32.78 32.82 32.31 31.41 29.78 29.35
44.34 44.49 44.17 44.15 44.24 44.29 44.42 45.07 45.52 45.01 43.99 43.36 47.08 47.48 45.98 42.80 37.65 32.99 31.49 32.59 32.04 32.33 34.55 35.14 36.75 39.90 36.56 40.98 35.10 34.82 32.71 32.02 30.51 36.19 33.72 31.40 31.40 34.31 36.73 36.80 37.66 38.23 38.07 38.07 37.95 36.52 36.18 35.46 35.00 33.24 31.09 29.38 29.13 28.88
45.08 44.41 44.36 44.27 44.85 45.20 44.94 45.57 46.07 47.21 48.07 46.87 41.71 36.47 38.36 32.77 31.12 30.13 28.27 30.56 31.47 32.56 34.61 34.04 33.66 34.40 34.24 36.15 30.78 29.49 23.45 24.61 33.06 32.34 31.30 28.98 34.15 36.99 38.63 38.13 37.60 38.34 38.06 37.40 36.83 36.68 35.55 33.53 32.34 30.80 28.88 29.10 28.38 27.14
46.04 45.97 46.12 45.97 45.92 45.95 46.12 46.46 46.53 46.95 45.15 36.19 34.02 28.81 30.28 27.92 28.75 29.09 30.72 31.79 32.18 32.21 32.96 33.51 33.15 33.48 32.42 32.29 30.01 27.05 31.51 32.32 26.24 22.42 21.93 30.66 34.21 35.83 36.84 36.74 35.90 35.19 34.63 34.37 33.53 32.14 30.71 29.46 28.30 28.56 28.59 27.35 25.62 24.11
44.55 44.62 44.78 45.37 46.56 46.43 46.44 46.11 45.54 42.99 37.67 32.18 32.92 26.92 28.29 31.26 31.83 31.82 32.21 32.41 32.69 33.99 33.51 33.49 32.77 34.66 32.35 32.21 30.88 31.39 29.88 27.77 22.69 20.82 29.07 32.38 34.14 35.21 34.48 33.92 32.70 31.77 31.60 31.42 31.62 30.23 28.84 28.00 27.19 26.48 26.81 26.42 24.04 21.98
43.79 43.54 42.11 44.35 45.16 44.84 44.20 43.17 40.87 38.30 33.67 31.62 30.66 29.44 30.78 30.46 29.73 30.72 31.13 31.82 34.29 32.93 33.13 33.25 29.94 29.66 30.52 31.05 29.56 28.06 27.17 25.27 28.18 30.19 32.01 33.21 32.81 32.89 32.44 32.44 32.56 32.46 31.42 31.02 30.57 30.33 29.72 28.29 26.72 25.95 25.85 23.96 21.59 20.40
43.05 39.57 42.66 44.40 43.87 43.70 43.43 39.78 37.16 31.94 30.68 29.75 28.82 31.82 31.09 30.91 30.05 30.90 31.23 31.34 34.23 33.49 31.86 31.10 29.61 28.36 31.84 28.49 26.78 29.24 25.39 28.11 30.51 31.80 32.86 32.27 31.69 31.87 32.32 32.06 31.63 31.75 30.69 30.02 29.77 29.31 28.22 27.59 25.34 23.96 22.45 23.08 23.10 21.27
36.94 39.80 43.48 44.09 42.67 41.23 39.26 37.45 33.24 31.28 29.47 30.85 28.63 29.94 29.85 29.53 29.77 29.73 30.66 31.85 32.33 32.03 31.73 27.95 29.91 23.23 20.82 20.93 21.53 24.63 29.92 31.27 31.61 31.62 31.76 32.95 33.60 33.42 33.76 32.21 32.18 31.99 30.95 30.48 29.33 27.78 26.74 25.22 24.59 23.80 23.83 23.94 22.37 21.65
39.10 39.70 41.79 42.57 40.20 34.85 31.68 33.27 34.13 29.39 29.60 31.29 31.44 31.64 30.42 28.54 29.50 29.67 30.34 31.14 32.09 32.10 29.39 26.76 21.13 19.38 19.86 22.31 21.87 23.64 28.76 30.54 30.13 31.03 31.56 32.16 33.12 32.39 32.21 32.23 31.84 31.13 30.47 29.41 27.67 26.37 25.27 24.78 24.08 24.02 22.46 21.97 20.41 19.71
40.74 40.47 40.19 40.89 40.00 31.80 30.40 30.09 33.89 31.00 29.20 30.37 30.47 26.87 27.23 26.43 27.46 27.06 26.40 27.45 27.87 27.27 23.29 20.31 19.44 20.21 21.15 22.52 23.82 25.71 26.43 31.46 31.59 29.25 28.90 30.02 30.98 30.71 30.43 30.53 28.29 26.72 25.21 24.41 23.72 23.30 22.24 20.84 20.73 19.84 19.14 18.42 17.28 15.75
36.35 36.66 36.81 35.85 32.20 31.61 28.91 28.06 31.16 31.52 31.40 30.82 31.68 30.66 26.23 26.18 22.96 21.77 21.98 25.22 22.00 22.50 20.02 21.59 21.15 22.67 23.95 24.12 24.38 26.09 24.83 25.40 23.96 27.67 27.53 24.51 25.54 26.10 25.95 26.01 25.34 23.39 21.34 20.57 19.52 18.68 18.68 18.35 18.57 17.85 15.49 12.57 13.43 14.15
32.36 36.42 26.97 30.10 26.68 27.29 27.26 29.55 29.39 28.90 29.00 29.00 26.98 26.78 22.65 18.52 16.82 20.69 22.65 18.49 18.20 19.52 21.99 21.03 20.82 21.60 20.78 20.81 21.75 22.91 24.33 23.57 22.97 21.99 21.59 21.99 19.76 19.76 19.63 20.84 20.13 18.21 18.18 17.95 17.56 15.93 16.44 17.34 17.30 16.10 14.07 12.92 14.74 13.30
33.15 30.83 26.02 25.17 20.75 19.63 18.34 26.83 20.68 25.88 18.45 20.64 22.46 20.48 19.82 19.33 22.23 24.39 15.58 18.42 18.41 21.23 21.92 22.53 22.08 21.49 20.03 20.90 20.96 21.53 22.01 21.32 19.51 19.31 18.75 17.88 17.66 17.40 16.99 17.20 18.17 16.96 15.85 16.39 17.70 16.17 15.03 15.70 13.94 12.28 12.01 11.55 9.25 4.25
30.94 20.71 16.35 15.05 18.48 11.15 15.23 16.04 23.40 22.41 18.24 16.17 15.82 14.07 21.60 21.33 18.93 13.07 12.00 13.47 16.66 18.70 18.81 18.32 19.32 17.81 17.55 17.08 15.51 16.22 17.79 19.34 17.21 17.17 18.74 16.72 14.05 13.37 14.12 13.31 13.50 13.60 13.96 13.79 12.46 10.86 10.13 8.69 8.94 8.10 5.57 2.12 0.19 -0.67
19.25 17.12 14.55 9.99 13.56 13.31 8.32 9.30 11.85 15.32 8.98 10.13 11.24 12.18 19.42 16.40 8.09 7.46 8.03 12.61 13.87 13.07 14.20 16.77 15.87 15.18 13.13 12.91 13.76 14.70 16.91 15.68 13.00 11.47 13.00 16.79 14.39 13.42 11.88 10.79 10.01 10.23 10.93 7.16 5.19 4.93 4.98 4.01 3.10 1.63 2.02 -3.62 1.65 -3.62
13.93 18.18 17.41 10.97 11.80 12.13 9.32 7.66 8.48 11.02 8.26 10.22 16.03 19.72 9.58 5.23 1.41 3.94 11.95 11.71 9.09 13.06 11.85 12.61 13.24 13.07 12.50 13.15 11.37 10.96 12.24 15.19 12.87 9.03 9.75 10.97 10.01 8.98 6.49 5.57 5.74 6.64 7.52 1.65 -0.94 -4.21 -4.18 -6.00 -10.51 -9.24 -12.51 -7.79 -5.98 -10.70
11.16 11.07 20.43 25.01 21.31 19.00 14.16 12.61 14.61 9.00 10.06 13.24 9.37 2.52 5.09 -2.39 -0.91 11.03 16.60 16.71 14.72 15.53 16.52 15.60 14.44 12.05 10.83 10.70 12.05 12.21 12.29 12.38 11.49 10.41 10.37 9.08 8.44 7.83 2.32 -2.02 -1.45 4.71 5.61 -2.98 -7.80 -8.34 -6.71 -9.24 -12.51 -11.78 -13.23 -17.40 -15.95 -14.68
23.58 17.36 10.49 11.02 11.50 14.80 6.71 3.08 3.26 5.43 8.16 17.66 9.00 -1.13 -5.44 -3.81 3.88 12.54 14.74 18.51 16.67 16.55 14.39 12.24 10.68 8.99 6.97 6.46 6.92 7.59 8.23 7.89 7.77 6.44 5.23 5.04 4.36 4.59 5.30 5.58 4.94 8.49 1.82 -0.45 -3.81 -9.43 -11.24 -5.26 -5.62 -5.26 -8.88 -8.52 -6.89 -13.96
15.53 14.42 14.14 6.32 7.93 10.64 13.90 7.73 8.24 15.41 18.04 13.55 -0.76 2.30 3.58 8.94 8.97 10.54 13.59 14.54 14.83 12.66 8.77 5.25 5.66 2.80 3.45 3.55 1.93 1.03 2.49 -0.85 -4.44 -7.52 -11.96 -13.96 -11.24 -5.53 -2.44 -5.44 -5.27 -4.89 -5.80 -5.08 -1.09 5.57 6.21 0.51 -5.44 -9.79 -9.06 -11.78 -5.44 -9.79
14.61 12.36 7.86 0.89 4.55 9.74 13.60 6.82 4.89 3.79 12.10 8.10 10.32 9.82 8.73 7.69 10.31 13.13 12.08 9.36 7.43 4.51 0.00 -1.45 -3.81 -1.54 -10.88 -9.24 -7.79 -2.44 -2.57 -8.37 -9.18 -9.36 -13.60 -12.15 -8.89 -8.53 -16.50 -17.22 -15.59 -12.87 -15.05 -15.95 -13.78 -10.90 -3.26 -10.15 -7.26 -11.96 -12.33 -11.42 -14.50 -17.58
11.59 9.19 6.99 5.94 7.17 11.11 9.12 1.44 6.00 3.43 -1.46 -2.49 -5.26 -3.34 -1.39 3.00 5.11 8.25 7.87 4.76 4.38 0.41 -0.03 -6.90 -8.34 -14.68 -9.79 -10.51 -14.14 -14.14 -9.79 -4.76 -6.34 -6.53 -7.43 -10.15 -13.23 -13.41 -14.32 -15.95 -17.22 -20.48 -21.03 -21.21 -21.94 -20.12 -16.32 -16.68 -16.32 -14.32 -11.24 -9.83 -8.79 -10.51
5.05 -1.27 4.19 3.45 9.24 14.96 12.89 9.65 7.59 1.61 -0.56 -4.36 -2.72 -9.43 -5.08 -6.94 -7.07 0.45 3.50 -0.48 -3.14 -6.89 -6.16 -11.60 -9.43 -4.53 -7.61 -11.06 -13.23 -11.78 -6.16 -9.06 -11.78 -13.23 -12.15 -11.60 -12.33 -13.96 -14.32 -13.60 -17.40 -19.03 -18.85 -21.03 -22.48 -20.12 -19.22 -19.22 -18.67 -20.30 -20.30 -14.68 -10.57 -8.76
-0.21 -2.08 -3.02 0.67 6.11 7.94 6.31 9.66 8.62 3.98 1.82 0.65 -0.93 -1.51 -3.11 -6.16 -8.00 -0.70 2.07 -4.73 -6.10 -9.46 -9.99 -11.60 -12.87 -10.70 -4.96 -8.30 -11.09 -13.60 -12.15 -15.77 -15.41 -3.99 -4.53 -2.54 -7.79 -9.43 -16.32 -19.22 -20.67 -20.85 -19.03 -20.67 -21.39 -21.75 -19.76 -19.58 -21.39 -19.03 -12.41 -11.51 -11.15 -10.78

GFSWCAN_sfc_wetblb_048.txt.gz
Wetbulb
45.67 46.00 45.76 45.90 46.07 46.72 47.07 46.73 46.46 46.16 46.27 46.12 46.02 45.62 45.69 46.08 46.77 43.32 40.75 44.20 43.02 39.94 41.82 45.30 43.67 40.80 41.21 40.82 34.46 37.97 38.44 40.63 37.07 34.27 34.18 33.91 28.12 33.82 32.77 35.37 34.49 33.86 29.61 25.35 24.72 21.98 27.33 38.80 37.89 34.24 36.84 37.41 39.11 39.42
45.07 45.66 45.76 45.92 45.75 45.91 45.70 45.43 45.33 45.83 45.60 45.60 45.58 45.48 45.60 45.79 46.15 44.96 39.75 43.79 44.40 42.70 42.31 45.30 44.72 45.13 43.64 44.43 41.86 40.71 39.82 40.78 41.62 38.71 34.49 31.75 29.35 26.87 32.32 30.54 36.64 32.97 36.08 32.90 33.99 33.58 39.01 39.10 37.82 39.12 39.59 39.38 39.47 40.31
44.73 45.07 44.70 44.90 45.08 44.97 45.56 45.30 45.16 45.09 45.10 45.10 45.18 45.13 45.39 45.79 46.24 44.53 41.53 42.20 42.84 41.86 40.18 42.35 39.92 46.07 47.05 46.26 47.99 40.77 42.24 46.28 43.46 44.01 38.85 37.04 32.53 33.75 30.46 31.92 33.97 36.36 38.58 34.92 35.23 38.13 38.98 40.73 40.74 40.64 41.13 40.58 41.58 40.30
43.43 43.63 44.10 44.41 44.67 44.50 44.63 44.57 44.54 44.28 44.23 44.41 44.61 44.91 45.43 45.64 45.98 45.01 41.63 44.88 44.06 40.42 34.99 36.89 48.09 46.37 50.72 48.66 47.89 48.00 46.08 48.37 46.66 44.82 38.56 34.93 33.83 39.19 32.61 36.69 35.72 37.16 38.63 36.25 35.12 38.37 38.69 40.14 38.60 38.71 38.40 39.19 38.26 37.89
43.85 43.49 43.47 43.38 43.71 43.92 43.79 43.92 43.83 43.81 44.29 44.83 44.85 45.37 45.96 46.25 46.37 45.07 43.98 46.12 47.23 41.66 35.91 37.72 41.87 46.13 49.95 51.49 49.96 50.09 49.11 46.12 42.52 38.85 32.68 35.56 39.24 37.97 35.74 36.83 32.20 39.13 37.54 35.32 35.34 39.73 39.04 39.18 37.94 38.44 38.17 36.66 37.07 35.64
43.96 44.03 43.85 43.89 43.70 43.74 43.63 43.77 43.89 44.08 44.74 44.94 45.06 45.30 45.69 45.85 45.71 43.30 38.09 44.92 47.41 45.21 39.39 32.50 43.61 44.22 50.78 51.21 49.80 48.55 49.13 45.67 43.72 40.18 37.03 41.56 43.94 40.77 35.59 33.44 39.89 40.93 41.00 41.25 41.00 42.20 38.20 37.67 36.85 37.16 35.80 35.43 35.83 34.86
43.46 43.71 44.34 44.41 44.69 44.64 44.37 44.16 44.27 44.51 44.62 44.83 45.25 45.57 45.83 45.64 43.07 38.69 37.46 40.52 46.07 46.73 39.90 33.68 32.90 42.84 50.45 49.66 45.96 46.00 45.85 44.10 43.83 40.73 36.17 40.90 41.97 41.39 31.72 33.03 40.16 41.30 41.09 40.84 39.71 38.90 35.57 36.69 34.80 35.44 34.82 34.58 34.90 33.53
44.69 44.78 44.97 44.66 44.12 44.58 44.89 44.88 44.34 44.77 45.07 45.11 45.32 45.42 45.58 45.76 44.24 40.85 42.51 46.60 45.58 42.11 39.81 33.80 34.82 38.78 48.52 43.68 42.28 46.65 40.32 41.20 41.04 39.14 35.30 36.03 38.57 33.75 33.27 37.46 39.31 38.90 39.24 39.07 37.80 38.18 38.22 35.81 34.75 33.49 33.58 33.46 31.89 30.89
44.46 44.54 44.70 44.72 44.71 45.09 45.34 45.48 45.38 45.09 45.07 45.23 45.25 45.30 44.19 42.64 38.81 37.98 47.03 46.42 47.10 41.79 35.46 33.44 33.26 34.10 44.88 41.53 41.53 40.31 39.99 33.79 40.47 33.79 35.99 39.80 33.44 35.42 36.91 37.38 37.82 38.23 38.54 35.96 34.95 35.06 35.07 33.60 32.29 32.40 32.41 31.68 30.48 30.10
44.37 44.27 44.49 44.67 44.64 44.86 44.91 45.24 45.38 45.27 45.98 45.32 43.63 40.39 35.07 39.94 46.67 47.82 45.35 41.24 40.53 41.20 40.94 35.88 39.21 35.78 41.09 34.54 35.45 36.16 35.99 34.89 34.16 35.52 39.91 34.16 34.91 34.92 35.50 36.98 38.11 36.38 36.07 35.44 32.55 31.03 31.91 31.79 31.72 31.38 31.30 31.57 31.30 31.44
44.13 44.34 44.29 44.38 44.62 44.84 45.01 45.41 45.95 46.25 45.60 43.46 38.84 34.73 41.69 46.96 43.71 38.85 32.35 34.50 35.32 33.24 36.23 36.20 37.45 36.26 41.98 34.69 33.24 34.87 33.24 32.90 32.44 33.66 35.56 33.57 34.63 34.24 36.78 37.05 37.52 37.37 37.07 36.61 36.14 35.43 35.07 33.48 31.63 30.63 30.72 31.85 31.42 31.36
44.34 44.06 44.11 44.03 44.22 44.45 44.84 45.37 45.68 44.09 43.28 43.22 43.22 46.45 45.45 42.03 36.92 33.24 31.57 31.58 32.43 32.38 34.28 34.68 36.46 39.58 37.06 41.39 35.25 33.83 31.78 32.29 31.87 35.97 33.38 31.60 33.23 35.43 36.73 36.69 37.15 37.88 37.28 36.25 36.51 35.07 34.50 34.03 33.40 32.64 30.82 30.32 29.88 28.91
43.87 44.08 44.28 44.04 44.10 44.57 44.69 44.93 45.50 46.17 45.67 44.94 41.10 34.77 37.27 32.31 31.12 29.70 27.99 30.08 30.86 32.14 33.95 34.00 33.44 34.66 35.73 37.63 32.35 31.97 30.95 30.26 33.62 32.14 31.33 30.47 33.95 36.56 37.00 36.89 36.26 37.22 36.63 36.15 35.82 35.81 35.17 33.24 32.23 30.66 29.10 28.99 28.17 27.05
44.06 44.18 44.43 44.26 44.34 44.59 44.82 45.18 45.28 45.74 43.20 35.56 32.80 28.15 29.48 27.68 28.21 28.77 30.15 31.40 31.81 31.79 32.53 33.44 32.90 33.39 32.53 32.41 31.18 31.13 31.60 32.20 27.25 25.48 23.87 30.68 34.04 35.32 36.39 36.63 35.87 35.26 34.85 34.34 32.90 31.91 30.92 30.18 29.21 29.28 28.61 27.98 26.65 25.29
44.48 44.66 45.10 45.11 44.85 44.82 44.92 45.52 45.45 42.67 37.15 31.91 31.67 27.10 28.20 31.05 31.60 31.60 31.97 32.49 32.43 33.54 32.90 33.60 33.54 34.64 32.08 31.00 31.54 30.60 29.14 25.96 26.06 25.20 29.73 32.11 33.92 34.56 34.04 33.97 33.07 32.10 31.67 30.94 30.90 29.09 28.31 28.38 27.75 26.88 26.82 26.32 25.04 23.65
44.78 43.86 43.53 45.66 45.91 45.86 44.94 43.96 41.86 39.45 33.48 31.64 30.25 27.97 30.02 29.41 28.76 29.89 30.16 30.97 33.88 32.41 33.20 32.85 30.51 31.11 30.26 30.45 28.93 26.93 26.51 23.44 26.57 29.50 31.73 32.76 32.43 32.36 32.12 32.36 32.34 31.97 31.13 30.15 29.33 28.64 28.17 27.27 26.28 25.02 23.98 23.00 22.21 21.45
43.17 39.94 44.17 44.89 44.45 44.05 43.45 39.65 36.28 31.74 29.46 28.62 27.99 28.54 28.95 29.34 27.29 28.57 29.49 29.77 33.03 32.88 30.84 31.74 26.27 24.32 30.01 26.60 24.30 25.94 23.47 26.90 29.27 31.12 31.75 32.05 31.56 31.18 31.68 31.27 30.87 30.69 30.15 29.98 29.59 28.97 27.24 26.55 25.31 23.65 21.39 21.94 22.60 21.27
38.24 40.55 43.83 44.53 43.26 42.00 39.49 37.92 32.20 29.79 28.63 29.99 25.36 26.11 26.53 26.42 24.64 25.72 27.85 30.61 31.48 31.48 27.45 24.11 27.50 20.75 16.85 16.77 17.52 21.41 23.92 26.26 31.37 30.98 31.34 31.86 31.95 32.01 32.05 31.32 31.17 30.73 29.44 29.04 28.11 27.33 26.63 25.74 24.93 23.78 23.15 22.58 21.38 21.08
39.31 40.49 42.56 44.03 42.24 36.94 32.11 31.83 32.33 27.25 27.79 29.27 27.53 27.88 27.21 24.51 25.82 26.51 27.66 28.83 30.33 29.91 28.04 23.80 17.85 16.16 17.23 19.87 18.68 20.23 22.61 24.54 28.92 29.42 29.92 31.10 31.70 31.66 31.66 31.43 30.82 29.28 28.21 27.82 26.95 25.39 25.21 25.69 24.26 23.50 22.99 22.12 20.26 19.25
40.21 39.49 40.20 40.89 40.07 32.67 30.86 30.59 34.34 29.93 27.86 27.99 27.03 23.34 22.78 21.72 22.59 23.17 23.67 25.07 25.90 24.19 20.34 17.45 16.10 17.24 17.79 19.52 20.79 22.12 22.61 25.60 30.14 25.79 23.21 23.91 26.41 26.29 25.92 26.01 25.17 25.19 24.05 23.46 22.98 22.55 21.38 19.86 19.97 19.95 19.97 19.98 18.82 17.09
35.76 35.37 36.12 35.01 31.68 31.80 29.39 29.34 30.61 31.52 31.52 29.04 28.82 26.91 22.84 23.51 19.50 17.93 18.73 22.67 19.33 18.83 16.27 18.23 18.52 20.19 21.69 21.84 21.91 23.23 22.18 22.22 20.33 22.61 21.93 19.77 21.69 22.22 21.68 21.95 21.87 21.05 19.44 18.87 18.01 17.35 17.47 16.66 17.31 17.62 16.67 15.67 15.85 15.08
31.09 35.03 27.26 30.01 27.05 26.91 26.98 28.21 27.88 27.83 28.39 27.89 25.66 25.41 20.24 13.35 13.01 17.37 20.21 15.35 15.31 16.70 19.56 19.39 18.57 19.52 18.92 18.60 19.15 20.46 21.69 21.08 20.51 19.31 18.92 18.84 16.37 16.73 17.17 18.59 17.95 16.11 16.05 15.85 15.84 14.94 14.92 15.47 15.17 14.72 13.96 14.25 14.65 12.83
31.99 29.52 24.12 23.90 20.00 19.55 18.09 26.32 20.15 24.92 19.02 19.39 20.74 18.80 16.40 17.04 19.36 21.37 10.83 15.47 15.72 18.70 19.80 19.66 20.43 20.13 18.42 19.10 18.75 18.95 19.99 18.75 16.82 16.45 15.91 14.88 14.65 14.39 13.61 13.29 14.59 13.58 12.30 12.67 14.13 12.80 11.51 12.52 11.46 10.55 10.91 10.72 10.50 8.83
29.55 18.94 14.43 13.49 16.93 9.21 13.05 13.94 21.59 19.69 16.07 14.47 14.22 13.39 17.46 14.04 15.95 10.65 9.42 11.79 14.86 16.81 16.76 16.75 17.26 15.70 15.79 15.08 13.62 13.80 15.38 16.96 14.94 14.94 15.85 13.87 11.17 10.20 10.72 9.82 10.07 10.11 10.82 10.89 9.62 8.06 7.33 6.24 6.16 5.62 4.25 3.07 2.20 -0.17
19.95 16.73 13.84 8.67 11.51 11.27 5.64 6.32 9.76 13.40 6.82 8.13 10.58 12.68 10.81 13.42 5.12 4.34 5.33 11.05 12.15 11.11 12.38 14.68 14.35 13.05 10.89 10.91 11.76 12.50 14.00 12.93 10.48 8.82 9.47 13.29 12.07 10.68 8.64 8.38 7.88 8.02 8.79 5.06 3.08 1.58 0.82 -1.58 -2.28 -4.40 -2.04 -9.31 -2.24 -7.86
16.17 18.85 17.65 7.15 10.34 10.99 7.59 9.54 10.23 4.83 6.87 11.72 9.16 13.51 4.53 2.13 -1.52 1.54 10.63 9.34 8.29 12.27 10.03 9.89 11.70 10.94 10.09 10.75 8.89 8.77 9.90 11.97 10.06 6.09 6.92 7.82 6.76 3.33 1.83 0.89 1.93 4.73 4.32 -6.41 -8.43 -10.22 -8.23 -10.22 -13.30 -9.50 -13.67 -9.68 -10.58 -16.57
15.48 12.16 18.69 21.88 19.90 16.95 9.33 8.52 11.58 6.78 7.20 5.86 5.07 0.12 -2.13 -6.97 -4.24 9.26 14.80 14.69 12.57 12.13 11.62 9.92 9.95 8.86 8.89 9.55 10.38 9.78 9.37 8.94 7.55 6.71 7.14 6.29 6.04 5.97 2.04 -3.51 -1.71 2.49 5.33 0.53 -5.87 -8.23 -8.59 -9.86 -12.58 -12.03 -15.30 -19.47 -19.47 -17.65
21.88 15.28 8.08 7.79 9.32 12.57 5.19 0.48 1.56 3.38 5.87 15.57 4.98 -3.70 -9.13 -8.05 1.48 10.34 13.24 15.29 13.22 12.46 10.37 9.09 7.63 6.26 4.91 5.33 5.93 5.10 4.49 4.67 3.78 2.35 1.93 1.69 0.87 0.00 -2.88 -4.45 -4.26 3.19 -6.62 -9.31 -9.68 -10.76 -9.13 -8.41 -6.78 -8.59 -10.95 -11.85 -9.68 -13.12
10.68 9.45 11.94 2.80 4.92 8.06 8.81 3.38 4.98 11.88 13.51 7.24 -5.90 -2.79 1.70 7.31 6.29 8.33 11.89 12.48 12.99 10.13 5.37 4.73 3.90 -2.09 -0.98 0.73 -1.16 -2.12 -1.80 -5.97 -6.70 -10.71 -15.66 -16.38 -14.57 -7.00 -7.68 -14.39 -14.75 -13.67 -15.12 -13.12 -6.05 0.66 2.63 -0.07 -1.53 -6.96 -8.41 -8.95 -7.34 -8.45
9.12 9.41 5.80 0.66 2.97 7.07 4.26 4.16 -0.62 -3.20 7.86 4.87 8.15 8.01 6.63 5.13 8.68 11.65 9.10 7.45 4.99 -3.33 -10.76 -11.31 -13.30 -11.13 -14.39 -12.40 -11.49 -6.78 -7.33 -15.30 -13.69 -11.90 -16.57 -15.66 -10.95 -7.69 -14.75 -18.56 -18.74 -18.02 -22.55 -23.64 -22.91 -16.40 -7.68 -16.38 -12.23 -16.60 -16.64 -15.73 -16.78 -15.50
8.86 6.60 7.31 5.30 6.20 3.92 4.33 -3.51 -5.34 -3.86 -6.46 -5.39 -8.59 -6.98 -3.58 0.43 2.54 5.72 3.26 -0.82 -4.60 -10.22 -8.05 -10.76 -10.22 -16.57 -13.48 -14.75 -17.83 -17.11 -13.48 -11.68 -14.57 -13.67 -13.12 -13.67 -15.66 -18.92 -19.10 -18.74 -20.01 -23.27 -24.36 -24.00 -24.18 -24.54 -23.27 -23.82 -25.27 -25.81 -22.91 -18.93 -17.34 -14.59
2.00 -1.52 2.17 1.93 8.50 6.16 4.35 6.13 -5.87 -4.06 -6.96 -8.23 -6.23 -13.12 -10.26 -10.63 -10.40 -2.66 -0.86 -3.93 -9.86 -9.86 -10.76 -16.38 -13.67 -8.95 -11.85 -14.03 -18.20 -18.74 -12.76 -15.66 -15.48 -15.12 -13.85 -15.12 -17.29 -17.83 -18.92 -18.92 -23.82 -24.91 -24.36 -25.09 -26.17 -25.81 -24.91 -24.72 -26.90 -27.81 -27.26 -22.91 -20.74 -20.92
-4.54 -7.15 -5.38 0.08 5.17 5.32 6.25 7.06 4.26 0.26 -4.79 -4.42 -4.24 -6.23 -9.13 -9.83 -9.19 -3.86 -2.10 -9.90 -8.85 -11.46 -12.28 -14.75 -14.93 -14.75 -11.31 -14.58 -15.48 -17.65 -15.84 -19.29 -18.92 -7.14 -4.60 -6.41 -4.24 -8.59 -20.92 -23.82 -25.63 -25.09 -23.09 -24.91 -26.72 -27.08 -24.72 -24.00 -25.09 -25.99 -24.54 -26.54 -24.18 -23.64

GFSWCAN_sfc_wetblb_051.txt.gz
Wetbulb
46.01 45.73 45.73 46.12 46.17 46.71 46.94 46.57 45.82 46.82 47.05 46.84 46.63 46.46 46.63 46.83 46.98 44.25 41.66 45.66 43.15 38.79 40.39 42.49 43.00 40.86 40.79 40.39 35.73 38.92 40.29 40.81 39.02 34.17 34.38 34.64 33.67 37.31 37.02 37.65 36.48 36.16 34.01 32.83 31.90 32.43 32.21 42.04 40.10 39.01 44.44 42.53 43.40 43.62
46.01 45.75 45.50 45.49 45.84 46.08 46.38 46.56 47.11 46.84 46.63 46.38 46.41 46.46 46.70 46.55 46.60 44.64 39.00 44.49 44.77 39.74 40.94 45.59 45.30 45.84 44.73 45.32 41.73 41.74 40.07 40.43 41.61 39.10 37.29 36.67 34.99 34.15 37.14 34.73 38.92 35.69 39.13 37.63 38.59 39.03 44.56 42.71 45.37 44.54 44.06 44.67 43.16 44.30
45.17 45.82 46.36 46.17 46.49 46.79 47.00 46.77 46.33 46.35 46.26 46.26 46.57 46.42 46.32 46.51 46.09 43.45 40.80 41.87 41.37 35.51 38.56 41.30 40.78 47.48 47.79 46.43 49.11 41.28 42.72 46.12 44.00 46.35 40.95 40.19 35.36 37.03 32.70 34.80 37.74 38.88 41.08 39.57 40.44 42.46 42.22 43.04 44.35 44.64 44.75 44.58 44.14 45.40
44.73 44.92 44.90 45.25 45.41 45.70 45.70 45.77 45.88 46.10 46.03 46.06 45.97 45.80 46.15 46.35 46.08 43.71 40.52 41.88 40.91 37.77 33.86 38.04 47.14 44.46 49.67 48.81 47.47 48.47 48.04 49.12 48.51 46.86 40.37 37.41 36.90 41.09 36.56 40.02 39.11 40.80 41.17 38.91 39.08 41.22 42.18 43.65 43.99 44.41 42.86 43.30 42.03 42.63
43.94 44.10 44.69 44.73 44.75 44.92 44.88 45.10 45.17 45.38 45.56 45.65 45.43 45.73 45.66 45.50 45.57 43.44 43.09 43.60 43.40 39.13 33.47 36.24 44.25 45.46 47.09 49.07 47.22 48.08 48.07 47.61 45.45 41.55 36.79 39.33 40.29 39.66 37.47 39.05 37.10 41.22 40.04 38.54 38.70 44.39 44.85 45.24 45.63 42.49 41.48 41.15 41.24 39.38
43.75 43.73 43.66 43.97 44.32 44.18 44.14 44.05 44.28 44.48 44.62 44.87 45.14 45.28 45.40 45.61 44.40 42.32 37.15 43.66 45.56 42.67 34.98 30.75 42.00 42.80 47.99 49.77 48.29 47.36 47.39 47.39 46.84 43.94 40.70 42.58 44.55 41.90 36.85 36.82 41.99 43.28 43.94 45.42 43.44 44.38 39.93 38.81 39.80 41.17 39.81 39.38 39.15 39.17
44.04 43.78 43.78 43.67 43.93 43.91 43.95 44.00 44.16 44.28 44.64 45.06 44.92 45.35 45.23 44.62 42.76 38.85 37.22 42.11 44.82 42.78 38.09 34.17 35.40 42.36 46.65 49.29 47.65 48.25 49.04 47.29 46.54 43.74 40.10 42.67 43.57 43.24 35.69 36.16 42.42 43.09 43.87 42.95 40.98 41.32 38.79 38.92 38.44 38.18 37.55 37.11 37.15 36.23
44.42 44.43 44.30 43.87 43.83 43.94 43.95 44.16 44.45 44.69 44.87 44.77 44.84 44.98 44.25 44.81 44.14 41.31 44.25 45.48 44.23 41.19 39.23 32.66 33.64 38.72 47.88 43.18 42.81 46.93 44.18 45.05 43.71 42.86 39.64 41.21 39.80 38.24 37.47 41.35 42.79 41.56 40.68 40.15 40.19 39.50 40.61 37.25 36.36 35.22 35.39 35.27 33.90 33.02
44.19 44.14 44.36 44.30 44.25 44.09 44.04 44.11 44.66 44.68 44.87 45.20 45.07 45.26 42.98 40.35 37.05 39.30 45.32 45.64 46.16 41.22 33.19 32.55 32.87 33.59 45.03 41.12 41.01 41.09 42.88 37.78 42.52 36.89 38.84 41.60 35.57 36.33 39.97 40.63 40.90 40.13 40.30 39.53 36.97 36.97 36.52 35.79 34.33 34.11 34.31 34.03 32.48 31.80
44.44 44.48 44.63 44.84 44.84 44.31 43.96 44.11 44.23 44.66 44.99 44.75 42.01 38.69 34.44 38.30 45.03 45.69 43.77 39.33 38.55 39.67 39.20 32.63 38.82 36.41 41.90 36.31 35.63 38.14 35.97 35.21 34.89 37.11 39.95 36.36 38.19 38.28 37.49 38.76 40.19 39.09 37.83 37.36 34.39 32.83 33.26 33.15 33.39 33.45 33.71 33.84 33.39 32.12
44.62 44.63 44.61 44.89 45.17 44.88 44.32 44.32 44.71 44.71 44.22 40.21 37.45 35.31 39.62 46.01 42.25 37.86 33.58 33.41 34.38 32.45 35.94 35.46 34.95 35.36 41.77 36.40 34.15 35.18 33.64 33.62 33.10 36.55 37.45 35.62 35.64 36.30 37.38 37.74 38.28 38.13 37.78 37.30 37.34 36.38 36.75 35.53 33.55 32.50 32.63 33.13 32.78 32.67
44.65 44.57 44.60 44.93 45.26 45.40 45.00 44.60 44.63 43.20 42.11 41.66 42.43 43.52 43.56 39.54 34.89 31.79 31.09 32.19 31.92 31.37 35.19 35.04 36.34 38.96 38.14 41.47 35.72 34.12 32.90 32.88 31.92 36.69 34.50 32.72 33.92 36.03 37.20 36.85 37.22 37.96 37.50 36.69 36.97 35.49 35.12 34.47 34.34 33.78 33.05 32.68 32.19 29.73
43.94 44.07 44.22 44.40 44.89 45.46 44.96 45.38 45.04 44.81 44.90 43.86 40.36 35.09 37.04 33.07 29.76 29.51 26.57 29.69 30.67 32.33 33.91 34.35 33.26 34.98 36.19 36.79 32.54 32.91 31.80 31.60 32.78 32.17 30.02 29.41 34.30 36.18 36.87 37.16 36.73 37.13 36.40 35.65 34.83 34.86 34.42 33.18 33.33 32.31 30.20 29.61 28.98 28.07
43.86 44.01 44.10 44.20 44.34 44.78 44.91 44.71 44.41 44.03 41.68 33.04 32.33 27.91 29.28 26.99 27.91 28.67 29.72 31.24 31.60 31.98 32.33 33.43 32.72 33.58 32.88 32.31 31.99 31.62 31.80 32.13 29.35 25.81 25.44 31.09 32.13 33.94 35.71 36.06 35.52 34.38 33.88 33.46 32.23 31.57 30.66 30.13 29.52 29.45 29.07 29.21 27.69 26.07
44.22 44.34 44.56 44.29 44.73 44.84 44.74 44.03 43.44 40.72 35.10 31.41 31.05 26.09 27.38 30.83 30.56 31.36 31.80 31.80 31.78 32.85 32.88 32.87 33.23 34.99 32.17 31.22 32.17 32.18 30.00 26.16 26.58 25.56 28.66 31.38 32.48 33.31 33.13 32.99 32.11 31.34 31.05 30.86 31.05 29.64 28.75 28.49 27.91 27.82 28.42 27.71 26.11 24.95
44.38 44.13 43.34 44.25 44.69 44.47 44.34 43.37 41.37 38.90 32.98 30.66 26.54 23.75 27.09 26.31 24.49 26.55 26.76 28.06 32.33 31.45 33.04 33.77 32.24 31.47 30.08 30.57 27.37 24.19 25.82 20.81 23.84 27.62 30.85 32.09 31.71 31.69 31.66 31.42 31.21 30.78 29.76 29.53 29.29 28.83 28.25 27.40 26.07 25.43 25.90 25.27 24.69 24.07
43.24 40.31 44.81 44.22 43.89 44.07 43.19 39.83 36.69 31.74 30.77 28.38 24.94 25.50 24.61 24.63 23.19 24.45 26.27 27.21 32.01 32.72 28.97 29.67 22.02 21.91 28.07 23.26 20.00 22.22 18.92 21.46 24.19 27.34 31.42 31.74 30.97 30.73 30.84 30.61 30.28 30.03 29.35 28.90 28.03 27.48 26.48 26.13 25.73 24.79 22.77 23.38 23.64 22.34
39.01 43.75 44.49 44.15 43.40 41.50 39.25 37.15 31.71 30.03 25.76 26.63 23.36 23.46 23.73 23.41 21.84 23.47 25.77 28.17 30.21 29.26 27.37 22.81 25.24 18.17 15.42 15.95 16.05 18.27 20.54 22.90 27.48 27.64 27.84 30.88 31.65 31.63 31.32 29.99 29.94 29.46 28.49 28.09 27.90 27.70 27.22 26.23 24.41 23.12 22.70 22.38 21.89 21.76
43.01 43.71 43.74 43.70 42.35 36.84 32.37 32.30 31.86 24.11 24.26 25.73 24.39 24.83 23.77 21.91 23.37 24.41 25.33 27.14 28.18 27.97 25.88 21.86 15.11 13.29 14.41 16.96 16.14 17.98 20.15 21.19 24.42 23.87 23.50 24.49 25.95 27.12 27.13 26.93 26.15 25.56 25.24 25.06 24.15 23.28 23.62 24.41 24.32 23.55 23.08 22.41 20.25 20.18
43.44 43.23 43.58 43.47 40.61 32.49 30.53 30.69 33.70 28.06 23.97 25.24 26.16 21.17 21.05 20.10 21.32 21.27 21.67 23.10 22.86 21.13 17.01 14.99 14.03 15.36 16.26 17.63 18.96 20.50 20.68 23.20 26.85 21.23 19.73 21.00 22.91 22.34 21.77 22.53 22.21 22.58 21.95 21.32 21.03 21.49 20.82 19.77 20.21 20.48 21.18 20.97 19.59 17.85
37.22 35.96 37.30 36.67 32.08 31.58 29.11 29.06 30.67 31.08 28.90 26.56 27.43 25.89 21.94 21.21 17.94 16.23 16.97 21.11 16.94 16.16 13.82 16.38 17.11 18.54 19.90 19.71 20.33 21.00 19.72 19.69 17.99 19.58 18.73 16.87 19.37 20.03 19.45 19.60 19.70 19.20 17.97 17.43 16.57 15.91 15.86 15.61 16.69 17.35 17.26 16.61 16.87 17.30
32.14 34.88 29.83 30.49 28.14 27.35 26.37 27.15 28.16 28.16 27.10 26.24 23.76 24.24 17.69 14.41 11.84 15.36 18.61 13.26 12.90 14.54 17.09 17.45 17.09 17.86 17.01 16.69 17.46 18.97 19.46 18.62 18.06 16.80 16.43 16.02 13.40 13.74 14.35 16.12 15.46 14.04 14.13 14.31 14.08 12.87 12.73 13.33 14.47 14.53 14.34 14.30 14.51 13.80
31.84 29.03 23.91 23.76 20.30 19.98 18.21 26.43 20.52 23.97 17.79 17.69 20.26 18.02 14.85 13.47 17.68 19.31 10.38 13.79 14.11 17.18 18.15 18.17 18.62 18.38 16.75 17.45 16.99 17.32 18.09 16.54 14.79 14.43 13.72 12.50 12.28 12.20 11.42 11.07 12.55 11.93 10.44 10.64 11.88 10.53 8.93 9.46 9.11 9.15 9.90 9.51 9.64 8.83
28.71 18.20 13.91 12.99 16.99 10.17 14.12 14.34 21.09 18.83 15.64 15.13 15.55 12.92 17.36 13.85 15.02 10.37 8.17 10.88 13.84 15.78 15.37 15.44 16.32 14.69 14.55 13.54 11.84 11.82 13.64 14.57 12.31 11.95 13.70 11.37 9.10 8.35 9.03 8.70 8.82 8.86 8.60 8.46 7.51 6.38 5.73 4.76 4.30 5.40 4.15 4.25 3.44 3.61
18.61 16.65 14.32 9.35 11.55 11.04 6.50 7.70 10.29 13.42 6.45 9.96 11.78 12.28 9.88 12.92 5.72 4.81 6.38 10.47 11.64 10.67 11.24 13.41 12.52 11.96 10.17 9.81 10.14 10.19 11.72 10.76 8.45 6.92 7.82 9.67 9.51 9.20 7.78 7.58 6.76 6.78 7.95 5.77 2.93 3.06 2.40 1.02 1.33 1.95 2.02 0.82 1.60 0.78
14.19 15.80 16.47 13.26 9.61 12.50 12.52 13.05 9.33 3.87 10.45 9.78 8.58 10.15 5.50 3.27 0.20 3.61 9.56 10.24 10.03 10.63 8.99 9.54 10.58 9.72 8.64 9.39 8.23 8.17 8.69 10.88 9.05 5.38 5.51 6.66 6.18 4.77 3.53 2.85 2.87 3.39 5.49 2.54 3.23 2.47 2.50 1.61 0.87 0.29 1.16 1.31 -5.56 -2.62
12.60 9.77 16.79 19.63 17.81 14.38 8.21 7.68 10.51 6.84 4.17 3.71 5.11 -0.68 -0.87 -5.91 -3.34 8.72 13.22 13.44 10.56 9.54 9.51 8.25 10.22 9.78 8.92 8.38 8.20 7.78 7.92 7.61 6.44 5.39 5.82 4.88 4.08 4.27 2.70 0.54 -0.37 1.73 3.62 0.39 0.03 -0.30 -0.46 -0.47 -0.87 -0.48 -1.06 0.11 -0.52 -3.41
11.80 13.29 6.45 5.68 7.79 10.53 3.00 -0.08 0.10 1.73 4.96 12.98 3.85 -4.09 -8.96 -5.73 1.79 8.90 11.94 11.85 10.97 10.39 8.55 7.23 6.50 6.34 5.46 4.93 5.13 5.41 5.65 4.74 4.12 4.22 4.05 3.39 1.86 0.58 -1.88 -1.87 -2.35 0.10 -3.34 -3.66 -0.70 -0.66 0.96 0.14 -0.33 -0.95 -1.89 -2.40 -3.27 -1.63
7.54 6.70 9.52 1.00 3.16 5.67 6.27 0.99 4.05 9.06 10.64 4.85 -4.73 -3.70 1.17 6.17 6.41 8.08 11.08 12.50 12.65 9.88 5.73 3.57 1.69 0.17 1.25 1.81 -0.37 -0.97 -0.56 0.64 0.17 -5.21 -6.81 -5.15 -4.81 -1.00 -1.86 -3.91 -3.89 -4.81 -6.79 -4.25 -3.00 3.21 3.43 1.19 -1.10 -4.08 -5.75 -6.18 -6.02 -6.72
6.60 7.97 4.91 0.18 2.94 3.55 1.01 1.00 -2.30 -3.58 6.13 5.18 7.81 7.27 5.64 5.07 7.60 10.15 9.08 8.22 5.41 0.94 -3.52 -5.15 -6.79 -2.60 -3.90 -2.81 -3.17 -2.02 -3.55 -6.42 -4.55 -3.83 -4.81 -4.97 -3.22 -1.57 -4.98 -5.70 -5.15 -6.42 -9.87 -7.87 -6.97 -4.88 -4.46 -6.77 -5.11 -7.83 -8.86 -8.68 -8.25 -7.71
7.16 4.72 3.91 4.98 2.46 -0.09 -1.33 -6.43 -9.14 -4.41 -5.60 -4.21 -7.18 -5.25 -1.82 2.13 4.73 6.07 4.73 0.60 -2.72 -5.34 -1.28 -2.80 -4.43 -9.32 -4.47 -6.79 -5.34 -6.79 -4.68 -4.34 -11.32 -7.51 -6.24 -5.71 -6.24 -5.70 -5.70 -7.15 -8.60 -10.96 -10.96 -10.23 -10.23 -9.87 -8.80 -9.27 -11.24 -11.85 -10.68 -11.40 -12.64 -11.90
-0.15 -2.07 1.75 1.55 5.33 2.17 3.55 0.55 -7.87 -5.89 -8.78 -6.25 -7.33 -12.41 -7.94 -6.83 -8.42 -1.49 -1.06 -1.50 -0.74 -1.53 -7.15 -9.69 -8.06 -3.16 -6.42 -7.87 -11.86 -10.06 -12.24 -7.34 -6.06 -6.42 -6.42 -5.70 -4.07 -6.61 -7.87 -8.63 -11.86 -11.50 -10.06 -10.42 -11.50 -11.50 -12.23 -11.69 -11.41 -12.18 -12.56 -13.13 -13.87 -14.05
-7.08 -8.06 -4.81 -0.28 3.23 1.35 3.69 4.08 1.39 -1.09 -6.25 -6.24 -6.79 -9.32 -10.79 -6.48 -6.62 -2.56 -1.80 -8.14 -3.40 -3.61 -5.39 -6.10 -6.24 -8.06 -9.87 -10.61 -7.54 -7.87 -12.08 -8.79 -12.95 -7.69 -4.79 -4.61 -6.42 -5.15 -9.69 -10.41 -11.32 -10.96 -10.04 -10.23 -11.79 -12.66 -11.83 -11.71 -11.35 -12.60 -12.63 -14.88 -14.55 -14.22

GFSWCAN_sfc_wetblb_057.txt.gz
Wetbulb
46.07 46.57 46.36 46.68 46.53 46.31 46.02 45.86 45.92 46.41 46.39 46.48 46.42 46.38 46.70 46.61 47.42 46.23 47.76 51.02 46.03 41.73 43.26 44.71 45.93 43.19 42.78 44.10 40.06 43.56 42.83 44.24 44.31 39.12 39.40 38.91 39.76 40.80 39.22 41.64 41.13 39.50 39.00 39.34 41.46 39.06 36.65 50.24 49.24 45.62 50.56 54.03 53.09 53.30
46.61 46.68 45.83 46.25 46.18 45.84 46.16 46.27 46.23 46.16 45.95 46.22 46.27 46.40 46.47 47.07 46.97 47.32 45.41 49.14 50.04 44.99 43.18 48.78 48.22 48.46 47.27 47.87 45.52 46.17 44.47 44.98 45.62 42.48 43.71 43.53 42.46 43.77 41.03 37.43 45.15 40.35 44.68 42.72 44.21 44.36 51.08 51.59 51.48 53.38 54.44 53.58 54.26 54.17
46.45 46.50 45.72 46.34 46.02 46.08 46.16 45.85 46.11 45.48 45.95 46.27 46.46 46.60 46.79 47.14 47.21 47.75 47.43 49.54 47.80 43.28 42.74 44.23 44.14 48.44 48.99 50.27 52.03 44.47 47.74 49.08 48.01 50.77 46.03 44.21 40.76 43.76 40.60 40.76 43.11 46.48 48.77 45.57 45.92 49.02 50.39 52.02 53.24 53.64 54.07 54.49 55.22 55.30
46.28 46.36 46.20 46.20 45.79 45.81 46.02 45.90 45.80 46.13 46.24 46.30 46.37 46.83 46.94 46.46 46.95 47.21 45.88 49.11 47.64 43.66 37.69 40.33 48.09 46.16 48.45 48.80 47.93 50.77 50.72 52.42 50.92 49.93 47.29 45.38 42.77 45.96 43.80 43.75 42.72 46.19 47.27 45.48 45.96 48.01 49.85 51.32 52.19 52.89 54.13 54.26 53.78 53.54
45.75 46.14 46.14 45.99 45.77 45.51 45.60 45.29 45.76 45.99 46.23 46.62 46.13 46.37 46.55 46.73 46.90 46.62 47.43 47.54 48.73 43.17 37.43 39.55 44.58 46.66 47.44 44.35 42.83 47.05 50.44 49.45 47.88 46.28 46.41 42.93 45.77 44.63 45.68 45.88 43.73 45.55 44.90 44.30 43.06 47.88 49.67 50.05 53.26 54.01 54.43 53.90 53.26 52.56
45.19 45.71 45.57 45.98 46.10 46.18 46.32 46.06 46.38 46.61 46.64 46.61 46.31 46.68 46.02 45.98 45.81 43.77 37.77 44.35 47.86 47.13 41.01 36.40 45.63 44.57 46.35 46.34 44.13 46.02 47.12 49.20 48.71 46.63 46.67 46.85 47.99 46.25 44.00 41.93 45.96 46.43 48.04 49.51 48.65 51.39 51.77 53.44 52.01 52.22 53.40 54.73 54.19 52.54
44.54 45.16 45.41 45.39 45.45 45.79 45.81 45.84 45.84 46.11 46.48 45.98 45.56 45.50 45.60 45.42 46.16 41.49 40.23 45.14 47.07 48.31 41.31 35.09 36.33 44.73 46.19 44.71 44.78 44.95 47.18 48.01 48.81 47.57 46.07 46.46 47.07 46.83 46.00 42.16 45.54 48.13 49.62 50.25 52.02 51.16 48.15 50.00 49.88 50.57 50.94 53.67 51.50 52.38
43.97 44.37 44.81 44.92 45.02 45.09 45.30 45.46 45.55 45.39 45.13 45.04 45.19 45.14 45.21 45.23 45.32 44.04 46.91 45.99 47.48 42.86 43.42 34.54 34.28 38.25 44.48 39.05 38.28 47.32 45.89 46.86 46.35 45.89 47.21 45.58 47.96 47.56 41.60 45.80 47.52 48.55 49.33 50.40 51.28 52.14 50.57 48.96 47.94 48.27 48.76 48.88 48.41 48.92
43.90 44.13 44.20 44.31 44.48 44.60 44.85 44.80 44.82 44.74 44.81 44.76 44.44 44.60 44.09 43.36 41.12 43.78 45.57 45.50 49.38 44.32 36.01 34.37 32.77 33.41 42.86 40.63 42.11 43.61 45.76 41.15 47.33 44.01 44.56 45.88 44.08 40.59 44.72 46.69 47.71 49.21 49.27 49.94 51.61 51.61 50.18 47.77 48.24 46.79 46.05 45.41 46.18 45.51
43.84 44.00 44.14 44.13 44.01 44.32 44.44 44.70 44.75 44.81 44.71 44.37 44.07 40.98 37.82 43.10 45.28 44.57 39.90 38.03 41.44 42.53 40.36 35.29 39.35 33.67 35.57 37.96 39.44 39.44 43.18 40.26 36.96 42.27 47.23 43.13 42.17 45.41 39.25 44.17 48.18 48.15 47.96 49.70 46.64 46.44 46.98 45.94 46.86 45.79 44.83 45.23 45.43 44.36
44.13 44.23 44.41 44.43 44.34 44.27 44.58 44.52 44.40 44.31 44.05 45.12 41.96 39.51 44.48 45.49 42.30 40.70 36.69 36.09 36.97 34.95 39.01 38.50 38.76 33.67 38.80 35.85 36.36 40.92 37.56 38.82 34.03 37.28 41.00 40.00 38.77 34.38 36.33 40.18 44.55 46.75 47.30 47.51 48.10 47.42 47.16 47.85 47.83 45.45 44.31 44.14 43.91 42.41
44.38 44.57 44.55 44.53 44.49 44.08 44.06 43.83 43.94 45.50 45.12 44.14 44.33 45.57 43.44 40.35 38.28 33.83 33.94 35.59 34.11 33.20 38.71 37.67 37.72 40.58 40.97 42.41 39.39 38.62 35.85 36.57 33.67 37.52 34.58 28.45 32.42 34.02 34.74 35.95 39.22 41.02 43.66 44.69 45.09 44.84 43.89 44.11 45.12 44.57 42.99 41.25 39.94 37.06
44.29 44.38 44.54 44.45 44.23 44.34 44.36 44.06 43.50 44.02 45.79 47.76 43.15 39.27 39.52 37.47 30.15 28.44 26.73 29.90 32.98 38.45 37.64 38.87 36.66 42.33 41.67 42.68 36.21 38.73 35.48 33.49 37.19 32.48 29.65 30.62 32.66 33.38 34.45 34.30 35.66 35.31 35.79 36.87 36.68 37.77 36.34 35.06 35.67 34.41 31.82 31.94 32.02 31.20
44.24 44.50 44.41 44.33 44.10 44.09 43.81 44.17 43.99 44.05 42.83 36.74 33.67 30.41 31.68 30.53 28.63 28.22 28.77 30.70 33.31 33.49 37.48 40.16 37.84 37.22 36.57 36.03 34.03 34.03 33.13 35.30 33.13 30.60 27.62 29.91 31.48 32.33 34.14 33.78 32.11 30.59 30.81 30.44 30.43 30.22 29.70 29.29 29.07 29.78 29.63 29.41 28.64 27.61
44.21 43.93 44.19 43.96 44.06 43.59 43.10 42.90 42.62 43.63 37.98 30.70 30.54 23.57 26.83 29.35 30.41 29.62 31.56 33.08 33.10 33.01 33.64 36.13 34.52 34.86 33.85 34.03 33.31 34.03 32.58 27.54 26.75 25.24 27.40 30.46 33.10 33.13 32.18 32.40 31.68 30.86 30.34 29.99 30.39 29.93 29.67 29.23 28.98 28.94 29.76 29.67 28.78 27.39
44.47 44.12 43.35 43.69 43.73 43.44 43.15 42.84 42.43 41.96 35.25 28.98 24.74 22.24 24.64 27.04 26.48 27.56 28.17 29.09 32.47 31.06 32.75 34.22 33.31 32.58 30.73 31.68 28.28 25.90 25.79 20.58 22.87 26.82 28.58 30.89 31.61 31.71 31.09 31.11 31.57 31.77 31.31 30.49 29.89 29.07 28.74 27.93 27.41 27.46 27.95 27.94 27.41 26.96
44.47 42.23 43.41 43.22 42.79 42.58 42.69 40.68 37.37 31.33 29.25 27.49 24.95 25.36 23.36 23.30 22.39 24.71 26.96 28.41 31.29 31.81 30.34 30.78 26.40 24.88 31.31 24.95 20.89 22.69 20.55 23.06 25.47 25.67 27.31 28.34 28.15 29.65 30.42 30.29 30.82 30.81 30.21 29.82 29.29 29.17 28.70 29.04 28.40 26.60 24.82 25.48 25.61 25.37
43.84 44.26 43.41 43.44 44.09 42.68 39.80 38.27 32.22 28.90 23.83 24.33 23.15 23.98 24.45 24.82 23.73 24.92 27.60 29.40 32.71 30.37 28.08 23.81 27.09 21.29 19.34 18.50 17.31 20.27 23.78 27.77 26.60 25.07 23.87 25.98 27.12 26.81 27.83 27.71 28.33 28.59 28.69 28.49 28.56 28.41 27.98 27.39 26.11 25.76 25.81 25.86 25.32 24.97
44.00 43.83 43.19 42.72 43.23 41.21 36.09 35.12 34.50 24.71 24.55 26.66 25.64 26.51 26.81 25.23 26.31 27.61 29.03 29.18 29.11 29.66 27.02 23.72 18.72 16.72 17.57 19.82 19.95 22.36 24.01 26.15 23.73 24.11 23.78 23.86 24.03 25.23 25.44 25.19 24.90 25.02 25.13 25.30 25.01 24.69 24.98 25.96 26.55 26.66 26.42 25.93 24.82 25.75
42.72 41.94 40.73 41.14 42.51 38.72 33.32 32.96 37.25 29.91 26.13 27.90 29.34 26.27 25.47 24.35 26.08 28.21 28.29 28.87 27.27 24.77 20.20 17.15 16.39 17.78 18.85 20.75 22.56 22.46 24.14 28.41 26.23 21.76 20.47 21.87 23.30 22.36 22.44 23.16 23.49 23.88 22.77 22.42 22.81 23.36 23.38 22.48 23.33 23.02 23.27 23.17 22.17 21.11
41.74 41.18 40.05 42.44 39.55 37.64 34.74 33.56 31.95 32.08 31.77 29.25 31.31 29.19 26.79 27.85 25.09 24.43 23.76 24.95 22.04 19.54 17.64 20.12 19.89 20.84 22.06 22.65 23.77 22.97 21.91 22.15 20.44 20.98 19.85 18.13 21.02 21.40 20.85 20.96 20.92 20.60 19.76 19.11 18.05 17.75 18.96 18.50 20.06 20.89 20.49 19.44 19.28 20.43
41.00 36.84 40.55 39.67 35.89 35.17 34.12 35.84 33.81 35.84 32.78 31.16 29.41 29.05 25.73 23.83 22.75 22.35 23.81 19.09 16.95 19.00 20.21 20.14 20.71 21.03 19.79 19.54 20.27 21.71 21.90 21.28 21.07 20.03 19.23 18.73 16.68 16.67 17.33 18.64 17.85 16.13 16.43 16.75 16.44 15.75 15.16 15.89 17.91 17.80 18.23 18.55 18.10 16.03
37.38 39.07 36.61 36.04 33.01 32.79 28.70 36.92 30.38 30.67 27.28 28.16 29.51 24.46 23.86 23.17 23.59 26.57 18.60 18.34 17.98 21.12 22.32 21.34 21.19 21.84 20.58 21.23 21.20 21.27 21.95 21.19 19.64 19.13 18.43 17.96 17.68 17.48 16.68 16.35 16.87 15.83 14.58 15.05 16.50 15.48 14.46 14.67 14.83 15.96 16.26 16.20 16.82 15.92
35.71 30.79 28.26 28.69 30.41 25.92 31.13 27.80 30.63 28.52 28.21 26.19 23.50 20.10 20.67 22.51 25.28 20.71 15.12 16.50 18.88 20.91 20.60 21.37 22.83 21.25 20.74 19.39 17.74 18.42 20.50 21.50 20.22 20.13 20.98 19.35 17.09 16.14 16.80 16.12 16.45 17.13 17.15 17.17 16.09 15.25 15.39 14.69 14.32 14.64 13.29 12.94 12.59 12.78
27.69 23.81 27.96 24.39 29.21 26.49 24.60 24.62 24.57 25.07 21.81 23.17 20.34 20.11 20.41 25.17 18.72 16.34 14.62 16.72 18.34 18.53 19.69 20.49 21.09 21.20 19.36 18.85 18.50 17.47 19.15 19.68 17.54 15.49 16.94 19.66 19.59 19.10 16.84 15.34 13.65 13.66 15.51 15.11 14.18 13.63 12.81 13.07 12.47 12.01 11.10 9.34 8.18 9.50
20.38 22.76 23.79 24.24 24.46 24.30 24.34 21.53 21.63 21.55 22.51 20.03 19.53 21.53 24.21 20.50 14.91 12.93 15.52 17.82 17.74 17.74 18.58 19.65 19.20 17.91 16.91 17.84 16.11 15.23 16.00 19.53 18.50 13.90 13.25 14.68 14.90 15.28 13.69 12.36 12.00 10.46 13.14 13.21 12.20 11.85 10.65 10.56 9.66 9.29 9.59 9.41 6.63 7.73
20.76 21.65 23.53 26.89 26.71 25.60 24.16 24.83 24.84 22.55 19.27 18.44 20.65 18.44 19.05 12.66 11.43 13.51 17.39 19.25 17.58 17.99 19.00 20.20 20.10 18.76 16.93 15.93 16.08 16.17 15.93 14.72 13.43 12.83 13.90 13.30 12.83 12.79 11.68 9.39 6.68 8.33 11.98 11.39 11.42 10.65 9.29 8.69 8.16 7.95 7.80 8.60 7.87 6.94
22.62 22.72 17.58 20.61 20.79 23.10 18.36 19.38 18.27 17.27 18.37 20.18 20.70 12.38 11.60 12.22 12.41 17.78 17.79 18.33 18.87 18.85 17.97 17.75 18.26 18.20 17.12 16.32 17.06 17.23 15.58 14.27 13.09 13.92 14.32 13.71 12.89 12.08 10.99 11.00 8.32 7.71 9.96 8.38 9.94 9.71 8.74 8.05 7.21 6.82 5.69 5.93 5.31 7.15
21.37 23.19 20.03 13.04 17.12 16.77 15.91 17.33 17.17 16.66 17.05 20.27 17.10 13.06 11.52 13.43 17.56 16.64 17.34 18.21 19.41 18.40 16.25 15.12 14.99 16.25 15.31 14.93 14.24 14.17 14.54 15.04 10.99 6.33 5.51 9.42 10.83 9.18 10.86 10.33 10.39 9.29 10.32 10.52 7.94 7.85 7.59 6.43 5.51 4.51 5.33 6.14 7.20 7.80
19.89 24.80 17.98 14.17 12.95 12.86 14.49 17.31 15.26 16.03 17.39 17.60 16.00 13.90 12.83 13.47 15.29 20.05 18.71 18.08 17.36 16.70 16.43 16.23 16.28 17.19 14.92 15.31 12.33 10.64 11.62 11.49 10.59 11.24 10.05 7.98 7.60 9.26 9.54 9.06 8.74 8.58 9.06 8.82 7.91 8.37 5.79 7.66 6.53 7.84 5.87 5.45 5.07 3.80
24.31 23.33 18.57 17.16 14.15 15.39 16.31 17.64 18.00 17.90 17.23 16.09 17.65 15.51 12.76 13.12 14.85 16.91 16.86 17.02 16.29 15.08 14.64 13.15 13.35 15.18 13.60 12.64 13.39 11.31 9.44 9.17 6.32 6.59 8.71 9.49 9.68 9.42 8.14 7.24 7.97 8.32 8.51 7.23 6.22 6.21 4.40 5.52 6.13 4.75 4.04 2.39 1.23 1.13
21.14 19.59 16.88 12.76 13.38 16.22 18.76 19.80 19.07 17.52 17.97 16.58 13.86 14.71 13.46 14.51 11.63 13.52 15.64 16.37 15.34 14.82 11.14 14.72 14.00 12.64 12.15 11.26 10.26 8.68 5.44 8.95 8.56 7.70 3.96 8.34 9.03 7.59 8.28 7.85 7.67 7.67 6.62 5.39 5.88 5.02 3.75 2.76 3.53 2.97 2.68 2.06 0.61 -0.36
20.03 19.25 18.30 16.61 14.12 14.21 17.63 18.74 16.67 14.32 16.44 15.06 13.97 14.84 15.01 15.02 10.42 14.41 14.64 16.41 16.91 16.77 14.82 15.29 14.44 12.88 9.90 9.01 9.85 8.70 7.07 9.01 4.31 3.65 3.22 2.38 0.60 2.18 4.85 8.52 7.32 6.45 4.31 4.75 5.01 4.49 2.73 2.01 1.77 1.10 0.91 -0.04 -0.52 -1.19

GFSWCAN_sfc_wetblb_060.txt.gz
Wetbulb
45.93 46.10 46.87 46.83 46.51 46.49 46.67 46.41 46.26 46.42 46.71 46.83 47.22 46.85 46.74 46.77 46.87 45.30 42.81 46.99 44.49 41.00 42.91 43.62 43.33 41.60 42.15 42.89 38.31 42.87 40.95 43.00 39.91 37.97 37.94 37.52 37.87 37.93 37.11 39.35 39.30 37.72 35.86 35.89 38.40 35.14 33.87 49.96 48.74 43.28 48.17 51.59 54.49 53.01
46.10 46.74 46.90 46.30 46.98 46.11 46.39 45.81 45.22 46.16 46.21 46.12 46.50 46.42 46.60 46.60 46.79 46.26 42.07 47.02 48.85 44.68 42.92 48.31 48.12 48.24 48.25 46.90 43.95 44.15 43.11 42.09 43.81 40.92 41.82 41.75 41.40 40.99 39.69 34.67 43.68 36.56 41.91 39.88 40.42 41.02 50.61 50.87 50.02 52.30 53.32 52.85 53.58 53.41
46.69 46.60 46.24 46.30 46.00 46.07 45.96 45.91 45.84 45.14 45.35 46.09 46.62 46.73 46.72 46.56 46.97 46.41 45.35 45.64 46.47 42.03 43.19 44.02 43.55 48.44 50.24 50.35 51.31 43.34 44.75 47.98 46.75 48.50 44.92 44.34 40.26 42.82 38.30 38.64 41.17 45.55 47.12 42.82 43.15 46.57 48.24 50.32 52.27 52.81 53.92 53.56 54.06 55.05
46.47 46.18 45.74 45.81 46.02 45.91 45.85 45.71 45.97 45.65 45.95 46.09 46.35 46.27 46.12 46.69 46.58 46.62 44.78 47.15 46.62 43.27 37.26 39.82 49.65 46.65 49.72 49.63 48.51 47.43 46.16 46.07 50.03 49.18 44.98 43.61 41.28 46.41 40.78 42.96 41.05 44.22 46.83 44.75 45.13 48.16 48.07 49.24 51.03 51.98 52.86 54.26 54.39 54.20
46.13 46.05 45.38 45.54 45.52 45.96 45.91 45.88 45.53 45.79 45.72 46.07 46.32 46.23 46.81 46.26 46.29 47.44 47.49 47.66 50.61 43.43 36.84 39.88 45.48 47.47 48.03 47.43 46.38 46.54 44.61 43.62 46.62 41.93 43.91 39.81 44.94 45.30 46.18 44.86 42.28 45.46 43.78 41.79 41.93 47.95 47.13 48.13 50.10 51.98 51.79 51.71 53.83 53.60
45.76 46.08 45.77 45.59 45.45 45.68 45.89 45.91 45.82 45.97 46.02 46.14 46.41 46.76 46.35 46.39 46.58 46.55 39.39 45.68 48.71 48.14 40.53 35.72 44.45 43.42 45.52 45.26 44.48 44.88 44.32 44.42 47.04 43.89 43.21 46.08 48.84 45.62 41.98 38.02 43.72 46.24 46.64 46.46 44.51 47.98 50.45 51.95 52.43 53.14 51.32 51.90 52.73 54.40
45.42 45.80 45.95 45.96 45.85 46.00 45.82 45.73 45.91 46.00 46.07 46.35 46.30 46.44 46.34 46.38 46.81 42.08 39.75 44.41 48.00 49.34 40.44 35.81 36.53 43.11 45.28 44.56 43.49 43.01 44.89 44.73 45.97 45.98 44.43 44.91 45.05 44.85 40.70 39.27 44.56 47.11 48.03 48.08 48.92 49.17 48.60 50.31 49.24 50.65 50.04 50.67 51.79 53.14
44.94 45.36 45.33 45.35 45.30 45.78 45.64 45.55 45.62 45.66 45.73 45.75 45.75 45.63 45.65 46.21 46.05 42.92 46.51 46.32 48.24 42.91 42.24 35.06 34.87 39.12 44.91 39.94 39.00 43.90 42.12 43.81 45.12 44.85 46.37 44.38 45.61 45.44 39.38 43.29 45.81 47.34 47.91 47.75 48.31 51.42 51.81 52.38 50.19 49.22 49.50 48.92 48.79 48.71
44.30 44.64 44.85 44.91 44.88 44.93 44.93 45.00 45.09 45.26 45.13 45.36 45.42 45.84 45.03 44.37 41.54 42.91 45.21 47.14 49.32 44.26 36.25 35.01 32.44 32.34 42.44 40.70 41.48 43.49 45.17 38.82 45.18 42.22 42.58 44.25 42.38 38.29 38.71 39.71 42.99 46.25 46.28 46.65 49.28 50.46 51.13 50.51 49.45 48.49 47.75 46.49 45.59 45.96
44.08 44.23 44.44 44.14 44.33 44.32 44.36 44.43 44.64 44.80 45.10 45.35 44.80 41.11 37.82 42.33 44.53 44.66 43.24 40.08 40.46 41.46 40.65 32.81 39.05 32.90 35.35 37.09 39.58 41.66 43.74 38.65 35.93 40.54 45.43 41.06 39.49 37.46 36.18 36.45 39.08 42.32 45.02 46.75 44.91 45.53 45.48 46.21 47.55 47.93 47.09 46.38 45.84 45.77
44.40 44.32 44.58 44.47 44.32 44.30 44.34 44.56 44.80 45.05 44.90 43.86 40.65 37.81 43.48 45.21 43.48 40.99 34.98 34.14 35.89 32.64 37.46 38.03 38.91 35.10 36.24 32.20 34.54 42.19 35.47 39.08 33.99 38.63 38.73 38.35 32.91 31.91 34.42 34.88 37.18 39.26 41.94 44.73 45.88 46.09 46.08 44.93 45.45 46.31 45.51 45.40 44.87 43.32
44.87 44.46 44.56 44.36 44.08 44.00 44.08 44.22 44.27 45.30 45.16 43.43 43.74 44.99 44.10 39.52 37.49 33.78 33.47 35.70 34.29 32.33 38.75 37.77 37.40 38.49 36.20 36.36 32.55 36.13 33.30 36.67 32.73 39.57 36.23 29.22 29.95 32.55 32.66 32.63 34.90 35.50 37.27 38.67 39.00 38.65 39.23 39.44 40.98 39.35 36.09 34.02 32.96 32.46
44.34 44.19 44.25 44.06 44.15 44.37 44.34 44.02 44.16 44.27 46.81 47.20 42.67 38.43 38.07 36.56 30.63 30.29 26.21 30.85 32.03 33.17 37.15 37.71 35.41 38.31 39.14 38.73 33.12 34.39 32.94 32.20 36.23 32.32 27.20 27.54 30.55 32.24 32.66 31.76 31.75 31.73 31.87 31.65 31.30 32.12 32.07 31.63 32.31 31.89 29.63 29.21 28.67 27.88
44.02 43.97 44.07 44.19 44.04 43.84 43.98 43.96 43.98 44.72 44.16 36.30 34.37 28.59 30.63 27.70 27.80 26.80 27.27 29.75 32.35 32.58 31.75 33.68 36.75 34.57 36.20 34.21 31.85 31.85 31.84 33.47 31.45 27.46 23.05 26.82 30.36 31.36 31.83 32.11 30.58 29.47 29.75 29.37 29.04 28.96 28.60 28.44 28.28 28.65 28.31 27.93 26.71 25.31
44.09 44.06 44.04 43.88 43.79 43.43 43.35 43.22 43.58 42.42 36.77 29.84 30.47 23.54 24.41 28.53 28.80 29.07 31.14 31.45 32.87 33.12 31.98 34.56 34.56 36.00 33.67 32.94 32.75 33.05 31.17 23.51 23.00 22.12 24.69 27.43 30.48 30.57 30.40 30.78 30.47 29.73 29.25 29.03 29.18 28.06 27.78 27.71 27.04 26.83 27.41 27.17 26.27 25.22
43.87 43.53 42.64 43.09 43.03 43.30 43.26 42.95 42.65 40.83 34.87 28.11 24.57 22.95 25.13 26.15 24.97 26.67 27.85 28.18 32.67 30.58 32.19 33.45 33.09 32.53 29.39 29.47 25.94 23.34 22.66 17.73 21.15 24.12 26.03 27.57 28.11 29.16 29.43 29.84 29.57 29.57 28.94 28.33 27.95 27.52 26.97 25.71 25.01 24.95 25.74 25.91 25.83 25.48
44.18 41.43 43.43 43.03 42.62 42.17 42.09 40.76 36.90 30.29 28.05 27.16 24.04 26.25 25.35 24.30 23.49 25.83 27.66 28.21 31.64 29.17 30.16 31.25 25.13 24.22 30.69 23.87 19.68 22.22 20.01 21.90 23.46 23.08 25.13 26.17 25.65 27.05 28.24 28.58 28.67 28.60 28.17 27.80 27.49 26.94 26.54 26.88 26.33 24.98 23.64 24.88 25.20 25.14
43.22 44.06 43.48 43.48 43.71 42.15 40.10 37.23 31.92 28.01 22.84 25.02 22.93 24.51 26.07 26.53 25.62 27.57 29.06 30.12 32.50 30.24 28.65 24.25 27.14 19.90 17.15 16.75 16.76 21.29 24.50 24.16 23.81 22.62 22.18 24.33 24.97 24.88 25.19 24.91 25.81 25.91 25.50 25.88 26.56 27.00 27.16 26.35 25.35 25.02 25.50 25.67 25.09 25.04
44.28 43.84 42.67 42.89 42.59 40.87 35.01 34.67 33.80 24.56 25.30 27.18 26.63 26.30 25.99 25.68 26.29 28.79 29.73 29.75 28.82 29.01 26.86 22.46 17.36 15.66 15.88 18.65 19.16 21.34 24.09 23.18 21.30 22.10 22.27 22.68 23.06 24.22 24.02 23.59 22.98 22.77 23.58 23.97 23.57 23.08 22.85 23.54 24.32 24.90 24.66 24.43 23.77 24.52
41.29 41.04 41.20 41.19 41.89 38.13 32.90 32.92 37.44 29.95 25.87 27.50 27.83 25.15 24.91 24.23 25.66 24.36 24.19 26.08 24.92 22.40 17.71 15.23 14.60 16.37 17.90 19.87 21.97 22.35 24.29 26.56 23.42 20.03 19.68 21.24 22.47 21.34 21.21 21.69 21.62 21.67 20.95 20.16 20.62 21.18 21.14 20.58 21.30 20.66 20.92 21.13 19.88 19.01
41.98 41.22 40.22 42.35 39.77 38.60 35.89 34.25 32.02 32.54 31.66 29.40 29.89 28.22 25.72 26.69 23.33 21.67 22.38 24.10 20.48 18.92 16.26 18.49 18.77 19.73 21.65 22.42 23.15 22.39 21.79 22.41 20.91 20.93 19.41 17.89 20.84 20.55 19.93 20.07 20.18 19.56 18.48 17.53 16.29 16.70 17.63 17.22 19.12 19.28 18.15 16.91 17.62 19.75
40.22 38.15 41.08 40.99 36.95 35.59 34.36 36.95 33.93 35.43 31.57 30.23 29.36 29.00 25.76 23.62 22.65 21.98 23.16 19.08 17.92 18.21 20.71 20.66 20.91 20.97 20.27 20.55 21.76 22.48 22.17 21.62 21.26 20.42 19.79 19.32 17.18 17.31 17.73 18.49 17.39 16.25 16.13 16.16 15.69 14.92 14.64 15.66 17.62 17.48 17.71 18.01 16.58 15.32
38.30 39.60 38.36 37.49 32.37 32.85 29.38 37.26 30.33 30.89 26.91 27.40 28.85 24.79 23.90 23.01 24.21 26.90 18.35 18.43 19.49 23.22 22.56 21.79 22.06 22.35 20.95 21.60 22.06 22.12 22.81 21.43 19.83 19.37 19.05 18.64 18.81 18.91 18.25 18.02 18.64 16.99 15.37 15.49 16.75 15.89 14.76 14.92 14.63 15.20 15.66 15.60 15.71 15.12
37.56 32.40 30.05 30.16 31.23 26.38 32.28 28.30 31.17 28.62 28.24 25.68 23.53 20.24 21.01 23.06 26.16 20.46 14.59 16.98 19.74 22.05 22.24 23.55 23.15 20.74 20.28 19.50 18.04 18.98 20.70 21.67 20.32 20.61 20.95 18.71 15.90 14.90 15.24 14.55 15.72 17.02 17.11 16.75 15.55 15.02 14.83 14.18 13.73 12.75 11.39 11.53 11.86 11.59
28.50 24.37 28.79 25.60 31.33 27.78 25.46 25.16 25.32 25.13 21.99 23.85 20.86 20.59 21.37 25.38 19.32 17.18 15.24 17.24 18.67 20.12 20.82 21.86 22.06 21.57 18.50 18.01 17.98 17.95 19.88 19.29 16.52 14.43 16.27 19.00 19.26 18.36 15.10 13.51 12.57 13.17 15.45 14.56 13.38 12.20 12.01 12.49 12.18 11.57 9.62 7.78 7.97 8.55
20.80 23.48 24.97 25.67 25.59 25.42 25.10 22.24 22.85 22.96 22.83 20.71 20.17 22.43 24.62 21.26 16.28 13.89 16.29 18.50 18.39 18.66 20.23 21.24 19.78 17.49 16.62 17.46 15.48 14.37 15.00 19.42 17.41 12.63 12.88 14.22 14.73 14.83 13.01 11.58 9.96 9.18 13.23 13.30 12.07 11.04 9.73 9.98 9.27 8.80 9.12 7.35 4.40 6.88
21.23 21.47 24.80 29.63 28.29 26.99 25.45 25.96 26.04 23.27 20.60 19.47 20.84 20.76 20.28 14.22 12.25 14.28 18.53 20.07 17.63 18.99 20.51 21.41 20.87 18.41 16.72 15.96 16.09 15.66 15.24 14.94 13.77 13.09 14.16 13.60 13.11 12.60 10.82 8.07 5.71 7.57 11.24 11.40 10.83 9.89 8.67 8.16 7.35 7.33 7.47 7.55 7.10 6.85
22.93 23.85 18.83 22.48 21.98 24.55 20.22 20.42 19.54 18.18 18.91 21.51 21.22 13.94 13.37 13.77 13.25 18.09 18.20 19.50 19.83 19.59 18.69 18.50 18.44 18.41 17.17 16.87 17.45 17.39 16.35 14.59 14.23 15.17 14.09 13.54 13.14 12.64 11.87 10.49 9.49 10.02 10.17 8.84 9.41 9.18 8.10 7.35 6.70 6.48 5.49 5.92 6.00 7.97
22.03 23.01 19.90 14.43 17.70 16.94 17.32 18.25 17.04 16.98 18.23 21.44 18.02 13.80 12.52 15.77 18.69 17.57 18.25 19.51 20.64 19.56 16.80 15.75 15.75 17.34 16.26 15.60 15.03 14.82 14.87 14.87 12.49 8.98 8.99 9.75 10.11 8.73 11.34 10.91 10.54 9.52 10.85 10.78 9.72 8.22 7.27 6.56 5.39 4.91 5.85 6.51 7.39 7.72
21.37 25.28 17.75 15.44 14.01 12.36 15.02 18.11 16.22 19.57 19.58 17.99 16.60 14.66 13.85 14.79 18.01 20.97 19.86 19.54 18.85 17.90 17.54 17.49 17.58 17.68 15.56 15.44 12.11 11.26 11.73 11.40 10.48 10.59 9.78 7.86 7.60 9.59 9.86 9.32 9.19 9.28 9.71 9.00 8.28 8.86 8.96 7.93 9.16 8.21 6.55 5.59 5.00 2.42
25.75 23.95 18.94 16.75 13.62 16.02 17.02 19.27 20.49 19.55 19.23 18.58 19.50 15.45 12.39 13.27 15.79 18.49 18.19 18.25 17.53 16.89 15.92 14.50 14.91 15.69 14.35 13.24 13.35 11.83 9.66 8.98 6.94 6.98 9.23 9.98 10.02 9.42 8.06 7.75 8.35 8.35 8.90 7.78 6.79 6.63 4.60 4.64 5.95 5.53 4.51 3.24 2.54 1.35
23.70 20.06 16.49 12.84 13.25 17.31 20.32 22.02 20.25 18.55 18.98 16.80 15.14 15.51 15.23 16.00 12.60 14.11 17.17 17.78 16.76 16.31 12.45 16.47 14.73 13.28 13.11 11.95 10.73 9.11 6.80 9.72 9.01 8.11 8.32 8.45 9.21 8.36 8.78 8.46 8.48 8.19 7.02 5.50 6.46 5.58 4.74 3.49 3.15 3.46 2.83 2.09 1.36 0.38
21.02 20.67 19.17 16.86 15.58 16.86 18.79 20.30 17.96 16.40 17.70 16.03 15.03 16.41 15.92 15.86 12.15 14.42 16.64 18.47 17.97 18.32 15.87 16.34 14.80 13.33 11.01 11.07 11.35 8.94 8.23 8.43 4.52 6.59 4.54 3.22 0.52 2.32 3.37 7.90 7.35 7.07 5.56 5.02 5.14 5.43 4.20 3.46 1.90 1.24 0.81 0.59 0.59 -0.58

GFSWCAN_sfc_wetblb_063.txt.gz
Wetbulb
46.00 46.11 45.91 46.18 46.46 46.73 46.93 47.07 46.82 46.72 46.72 47.13 47.18 47.06 47.17 47.15 47.22 45.59 41.90 44.58 42.45 37.60 39.20 42.13 43.19 39.78 39.94 39.54 34.37 36.93 37.03 38.17 35.88 30.25 31.55 29.37 28.28 33.95 33.33 36.66 35.95 34.17 32.13 31.71 34.06 29.91 28.91 46.47 46.40 40.93 43.83 47.21 48.28 47.51
46.07 46.53 46.93 46.84 46.62 46.50 46.39 46.20 46.32 46.27 46.20 46.69 46.94 46.95 46.97 47.27 47.13 46.50 40.52 44.16 46.00 41.66 42.23 45.58 44.73 45.96 45.37 45.38 41.64 40.21 37.65 37.58 38.90 34.67 34.11 33.97 28.61 31.10 32.15 28.97 40.14 32.33 36.41 34.33 36.21 35.23 44.99 47.67 46.42 48.66 49.76 49.05 49.21 48.54
46.66 46.69 46.23 46.22 46.27 46.15 46.04 46.21 46.11 46.06 45.78 45.97 46.46 46.65 47.08 46.99 47.38 45.60 42.34 42.38 42.28 38.96 40.54 41.12 41.55 46.88 49.97 48.69 47.73 38.47 38.59 43.01 41.66 43.30 39.05 38.23 31.35 35.00 27.01 30.60 35.36 40.20 43.61 39.21 39.24 42.13 44.29 46.37 49.26 49.85 49.21 49.38 50.31 51.25
46.39 45.56 45.88 46.13 45.88 45.63 45.91 45.52 44.98 45.49 46.00 45.97 46.59 46.69 46.78 47.03 47.12 45.46 42.47 44.05 41.80 40.23 34.75 37.52 47.95 45.29 48.80 48.83 46.70 45.15 43.21 43.96 45.01 42.85 39.33 37.62 34.06 39.53 32.43 37.30 35.74 39.59 42.96 41.19 39.81 43.70 45.97 46.37 47.73 49.18 48.12 49.42 50.54 50.90
46.08 45.26 45.53 46.00 45.91 45.66 45.81 45.54 45.49 45.03 45.79 46.27 46.57 46.41 46.89 47.25 46.30 45.53 45.31 45.23 46.14 40.64 33.88 37.84 44.96 46.51 47.19 46.36 44.57 44.22 42.87 41.18 40.58 37.98 36.22 35.30 39.00 38.14 37.93 38.17 35.05 40.39 37.89 37.04 36.63 44.03 44.32 45.19 47.77 50.28 49.28 49.61 50.38 49.29
46.12 45.45 45.49 45.84 45.84 45.77 45.61 45.53 45.54 45.63 45.86 45.83 45.79 46.20 46.53 46.41 45.87 43.64 39.49 44.70 47.93 47.37 39.83 32.48 42.31 42.86 43.46 44.11 42.53 42.51 42.44 41.23 41.72 40.86 38.55 41.64 43.33 39.29 31.41 30.86 39.68 42.23 43.03 42.87 40.84 43.87 44.45 45.81 48.50 49.67 48.72 48.63 48.75 48.47
45.80 45.94 45.82 45.64 45.71 45.70 45.63 45.55 45.55 45.67 45.58 45.69 46.08 46.38 46.15 46.25 45.03 40.19 37.30 42.18 47.33 47.24 38.95 31.75 32.52 40.76 43.55 42.14 39.76 39.76 42.06 41.12 41.29 39.55 40.21 39.00 38.98 40.69 32.18 30.03 40.74 43.88 44.56 44.17 46.37 46.54 42.82 43.28 45.12 47.40 47.41 46.86 47.40 48.06
45.03 45.60 45.64 45.55 45.59 45.61 45.61 45.60 45.83 45.79 46.04 45.78 45.76 45.87 45.73 46.04 45.74 41.71 44.48 46.57 46.17 41.25 40.06 29.89 30.31 35.08 42.14 36.79 34.64 39.29 37.16 39.56 40.21 38.56 39.91 39.02 39.70 39.40 34.14 37.55 39.13 41.02 43.29 44.95 45.41 47.07 46.37 47.43 46.80 46.28 45.70 45.03 44.02 44.08
44.66 44.99 45.26 44.95 45.24 45.36 45.39 45.71 45.53 45.69 45.77 45.93 45.92 45.81 44.56 43.25 39.59 40.55 46.66 47.17 47.12 41.98 32.85 27.72 26.44 29.13 38.14 37.57 36.31 36.35 38.91 29.03 39.27 34.55 36.01 40.64 36.40 31.58 32.64 33.67 35.76 37.67 38.94 40.05 43.83 45.41 45.31 44.57 45.03 45.40 44.05 43.15 41.94 41.50
44.44 44.30 44.53 44.60 44.60 44.81 44.73 44.96 45.19 45.67 45.81 46.20 44.66 40.27 33.91 40.77 45.29 45.07 41.96 38.34 37.46 37.94 36.41 28.37 33.98 27.03 34.73 33.99 30.31 30.94 31.93 29.34 27.95 35.20 40.29 34.95 30.99 34.04 33.16 34.45 35.35 37.01 38.35 40.74 39.80 39.37 41.10 41.27 42.67 43.07 42.10 41.77 41.26 39.67
44.66 44.50 44.49 44.49 44.58 44.58 44.68 44.94 45.29 45.23 44.92 43.37 38.82 36.38 40.74 44.75 42.41 38.57 30.70 30.28 32.26 28.12 33.31 32.66 33.34 31.62 36.69 31.72 32.18 34.93 31.83 28.52 24.39 30.65 32.76 32.21 25.09 29.18 32.38 33.37 33.89 34.84 36.62 37.57 38.84 37.72 37.35 36.73 37.35 36.42 34.66 34.48 33.69 32.58
44.55 44.43 44.34 44.07 44.09 44.12 43.97 44.20 44.34 42.86 42.54 42.26 41.50 43.01 42.30 38.97 36.07 30.25 26.58 30.28 27.68 27.32 31.70 29.91 33.70 36.21 34.52 36.59 31.95 34.59 32.09 30.18 25.73 33.92 32.31 23.93 26.79 30.18 30.84 30.34 30.93 31.80 32.55 32.56 33.95 33.56 33.54 33.66 33.34 32.00 30.61 28.90 28.04 27.35
44.12 44.27 44.20 44.18 44.04 44.09 44.19 43.98 44.30 45.01 45.62 44.44 40.78 36.08 35.42 31.48 25.81 20.20 21.14 23.75 28.59 30.47 31.93 33.96 32.31 33.07 34.97 35.18 31.62 32.16 28.34 30.14 34.83 27.75 21.68 22.73 27.86 29.66 30.43 30.14 29.54 30.05 29.79 29.32 29.09 29.52 29.01 28.14 28.21 27.87 26.40 26.37 26.11 25.29
43.69 43.87 44.19 43.98 43.51 43.51 43.63 43.74 43.34 43.49 40.90 33.13 31.32 22.72 25.17 23.57 24.58 23.72 24.80 26.55 30.07 30.82 30.13 31.21 33.10 32.87 32.19 30.68 31.81 31.03 31.25 31.00 26.13 20.53 16.95 22.48 26.93 28.38 29.71 29.76 27.96 27.34 27.66 27.27 26.76 26.74 26.04 25.58 24.91 25.27 25.15 25.52 24.63 23.66
43.73 43.79 43.98 43.40 43.92 43.82 43.51 43.05 42.41 37.92 32.08 23.65 23.32 19.44 19.31 26.38 24.45 26.52 27.94 29.17 30.07 30.68 29.70 31.29 32.90 33.71 31.60 30.80 30.43 29.68 24.89 17.92 19.11 15.23 20.78 24.17 26.75 27.94 27.33 27.72 26.86 26.30 25.72 25.12 25.31 24.73 24.43 24.52 23.75 23.45 24.58 24.55 24.09 23.58
44.06 43.58 42.17 43.17 42.96 42.88 42.85 41.69 38.02 37.29 30.05 23.52 21.61 18.58 18.96 15.83 15.88 18.73 23.43 25.64 29.03 29.16 29.71 31.60 30.91 28.70 25.77 24.82 21.60 19.98 17.82 14.28 16.09 20.02 22.49 24.03 24.41 25.74 26.33 26.65 26.51 26.47 25.88 25.48 25.29 24.87 24.46 23.53 22.94 23.13 23.89 23.68 23.41 23.12
44.26 40.68 42.94 42.03 41.72 41.68 41.58 37.40 32.36 27.03 24.92 24.71 22.47 24.49 21.53 17.64 20.24 22.94 26.23 22.87 29.93 28.65 27.31 26.06 19.02 20.60 25.83 17.18 15.50 19.97 15.06 17.13 19.18 20.01 22.73 22.44 22.07 23.40 24.05 23.95 24.21 25.13 25.52 25.86 25.43 24.95 24.35 24.82 24.41 23.16 21.68 23.12 23.80 23.50
41.56 42.00 43.32 43.26 43.70 42.39 37.94 34.36 28.33 25.80 21.35 23.08 20.32 22.07 23.55 21.76 21.20 24.44 24.33 25.84 28.89 28.45 24.76 21.86 23.36 15.26 13.08 12.53 13.58 19.68 19.19 20.09 20.42 19.51 19.54 22.12 22.05 21.48 21.58 21.11 22.55 22.89 22.49 22.10 21.89 22.33 23.49 23.45 22.87 23.08 23.53 23.46 22.52 21.98
42.48 42.23 42.54 42.93 41.43 38.72 32.17 32.03 31.31 22.93 24.04 25.28 24.79 25.57 24.70 23.40 23.66 24.35 25.29 26.09 25.58 25.76 23.05 18.59 11.47 12.19 12.87 16.26 17.34 19.17 20.40 19.72 18.28 19.01 19.47 19.87 20.39 21.14 21.16 20.72 19.96 19.56 20.19 20.61 20.31 19.39 19.05 19.29 19.52 20.52 19.91 20.45 20.11 20.61
42.19 41.76 41.16 40.94 40.84 35.59 30.92 30.05 34.57 27.93 24.74 23.57 25.28 22.31 21.39 20.47 22.71 22.37 22.05 24.16 22.84 20.40 15.31 12.96 12.76 15.15 16.20 18.20 19.60 19.80 22.33 22.48 20.55 17.29 17.02 18.28 19.21 18.74 18.18 18.62 18.03 18.10 17.63 17.73 17.50 18.35 17.91 16.69 17.21 16.35 16.67 17.00 15.28 15.24
41.02 39.97 40.22 40.77 37.55 36.32 32.84 31.08 29.86 29.81 29.32 27.06 27.84 25.76 22.79 23.08 18.88 17.75 18.73 21.85 17.76 16.27 13.76 16.45 16.50 18.63 20.27 20.47 20.89 20.19 19.31 19.05 17.93 17.76 16.39 15.45 18.33 17.84 16.96 17.43 17.18 16.47 14.87 13.93 13.06 13.66 14.79 14.48 16.33 15.04 13.24 12.06 13.98 13.79
36.56 39.40 37.31 37.39 32.10 32.55 30.71 32.22 30.36 29.95 27.78 26.80 24.83 25.54 19.67 16.00 15.29 16.93 19.91 15.86 15.26 16.26 18.31 17.83 18.46 18.97 19.37 19.77 19.88 20.23 20.19 19.87 19.55 18.49 18.25 17.61 15.41 15.59 15.85 16.12 15.13 13.98 13.70 13.05 13.00 11.46 11.40 12.62 13.27 13.11 13.17 11.24 10.95 9.81
38.76 37.39 32.59 32.12 26.97 26.03 23.89 32.11 24.86 27.70 21.79 21.98 23.87 20.17 18.13 16.36 20.95 22.43 13.14 16.95 18.92 20.63 20.13 19.86 20.22 21.06 19.72 20.42 21.60 21.75 21.59 19.77 17.18 16.44 16.11 15.29 14.94 14.68 14.13 14.37 15.09 12.81 11.62 12.73 13.21 11.58 10.99 7.78 7.82 6.86 6.00 7.41 6.88 2.60
36.23 29.93 25.56 24.94 24.90 19.58 25.28 22.25 26.97 25.48 22.38 19.43 17.91 14.40 16.65 18.23 20.54 13.65 11.57 15.22 17.74 20.92 22.10 21.17 19.77 17.57 17.67 17.35 15.26 16.46 17.94 17.83 15.10 14.53 16.53 13.53 10.97 9.94 10.78 10.00 10.49 12.03 13.09 11.47 10.05 6.67 6.75 2.76 2.55 2.65 0.06 -2.39 -2.57 -2.46
19.98 19.25 22.01 17.05 24.30 19.33 16.06 15.66 17.54 18.46 12.90 16.97 11.83 14.09 14.75 20.85 11.29 11.83 10.97 14.65 16.16 16.89 16.96 18.97 19.44 18.10 14.17 13.43 13.75 13.65 16.12 14.53 11.21 9.17 11.11 14.36 13.45 10.74 9.12 8.87 8.71 9.71 10.95 8.73 2.07 -2.55 -3.92 -0.99 1.05 -5.67 -2.42 -4.78 -1.48 -5.47
14.23 17.29 19.30 19.66 17.65 17.68 18.60 12.30 11.89 12.40 12.87 10.32 14.19 19.96 17.39 10.20 5.14 7.63 14.08 14.28 9.69 14.40 16.45 17.70 12.17 12.42 12.06 12.70 10.33 9.43 10.49 13.74 11.79 7.92 8.90 10.06 8.81 5.04 4.10 2.71 1.50 3.75 7.97 0.43 0.26 -4.32 -3.70 -3.12 -3.47 -1.32 -5.43 -3.50 -5.60 -8.59
12.98 15.89 23.42 27.32 25.47 24.12 17.52 18.22 20.48 14.22 9.52 10.81 14.69 11.41 7.74 -0.01 1.95 11.63 16.53 16.84 12.58 15.98 17.02 17.46 17.17 14.27 12.39 11.63 12.14 11.25 10.60 10.89 9.37 9.81 10.57 10.12 9.24 7.61 2.96 -3.89 -4.58 2.70 4.26 5.12 -1.77 -3.23 -6.78 -7.71 -9.39 -8.35 -7.17 -10.11 -9.42 -9.01
20.84 20.62 13.21 15.74 14.98 19.24 9.74 10.66 8.77 7.57 8.88 16.43 13.44 2.70 0.76 4.20 6.58 14.53 14.60 15.06 12.80 15.71 14.92 14.40 14.25 13.72 12.82 13.03 13.15 10.71 8.29 6.81 5.89 9.19 9.30 8.41 6.62 4.59 4.54 0.77 -0.59 8.63 -0.49 -5.93 -5.94 -7.10 -7.01 -9.91 -10.06 -10.96 -10.44 -8.21 -8.59 -4.64
16.26 18.78 15.58 7.90 11.15 12.18 13.18 11.27 9.10 13.01 15.87 17.04 6.45 4.83 5.31 14.74 12.64 13.05 13.20 13.50 14.29 14.32 10.91 7.80 5.32 5.46 7.95 7.74 6.19 6.60 4.21 4.45 -2.15 -4.36 -4.48 0.59 -2.77 -0.85 -1.11 -0.92 -2.65 -3.88 -1.22 1.79 5.55 -2.31 -4.35 -6.78 -7.45 -8.71 -9.08 -9.21 -7.01 -11.48
17.29 20.42 11.82 7.64 5.92 7.19 11.92 13.43 15.52 13.32 14.48 12.40 12.58 12.14 11.34 11.81 15.57 15.22 15.16 16.35 16.23 11.17 8.46 11.46 13.61 10.75 9.49 4.64 -3.15 -2.96 -0.89 -4.94 -5.12 -3.86 -1.95 -5.31 -4.77 -3.33 -5.51 -5.67 -4.76 -4.24 -3.96 -6.40 -7.46 -2.46 1.43 -5.61 0.41 -5.65 -7.57 -11.00 -13.40 -14.18
21.94 17.52 11.62 10.89 8.59 9.48 9.60 11.30 15.73 15.38 11.77 12.29 10.50 5.28 6.04 6.00 7.58 12.37 11.04 7.65 6.36 4.57 4.31 2.82 3.63 4.80 2.85 -0.46 -0.62 -0.63 -5.31 -5.67 -7.12 -5.33 -4.20 -4.23 -4.04 -6.23 -7.43 -6.47 -6.34 -6.90 -2.46 -7.49 -9.09 -9.62 -11.42 -12.02 -12.47 -9.91 -11.47 -12.59 -11.97 -14.08
17.61 11.85 8.62 5.55 9.39 14.36 16.00 17.56 13.77 10.89 11.33 4.29 2.18 3.13 4.02 5.98 2.11 4.42 6.82 8.56 7.85 9.52 6.85 9.63 6.39 -0.23 -2.41 -2.96 -5.31 -6.07 -2.02 -3.91 -5.56 -5.51 -5.68 -6.03 -4.95 -8.93 -5.68 -1.73 -4.26 -5.79 -7.60 -9.57 -7.96 -7.37 -9.40 -11.54 -13.20 -14.06 -13.67 -14.09 -14.65 -14.96
15.30 14.08 12.00 9.86 9.25 8.89 12.62 12.09 9.31 9.52 8.00 5.02 3.63 5.84 4.67 5.55 1.37 4.60 6.60 9.80 11.87 12.76 9.04 5.77 2.51 -1.62 -3.04 -0.37 -2.73 -5.50 -2.08 -7.66 -4.58 2.49 -1.68 -3.86 -7.84 -7.12 -11.84 -9.66 -10.46 -9.96 -8.77 -10.61 -10.80 -9.52 -9.19 -8.47 -11.31 -13.33 -14.29 -14.59 -14.91 -17.27

GFSWCAN_sfc_wetblb_066.txt.gz
Wetbulb
45.54 45.84 46.04 46.04 46.09 46.29 46.55 46.57 46.68 46.59 46.62 46.43 46.43 46.64 46.74 46.94 46.96 45.40 42.38 44.27 39.45 32.99 36.54 40.72 40.44 36.74 37.50 36.79 31.49 34.61 34.54 35.52 33.49 28.79 28.12 26.87 25.07 32.05 32.03 35.23 33.67 31.83 31.02 30.50 32.23 30.35 27.01 45.28 45.52 39.81 41.66 44.79 47.50 47.33
46.11 46.48 46.80 46.96 46.80 46.98 46.93 46.82 46.84 46.93 46.71 46.59 46.82 46.68 46.89 47.30 47.09 46.64 40.88 44.44 44.45 39.74 38.40 43.87 43.99 43.56 43.42 42.51 39.01 37.52 36.21 36.45 36.64 32.06 30.74 30.05 26.43 26.54 30.44 27.59 37.66 31.93 36.46 33.83 35.37 34.44 43.45 45.89 46.79 47.49 48.18 46.53 47.46 46.91
46.54 46.11 46.13 46.09 46.22 46.25 46.40 46.38 46.32 46.20 46.32 46.59 46.78 47.03 47.23 47.30 47.34 46.36 41.77 42.91 42.26 38.12 37.08 39.45 39.49 44.91 48.03 47.01 45.95 36.81 38.21 42.04 41.13 40.47 36.60 34.64 29.69 32.36 29.25 29.48 33.58 36.64 42.02 37.27 37.67 40.98 42.44 44.55 47.97 48.52 49.08 47.67 48.78 49.72
45.83 45.81 46.04 46.20 46.04 45.88 46.02 45.70 45.40 45.49 45.79 46.25 46.39 46.52 46.98 47.22 47.27 46.40 41.66 43.50 41.37 38.71 32.69 37.14 46.52 43.62 47.45 47.33 46.79 45.84 44.37 44.82 44.49 42.56 36.03 32.23 30.01 37.10 29.83 34.51 34.46 37.48 40.26 39.21 38.13 41.59 44.16 45.24 45.71 46.86 48.19 48.94 48.99 49.80
45.86 45.79 45.93 46.04 45.73 45.81 45.70 45.06 44.74 45.67 45.95 46.08 46.32 46.22 47.12 47.42 47.06 45.24 43.98 43.21 42.73 39.00 33.26 36.68 43.18 45.73 46.67 46.44 45.60 45.57 44.15 43.03 41.43 38.07 34.90 31.88 36.41 36.20 35.89 37.19 34.15 38.94 38.42 36.21 34.29 42.11 42.73 43.80 45.21 48.22 47.19 46.84 47.84 48.42
45.82 45.73 45.91 45.72 45.52 45.57 45.47 45.26 45.81 45.74 45.30 45.64 46.61 46.75 47.12 46.70 46.23 43.18 38.21 43.14 43.83 44.19 36.85 32.44 42.83 42.10 43.65 44.46 43.37 43.16 43.12 41.31 41.23 36.31 34.19 39.43 41.89 38.35 33.09 32.29 38.86 40.20 42.09 41.50 39.87 43.80 45.19 45.50 46.27 47.17 46.94 47.39 47.95 47.64
45.71 45.55 45.87 45.75 45.59 45.45 45.45 45.37 45.45 45.84 46.20 46.36 46.54 46.50 46.27 45.95 44.05 39.42 36.15 41.63 46.09 43.96 36.76 33.12 34.84 41.60 42.71 41.60 39.47 39.23 41.36 39.55 39.01 37.48 35.07 37.41 38.63 41.04 33.05 30.82 35.97 38.02 39.55 41.94 42.27 44.28 41.88 43.39 42.15 44.59 45.71 45.48 45.80 46.23
45.42 45.15 45.55 45.77 45.63 45.43 45.26 45.39 45.58 45.86 45.86 45.24 45.59 45.55 45.66 46.18 45.60 41.85 43.31 46.69 47.23 42.33 38.91 28.71 32.73 37.04 39.18 34.70 33.50 37.75 35.84 37.57 37.25 36.14 37.14 37.91 39.82 38.67 33.97 32.91 34.84 36.50 38.24 39.66 39.35 43.24 43.19 44.30 44.23 43.61 43.84 43.58 42.83 42.46
44.90 45.20 45.18 45.32 45.19 45.21 45.35 45.40 45.38 45.14 45.48 45.52 45.44 45.55 44.45 43.07 39.68 41.74 46.52 47.11 46.96 40.46 29.79 24.45 24.19 27.01 37.78 36.05 34.59 34.50 36.27 30.35 36.63 29.05 34.51 37.64 35.10 27.05 29.10 31.38 32.52 34.67 35.21 36.60 39.46 39.80 41.44 41.21 42.05 41.34 41.40 41.39 39.99 37.09
44.63 44.56 44.45 44.56 44.68 44.91 45.01 45.28 45.44 45.59 44.99 44.23 43.69 39.20 34.13 40.40 45.91 45.32 41.39 37.60 35.46 36.52 33.90 26.87 31.80 28.24 33.69 34.00 32.28 29.98 26.70 28.13 30.08 32.51 37.71 30.93 27.48 32.13 30.63 32.74 33.18 32.65 34.42 36.69 36.25 34.93 35.74 36.85 37.84 35.73 34.96 34.96 34.23 31.84
44.29 44.30 44.37 44.61 44.66 44.65 44.83 44.72 44.85 44.81 45.78 41.76 37.03 35.78 40.51 44.48 41.34 37.19 30.44 30.53 31.17 28.54 31.80 31.51 32.34 28.95 35.28 26.15 30.28 33.42 32.55 29.41 24.53 29.52 28.85 27.29 23.27 26.89 30.97 31.17 31.20 31.48 33.41 33.93 34.93 35.07 35.24 35.01 34.08 33.03 31.17 29.63 28.41 27.75
44.61 44.42 44.40 44.15 44.22 44.27 44.05 44.24 44.75 42.46 40.92 40.63 39.10 41.20 40.31 38.06 33.16 29.40 28.92 30.90 27.80 29.23 32.85 29.46 31.15 32.61 32.91 36.33 31.89 33.26 31.69 31.06 26.20 31.58 24.11 16.27 24.10 27.71 28.95 28.60 28.60 29.31 30.38 30.49 31.41 30.51 30.58 30.62 29.76 28.46 27.29 26.01 25.47 24.98
44.12 44.14 44.04 44.01 43.76 43.93 43.86 43.98 44.81 44.79 44.58 42.27 37.93 32.61 31.78 27.14 19.90 17.97 20.07 26.11 27.19 29.61 30.20 31.75 32.22 30.49 33.95 35.88 31.83 31.28 29.47 27.56 33.63 22.83 16.92 19.44 25.61 27.12 27.28 27.59 26.91 27.85 27.51 26.85 26.26 26.48 25.95 25.45 26.10 26.01 24.81 25.37 25.29 24.41
43.85 43.74 43.97 43.90 43.70 43.34 42.68 42.30 42.54 40.50 36.30 29.37 26.46 18.01 19.56 18.53 20.57 21.61 22.72 24.95 28.70 28.66 28.67 29.36 31.46 32.59 32.05 30.15 31.66 29.44 28.72 27.36 19.85 15.17 13.03 20.52 24.41 25.85 26.57 26.63 24.84 23.74 24.53 24.39 24.02 24.20 23.85 23.61 23.16 23.53 23.76 23.97 22.91 21.51
43.58 43.07 42.43 42.19 42.89 43.05 41.98 41.42 40.41 34.52 28.68 21.86 21.61 13.63 15.55 20.77 19.08 24.24 23.42 26.00 29.16 29.45 28.76 30.17 32.07 33.08 29.39 27.65 26.15 25.32 20.85 13.14 15.11 11.61 17.35 21.13 24.60 24.80 24.62 24.89 24.15 23.82 23.32 22.94 23.35 22.64 22.49 22.64 22.19 22.08 23.02 23.37 23.10 22.19
43.98 42.28 40.67 42.78 43.33 43.08 42.09 38.50 35.12 34.20 26.89 20.24 20.16 14.24 15.70 11.25 12.20 12.95 13.58 16.74 22.75 27.50 29.37 30.76 27.09 26.30 23.02 21.45 18.32 16.16 13.98 10.63 13.29 18.09 20.49 22.62 22.07 22.05 22.67 24.32 24.54 24.30 23.73 23.52 23.52 23.35 22.97 22.38 21.84 21.76 22.52 22.70 22.41 21.53
43.79 39.50 42.41 43.17 43.54 42.60 40.71 34.29 30.45 26.79 24.76 21.10 15.78 13.68 7.80 7.79 12.32 18.07 15.51 22.13 28.10 27.59 23.22 24.82 18.12 18.50 22.26 16.64 15.10 17.55 12.52 15.37 17.86 19.25 20.30 20.16 19.62 20.76 21.99 22.29 22.10 21.52 21.31 22.98 23.94 24.29 23.78 23.92 23.26 21.45 19.58 21.00 21.49 21.03
40.23 41.45 42.97 43.56 43.07 40.86 34.37 31.56 27.68 25.49 20.91 21.47 16.52 17.18 17.03 15.64 14.73 13.97 22.28 24.52 26.10 26.02 24.06 18.55 21.03 13.21 10.37 10.51 11.36 16.10 16.92 17.99 18.28 17.20 17.60 19.80 19.76 19.20 19.52 18.28 19.52 20.22 19.83 19.67 19.44 19.42 20.25 19.70 19.78 20.19 20.65 20.81 19.96 19.58
41.35 41.75 42.46 42.48 40.09 35.06 29.83 30.62 30.08 21.67 21.90 22.50 21.95 21.94 20.59 20.15 22.15 23.24 23.42 22.69 22.94 22.46 19.78 15.27 10.25 9.97 10.76 14.99 15.77 17.19 17.72 17.27 15.24 15.97 16.76 17.51 18.18 18.03 17.73 17.88 17.83 17.24 17.71 18.16 17.95 16.99 16.80 16.88 17.45 17.70 18.29 18.20 15.85 16.41
42.19 41.88 41.31 41.36 41.49 32.61 29.22 29.45 32.37 25.89 22.46 22.15 22.87 20.00 19.68 19.44 20.81 20.36 20.32 21.31 20.24 18.12 13.44 10.33 10.78 13.29 13.17 15.76 18.95 19.60 19.28 19.48 17.41 14.46 14.37 16.02 17.14 16.50 15.93 16.33 15.56 16.02 15.94 15.96 15.98 16.64 15.35 14.17 14.96 14.74 14.78 14.04 12.27 10.86
40.56 38.58 40.65 39.14 35.98 34.05 31.04 29.58 29.13 26.99 25.50 24.12 24.41 22.78 19.09 20.19 17.29 16.39 16.45 20.38 15.23 13.49 12.37 15.11 14.45 17.11 19.01 19.36 19.88 19.36 19.13 19.07 17.10 16.41 14.99 13.82 16.27 16.36 15.99 15.70 15.58 14.85 13.39 12.51 11.49 11.89 11.80 12.16 11.97 11.79 10.41 9.84 9.40 8.17
34.77 39.36 35.20 34.51 30.35 30.41 28.16 29.65 28.64 28.90 26.78 26.08 25.21 25.17 18.70 14.13 13.83 15.86 18.89 14.38 14.21 15.42 17.21 17.25 18.46 18.90 18.16 17.35 17.90 18.89 18.64 18.51 17.97 16.81 16.43 15.87 13.29 13.37 13.47 13.96 13.27 11.38 11.20 10.62 9.60 7.35 7.94 9.05 10.34 10.78 7.33 4.91 6.01 5.35
36.66 34.50 29.60 28.38 24.24 23.42 21.55 29.47 23.54 27.17 18.84 19.66 21.22 17.28 14.88 12.29 17.43 20.65 11.11 16.75 16.64 19.61 18.83 18.12 18.15 19.29 19.13 20.16 19.76 19.05 18.65 15.94 12.92 12.06 12.04 11.01 10.80 10.41 10.12 11.44 11.82 9.04 8.71 9.30 10.33 7.92 4.27 2.04 2.99 1.60 1.28 1.46 0.97 -2.78
33.64 26.67 22.32 20.06 21.55 17.90 20.64 19.45 25.38 23.30 19.51 17.11 15.77 12.11 16.23 13.52 17.09 10.12 9.91 13.44 17.97 20.61 18.27 17.92 17.05 14.76 14.86 14.15 12.08 13.32 14.97 14.33 12.12 12.42 11.97 9.58 7.38 7.36 8.21 8.49 9.13 9.69 8.44 7.84 5.42 2.82 1.49 -4.20 -4.16 -1.07 -5.33 -6.25 -9.60 -10.87
18.80 17.42 17.74 11.46 17.51 15.80 11.38 11.06 13.05 15.16 9.57 13.62 10.67 10.48 11.43 15.88 6.57 5.44 6.35 12.24 13.20 13.19 12.30 16.03 15.84 14.16 10.55 9.17 9.70 10.63 13.04 11.98 9.18 8.17 9.69 10.51 7.72 6.95 6.29 6.67 6.64 7.56 7.67 0.00 -5.86 -5.11 -8.15 -7.93 -8.51 -6.76 -6.07 -9.95 -4.08 -7.97
10.67 13.26 16.55 13.36 11.41 13.55 12.83 8.46 6.91 7.02 5.98 4.90 11.65 14.68 10.10 4.01 -0.30 2.72 11.01 8.54 6.97 10.01 7.40 2.73 8.71 9.66 9.45 10.24 8.34 7.90 8.65 10.74 9.43 5.90 7.13 8.06 6.89 1.04 -3.29 -4.56 -3.07 2.60 4.43 -4.00 -7.06 -8.78 -8.52 -7.06 -9.25 -8.75 -13.04 -9.42 -11.96 -12.90
7.49 12.03 21.71 23.67 22.52 20.24 12.91 13.34 15.41 8.50 3.26 7.06 8.54 4.37 0.21 -6.52 -5.25 9.04 13.84 13.32 11.62 8.83 11.91 13.03 13.53 11.29 9.45 9.01 9.86 9.38 9.06 8.93 7.94 7.77 8.26 7.19 6.24 4.68 -1.86 -5.90 -5.97 -0.08 1.47 -2.80 -7.12 -10.72 -12.86 -15.76 -15.40 -14.31 -15.58 -16.49 -12.68 -15.40
19.04 15.29 8.18 8.34 10.31 13.96 3.65 2.56 -0.90 0.37 2.91 14.43 7.27 -3.46 -5.43 -3.62 3.24 10.01 9.59 11.44 9.63 13.57 12.78 12.47 12.69 12.15 10.96 10.64 8.41 5.09 4.42 2.98 5.75 6.61 6.62 5.41 2.88 -2.06 -3.40 -4.71 -2.18 4.54 -7.99 -12.33 -13.77 -14.68 -14.13 -14.68 -15.04 -16.31 -14.31 -10.69 -13.41 -12.68
10.17 13.11 11.61 2.81 5.63 7.10 7.71 1.28 2.73 9.71 13.67 11.59 -2.92 -1.99 3.43 12.41 5.76 9.87 11.24 10.28 10.42 10.90 7.76 6.46 0.37 1.87 4.03 3.46 0.18 0.10 -0.43 1.36 -1.31 -4.16 -6.88 -10.87 -9.42 -2.74 -3.98 -8.52 -10.51 -8.51 -5.97 -5.61 0.37 -6.36 -9.27 -10.78 -10.07 -11.70 -13.79 -14.15 -15.32 -20.30
11.30 13.78 6.39 1.22 0.52 3.08 5.60 7.90 2.42 1.52 10.87 7.56 11.13 11.83 10.35 9.99 13.26 11.44 12.64 14.04 7.35 -0.41 -2.03 -0.75 1.02 -0.53 -5.43 -6.35 -11.05 -7.10 -9.81 -15.40 -12.68 -6.62 -8.34 -11.05 -7.81 -5.46 -13.95 -12.68 -11.78 -9.78 -13.59 -15.04 -13.59 -9.80 -3.46 -10.58 -4.38 -7.29 -9.87 -14.92 -19.95 -19.75
16.71 9.97 5.98 4.13 3.07 6.19 4.04 2.02 10.35 8.23 1.12 -0.41 -1.93 -2.22 1.01 5.28 6.64 9.71 7.97 5.68 6.10 1.25 1.70 -3.25 -3.25 -9.96 -3.84 -8.33 -12.50 -14.86 -11.59 -9.97 -14.13 -10.87 -8.69 -9.60 -13.77 -15.58 -14.86 -14.13 -14.86 -13.77 -13.77 -15.76 -16.13 -17.21 -17.40 -18.30 -20.66 -19.39 -18.30 -17.58 -18.85 -20.48
8.08 2.26 3.73 4.85 7.63 9.19 9.97 6.78 -1.62 -2.54 -6.16 -5.26 -6.34 -9.42 -3.62 -5.07 -5.25 -1.99 0.54 -1.86 -1.08 -1.99 -3.98 -4.70 -3.44 -5.97 -11.41 -13.41 -15.94 -15.04 -8.19 -9.62 -12.50 -10.69 -9.78 -13.59 -15.94 -17.21 -15.04 -8.87 -10.69 -14.13 -15.95 -16.85 -15.76 -12.86 -11.78 -14.49 -17.40 -19.39 -19.21 -18.85 -20.84 -20.66
5.89 8.53 4.48 4.93 5.83 4.17 6.96 3.11 1.44 3.69 -0.39 -3.62 -0.74 -0.95 -1.53 -0.55 -4.54 2.35 3.97 0.54 1.42 2.68 -1.30 -5.07 -9.60 -8.15 -7.82 -8.35 -7.07 -10.32 -8.87 -11.23 -12.68 -1.08 -5.97 -7.97 -12.58 -11.59 -18.30 -19.75 -20.11 -19.57 -17.22 -18.48 -19.57 -17.40 -14.86 -12.68 -14.31 -16.49 -18.66 -21.93 -22.47 -22.47

GFSWCAN_sfc_wetblb_069.txt.gz
Wetbulb
45.77 46.18 46.64 46.50 45.86 45.95 45.83 46.01 46.22 46.02 45.85 45.78 45.83 46.09 46.44 46.61 46.87 44.88 42.11 44.22 39.39 34.03 36.24 40.08 40.28 36.72 36.40 35.74 30.21 33.66 34.38 34.01 31.00 27.20 26.88 26.12 22.80 28.96 29.77 32.69 31.42 30.10 29.80 27.47 31.97 29.26 23.55 43.42 43.06 39.25 41.40 44.20 44.72 46.05
46.44 46.68 46.22 46.29 46.23 46.46 46.73 46.38 46.53 46.48 46.27 46.22 46.04 45.80 46.02 46.09 46.45 45.76 40.65 44.89 44.44 38.19 37.42 40.74 42.43 44.17 42.38 41.35 38.00 37.19 35.95 35.77 35.39 30.36 28.46 28.18 24.11 24.40 29.05 25.26 36.00 29.40 32.81 29.86 31.84 32.40 40.64 42.31 43.01 45.10 46.35 46.23 46.58 46.74
46.59 45.99 46.11 46.01 46.15 46.14 46.41 46.39 46.39 46.77 46.46 46.41 46.53 46.34 46.37 46.27 46.63 45.52 42.35 43.42 41.65 37.10 35.78 36.71 36.84 42.41 46.39 44.47 44.14 35.73 37.23 39.80 37.97 37.65 33.45 32.07 27.63 30.23 23.39 26.48 30.22 33.75 38.68 34.83 35.06 38.38 40.78 42.70 44.74 47.72 48.56 47.55 48.38 48.55
46.16 46.09 46.16 45.95 45.87 45.89 45.47 45.67 46.11 46.16 46.32 46.64 46.53 46.48 46.55 46.76 47.01 46.41 42.75 43.69 41.46 38.33 31.74 34.61 42.48 39.95 45.15 46.83 44.61 43.68 42.34 43.15 42.28 39.70 34.38 29.96 27.97 35.15 28.14 32.25 31.01 33.83 36.27 35.56 35.90 39.87 42.08 43.98 45.08 45.57 46.54 47.67 48.04 48.33
45.98 46.00 45.66 45.57 45.53 45.57 45.08 44.67 44.80 45.34 45.99 46.18 46.59 46.64 46.85 47.08 47.20 46.50 44.57 44.21 43.46 36.62 30.48 32.85 42.66 43.97 46.43 45.26 44.08 44.28 43.07 40.23 37.94 35.20 34.09 30.81 34.69 36.17 34.16 34.45 31.45 37.44 36.25 33.34 31.23 39.97 39.64 42.57 45.66 45.48 45.47 46.28 46.46 47.09
45.60 45.89 45.43 45.54 45.48 45.41 45.69 45.75 45.28 45.61 45.32 45.86 46.43 46.91 46.99 47.03 44.45 41.70 35.29 43.29 44.37 43.58 36.69 30.53 41.63 41.59 43.25 44.30 43.75 42.64 41.27 40.37 39.72 39.03 36.70 38.29 41.78 38.20 28.24 28.85 36.85 37.41 39.13 40.05 38.14 40.28 40.62 44.12 44.25 44.40 44.93 45.57 46.39 46.36
45.69 45.86 45.64 45.43 45.54 45.62 45.73 45.54 45.23 45.19 45.76 45.83 46.30 46.78 47.07 45.82 43.15 38.79 35.98 40.73 44.95 43.79 35.42 31.42 34.70 41.41 43.81 42.02 40.57 40.06 40.96 40.86 39.41 37.92 36.25 36.48 38.37 39.81 32.54 30.14 34.36 36.21 37.06 39.12 39.65 40.71 41.02 41.44 41.45 43.26 43.12 43.61 44.48 44.05
45.58 45.41 45.29 45.38 45.34 45.31 44.87 45.58 45.81 45.87 45.70 45.33 45.95 46.28 45.78 45.60 45.60 41.91 42.47 44.79 44.75 40.13 37.26 30.67 32.57 36.01 41.02 35.58 35.57 39.40 37.10 38.20 38.32 35.78 35.00 34.10 36.89 36.94 31.54 30.67 33.18 35.03 35.96 38.29 37.44 39.97 40.06 41.99 39.75 39.21 41.28 41.70 39.67 36.21
44.77 44.84 44.77 44.99 45.01 45.11 44.76 44.73 45.59 45.62 45.70 45.75 45.56 45.53 44.27 42.17 40.10 41.43 45.45 45.73 46.40 40.47 32.28 29.57 27.73 30.14 36.57 35.26 34.52 33.65 34.97 32.13 35.50 29.46 32.19 34.85 33.28 24.21 26.43 28.65 30.84 31.43 31.97 33.59 36.35 38.56 37.55 38.30 37.46 35.91 35.14 34.10 32.75 30.30
44.27 43.98 43.95 44.12 44.27 44.42 44.83 44.74 44.92 44.75 45.01 45.12 43.19 37.73 32.21 41.91 46.43 45.52 41.77 36.94 38.17 35.55 32.99 27.66 28.08 31.00 35.75 34.06 28.75 29.71 27.70 27.72 29.62 32.18 35.50 27.39 25.91 28.97 28.89 30.34 30.45 30.06 31.61 33.87 32.56 33.89 33.95 34.19 34.36 32.27 30.11 30.17 29.05 27.46
44.09 44.06 44.05 44.14 44.30 44.23 44.58 44.82 44.46 44.57 44.49 40.31 36.98 33.97 41.33 44.85 41.61 36.92 30.91 29.24 30.81 28.64 30.80 29.82 29.55 27.37 33.35 27.91 31.81 30.33 31.44 26.58 21.27 27.06 29.21 25.30 21.45 25.04 28.28 27.53 28.29 29.62 31.41 31.58 32.27 31.74 31.65 31.50 30.91 29.15 27.43 26.93 26.45 25.91
44.12 44.29 43.94 43.63 43.60 44.02 44.52 45.06 44.54 42.43 41.02 39.72 40.22 41.45 39.77 35.30 31.03 29.33 28.19 28.44 29.53 28.83 31.68 27.62 31.81 31.70 33.53 35.93 29.62 32.86 30.93 31.02 26.72 30.51 23.30 16.73 22.12 26.12 26.29 25.88 25.65 26.73 27.66 27.11 27.63 26.98 26.95 26.87 26.84 26.30 25.75 25.12 24.83 24.69
43.80 43.68 43.88 43.64 42.89 42.66 42.60 43.80 43.89 44.31 43.62 40.44 34.65 28.84 28.19 23.52 17.22 16.00 17.99 21.20 21.98 29.16 28.35 30.72 32.10 32.33 33.62 35.13 30.11 31.56 28.41 28.24 29.56 19.71 13.96 17.56 23.63 24.71 24.90 24.91 24.13 24.77 24.74 24.57 24.16 24.82 24.49 23.98 24.58 24.07 22.74 23.27 23.30 22.45
42.54 42.79 43.32 43.60 43.41 41.67 41.92 40.64 40.56 37.66 33.75 27.04 23.11 13.45 14.54 12.09 17.32 18.90 20.14 21.52 26.60 25.74 26.31 27.84 30.82 32.06 31.98 30.81 31.23 28.41 24.50 25.59 17.62 11.85 10.39 18.08 22.36 23.70 24.34 24.36 22.61 21.66 22.14 21.85 22.00 22.31 22.23 22.13 21.79 22.31 21.63 21.48 20.24 18.70
42.50 42.65 42.95 43.12 43.30 42.37 40.35 40.12 38.62 33.67 28.26 21.56 20.09 11.81 14.60 19.01 19.92 21.76 22.16 23.30 26.95 27.80 28.02 29.91 31.44 31.12 26.30 24.20 23.48 19.64 17.59 10.85 12.84 9.44 16.00 19.77 21.79 23.22 23.02 23.32 22.59 22.02 21.60 21.42 22.18 21.61 20.94 21.16 20.38 20.32 21.29 21.44 21.01 20.11
42.78 41.97 40.91 43.36 43.11 41.78 39.53 36.02 33.28 32.50 26.69 20.98 18.89 13.80 15.82 11.97 14.06 15.32 15.70 18.41 25.18 26.21 29.87 29.56 27.79 24.36 20.02 19.98 15.65 14.23 12.19 9.14 11.49 15.12 18.52 21.11 20.78 20.80 20.27 21.33 22.10 22.82 23.11 22.76 22.41 22.02 21.38 20.27 19.25 19.43 20.14 19.83 19.40 19.16
42.17 39.08 42.60 43.39 42.85 39.70 38.80 31.82 28.30 25.10 21.83 17.47 14.39 14.48 7.18 5.72 8.50 14.42 17.35 20.65 25.58 25.80 23.06 23.73 16.22 16.96 20.84 16.11 13.43 14.73 9.62 12.84 15.81 16.83 17.66 17.34 16.80 17.20 18.80 19.26 19.26 19.23 18.88 19.29 20.56 21.61 21.11 21.39 20.66 19.25 17.30 18.75 19.28 19.21
39.83 41.51 42.85 43.38 41.23 37.78 33.69 31.17 26.21 23.60 17.95 18.61 14.97 16.30 11.68 12.48 12.81 14.92 19.09 21.76 23.25 23.44 21.13 16.97 19.44 11.79 7.71 8.74 9.92 13.30 14.10 15.36 16.04 15.69 16.09 17.00 17.35 17.53 17.85 16.98 18.06 18.58 18.39 18.37 17.96 18.35 18.80 18.60 18.22 17.53 18.15 18.02 16.70 15.88
41.27 41.74 42.30 42.22 39.69 32.37 29.14 28.06 27.78 18.01 18.31 18.43 16.85 17.73 15.17 16.77 19.95 20.24 20.59 21.63 21.15 21.18 18.46 15.80 9.02 8.55 9.14 12.86 12.81 13.44 12.62 14.29 13.62 14.52 14.97 16.30 17.36 16.81 16.64 17.14 16.91 16.35 16.82 16.51 16.17 15.01 14.82 15.51 15.67 16.25 15.52 14.40 11.83 12.68
42.30 41.75 41.24 41.77 40.26 30.22 28.11 27.23 29.02 22.75 18.78 18.55 20.67 18.02 17.97 17.26 18.41 16.17 19.08 19.91 19.25 17.31 11.23 7.69 7.74 8.13 8.84 13.67 16.23 15.23 14.64 15.17 15.50 12.80 12.95 14.91 16.05 15.26 14.45 14.98 14.59 14.98 14.56 14.25 13.99 14.34 13.58 12.65 12.95 12.28 11.37 9.96 7.95 6.64
37.56 37.08 38.99 38.26 34.90 32.37 29.56 27.49 25.09 24.72 23.79 20.89 21.73 20.60 17.90 19.57 16.64 15.83 16.42 19.69 14.69 13.53 10.68 13.21 13.41 15.98 17.69 17.71 18.48 17.75 17.43 17.43 15.45 14.78 13.08 11.87 14.63 14.35 13.50 13.77 13.63 12.58 10.75 9.55 9.36 9.48 10.39 8.92 9.30 9.18 6.53 3.50 2.68 3.11
33.10 39.01 32.08 31.82 29.91 29.22 27.38 28.86 27.02 26.75 25.34 24.40 22.97 23.58 16.79 11.33 11.51 14.52 18.14 12.70 13.15 14.18 16.16 16.23 15.94 16.10 15.60 14.82 15.40 16.52 15.56 15.70 15.38 13.88 13.41 13.59 11.15 11.38 11.49 12.35 11.38 9.69 9.20 8.12 7.47 5.85 6.76 8.45 8.08 5.33 1.84 -2.02 0.15 -0.61
35.34 33.19 27.95 26.37 22.85 21.96 22.63 28.30 23.26 26.47 18.38 18.87 20.45 17.27 13.47 10.03 16.30 19.33 9.89 14.86 15.46 17.39 15.98 15.45 16.00 17.75 16.14 16.72 16.94 16.69 16.28 14.22 11.63 11.05 10.95 9.95 9.73 9.13 9.13 9.23 8.39 5.66 5.17 5.67 6.09 3.86 2.13 0.46 -1.14 -3.56 -3.57 -3.29 -4.80 -8.54
32.17 24.39 21.10 18.84 21.33 16.13 19.53 17.91 24.65 21.22 18.18 16.30 15.31 12.49 13.48 10.81 15.13 9.99 9.18 12.41 15.78 18.05 16.68 16.26 15.82 14.06 13.93 13.00 11.72 12.82 13.49 13.00 10.71 9.69 9.45 7.78 6.02 5.96 7.06 6.85 6.54 5.00 5.12 4.99 1.82 -2.42 -2.99 -9.30 -7.69 -4.89 -10.39 -13.28 -18.36 -17.09
19.45 17.07 16.90 11.69 16.93 14.79 10.83 8.65 11.05 14.39 7.96 10.68 10.58 10.50 9.04 14.35 5.13 3.25 3.81 9.89 11.86 10.11 9.29 14.07 13.78 12.00 8.27 6.69 8.27 9.59 12.17 11.74 8.55 6.92 7.71 7.60 5.42 5.56 5.09 5.49 5.35 5.48 3.84 -2.69 -11.11 -11.31 -15.64 -14.58 -11.92 -11.18 -10.77 -15.10 -6.96 -13.28
12.47 15.98 12.24 11.94 10.75 13.49 11.08 6.70 6.16 5.96 5.40 5.70 8.27 10.19 5.74 0.63 -3.86 -0.77 8.57 6.94 5.11 6.26 -0.62 3.20 6.61 8.40 8.38 9.47 7.59 6.65 6.84 9.08 8.43 4.93 6.20 8.21 5.30 -1.41 -6.76 -6.59 -4.94 1.29 1.40 -8.77 -10.59 -13.83 -12.38 -15.46 -15.46 -13.10 -16.91 -14.55 -13.83 -17.27
6.22 9.51 19.46 20.20 19.99 17.09 9.06 9.77 13.27 8.15 3.19 3.95 3.86 -1.74 -3.41 -10.39 -10.02 5.83 12.17 12.06 9.78 7.88 11.13 10.62 11.48 9.45 7.65 7.62 8.30 7.58 7.23 7.21 5.58 5.29 6.01 5.39 4.65 3.10 -3.48 -7.88 -6.57 -0.86 -0.41 -6.56 -11.91 -11.20 -12.19 -16.91 -18.18 -18.36 -16.55 -18.72 -19.99 -19.99
15.92 12.12 5.25 4.32 6.91 10.62 -1.59 -2.23 -3.31 -1.86 3.02 12.72 4.11 -7.31 -9.11 -6.11 1.91 7.43 7.15 7.68 9.35 12.05 11.58 10.94 11.34 10.66 8.89 7.02 4.94 3.80 1.17 1.14 3.13 3.33 3.26 2.35 -0.01 -4.58 -6.94 -7.48 -5.50 0.31 -12.02 -16.55 -17.09 -18.90 -17.63 -16.19 -16.91 -18.54 -17.45 -14.55 -16.18 -20.53
6.14 8.99 8.23 -1.36 1.96 4.58 5.42 -1.14 1.21 9.66 12.38 5.13 -5.73 -4.76 2.46 10.45 5.97 6.81 9.56 7.09 8.34 9.71 6.29 4.19 -0.42 -2.59 -0.37 -0.92 -3.70 -0.83 -5.12 -4.58 -6.23 -10.38 -13.10 -14.91 -15.28 -5.86 -9.66 -13.46 -13.64 -14.37 -14.91 -10.74 -3.13 -8.03 -12.05 -14.28 -14.03 -15.30 -17.28 -18.00 -19.63 -25.97
7.09 10.71 2.79 -2.72 -0.62 1.39 -0.06 2.20 -1.50 -2.77 7.58 5.48 9.28 10.69 8.81 6.93 8.99 5.85 8.39 4.31 2.46 -2.20 -4.63 -3.77 -6.25 -7.84 -10.28 -9.83 -12.92 -9.19 -12.59 -15.64 -10.20 -5.21 -10.38 -14.91 -9.78 -10.81 -13.64 -15.64 -14.73 -16.55 -19.08 -17.09 -16.00 -13.46 -5.49 -11.49 -6.76 -11.66 -15.47 -18.73 -21.62 -21.62
11.97 5.95 3.38 4.18 3.21 2.29 1.00 -5.31 -1.71 2.35 -4.15 -3.08 -3.91 -3.70 -0.28 2.22 6.97 9.98 8.06 3.81 0.63 -2.41 -0.44 -5.67 -9.48 -13.46 -9.49 -16.36 -16.91 -16.18 -12.05 -13.48 -18.36 -15.28 -13.84 -14.55 -18.36 -18.54 -18.72 -18.90 -18.72 -19.08 -20.72 -19.08 -18.90 -20.17 -21.08 -21.98 -23.62 -21.98 -20.17 -19.08 -21.08 -23.98
1.08 -3.34 1.90 2.33 4.37 6.46 4.66 -3.32 -4.58 -6.04 -11.11 -6.58 -8.93 -13.10 -6.76 -6.95 -7.66 1.23 2.70 1.78 1.08 -4.58 -8.39 -10.56 -6.94 -6.57 -13.28 -16.18 -19.08 -18.54 -11.49 -12.02 -14.19 -13.10 -11.83 -16.73 -18.36 -19.81 -18.00 -16.36 -20.35 -20.35 -20.17 -20.17 -19.81 -19.45 -17.45 -16.36 -19.99 -22.35 -21.44 -21.08 -23.25 -24.34
3.17 4.11 3.02 3.70 2.10 1.22 2.68 3.88 2.25 -0.97 -4.76 -6.57 -2.95 -6.94 -7.30 -7.54 -6.96 -1.00 2.14 -1.72 -0.86 -0.07 -2.12 -5.37 -10.93 -11.84 -11.83 -11.65 -12.04 -15.28 -14.37 -16.73 -16.36 -2.59 -8.93 -10.20 -15.33 -15.10 -21.98 -23.80 -23.25 -22.17 -19.63 -21.26 -23.07 -21.80 -19.08 -17.45 -19.08 -19.63 -20.90 -23.80 -24.89 -25.07

GFSWCAN_sfc_wetblb_072.txt.gz
Wetbulb
45.34 45.77 46.64 46.52 46.29 46.37 46.64 46.34 45.78 45.87 45.94 45.92 46.16 46.08 46.37 46.96 47.07 45.51 42.90 45.59 39.67 34.20 37.75 40.36 39.90 36.83 36.93 35.46 30.70 34.09 34.39 33.85 31.92 27.58 27.75 27.68 24.26 27.51 27.24 31.23 30.65 29.29 28.23 30.02 31.15 28.62 25.47 39.93 42.08 37.61 40.29 41.50 42.70 45.11
45.77 46.57 46.43 46.08 46.20 46.27 46.15 46.52 46.14 45.71 45.83 45.72 45.94 46.18 46.28 46.80 46.94 46.30 39.96 44.29 44.26 38.18 37.99 41.54 42.57 43.06 42.42 40.93 37.66 37.43 34.74 33.71 33.36 28.49 27.39 27.82 23.72 23.93 28.23 24.41 33.84 27.05 30.95 29.42 30.78 30.35 37.94 39.77 39.46 43.75 44.58 43.78 43.20 45.13
46.30 46.34 46.02 46.20 46.11 46.13 46.36 46.30 46.16 46.53 45.99 46.25 45.90 45.73 45.99 46.46 46.68 45.47 42.05 42.53 41.00 34.89 36.68 37.22 36.82 40.97 45.09 44.27 44.05 36.18 36.57 39.28 35.78 36.72 31.57 30.21 25.89 28.42 23.32 25.84 29.27 32.27 36.70 33.28 32.91 34.25 37.37 39.25 41.23 43.95 45.30 45.01 45.86 47.19
46.16 46.00 45.95 45.84 45.77 45.64 45.66 45.77 45.75 46.25 46.23 46.52 46.29 45.88 45.85 46.04 46.30 45.20 41.40 43.39 40.69 37.95 31.60 32.63 41.69 39.26 43.56 44.21 44.41 43.19 41.90 43.79 42.40 40.12 32.82 28.78 27.70 33.52 26.79 30.39 29.35 32.54 34.73 33.32 33.50 36.12 38.78 39.27 40.60 43.91 44.63 46.27 47.42 48.91
45.75 45.81 45.52 45.48 45.63 45.55 45.69 45.56 44.88 45.68 46.13 46.57 46.44 46.39 46.15 46.18 46.26 44.06 44.08 43.91 43.55 36.67 30.53 30.34 40.49 40.99 42.41 42.98 43.62 42.97 43.04 41.18 39.33 36.10 31.35 28.56 32.16 33.18 31.90 32.14 29.56 35.81 33.64 31.14 29.61 37.31 37.17 38.49 41.27 42.57 42.79 43.15 45.26 45.99
45.73 45.63 45.45 45.46 45.50 45.51 45.52 44.74 45.06 45.36 45.77 46.45 46.45 46.68 46.43 46.27 45.97 42.73 36.18 43.06 43.66 40.67 34.43 29.42 38.98 39.65 41.92 44.65 43.54 41.51 41.64 41.01 40.06 37.75 33.97 36.41 38.52 34.93 25.01 26.96 35.70 37.41 38.03 38.72 37.35 38.02 38.12 39.41 41.61 41.00 41.07 42.88 42.32 40.44
45.32 45.46 45.34 45.14 45.46 45.50 45.55 45.14 44.97 45.38 45.67 46.18 46.53 46.55 46.62 45.95 44.06 38.01 35.80 40.45 45.06 44.31 35.70 24.24 32.45 39.46 41.67 42.78 41.70 41.36 42.45 41.09 39.57 36.26 35.94 35.89 35.67 37.68 32.18 30.60 33.53 35.74 36.09 36.35 39.81 38.02 37.39 38.78 39.13 38.74 38.40 40.50 38.38 35.30
44.72 44.84 45.01 44.67 45.27 45.45 45.03 45.18 45.29 45.33 45.57 46.13 46.45 46.38 46.53 46.25 44.97 41.62 43.04 45.03 44.74 39.75 37.66 27.65 31.30 35.77 41.75 35.84 35.89 40.01 38.08 38.82 38.05 35.10 33.86 32.92 35.81 35.24 31.39 29.95 32.03 33.21 33.09 35.90 34.78 36.53 38.67 39.21 37.97 34.83 34.98 34.83 32.39 30.80
44.04 44.11 44.33 44.67 44.74 44.75 44.96 45.03 45.45 45.92 46.22 46.64 45.61 45.30 44.32 42.66 39.24 40.59 45.29 45.67 45.44 39.20 31.35 31.24 28.22 29.02 38.69 35.46 36.54 35.73 37.19 32.15 36.36 32.34 30.90 35.26 30.95 25.99 26.29 28.04 28.98 29.35 29.50 30.67 33.50 35.36 36.38 35.92 35.29 31.89 30.69 29.59 27.82 26.34
43.82 43.58 44.10 44.32 44.35 44.43 44.52 44.82 45.00 45.06 44.97 44.54 42.58 37.33 32.75 41.15 45.34 44.74 39.31 36.88 36.26 37.05 34.08 30.28 31.72 30.91 35.12 32.27 31.44 32.19 30.91 30.20 29.02 32.12 34.14 25.30 24.21 27.03 28.26 27.28 27.60 28.04 29.27 31.68 30.36 31.43 31.13 31.30 31.50 29.18 27.77 27.63 27.02 25.62
44.18 43.68 43.36 43.72 44.43 44.58 44.34 44.71 44.66 44.75 44.65 40.76 36.25 33.97 41.80 45.34 40.22 35.35 30.68 31.02 31.74 28.59 31.53 31.74 29.93 30.07 32.56 28.10 30.67 29.95 30.33 26.17 25.78 27.23 29.95 23.98 20.05 24.26 26.70 25.24 26.17 26.92 28.12 28.62 29.42 28.95 28.76 28.54 27.94 26.91 25.82 25.77 25.45 24.88
43.64 43.90 43.72 42.97 42.92 43.41 44.68 44.19 44.05 41.85 40.26 40.81 40.57 41.79 38.40 33.89 30.98 29.66 28.10 29.66 28.09 27.10 30.48 31.40 31.72 31.72 33.26 32.95 29.88 31.91 25.65 30.14 24.65 28.52 22.17 14.84 21.06 23.22 24.06 24.31 23.83 24.54 25.35 25.69 26.40 25.76 26.02 25.74 25.44 24.65 23.62 23.08 22.67 22.52
43.33 43.71 43.78 43.09 41.96 41.57 41.89 42.69 43.88 44.38 42.10 38.20 32.12 26.68 26.57 21.06 13.61 13.77 16.24 23.07 23.48 26.53 27.43 30.12 30.17 31.75 33.10 34.31 30.34 31.74 28.08 26.05 26.06 17.78 13.93 16.10 21.84 22.96 23.07 23.31 22.81 23.56 24.05 23.54 23.56 24.13 23.30 22.46 23.03 22.52 21.20 21.88 21.70 20.91
42.92 43.40 43.48 43.23 41.89 41.45 40.35 39.17 39.57 37.21 32.06 25.41 21.12 10.80 11.62 10.32 15.44 17.48 18.55 18.81 25.83 22.99 22.86 24.57 31.34 31.54 31.59 29.46 27.44 26.58 23.26 23.00 15.82 10.54 9.98 17.07 21.20 22.45 23.21 23.33 22.05 21.43 22.22 21.60 21.44 21.09 20.59 20.44 19.92 20.26 19.80 19.64 18.66 17.25
42.85 42.80 43.00 42.89 42.19 40.55 39.27 38.74 36.77 31.67 26.50 19.11 17.79 9.47 11.92 17.38 19.76 20.09 21.52 23.68 24.98 26.33 26.45 29.52 29.99 27.82 23.17 20.08 20.45 20.40 15.32 10.41 12.18 9.52 15.31 18.68 20.11 20.78 20.97 21.89 21.67 21.49 20.98 20.38 20.19 19.40 19.13 18.92 18.13 17.85 18.96 19.29 18.68 17.96
42.68 41.82 40.72 43.29 40.52 39.89 37.42 34.93 32.62 30.60 24.75 19.84 17.20 12.58 14.72 14.03 14.44 14.85 16.99 18.50 24.50 23.99 29.31 29.17 25.37 20.96 18.91 19.20 14.69 12.00 11.21 6.84 9.39 12.93 16.20 17.69 17.45 18.59 18.43 19.12 18.99 19.69 20.95 20.40 20.22 20.02 19.61 18.51 17.81 17.69 18.22 17.69 17.26 17.03
41.74 38.56 42.42 43.15 42.61 38.56 37.43 29.75 27.69 23.94 20.08 16.69 13.68 14.46 9.20 11.66 9.69 13.14 15.94 18.91 23.34 25.54 21.60 21.67 14.77 15.33 20.40 14.87 10.25 12.04 7.03 10.69 14.70 15.22 16.50 16.69 16.51 17.08 18.31 18.57 18.61 18.43 18.22 18.41 19.47 19.97 19.12 19.47 18.85 17.02 14.59 16.24 17.33 17.05
39.65 40.82 42.72 43.26 40.84 35.74 31.04 28.50 24.69 21.52 15.04 13.78 9.81 13.48 13.55 11.78 13.93 13.65 18.27 20.44 22.58 22.62 20.23 16.16 18.86 11.70 9.33 9.02 9.10 12.22 13.94 15.59 15.92 15.57 15.41 16.14 16.85 16.85 17.36 16.65 17.17 17.51 17.15 16.97 16.93 17.08 17.35 16.78 15.63 15.31 15.77 15.68 14.55 14.09
41.39 41.49 42.08 42.25 37.34 31.01 26.71 25.16 24.27 15.42 14.64 14.56 15.15 15.25 13.41 13.15 17.15 19.35 19.70 21.10 21.38 21.79 19.52 15.63 9.86 8.78 9.51 13.63 12.81 13.40 14.12 14.12 12.85 13.87 14.27 14.85 15.71 15.89 16.09 16.24 15.69 15.13 15.22 15.42 15.01 13.90 13.58 14.02 13.78 13.77 13.24 12.05 9.75 10.79
42.40 40.91 40.51 40.96 38.37 29.41 26.77 24.90 26.67 20.47 14.82 16.62 20.34 17.16 16.00 16.04 18.40 14.22 17.99 19.40 18.83 16.21 10.32 6.62 5.26 5.83 6.72 10.50 12.64 13.51 14.21 16.04 15.03 12.02 11.72 13.48 14.57 14.15 13.21 13.82 13.39 14.34 13.73 13.61 13.08 13.36 12.32 10.74 10.02 8.82 8.15 7.34 5.33 4.02
36.51 36.67 38.06 36.10 31.34 30.40 27.18 24.88 22.83 21.52 21.34 18.48 20.56 19.84 17.04 18.50 15.47 14.30 14.86 18.39 13.41 12.40 9.29 12.15 12.17 14.89 16.46 16.65 17.30 17.06 16.16 16.39 14.36 13.95 12.28 10.83 13.42 13.49 12.92 13.17 12.94 12.31 10.70 10.14 9.24 9.07 8.47 6.96 6.96 6.02 3.15 1.43 1.78 2.76
32.68 37.64 30.81 30.80 28.30 27.97 25.87 27.16 24.46 25.04 23.51 22.82 21.14 21.73 15.11 10.84 11.86 14.14 17.11 11.99 11.42 11.93 14.08 14.30 14.31 14.43 13.73 12.87 13.58 14.76 14.67 14.95 14.38 12.98 12.17 12.35 10.15 10.05 9.40 10.25 9.57 7.64 7.27 6.22 6.06 3.81 4.84 5.85 3.94 1.62 -1.95 -7.30 -1.72 -2.44
34.20 31.85 27.57 27.33 23.15 22.44 24.29 28.27 22.99 25.54 17.83 19.02 20.37 15.92 12.20 11.28 15.68 18.43 9.54 14.06 14.00 16.72 16.05 15.39 15.62 16.45 14.67 15.40 15.45 14.87 14.72 13.03 10.41 9.99 9.23 8.26 7.88 7.29 6.76 5.98 4.85 1.17 0.69 2.52 4.40 1.52 -1.51 -2.71 -4.21 -6.99 -7.85 -6.31 -7.53 -11.86
30.73 21.97 16.58 14.63 20.08 14.14 17.99 16.58 23.59 20.30 17.68 16.20 14.35 11.75 9.57 9.44 13.72 8.51 7.29 10.12 14.61 17.19 15.17 15.18 14.78 12.50 12.42 11.53 9.91 10.62 11.51 11.00 8.78 7.83 7.77 6.43 4.50 4.23 5.14 4.37 3.80 2.37 2.88 2.04 -0.76 -3.71 -4.98 -14.01 -11.11 -7.78 -15.28 -17.27 -21.62 -20.72
18.80 15.60 14.85 8.60 14.76 13.38 8.96 6.24 9.56 12.30 5.75 7.88 7.46 6.94 6.30 12.47 3.69 1.34 0.31 4.64 6.22 4.85 4.12 11.15 11.63 10.53 6.94 5.67 7.67 9.01 10.80 10.34 7.11 5.47 5.99 6.17 3.75 3.81 3.88 4.33 3.25 3.44 1.95 -5.54 -13.83 -15.28 -18.00 -18.90 -18.36 -17.45 -15.46 -19.45 -9.49 -16.91
12.16 14.47 11.45 12.08 9.92 11.21 9.49 3.91 3.12 5.11 5.37 3.85 4.67 5.82 3.46 0.07 -3.68 -3.31 6.23 1.37 0.49 2.27 -4.40 -0.15 4.25 7.22 7.41 8.49 6.36 5.38 5.81 8.01 7.42 3.87 4.66 6.59 3.34 -4.14 -8.02 -7.30 -5.31 -0.85 -2.01 -10.21 -12.76 -16.18 -15.46 -18.36 -18.00 -15.10 -18.00 -14.37 -14.73 -19.99
6.38 7.89 16.75 17.56 18.40 15.34 7.36 7.87 11.45 6.22 0.85 3.88 4.19 -3.69 -4.53 -10.76 -11.11 3.29 10.29 7.36 7.29 5.20 8.55 8.47 10.24 8.79 7.17 6.41 6.62 5.93 5.49 5.30 4.27 3.92 4.90 4.23 3.18 2.02 -4.66 -9.70 -7.84 -2.88 -2.14 -8.68 -14.92 -14.02 -13.67 -18.18 -19.63 -19.08 -19.08 -22.35 -23.80 -22.89
14.06 11.37 5.32 2.17 4.86 8.45 -2.96 -3.13 -5.12 -3.49 3.40 10.14 2.58 -9.13 -10.02 -7.64 0.60 7.22 7.14 7.48 7.67 10.83 9.40 8.53 8.82 8.44 6.82 5.07 3.18 2.02 -0.47 -1.39 1.19 0.79 0.96 0.68 -1.29 -5.49 -8.93 -10.38 -8.21 -1.14 -14.91 -18.90 -19.28 -20.35 -19.08 -17.63 -18.54 -20.72 -20.53 -17.09 -18.54 -24.89
4.45 6.39 5.67 -5.14 -0.37 1.74 2.40 -3.86 -0.06 8.00 10.36 2.62 -7.36 -5.85 1.20 8.25 5.05 6.05 8.79 6.10 6.95 8.45 4.33 1.82 -3.31 -4.58 -1.91 -2.48 -6.21 -5.12 -6.94 -7.31 -7.98 -11.83 -14.19 -15.28 -17.27 -8.59 -12.01 -14.91 -15.10 -15.82 -18.54 -12.56 -4.94 -12.19 -13.84 -16.19 -16.36 -18.00 -18.54 -19.99 -22.17 -28.15
5.58 8.67 -0.31 -6.65 -4.13 -1.50 -2.41 1.23 -1.19 -2.26 5.75 4.40 8.87 10.03 7.19 5.67 7.85 4.40 4.44 2.80 1.18 -4.04 -8.39 -7.66 -12.38 -12.21 -12.38 -12.38 -12.38 -7.48 -11.66 -14.73 -10.38 -4.46 -8.93 -12.74 -10.48 -14.05 -16.00 -14.37 -15.82 -19.45 -22.71 -19.81 -17.45 -14.68 -6.41 -14.01 -7.48 -15.46 -15.82 -19.63 -23.80 -23.43
9.13 2.31 0.44 1.71 0.65 0.91 -0.47 -8.04 -8.02 -1.43 -7.17 -5.03 -6.94 -4.60 -1.75 0.09 4.67 5.22 1.19 -5.67 -6.58 -5.87 -4.48 -10.93 -12.56 -18.72 -14.09 -18.36 -17.64 -16.36 -11.71 -15.29 -21.62 -18.00 -16.56 -19.45 -21.44 -20.17 -19.81 -21.26 -21.98 -22.17 -22.53 -21.26 -21.26 -21.44 -23.07 -23.80 -25.61 -23.98 -22.53 -20.72 -22.53 -25.79
-0.45 -3.88 1.19 0.78 2.29 3.07 0.91 -7.84 -8.57 -8.21 -11.83 -7.13 -10.74 -15.82 -10.20 -8.06 -9.11 -0.89 0.06 -1.06 -2.78 -4.76 -7.66 -11.29 -11.29 -7.48 -10.93 -16.01 -19.99 -19.26 -14.02 -15.28 -16.91 -18.00 -16.18 -18.90 -19.81 -21.98 -21.08 -18.72 -22.35 -22.89 -22.17 -22.35 -21.80 -21.62 -20.35 -20.17 -22.53 -24.16 -23.62 -22.35 -24.16 -25.25
0.52 0.77 -0.01 0.26 -1.50 -1.50 -0.26 0.88 0.00 -2.61 -5.31 -8.02 -8.02 -12.56 -14.19 -10.27 -7.37 -2.06 -0.54 -5.12 -3.38 -3.94 -6.23 -7.49 -11.84 -17.09 -15.10 -16.73 -16.36 -18.90 -17.45 -19.45 -17.81 -3.49 -10.74 -11.65 -16.55 -16.91 -24.70 -26.70 -26.15 -24.34 -21.44 -22.89 -25.61 -23.80 -21.08 -19.45 -21.44 -22.89 -23.98 -26.15 -24.89 -26.15

GFSWCAN_sfc_wetblb_075.txt.gz
Wetbulb
45.48 45.29 45.30 45.76 46.43 46.17 46.34 46.68 46.64 46.80 46.61 46.08 45.91 45.47 45.71 45.75 46.04 44.00 41.45 45.33 40.62 34.20 38.08 40.44 40.57 37.92 37.22 35.82 31.79 34.97 34.23 34.44 34.28 30.06 29.56 28.73 27.87 30.52 29.62 32.35 32.94 31.25 29.81 29.59 30.79 28.27 26.20 41.44 42.95 37.94 42.37 45.47 44.51 45.57
44.91 45.10 46.24 46.29 46.03 46.08 46.33 46.50 46.33 46.34 46.61 45.99 45.94 45.24 45.55 46.22 46.17 45.78 40.66 45.34 44.94 38.76 37.88 42.36 43.19 43.59 42.54 41.12 37.66 37.75 36.05 34.86 35.52 32.15 31.62 31.93 29.04 29.84 30.60 26.81 35.42 31.25 35.37 34.05 34.70 34.37 40.81 43.40 42.88 44.80 46.41 45.02 45.59 45.69
44.81 46.16 45.95 45.98 45.78 45.97 46.08 46.06 46.08 46.22 46.36 45.89 45.92 45.42 45.22 45.69 46.50 45.95 40.90 44.15 41.21 34.52 36.37 37.25 38.31 42.96 45.16 44.68 45.39 36.05 37.59 40.09 37.38 39.05 34.82 33.04 29.13 31.87 28.93 30.40 33.25 35.98 38.35 35.45 35.11 38.76 40.19 41.10 43.06 44.15 44.38 43.91 45.13 46.02
45.97 45.97 45.77 45.95 45.90 45.71 45.78 45.67 45.67 45.73 46.03 45.97 45.85 45.40 45.07 45.22 45.19 44.96 41.90 43.41 40.39 37.49 32.51 34.47 41.96 40.32 45.11 44.76 44.99 44.16 42.79 44.10 42.80 41.66 35.78 32.91 31.86 35.30 31.52 33.50 33.00 35.63 37.36 36.07 35.70 38.74 40.12 42.30 42.31 42.45 42.21 44.21 43.96 44.21
45.79 45.73 45.44 45.40 45.51 45.61 45.75 45.79 45.77 45.33 45.85 46.09 46.01 45.57 45.47 44.89 45.83 44.34 43.45 43.10 43.76 37.59 30.68 32.74 39.86 41.37 43.10 43.20 42.29 43.75 43.09 41.01 40.28 37.99 35.30 34.08 35.37 36.54 35.30 35.48 34.06 37.77 36.13 34.69 33.69 36.86 36.53 38.37 41.86 41.89 39.80 41.06 41.09 38.53
45.28 44.98 45.25 45.50 45.49 45.47 45.56 45.34 45.21 45.08 45.74 46.20 46.13 45.83 45.50 45.30 44.78 41.94 35.09 42.43 44.47 43.57 35.67 29.56 38.91 39.01 40.09 41.14 41.27 41.34 42.05 40.90 40.48 38.24 36.00 37.87 39.72 37.46 32.47 31.15 35.90 37.90 38.19 37.98 36.38 39.41 39.26 40.31 41.86 39.37 37.73 37.67 38.45 35.69
44.96 45.04 45.03 44.90 45.19 45.28 45.35 45.31 45.19 45.38 45.76 46.16 46.11 45.87 45.50 45.21 42.68 38.33 35.83 41.14 44.15 43.96 35.01 29.48 32.02 38.77 40.03 41.02 41.86 41.74 43.02 41.68 39.93 38.59 37.01 37.06 37.23 39.16 33.37 29.32 33.62 34.67 34.14 35.13 37.92 37.12 38.30 39.36 38.24 36.94 35.76 35.40 35.66 33.32
44.95 44.89 44.54 44.55 44.82 45.09 45.09 45.19 45.39 45.57 46.04 46.18 45.85 45.66 45.34 44.88 44.38 40.83 42.91 44.73 44.27 39.95 37.92 27.65 28.49 34.88 40.94 36.91 35.23 40.60 37.63 38.72 38.24 36.05 36.38 35.75 37.61 36.90 30.65 29.53 31.00 30.40 31.34 34.23 32.22 34.59 35.41 38.30 37.74 34.39 33.18 32.76 31.06 27.86
44.11 44.56 44.29 44.43 44.50 44.44 45.35 45.07 45.38 46.01 46.17 46.40 45.99 45.37 43.63 41.42 38.38 40.81 45.45 45.45 45.47 39.45 30.98 29.46 26.50 28.68 39.45 36.34 36.83 34.61 37.67 32.00 37.18 32.53 33.93 36.25 32.92 27.61 25.74 26.28 26.88 27.74 27.58 28.26 31.47 33.40 34.82 34.17 33.51 30.95 30.65 28.93 28.39 26.25
43.54 43.68 43.90 44.47 44.49 44.62 44.50 44.15 45.89 45.59 44.52 44.18 41.41 36.90 33.11 40.36 45.49 44.41 39.77 36.59 36.80 37.21 35.43 30.26 32.66 31.05 35.59 34.06 32.92 32.89 33.70 31.94 29.60 32.62 34.72 30.14 23.57 26.07 26.31 26.36 26.40 26.26 27.35 28.54 27.28 28.26 27.99 28.46 29.61 28.11 27.08 27.32 26.62 25.64
43.93 43.28 42.83 42.80 44.41 44.25 44.43 44.60 44.72 45.05 44.71 40.65 36.37 35.53 41.87 44.63 39.40 36.33 31.79 30.72 32.47 30.04 30.98 32.03 31.70 30.99 34.98 31.96 31.28 32.53 31.95 30.80 25.97 29.75 30.63 24.34 20.24 22.06 25.07 24.89 25.18 25.26 25.98 26.71 27.54 27.89 27.46 27.06 26.25 26.06 24.85 24.85 24.15 23.47
43.71 43.61 42.51 42.15 42.80 44.09 44.77 44.78 44.48 41.94 41.26 40.70 39.77 39.46 37.09 32.30 30.79 28.55 27.59 28.99 29.67 27.50 30.78 32.06 32.12 33.50 33.07 34.84 33.19 32.41 29.34 30.30 24.39 28.22 23.10 15.23 20.06 22.88 23.32 23.29 23.46 23.95 24.76 24.70 25.34 24.78 24.95 24.91 24.71 23.67 23.06 21.95 21.46 21.20
43.46 43.41 42.49 41.87 41.38 41.26 42.27 43.21 42.33 43.01 40.28 35.12 30.22 25.42 26.31 21.93 14.74 14.62 17.25 21.97 23.44 26.15 27.21 30.16 30.58 32.13 33.62 34.41 32.45 31.84 24.95 22.59 25.22 17.84 13.11 16.19 21.33 22.39 22.32 22.75 22.39 23.36 23.46 22.59 22.34 23.09 22.37 21.39 21.72 21.13 19.82 20.40 19.85 18.61
42.96 43.09 42.44 41.42 41.09 39.49 39.72 39.61 39.58 36.25 31.05 24.39 19.74 10.42 11.04 9.86 15.29 17.03 17.76 20.41 25.31 25.83 25.67 27.76 31.56 29.80 29.68 26.97 25.47 22.89 21.53 22.92 14.84 10.46 10.02 16.16 19.57 21.41 22.30 22.79 21.13 20.20 20.40 20.20 19.81 19.77 19.12 18.81 18.84 19.24 18.86 18.33 16.93 15.59
42.79 42.67 42.52 40.94 40.99 39.82 38.86 37.57 35.59 30.71 26.09 18.24 17.49 9.63 12.93 17.00 18.99 19.00 20.27 21.94 24.40 26.00 27.33 30.68 27.36 26.88 22.46 19.60 20.57 20.85 15.58 10.85 11.61 10.03 14.58 17.63 19.50 19.81 19.66 20.56 20.55 20.07 19.81 19.42 19.45 18.61 18.20 17.95 17.49 17.26 17.83 17.77 17.42 16.42
42.51 41.44 40.24 42.80 39.38 38.45 36.72 34.47 31.76 29.67 24.59 18.92 15.76 13.57 14.89 14.79 15.06 15.46 16.89 18.32 23.14 22.97 28.52 27.34 23.85 19.57 17.80 17.09 13.18 11.09 10.86 7.65 10.41 13.88 17.00 18.26 17.97 18.64 18.96 19.59 19.46 20.59 20.17 19.67 19.60 19.15 18.59 17.60 16.87 16.76 17.36 16.78 15.96 15.30
41.68 36.30 42.33 42.89 39.12 37.26 36.18 30.35 27.71 23.29 19.90 16.99 13.83 16.17 12.47 13.68 13.24 14.55 16.14 18.53 22.64 24.71 21.06 21.58 15.18 15.00 20.17 14.04 9.81 12.33 9.56 12.64 15.10 15.54 16.73 17.21 16.73 17.33 18.58 18.73 18.40 18.34 17.95 18.51 19.00 18.77 18.06 18.39 17.70 16.28 14.35 15.53 15.90 15.50
37.81 38.42 42.65 42.62 38.80 33.99 29.85 28.17 24.20 20.23 14.77 15.17 12.82 14.84 16.16 14.64 14.16 14.04 17.28 20.45 22.03 22.27 21.05 17.10 19.27 12.80 11.10 10.05 9.81 12.73 14.45 15.21 15.72 15.14 15.33 16.30 16.88 16.92 17.45 16.36 16.75 17.24 16.81 16.46 16.39 16.43 16.70 15.97 14.88 14.76 14.85 14.59 13.65 12.97
40.05 39.75 41.33 40.54 35.81 29.78 25.87 24.36 23.80 14.69 16.13 16.36 17.08 17.83 16.27 14.50 17.38 19.50 20.10 21.50 22.21 22.64 20.11 16.99 11.74 9.80 9.97 13.60 13.38 14.37 15.00 15.15 13.33 13.88 14.39 15.03 15.74 15.77 16.00 16.16 15.96 15.19 15.07 15.09 14.60 13.29 12.74 12.94 13.18 13.64 13.12 12.56 10.86 11.32
41.61 40.32 40.33 40.00 36.87 28.56 25.25 23.64 26.17 19.47 14.81 17.87 20.26 17.57 16.60 16.75 18.93 16.26 18.27 19.88 18.17 15.57 10.52 8.26 7.93 10.12 11.68 13.98 15.40 14.96 15.61 16.38 15.03 12.38 11.96 13.69 14.95 14.36 14.00 14.65 14.31 14.85 14.29 13.71 12.96 13.36 12.21 10.60 10.04 9.25 9.14 8.99 8.25 6.58
36.62 36.40 36.87 34.08 30.26 29.22 26.16 23.99 21.14 20.86 20.34 18.29 20.22 19.57 16.93 18.04 16.08 15.06 15.04 17.73 13.05 11.75 9.54 12.40 12.37 14.27 15.88 16.09 17.54 17.81 17.06 17.44 15.12 14.86 12.60 11.45 13.69 13.86 13.41 13.56 13.37 12.98 11.74 11.23 10.36 8.91 8.49 7.62 7.69 7.26 6.37 5.10 5.49 6.20
32.18 36.05 29.51 30.57 27.40 26.86 24.98 25.68 23.31 23.74 22.44 21.06 20.28 19.69 14.15 10.34 11.63 14.02 16.88 11.57 10.99 12.06 14.17 13.90 14.12 14.49 13.38 12.57 13.46 14.85 14.64 14.55 14.01 13.25 12.77 13.00 11.00 10.62 9.83 10.98 10.68 8.77 8.18 8.00 7.74 6.22 5.73 5.81 5.16 4.18 2.97 2.66 3.11 3.31
33.43 31.10 26.60 26.44 20.89 19.79 23.26 29.28 22.88 24.52 16.65 18.38 20.07 14.77 12.93 12.43 15.54 18.00 10.98 13.11 13.32 16.20 15.96 15.49 15.59 15.99 14.51 15.10 15.12 14.69 14.41 12.91 10.93 10.21 9.64 8.48 8.15 7.85 7.28 6.92 7.15 6.00 5.57 5.57 6.61 5.31 3.30 -0.42 -0.97 1.26 1.48 1.58 1.39 0.24
29.97 20.86 15.59 15.18 20.05 12.35 16.57 14.05 22.75 19.60 18.73 17.55 15.45 11.52 10.53 10.60 13.79 9.67 7.64 10.36 14.28 16.68 15.50 15.18 14.41 12.67 12.56 11.73 10.28 10.81 11.18 11.17 9.49 8.78 9.18 8.03 6.47 5.91 6.79 6.16 5.68 5.40 5.84 5.01 3.74 2.55 1.20 -0.27 -3.16 0.55 -0.87 -1.61 -2.56 -1.53
17.93 13.98 14.19 9.34 15.49 14.23 10.11 8.17 11.27 12.73 8.28 9.66 9.23 6.53 6.45 12.26 4.44 2.48 3.47 8.88 11.43 10.95 10.48 13.10 12.60 11.61 8.48 8.21 9.41 9.49 10.99 11.17 8.65 6.72 7.50 8.22 6.43 6.26 5.60 5.64 4.93 4.95 4.39 2.76 -0.78 -0.88 -3.32 -4.11 -3.02 -1.22 -1.61 -0.48 -0.02 -1.91
10.37 12.11 10.46 10.23 7.89 11.43 9.13 5.35 3.40 5.26 5.49 3.57 4.09 5.26 4.22 1.70 -1.00 -1.51 7.70 7.26 7.86 8.24 4.28 6.26 8.68 8.89 8.22 9.29 7.82 7.64 7.67 9.95 9.21 6.32 6.28 8.01 6.39 4.52 2.62 2.52 3.31 4.17 2.32 1.73 -0.06 -0.31 -1.74 -4.13 -2.37 -1.89 -2.09 -4.16 -10.03 -3.38
5.86 5.84 14.38 15.65 16.47 13.27 5.79 6.90 10.76 6.16 0.85 1.57 1.95 -2.51 -1.99 -5.55 -6.59 4.53 11.11 10.27 10.50 9.10 10.10 10.74 12.22 10.49 8.26 6.78 6.61 6.12 6.16 6.43 6.40 5.63 5.64 4.90 4.43 4.65 3.51 2.41 1.59 3.76 2.74 0.79 -0.06 0.59 0.48 -1.74 -2.53 -2.66 -2.04 -3.88 -4.46 -4.52
8.53 8.85 2.60 0.01 2.31 6.69 -2.65 -2.43 -2.60 -2.96 5.55 9.04 3.00 -7.36 -6.58 -4.98 2.30 9.17 9.59 9.27 9.49 10.00 8.42 7.75 8.64 8.89 7.36 5.15 4.37 3.81 2.83 2.82 3.50 3.90 4.67 4.19 2.40 0.70 -0.73 0.04 0.88 -0.42 -3.37 -3.78 -2.42 -3.93 -1.76 -1.48 -1.68 -2.63 -2.68 -0.64 -1.59 -7.67
4.18 4.48 4.15 -6.43 -2.20 -0.28 0.78 -3.35 1.49 7.57 9.09 2.79 -4.90 -2.78 2.52 7.14 5.68 8.28 9.09 8.83 9.37 8.73 5.50 3.51 0.09 0.72 0.83 0.42 -1.52 0.55 1.61 2.15 2.66 -2.98 -3.51 -1.53 -2.37 1.50 -2.37 -2.24 -1.31 -2.22 -2.62 1.47 -2.68 -3.21 -2.12 -2.24 -2.79 -2.67 -3.43 -2.66 -4.30 -8.91
2.56 6.65 -1.58 -8.14 -5.74 -2.60 -3.51 2.06 -0.12 0.36 5.08 5.72 8.90 8.92 6.54 6.20 8.17 8.90 7.39 7.09 5.40 1.94 -1.67 -0.61 -4.05 0.25 -0.60 0.42 -1.51 -1.01 -3.72 -4.59 -1.25 1.16 -0.98 -1.20 0.00 -1.72 -3.32 -1.69 -1.69 -4.41 -5.86 -2.24 -0.40 -0.60 -2.52 -2.01 -1.54 -5.06 -4.67 -4.80 -4.78 -4.97
7.29 2.36 -1.53 -0.77 -1.87 2.30 -0.56 -7.15 -8.22 -1.52 -5.03 -2.97 -3.10 -1.68 0.37 3.20 6.38 5.31 1.99 -2.74 -2.89 -4.13 -1.24 -2.79 -5.23 -8.29 -4.10 -5.68 -2.58 -3.76 -2.09 -3.83 -12.39 -9.13 -6.51 -5.99 -6.64 -4.59 -3.88 -5.68 -6.95 -7.13 -5.68 -3.69 -3.88 -3.69 -4.81 -5.72 -5.63 -5.65 -5.47 -4.79 -6.58 -10.05
-2.04 -5.35 -1.08 -2.09 0.10 0.35 -0.88 -8.22 -8.58 -5.70 -8.22 -2.80 -5.86 -10.03 -5.25 -2.94 -4.59 3.08 2.66 -0.08 -2.37 -1.67 -4.96 -4.30 -1.15 2.07 -4.57 -5.36 -9.03 -8.11 -11.14 -4.79 -5.50 -7.13 -6.59 -6.04 -4.96 -7.86 -8.04 -7.17 -10.03 -8.40 -6.41 -6.59 -7.31 -7.13 -7.49 -6.04 -6.04 -6.59 -6.77 -6.95 -8.22 -9.67
1.04 -0.95 0.65 1.46 0.61 -1.15 -1.16 -0.74 -0.45 -2.64 -5.32 -4.96 -5.68 -9.49 -9.85 -4.58 -3.96 1.31 0.57 -1.52 2.96 3.80 0.08 -1.76 -3.56 -6.96 -6.61 -8.24 -5.56 -8.40 -10.76 -7.49 -10.58 -1.15 -8.58 -8.76 -12.75 -9.67 -10.17 -10.52 -10.27 -9.34 -7.92 -7.49 -8.40 -8.58 -8.06 -8.30 -6.95 -8.23 -8.97 -11.04 -11.27 -11.50

GFSWCAN_sfc_wetblb_078.txt.gz
Wetbulb
45.06 45.48 45.06 45.22 45.58 46.02 46.49 46.77 46.78 46.54 46.58 46.78 47.00 46.54 46.24 46.43 46.13 43.73 41.50 46.41 40.36 34.61 37.90 41.37 41.26 38.33 39.03 38.78 33.91 37.16 35.51 35.90 34.58 31.53 31.69 31.87 31.47 34.02 32.79 35.40 33.23 32.43 31.27 30.91 32.03 29.09 27.33 44.67 43.82 38.44 42.82 46.17 46.94 47.65
45.05 44.91 45.42 46.22 46.15 46.27 46.40 46.52 46.45 46.52 46.57 46.73 46.75 46.59 46.11 45.97 46.29 45.47 38.84 44.98 45.28 38.05 38.43 44.48 45.07 45.67 44.31 42.99 39.61 38.78 37.09 37.59 38.34 34.66 35.68 35.96 33.10 35.98 33.68 30.02 38.71 32.64 37.23 34.75 36.44 36.32 44.00 45.64 44.62 47.08 47.57 46.36 47.14 47.75
44.67 45.73 46.20 46.08 45.95 46.08 46.15 46.03 46.06 46.15 46.45 46.64 46.69 46.70 46.17 46.06 46.27 45.19 41.19 42.97 41.56 37.25 37.29 39.50 38.51 44.53 47.10 46.48 47.22 37.76 38.99 41.68 41.13 43.86 40.09 37.94 32.73 37.04 31.84 33.40 36.10 39.25 42.45 38.32 37.59 41.59 42.99 44.44 46.34 46.97 46.74 46.10 47.61 47.23
45.57 45.86 45.70 45.82 45.98 45.90 45.99 45.84 45.87 45.99 46.04 46.24 46.54 46.33 45.87 45.85 46.13 45.55 41.76 43.49 41.60 37.96 33.72 36.10 44.74 41.84 46.31 47.10 45.97 45.40 43.68 44.80 44.06 43.23 39.22 37.30 34.30 39.95 35.98 37.44 36.90 39.81 40.79 38.19 38.50 41.53 43.02 44.46 45.06 45.31 45.12 46.50 45.79 45.16
45.79 45.38 45.19 45.24 45.26 45.40 45.56 45.93 45.81 45.86 45.79 46.38 46.20 46.02 45.47 45.52 46.25 44.81 44.25 44.54 45.71 40.71 34.40 36.06 41.19 43.68 45.44 45.44 44.40 44.72 43.10 41.75 40.79 38.09 36.92 36.30 40.49 39.42 40.59 39.87 36.98 41.39 39.30 37.32 36.18 41.19 40.32 41.63 44.42 43.05 43.16 43.51 43.43 42.00
45.26 45.14 44.89 44.90 45.19 45.27 45.47 45.45 45.59 45.70 45.56 46.04 46.15 45.85 45.42 45.40 45.59 42.36 34.66 43.27 45.47 45.99 37.83 32.24 41.80 40.90 42.75 44.09 42.82 42.58 42.03 41.59 40.56 38.72 38.21 41.55 41.94 40.73 35.81 34.25 39.39 41.22 41.30 40.52 38.76 40.69 41.25 43.45 44.65 42.75 41.37 41.22 40.98 40.10
44.99 44.98 45.06 44.85 44.92 45.27 45.30 45.36 45.31 45.42 45.65 46.09 45.68 45.35 45.07 44.44 42.80 39.53 38.60 40.67 45.47 46.49 37.47 33.91 33.77 40.77 42.29 42.13 42.21 41.75 42.85 41.13 39.89 37.62 38.05 40.17 40.63 40.46 37.86 33.59 34.22 34.21 35.09 37.23 35.78 36.44 38.69 38.17 36.43 38.84 39.02 38.51 38.24 36.71
44.76 44.59 44.86 44.76 44.74 45.24 45.06 45.06 45.57 45.67 45.88 45.75 45.20 44.32 44.76 45.40 44.89 42.45 43.95 45.15 46.07 41.58 39.87 32.97 33.47 37.08 41.95 37.65 37.37 42.57 39.08 40.09 39.21 37.52 38.80 38.79 40.82 40.53 33.47 30.15 30.94 31.33 32.45 34.13 32.90 34.35 34.46 36.92 36.74 33.59 33.76 33.02 32.31 30.09
43.97 43.87 43.40 44.05 44.37 45.47 45.42 45.61 45.71 46.11 45.79 45.22 44.83 44.78 43.02 41.33 38.26 41.34 44.72 45.24 48.04 41.77 33.82 32.53 31.95 30.35 41.65 38.18 38.06 37.37 38.60 33.58 38.35 34.63 36.73 38.15 35.72 30.21 25.67 26.26 27.05 27.94 28.48 29.21 31.51 34.59 34.19 32.56 31.76 30.97 30.27 28.97 28.22 27.47
43.51 42.67 43.32 44.59 44.27 44.61 44.87 45.44 45.59 45.17 45.27 44.35 42.18 38.35 33.04 40.67 45.10 44.67 41.14 37.62 38.72 38.76 39.82 34.86 38.78 32.23 38.17 36.04 34.65 35.75 35.53 34.82 31.83 34.38 36.95 34.63 25.13 26.27 26.89 27.21 27.21 27.24 27.52 28.50 27.03 28.88 28.85 30.02 29.69 29.47 28.28 28.23 27.86 26.20
42.73 42.67 42.81 44.28 44.77 44.51 44.56 44.45 44.37 44.39 44.79 41.09 38.03 36.22 42.22 45.15 42.15 38.45 33.90 33.85 33.48 31.53 34.69 36.04 36.40 33.40 36.59 34.29 33.72 34.59 34.44 34.07 30.18 31.39 33.40 28.52 24.38 23.89 26.44 25.85 26.89 27.42 27.62 27.61 27.93 28.37 28.07 27.57 27.59 26.59 25.89 25.68 24.70 23.34
42.11 42.03 41.85 42.21 43.92 44.75 44.96 44.71 44.61 44.65 43.55 42.60 40.10 40.10 38.07 35.17 35.97 32.49 31.36 32.96 32.45 29.57 34.11 34.05 33.97 35.87 34.28 38.56 37.53 35.27 32.50 32.91 26.79 31.56 30.05 22.97 22.50 24.49 25.48 25.11 25.33 26.24 26.14 25.55 26.22 25.47 25.56 25.63 25.56 25.07 23.99 22.62 21.64 20.76
42.56 41.15 41.47 41.19 42.44 42.88 42.34 42.76 42.75 41.64 42.55 39.75 34.87 29.52 31.71 26.84 23.64 24.59 23.63 26.96 27.86 29.63 31.30 34.11 32.66 35.67 36.79 38.34 35.03 33.88 29.57 26.34 31.97 26.41 21.00 19.92 22.40 23.87 24.36 25.05 24.38 25.07 25.00 24.19 23.70 24.26 23.66 22.90 23.66 22.88 20.83 21.09 20.84 19.89
42.83 41.44 41.49 41.01 40.47 39.93 39.22 38.54 38.83 38.78 37.00 29.76 26.89 19.68 23.02 20.39 22.04 22.80 24.72 25.91 28.19 28.97 30.52 33.01 33.54 32.61 33.70 30.25 28.64 26.58 26.36 28.56 22.65 19.37 15.99 20.67 21.15 22.14 23.31 23.72 23.14 21.42 21.50 21.26 21.18 21.03 20.10 20.04 19.58 19.60 19.39 19.66 18.13 17.20
42.74 42.65 41.25 40.75 39.95 38.82 37.95 37.37 36.35 35.79 30.92 24.76 25.26 18.23 19.87 22.68 24.28 24.14 25.17 27.12 26.66 27.23 30.45 33.16 32.09 32.44 27.61 25.23 26.16 25.27 20.84 17.38 18.15 17.78 19.88 21.13 21.82 22.24 22.16 22.61 21.79 21.21 20.78 20.73 20.62 19.59 19.08 19.02 18.23 17.64 18.41 18.59 17.94 17.21
42.45 42.37 39.79 39.30 39.10 37.78 37.01 36.72 35.28 33.38 28.03 23.27 21.19 20.98 23.13 24.39 22.65 23.40 23.73 25.45 26.75 26.59 32.84 32.71 27.85 24.64 21.54 21.66 19.01 16.48 16.69 15.06 16.53 19.49 21.12 21.97 20.38 20.71 20.89 21.06 21.49 21.98 21.65 20.83 20.46 20.04 19.36 18.14 17.41 17.33 17.46 16.89 16.65 16.30
42.23 41.79 42.39 37.83 37.14 36.43 36.39 34.01 31.10 24.95 22.68 20.67 19.23 22.03 21.34 21.81 19.96 20.84 21.87 23.06 26.59 29.23 27.13 27.31 21.43 19.07 23.93 18.46 13.63 17.11 15.48 17.41 19.13 18.84 19.90 19.93 19.64 19.64 20.39 20.18 20.10 20.32 20.07 20.26 19.87 19.55 18.90 19.41 19.13 17.37 14.87 15.88 16.04 15.74
41.83 43.47 41.57 42.15 38.86 35.58 32.44 31.31 26.70 23.16 17.94 21.05 19.02 19.66 21.18 21.48 21.74 22.14 24.00 25.83 27.99 26.63 25.48 20.91 23.81 18.02 16.03 13.04 14.82 16.37 16.92 17.91 18.60 18.31 18.92 19.46 19.54 19.56 20.30 19.72 19.61 19.95 19.28 18.47 18.99 19.01 18.97 18.27 17.25 16.09 16.25 16.11 15.23 14.74
42.07 41.94 41.34 40.05 39.35 34.44 28.34 26.88 27.41 18.72 19.77 21.99 22.53 23.22 22.92 22.59 23.48 23.90 24.85 25.62 25.70 26.00 24.01 21.19 16.41 15.00 14.84 18.05 17.89 18.73 19.41 19.68 18.17 18.39 18.27 18.66 19.24 18.69 18.78 18.85 18.72 18.60 17.88 17.93 17.67 15.88 15.24 15.63 16.40 16.65 16.59 16.91 14.97 14.82
40.26 40.19 39.59 39.58 39.31 32.09 25.59 25.04 29.95 22.76 20.15 21.73 23.63 21.66 22.25 21.69 22.72 23.03 22.53 22.71 21.95 20.08 16.09 14.11 14.00 15.66 17.60 19.31 21.64 20.89 20.77 21.22 20.71 18.43 17.87 18.81 19.56 18.87 18.78 19.50 19.11 19.13 18.16 17.49 17.00 17.21 16.45 15.12 14.86 14.63 15.30 15.18 13.77 12.32
39.80 39.18 38.13 39.51 36.36 33.37 29.01 26.39 24.24 24.70 23.80 22.30 23.82 23.77 21.15 22.53 20.75 19.84 18.84 21.26 17.72 15.56 14.08 16.70 16.97 17.90 20.11 20.64 22.19 22.48 21.35 22.44 21.14 21.57 19.18 17.29 18.42 19.46 18.70 18.84 18.67 18.28 17.42 16.96 15.27 13.91 14.10 13.66 13.85 14.21 13.87 13.06 12.88 12.16
38.43 36.55 38.19 37.78 32.28 30.76 28.65 30.00 26.63 27.61 25.69 24.06 23.66 23.02 20.00 19.14 19.30 18.26 20.64 16.98 15.15 15.83 17.96 18.12 18.46 19.12 18.03 17.36 18.13 19.34 18.89 19.26 18.68 18.23 17.30 17.73 17.16 16.66 15.79 16.55 16.70 14.53 14.18 14.12 13.81 12.52 11.94 12.11 12.82 12.65 11.95 11.21 11.59 11.19
36.60 36.62 34.13 32.81 28.44 28.10 25.36 31.75 26.03 26.03 21.55 22.14 22.83 18.18 17.75 18.37 19.34 22.62 16.14 16.37 16.23 19.03 19.39 18.71 18.37 19.02 17.81 18.19 17.91 17.64 18.08 18.02 17.24 16.53 15.87 15.44 15.26 15.42 15.14 14.68 15.65 14.54 12.96 12.58 13.88 12.60 9.76 7.64 8.69 10.23 10.47 10.78 10.25 8.94
32.66 26.39 24.94 26.37 27.62 22.41 26.65 23.86 25.97 23.60 23.56 21.03 18.52 14.63 15.26 17.73 19.60 16.86 12.57 15.29 17.18 19.02 18.47 17.67 18.62 17.18 17.06 16.63 16.35 15.77 16.12 17.28 15.90 15.38 16.09 15.60 13.89 12.91 13.90 13.29 13.17 13.18 13.39 13.45 12.69 11.31 10.64 9.14 7.74 9.81 8.62 8.47 7.84 8.00
25.45 19.06 23.03 19.38 23.92 21.46 19.98 19.46 18.98 19.44 16.75 17.46 15.53 15.22 15.27 18.72 13.97 12.77 11.50 14.80 17.09 17.91 17.99 18.84 18.77 18.46 16.50 15.43 15.80 15.11 15.19 17.19 15.92 13.34 14.02 15.11 14.00 13.62 12.77 12.42 11.92 11.76 13.51 12.67 11.04 10.33 8.84 9.01 9.34 8.99 8.59 8.79 6.70 5.38
15.80 16.96 18.81 18.57 20.16 20.25 19.37 16.27 16.69 16.72 17.00 14.47 13.74 14.18 16.59 15.21 11.86 10.34 13.83 16.61 17.43 17.55 17.68 18.12 17.65 16.11 15.63 16.90 15.11 14.84 14.21 16.64 16.51 14.12 12.86 14.42 14.02 14.57 13.04 11.31 11.06 10.35 12.34 13.03 11.33 9.92 8.28 8.02 8.25 4.97 6.97 3.84 -0.06 3.60
14.31 14.39 17.36 18.35 20.41 19.02 17.59 18.34 19.50 18.56 15.27 13.50 14.15 12.13 13.07 9.10 8.40 11.31 15.53 17.75 17.76 17.99 18.38 18.97 19.00 17.81 15.29 13.55 13.45 13.42 14.10 14.28 13.82 12.90 12.46 12.07 11.96 12.48 13.39 11.86 7.68 10.53 11.78 11.07 11.41 10.99 9.10 7.36 7.02 6.80 6.72 8.06 7.17 6.34
14.92 14.66 12.09 10.44 11.54 14.01 10.91 12.29 12.16 11.20 13.33 14.51 14.29 6.84 7.82 8.21 9.30 15.36 16.49 16.59 17.81 17.48 16.01 15.93 17.01 16.16 14.65 13.20 12.80 11.95 11.25 10.49 9.94 11.00 11.33 10.96 10.77 10.33 8.69 9.63 8.60 5.50 9.00 8.98 10.66 9.33 9.92 9.12 8.24 7.08 6.66 7.34 6.99 6.21
11.98 13.71 12.26 1.98 7.35 8.28 7.42 8.54 10.27 11.55 12.67 13.69 10.08 8.18 8.48 11.24 13.00 14.83 15.09 16.13 16.81 15.96 13.29 11.71 10.65 12.24 11.55 10.90 11.39 13.31 13.30 14.39 9.04 4.38 3.13 9.11 9.85 9.22 10.08 10.35 9.98 9.72 10.79 10.55 4.32 6.01 5.42 7.69 6.90 7.65 3.33 7.45 7.49 5.98
10.73 14.64 7.79 4.91 3.32 5.02 7.78 9.73 9.75 10.32 11.96 13.06 13.46 11.79 11.22 11.59 12.71 16.26 15.49 15.71 15.52 14.74 14.07 13.48 12.35 13.96 11.75 12.25 9.77 9.08 10.57 10.71 9.75 10.04 9.49 8.35 9.07 9.20 9.08 9.21 9.23 8.56 9.21 9.96 9.30 8.01 2.87 7.49 5.49 5.46 4.57 4.70 5.64 5.04
14.76 13.23 9.22 8.73 6.79 9.62 10.45 10.48 11.57 12.09 11.99 12.10 13.89 11.28 9.54 11.85 13.89 12.77 12.38 12.75 12.01 10.98 11.91 10.60 9.49 11.48 10.62 9.96 12.26 10.10 9.58 8.83 2.16 1.58 5.30 7.57 7.79 8.49 7.97 6.81 7.75 8.56 8.42 7.54 6.78 6.58 6.10 5.13 5.68 3.72 3.63 3.32 2.90 0.97
11.87 9.10 7.76 5.84 7.61 11.42 11.40 12.71 13.16 11.99 12.90 12.79 10.94 12.15 10.99 12.70 9.85 12.53 11.24 12.45 12.78 12.77 8.89 12.29 12.61 12.45 10.64 9.92 8.09 7.62 1.66 6.81 5.69 4.86 5.16 7.05 7.62 5.66 6.11 5.96 4.52 5.99 6.03 5.11 4.88 4.33 1.97 2.08 3.19 2.90 2.76 1.76 1.21 0.09
11.94 12.32 12.35 10.62 9.12 9.68 10.91 12.22 11.85 10.65 11.99 11.62 9.88 8.73 8.59 10.77 7.64 11.01 9.26 10.33 13.60 15.06 13.28 13.51 11.56 10.07 7.38 6.30 7.76 5.74 6.17 5.71 2.98 3.39 0.50 0.44 -0.72 2.03 4.73 5.11 4.59 3.53 1.19 3.68 3.85 2.66 -0.32 -0.18 1.32 0.93 0.57 -0.70 -1.23 -1.43

GFSWCAN_sfc_wetblb_081.txt.gz
Wetbulb
44.00 44.22 44.92 45.04 45.46 46.10 46.58 46.47 46.44 46.97 47.15 47.11 47.08 47.08 47.02 46.76 46.37 43.79 42.07 46.13 42.48 37.69 38.65 41.24 41.80 39.63 39.32 38.72 35.35 38.90 37.05 37.06 34.51 33.68 32.62 33.78 33.19 35.40 34.73 37.06 35.30 33.28 31.95 31.28 32.81 29.67 27.60 44.77 44.24 39.56 44.06 46.65 47.78 47.96
43.76 44.56 44.86 45.53 46.13 46.56 46.61 46.58 46.67 46.74 46.93 46.89 46.89 46.97 46.95 47.02 46.63 45.82 38.94 46.11 46.47 40.30 39.31 44.26 44.42 45.39 44.40 43.30 39.63 39.88 38.15 37.99 39.42 35.47 36.80 37.60 34.65 37.64 35.66 30.54 41.09 32.63 37.54 35.67 36.33 36.72 45.15 47.80 44.45 47.58 48.40 47.07 47.90 47.88
44.14 44.71 45.49 45.90 46.12 46.13 46.42 46.42 46.40 46.31 46.56 46.77 46.75 47.10 47.30 47.29 46.79 45.76 40.74 44.07 42.33 38.15 37.67 39.94 39.23 45.59 47.49 47.40 47.90 38.44 40.16 41.91 41.57 44.29 40.02 38.20 34.08 38.70 33.07 34.88 36.49 40.96 42.49 39.16 38.45 42.97 43.88 44.19 46.40 47.70 47.82 47.45 47.82 48.14
44.36 45.35 45.96 45.76 45.62 45.71 45.62 45.82 46.03 46.05 46.01 46.35 46.63 46.75 46.93 47.04 46.49 46.19 40.51 43.79 41.72 38.14 32.28 37.04 44.88 41.32 46.99 47.60 47.10 46.13 43.00 44.42 44.25 43.66 40.27 38.75 36.24 41.62 37.35 38.27 37.66 41.03 41.82 39.96 39.65 41.95 44.05 45.82 46.06 45.65 46.30 47.28 46.60 47.01
45.79 45.78 45.46 45.43 45.23 45.39 45.41 45.53 45.58 46.06 46.15 46.23 46.63 46.58 46.92 46.90 46.51 45.68 43.89 44.21 46.18 40.23 35.38 35.50 42.87 44.83 45.66 45.86 44.89 44.83 43.13 41.07 40.84 37.93 38.91 37.49 40.82 40.23 41.36 40.48 38.15 42.30 40.23 38.26 37.22 42.00 42.73 43.80 44.69 45.01 44.60 43.88 44.16 44.05
45.49 45.33 45.23 45.18 45.20 44.97 45.26 45.51 45.64 45.83 46.10 46.15 46.33 46.68 46.81 46.24 46.01 42.18 35.99 42.67 47.79 46.61 39.03 34.05 42.73 42.49 43.51 44.49 42.82 42.35 42.36 41.54 40.76 37.09 37.05 41.43 43.94 41.21 36.81 34.86 38.54 40.78 41.35 40.55 37.52 40.15 42.10 43.79 41.65 40.47 39.96 42.14 42.27 41.86
44.76 44.78 44.62 44.48 44.88 45.51 45.78 45.41 45.55 45.69 45.96 45.89 46.19 45.95 45.85 45.73 44.28 38.91 38.46 42.73 46.17 47.78 38.37 34.65 36.01 42.02 43.75 43.11 42.38 42.01 43.43 40.54 39.73 38.42 38.64 40.55 40.60 41.61 38.82 34.66 34.22 36.70 38.24 38.97 38.89 39.12 39.42 39.68 36.74 37.12 37.00 37.55 38.08 36.01
44.29 44.33 43.83 44.74 45.32 45.42 45.23 45.35 45.65 45.71 45.80 45.78 45.37 45.30 45.39 45.45 44.34 42.75 44.88 45.30 46.24 41.40 40.14 33.97 35.78 37.09 43.25 38.78 37.14 41.91 37.56 38.86 38.41 37.07 40.11 39.49 40.69 40.32 34.15 31.20 32.60 33.90 36.32 36.91 35.67 36.40 36.72 37.35 37.49 37.20 37.16 36.16 35.01 31.73
44.00 43.27 44.50 44.64 45.22 45.40 45.22 45.50 45.49 45.62 45.22 44.69 44.68 44.83 43.31 42.02 39.25 41.12 45.59 45.92 47.81 42.05 35.92 35.61 33.44 31.87 41.75 39.18 38.59 38.48 37.89 32.95 38.57 35.11 37.26 40.72 38.26 29.78 27.37 28.93 30.00 30.34 30.82 31.73 34.37 36.41 35.58 34.17 34.29 34.79 34.89 34.02 32.77 30.67
42.91 43.06 44.35 44.35 44.86 45.45 45.06 44.53 44.52 44.75 44.81 44.42 43.39 38.72 32.95 41.71 45.37 45.08 41.38 37.37 38.76 40.65 40.89 35.28 39.80 33.86 38.98 38.34 36.84 35.83 37.54 35.57 32.70 34.97 40.66 35.84 26.68 28.13 28.42 29.70 30.44 30.67 31.41 32.00 30.11 30.08 30.34 30.24 30.30 30.80 30.07 29.73 28.76 27.98
42.45 42.43 44.41 44.47 44.54 44.98 44.15 44.11 44.08 44.22 44.56 42.87 39.11 35.88 41.33 45.11 42.95 40.06 35.10 34.82 35.52 32.41 37.78 37.43 37.48 35.64 39.57 34.06 34.18 39.02 34.83 35.56 31.21 32.55 33.53 31.55 25.61 25.50 28.46 28.45 30.08 30.80 30.86 30.60 30.21 29.68 28.93 28.43 28.01 28.36 27.80 27.06 25.88 25.04
41.45 41.98 44.45 44.78 44.58 44.37 44.28 43.91 44.19 44.76 43.93 42.91 39.97 41.41 40.51 38.17 37.53 33.77 32.50 34.18 33.73 30.98 34.49 34.41 35.87 37.20 37.05 37.85 36.60 35.12 33.50 34.08 29.02 35.16 32.58 25.72 23.36 26.27 27.10 27.28 27.41 28.11 27.76 27.46 27.79 26.74 26.78 26.58 27.14 26.63 25.67 24.08 23.27 22.72
41.71 41.71 42.65 42.79 42.92 44.17 44.27 44.24 44.33 43.69 44.23 42.20 37.87 31.76 33.91 31.80 28.46 29.97 25.95 29.19 30.12 32.53 34.03 34.54 33.44 36.18 36.48 37.48 36.90 36.09 31.50 29.01 33.86 30.27 23.07 22.56 24.43 24.84 25.14 26.05 25.57 25.86 25.64 25.54 24.96 25.10 24.59 24.08 24.77 24.37 22.85 23.52 23.22 22.07
41.42 41.29 40.79 40.77 39.75 40.09 40.40 40.10 40.27 41.57 40.76 32.73 30.78 22.93 27.80 25.50 25.36 26.29 27.63 28.35 29.57 31.85 33.08 34.40 34.82 35.17 36.02 33.57 32.77 29.16 28.22 30.30 25.87 24.45 19.99 22.33 22.62 23.76 24.79 24.54 23.56 21.99 22.40 22.25 21.88 21.70 20.95 20.83 20.50 20.84 20.76 21.09 20.04 18.63
41.67 41.44 40.54 39.21 38.82 38.70 38.44 39.29 40.04 40.32 35.38 28.56 29.57 22.51 22.69 26.06 27.10 27.31 29.20 31.28 30.35 32.32 32.41 35.37 35.12 34.81 31.14 29.00 29.62 27.99 25.17 21.46 22.73 21.29 22.42 23.40 23.56 23.68 23.35 23.61 23.08 22.25 21.91 21.69 21.51 20.31 19.73 19.40 18.64 18.37 19.54 19.58 18.63 17.95
42.42 41.93 38.96 39.35 38.52 38.02 38.88 39.63 39.03 37.63 32.10 27.31 25.56 24.83 27.56 28.55 26.65 27.58 28.71 28.96 30.14 30.79 34.28 36.71 32.05 28.82 25.13 27.04 23.88 20.81 21.96 20.07 20.09 21.36 23.47 23.74 21.99 21.94 21.72 21.94 22.46 22.69 22.36 21.89 21.52 20.83 19.94 18.69 17.99 17.91 18.03 17.30 17.03 16.57
41.82 41.99 38.07 37.61 38.01 37.51 38.73 37.46 34.68 27.78 26.24 24.69 22.66 25.90 26.64 25.83 24.60 25.74 27.45 27.71 30.81 32.02 28.83 31.82 25.95 21.98 28.78 23.23 18.99 20.80 18.55 20.01 21.02 20.65 21.94 21.97 21.55 21.23 21.62 21.63 21.56 21.68 21.52 21.48 21.11 21.00 20.52 20.69 20.06 18.21 15.95 17.17 17.13 16.68
42.21 43.25 39.08 38.07 40.80 38.53 36.09 35.33 30.27 26.91 21.55 24.91 22.21 23.78 24.75 26.54 26.28 26.46 28.18 29.57 31.21 30.11 29.37 23.79 28.72 22.24 20.04 17.83 17.93 18.71 20.16 21.83 22.61 21.95 22.04 22.07 22.27 22.57 23.07 21.94 22.05 21.95 21.30 20.97 21.19 21.26 21.29 20.47 19.04 18.03 17.92 18.14 17.44 16.90
42.32 43.84 42.70 41.04 40.20 37.22 31.40 30.33 32.61 22.98 23.13 24.58 25.44 26.21 26.00 25.73 27.30 27.84 28.29 29.04 29.25 30.21 28.14 25.62 20.50 18.38 18.19 21.54 20.50 21.49 22.52 22.58 21.06 21.01 20.80 21.37 21.87 21.32 21.22 21.65 21.78 21.38 21.09 21.31 21.01 19.54 19.17 19.33 19.59 19.73 19.87 19.36 17.19 17.04
40.74 40.58 40.06 39.71 39.64 34.53 28.09 28.40 34.53 27.59 24.14 24.71 26.85 25.66 25.41 25.14 26.44 26.45 26.20 26.33 26.24 24.55 20.30 18.32 17.99 20.88 20.95 23.09 24.95 24.03 23.29 24.19 23.31 20.96 20.35 21.37 22.39 22.09 22.07 22.71 21.96 21.99 21.28 20.80 20.50 20.41 19.79 18.49 18.65 18.75 19.05 18.45 17.40 15.63
39.62 38.47 38.25 41.13 37.91 35.35 31.57 30.08 28.23 28.64 27.48 25.04 27.27 27.15 24.13 26.30 24.76 23.96 23.71 26.29 22.61 20.34 17.72 19.75 19.40 20.34 22.77 24.14 25.78 25.30 24.38 25.50 23.96 24.48 21.76 19.95 21.87 22.15 21.57 21.67 22.07 21.84 21.07 20.52 19.26 17.51 17.72 17.34 17.54 17.93 17.41 16.02 15.54 14.61
40.22 37.01 40.52 39.35 33.72 32.42 30.64 33.25 29.72 30.69 27.83 26.57 25.86 27.00 24.79 23.78 23.48 22.34 25.91 21.05 17.98 19.23 21.68 20.95 21.05 21.38 20.56 19.97 20.89 22.19 22.12 22.42 22.06 21.61 21.25 21.40 20.70 20.21 19.35 20.51 20.39 18.86 18.65 18.60 18.21 16.89 16.08 16.59 17.12 16.47 15.82 15.28 15.47 14.90
37.80 40.06 38.13 35.55 30.94 28.99 25.84 34.18 27.62 27.93 24.04 23.64 25.81 21.99 22.66 23.47 23.35 27.67 20.02 19.26 18.17 21.87 21.85 21.32 21.29 21.74 20.20 20.80 21.06 21.00 22.07 21.93 20.97 20.58 20.50 20.38 20.34 20.56 20.09 19.53 20.51 19.21 17.72 17.25 18.34 16.50 13.70 12.08 12.92 14.55 14.57 15.12 14.15 12.75
35.64 30.82 29.75 30.16 29.11 23.88 28.97 26.32 29.07 26.65 26.20 24.03 21.78 18.33 19.82 22.56 24.54 22.03 17.26 18.52 19.62 21.44 20.71 20.64 21.89 20.77 21.28 21.27 20.53 19.68 20.45 21.67 20.29 19.94 20.66 20.52 18.69 17.83 18.56 18.03 17.80 17.73 17.84 18.17 16.94 15.88 14.63 13.15 11.90 14.00 13.31 13.39 13.11 13.13
28.49 22.46 27.38 23.61 28.51 25.32 23.26 23.26 22.71 23.10 20.46 21.41 19.15 19.29 20.04 23.76 19.98 18.17 16.55 17.82 19.58 20.60 20.84 21.97 22.81 23.55 21.53 20.26 19.94 18.85 19.52 21.54 20.21 17.96 18.62 19.60 18.84 18.56 17.38 17.07 16.19 15.87 18.18 17.26 15.52 14.50 13.78 14.34 14.21 13.62 13.53 13.24 10.14 8.76
19.68 20.73 23.12 23.67 24.71 24.17 24.02 20.69 21.02 21.53 21.44 18.72 18.27 20.25 23.26 22.27 17.73 15.57 18.77 20.83 21.17 21.03 21.60 22.10 22.09 21.20 20.76 21.69 19.84 19.41 18.50 20.37 20.72 18.40 17.14 18.01 17.67 17.72 17.34 15.93 15.97 14.80 16.48 16.87 16.41 14.67 12.51 12.66 12.22 8.55 10.53 8.03 4.41 8.30
18.92 19.16 21.35 23.67 25.55 24.66 23.53 24.55 25.64 23.58 19.85 17.45 19.25 18.92 19.92 15.11 13.82 16.07 21.26 22.70 21.79 22.97 23.98 23.86 23.62 22.67 20.38 18.93 18.26 18.04 18.61 18.14 17.22 16.57 16.90 16.30 16.11 16.23 16.35 15.27 11.55 14.09 15.81 14.80 15.05 14.77 13.44 11.63 11.14 10.59 10.83 12.25 11.18 9.56
18.97 19.74 15.60 17.61 18.55 21.75 18.31 19.35 18.55 17.04 18.76 21.05 21.10 14.31 13.95 14.66 14.42 19.54 20.67 21.94 22.56 22.76 21.96 22.05 21.99 21.06 19.80 18.45 18.01 17.26 15.82 15.03 14.59 15.53 15.86 15.44 15.24 14.53 12.83 13.19 11.67 9.21 12.57 11.79 13.33 13.08 13.41 12.84 12.16 10.92 10.02 9.71 10.60 10.95
17.37 19.24 16.04 8.53 13.93 14.20 13.60 15.09 15.78 16.07 17.78 20.66 17.04 14.33 12.76 14.53 19.09 18.40 19.55 21.10 22.25 20.74 18.16 16.72 16.42 17.87 17.02 17.18 17.82 18.50 18.97 18.93 13.19 7.52 6.59 13.29 14.31 12.91 14.60 14.63 14.20 14.18 14.61 13.22 7.37 9.40 8.39 10.39 10.10 9.94 9.74 10.04 11.02 9.95
15.25 20.58 13.35 10.62 9.45 10.08 11.78 15.56 13.97 16.32 17.96 18.38 16.60 14.21 13.65 14.91 18.08 20.69 20.54 21.08 20.28 19.48 19.02 18.28 18.03 18.24 16.01 15.74 14.07 13.99 16.77 16.30 14.29 13.47 13.11 12.50 12.74 13.05 13.60 13.07 12.90 12.80 13.08 13.46 12.54 12.36 6.39 9.61 9.28 9.16 8.31 8.90 9.45 9.39
19.94 19.29 14.54 13.59 10.71 13.11 15.41 16.13 17.40 18.48 19.10 18.81 19.89 16.23 13.71 14.43 16.35 18.09 18.68 19.42 19.23 18.33 17.30 15.98 16.08 16.88 15.54 15.35 16.44 13.69 13.54 13.32 8.22 9.17 11.48 12.59 12.92 13.31 12.13 11.11 12.52 13.17 12.55 11.23 10.20 9.83 9.38 8.26 9.02 8.44 7.71 7.17 6.79 5.66
18.45 14.67 12.74 9.70 11.03 14.58 17.40 18.45 17.78 17.11 17.71 16.80 15.62 16.70 17.40 17.23 13.92 15.94 17.39 18.74 18.23 17.92 15.77 17.74 16.38 15.58 16.26 15.28 13.84 12.62 10.62 10.94 10.09 9.53 8.09 11.85 12.15 9.98 11.19 10.92 9.87 10.76 9.80 8.25 8.37 7.71 6.58 5.94 6.40 6.78 6.33 6.06 5.85 4.42
17.69 17.69 16.73 15.18 13.54 14.36 15.51 18.71 17.33 15.93 17.67 16.25 15.40 16.30 16.13 17.11 12.35 14.72 15.87 17.02 18.90 18.86 17.07 17.47 16.42 15.38 12.61 12.36 12.68 11.74 11.28 10.31 7.05 6.00 4.71 3.43 2.82 5.82 9.77 10.60 10.05 8.70 5.97 7.28 7.73 6.87 5.09 4.84 4.99 5.26 4.62 3.78 3.45 3.27

GFSWCAN_sfc_wetblb_084.txt.gz
Wetbulb
42.49 43.60 43.91 43.96 44.66 45.32 45.94 46.47 46.67 46.81 46.79 46.60 46.85 46.92 47.02 46.81 46.53 44.51 41.40 45.64 40.14 36.13 36.37 39.58 40.35 37.72 38.44 38.13 33.80 38.59 35.57 37.22 34.84 31.69 31.93 31.94 32.10 34.71 34.39 36.31 34.47 32.53 30.86 30.21 31.93 28.96 26.80 44.65 43.33 38.61 43.33 46.30 46.12 46.53
42.95 43.47 43.80 44.41 45.07 45.59 46.33 46.54 46.67 46.67 46.86 46.81 46.90 46.97 47.06 47.28 46.86 45.89 39.52 44.12 44.84 38.46 37.10 42.90 43.88 44.70 42.43 42.27 37.92 38.13 36.92 36.92 37.56 34.47 35.60 35.88 33.48 37.28 34.64 30.04 40.46 32.32 36.28 33.68 34.56 34.33 43.31 46.60 45.68 47.23 47.42 46.09 45.88 45.63
42.97 43.43 44.24 44.95 45.58 46.12 46.28 46.24 46.26 46.37 46.56 46.79 47.07 47.20 47.19 47.47 47.45 45.92 41.03 41.95 41.85 37.99 37.02 38.34 37.40 43.97 46.30 45.82 47.26 37.44 38.96 41.29 40.20 43.14 39.25 38.14 33.91 37.58 32.05 33.75 36.13 39.66 42.37 36.64 37.66 40.43 42.24 44.20 45.34 46.22 46.65 45.28 45.86 46.15
43.26 43.97 45.33 46.08 45.91 45.78 45.73 45.73 45.71 45.87 46.07 46.49 46.70 46.79 46.89 47.27 47.49 46.38 40.69 42.47 40.64 38.06 31.45 35.09 44.43 41.21 45.72 47.42 46.16 46.11 43.47 44.07 43.54 41.82 37.62 37.17 35.58 41.06 36.57 38.06 37.22 39.41 40.08 38.82 39.02 40.86 42.18 41.98 43.24 43.88 44.44 44.46 43.76 44.99
43.72 44.97 45.44 45.55 45.57 45.31 45.43 45.52 45.40 45.34 45.68 46.26 46.63 46.74 46.84 47.26 47.43 46.38 42.41 43.41 43.35 38.82 33.08 34.69 41.64 44.36 45.39 45.20 44.15 45.18 43.57 41.48 39.44 35.81 34.80 36.19 39.75 39.82 40.44 40.20 37.33 40.45 37.38 37.23 35.96 38.83 39.28 38.70 41.45 43.07 42.30 41.83 41.98 41.59
44.73 45.00 44.75 44.77 44.81 44.67 44.80 45.44 45.49 45.55 45.42 46.07 46.33 46.46 46.68 46.88 47.10 39.75 33.23 42.75 45.03 44.72 37.32 33.51 42.90 41.25 44.15 43.12 42.62 42.44 43.23 41.81 39.52 36.54 36.89 40.06 43.02 40.50 35.92 34.01 36.77 38.96 39.85 38.40 35.77 38.91 41.73 41.16 39.33 39.63 38.97 39.13 39.38 38.23
44.55 44.43 44.65 44.21 44.70 45.22 45.77 45.59 45.56 45.62 45.67 46.01 46.10 46.33 46.58 45.80 41.57 38.81 38.41 41.83 45.02 44.90 36.99 33.23 35.83 41.14 43.57 42.84 42.54 42.61 43.07 40.93 39.36 37.09 37.80 38.80 39.84 40.73 37.21 33.14 34.49 35.64 38.57 37.11 37.69 38.41 37.68 37.46 35.19 38.30 38.25 38.18 38.92 36.86
44.32 44.24 43.72 44.70 44.95 45.38 45.44 45.53 45.55 45.74 45.92 46.01 46.08 46.17 46.37 44.43 44.04 41.84 45.93 45.37 46.16 40.85 39.50 32.09 33.18 37.41 43.43 37.97 37.06 42.67 38.62 38.52 38.08 37.31 39.16 37.71 40.06 39.14 31.66 31.29 32.39 32.82 35.85 34.42 34.80 37.71 37.15 37.61 37.44 36.74 37.25 36.39 35.54 32.84
43.44 43.32 44.19 44.54 44.95 45.35 45.35 45.52 45.83 45.67 45.67 45.69 46.05 44.92 42.66 41.34 38.47 42.33 45.40 45.78 47.61 41.96 34.45 34.90 32.00 31.36 41.53 38.81 38.15 37.72 37.82 32.32 37.57 33.76 35.92 39.08 34.92 25.55 27.65 28.65 29.17 30.42 30.47 30.99 33.71 36.32 34.09 33.20 32.91 33.09 32.63 31.05 29.82 28.85
42.89 43.49 44.33 44.85 44.95 44.83 45.13 44.78 44.80 44.78 44.17 44.29 42.99 38.43 32.87 41.30 45.21 44.53 40.53 36.40 37.85 39.28 39.72 34.74 39.66 34.24 39.09 37.89 36.41 35.32 36.88 34.49 31.54 34.88 39.87 34.91 25.30 28.22 29.07 30.05 30.04 30.50 30.98 31.52 28.61 27.73 28.41 28.00 28.33 29.15 28.11 27.87 27.07 25.85
42.82 44.51 44.56 44.28 44.36 44.11 43.95 44.03 44.07 44.66 45.03 43.22 38.26 36.02 41.98 45.70 42.70 38.50 33.21 34.63 35.64 33.82 37.03 38.14 38.20 34.92 39.90 35.25 34.51 38.74 33.96 35.22 29.51 33.11 32.75 30.74 23.80 25.37 28.73 28.51 29.19 29.39 29.76 29.45 29.12 28.30 27.69 27.35 27.18 27.61 26.26 25.32 24.32 23.40
42.57 44.71 44.39 44.23 44.18 43.98 43.80 44.01 44.40 44.12 43.24 41.85 39.96 42.24 42.03 38.89 37.05 33.25 31.99 34.45 33.11 30.69 35.82 35.43 36.10 37.89 37.45 38.45 36.20 34.98 31.96 33.87 27.83 35.38 31.83 22.90 23.44 25.77 26.56 26.44 26.35 26.69 26.73 26.36 26.62 25.72 25.69 25.82 26.66 25.13 23.84 22.86 22.39 22.16
43.47 43.62 43.94 44.43 44.16 43.99 44.16 44.32 44.48 44.09 44.83 43.64 38.02 33.62 34.39 33.05 29.89 29.48 25.58 29.72 29.93 33.26 34.33 35.33 32.49 35.73 36.15 37.36 32.87 33.11 31.05 29.65 34.98 30.79 21.78 21.78 23.52 24.46 24.75 25.07 24.40 24.70 24.48 23.95 23.12 23.46 22.85 21.85 22.72 22.68 21.05 21.48 20.68 19.75
41.83 41.34 41.40 41.87 42.01 42.89 41.53 40.01 41.32 42.62 40.23 33.55 31.95 24.31 28.05 25.26 25.49 25.84 27.56 28.66 29.85 32.22 33.35 34.87 34.49 34.60 34.83 33.10 33.21 28.33 29.60 31.46 27.19 24.25 18.17 20.38 22.45 23.71 24.40 23.99 22.82 21.62 22.03 21.13 20.37 20.26 19.06 19.07 19.26 19.68 19.58 19.28 18.03 16.90
40.18 40.52 39.90 39.55 39.77 39.37 40.11 40.37 41.30 40.22 35.08 29.34 30.35 23.17 23.65 26.91 28.73 30.15 31.80 31.15 31.29 33.99 34.83 35.14 35.45 34.43 31.82 29.36 30.59 29.07 25.85 22.89 21.83 18.82 20.37 22.04 22.92 22.59 22.35 22.72 22.08 21.26 20.89 20.52 20.15 19.07 18.36 18.09 17.34 17.21 18.12 18.12 17.38 16.56
41.67 40.99 38.95 38.82 38.91 38.80 39.16 40.48 39.66 37.86 32.93 27.81 26.61 26.27 29.43 28.68 27.94 28.89 30.54 29.64 32.34 33.59 35.72 37.01 32.17 28.67 26.28 27.98 25.16 22.95 23.85 19.08 19.25 21.70 22.80 22.65 21.28 21.43 21.04 21.88 21.99 22.46 21.94 20.89 20.28 19.42 18.64 17.64 16.61 16.16 16.70 16.62 16.42 15.92
42.07 40.80 39.17 38.66 39.62 40.13 40.39 38.69 35.10 29.75 27.65 25.50 23.77 28.21 28.54 26.90 25.78 26.90 28.88 29.32 33.29 33.30 29.59 32.09 25.45 22.80 29.26 23.79 19.00 19.91 17.83 19.29 21.12 21.52 22.65 22.69 21.66 21.25 21.90 21.98 22.47 22.16 21.57 21.21 20.58 20.20 19.58 19.63 19.20 17.78 15.58 16.51 16.69 16.06
41.36 38.10 39.01 39.59 40.23 39.82 38.06 36.76 31.86 28.36 23.44 26.33 23.57 24.81 26.19 28.30 27.10 27.35 28.45 31.21 32.36 30.60 29.33 24.89 29.13 22.19 19.60 19.10 17.24 19.08 20.77 22.50 23.25 22.67 22.50 22.63 22.82 23.17 23.31 22.01 22.32 21.96 21.46 21.37 21.50 21.38 20.58 19.78 18.40 17.20 17.43 17.72 17.59 16.91
42.94 41.78 39.00 39.15 40.15 37.89 32.14 32.18 33.38 23.20 24.32 26.38 27.19 28.00 27.51 27.25 28.64 28.98 29.78 30.61 30.74 31.49 29.33 26.03 20.93 18.90 19.21 21.75 20.64 21.62 22.66 22.31 20.62 20.79 20.77 21.95 22.27 21.75 21.84 22.12 21.81 21.60 21.59 21.76 21.07 19.55 19.51 20.32 20.32 20.47 20.25 19.70 17.13 16.92
41.62 42.05 41.26 39.56 38.91 35.09 29.67 30.01 35.82 27.96 24.89 25.71 28.26 25.96 26.00 25.52 27.45 28.75 28.65 28.61 27.22 25.29 20.98 19.14 20.10 21.96 22.23 23.98 25.38 24.48 24.35 24.78 23.08 20.50 20.45 22.14 22.96 22.41 22.49 22.96 22.12 22.15 21.25 21.19 21.12 20.71 19.73 18.67 18.72 18.27 18.31 17.94 16.86 15.33
40.10 39.12 39.96 41.08 37.95 36.31 33.09 30.83 28.62 28.45 27.94 25.88 27.69 27.01 24.88 27.27 25.45 25.54 24.62 26.85 22.62 20.65 18.09 20.53 20.30 21.77 24.51 25.60 26.34 26.07 24.73 26.12 24.01 24.57 21.81 20.14 22.89 23.05 22.28 22.67 22.84 22.72 21.70 21.00 19.12 18.12 18.31 17.11 17.64 17.77 17.17 15.62 15.01 13.83
39.73 38.27 40.16 39.32 33.77 33.01 31.44 33.95 30.21 31.26 28.42 26.90 26.74 27.86 25.84 24.46 23.41 23.68 25.51 20.40 18.85 21.45 22.13 21.02 21.33 21.88 21.26 21.08 22.31 23.43 23.59 23.82 23.41 22.74 22.50 22.70 21.38 20.63 19.95 21.33 20.78 19.34 18.92 18.88 18.43 17.02 16.20 16.77 16.91 16.66 15.96 15.53 14.99 13.20
37.24 40.63 38.42 35.72 30.62 28.79 26.68 34.85 28.44 29.26 24.46 24.06 26.66 23.62 24.02 23.56 24.11 27.78 19.72 19.16 19.86 23.11 23.41 22.78 22.41 22.30 20.63 21.97 22.48 22.76 23.68 23.00 21.55 21.18 21.34 21.03 20.86 20.99 20.23 19.98 20.55 18.99 17.59 17.10 17.99 15.99 13.24 11.15 13.10 14.73 14.60 14.93 13.47 12.18
37.45 32.71 31.16 30.33 28.86 24.28 30.01 26.94 29.56 27.06 26.72 24.95 22.57 20.42 22.22 23.03 26.00 22.59 17.69 19.12 20.41 22.21 21.48 21.43 22.41 21.28 22.13 22.47 20.73 20.47 21.47 22.56 21.07 20.63 21.27 20.59 18.70 17.76 18.82 17.88 17.66 17.61 17.74 17.74 16.94 15.78 14.66 13.33 10.30 14.06 13.62 13.46 12.94 12.79
29.36 23.84 28.55 24.80 29.94 26.00 23.92 24.30 24.34 24.53 21.42 22.59 20.74 20.26 20.89 25.21 21.37 19.78 17.84 17.66 20.16 21.26 22.28 23.47 24.23 24.29 21.73 20.46 19.96 19.14 21.53 22.22 20.40 17.82 18.98 20.14 19.18 18.51 17.34 17.03 16.04 15.94 17.75 17.02 15.32 14.54 13.68 13.85 13.63 13.31 12.90 12.56 10.90 10.30
21.03 22.33 25.05 25.74 26.31 25.45 25.02 21.99 22.48 22.82 22.78 20.56 20.37 22.16 24.78 23.65 19.19 17.02 19.22 20.64 21.68 22.08 22.64 23.59 22.96 22.12 21.77 22.56 20.27 19.21 18.49 21.05 21.42 18.10 17.14 18.29 17.54 17.22 16.58 15.45 15.32 13.71 16.66 16.57 15.58 14.28 12.49 12.30 12.08 10.26 10.51 7.42 1.11 6.02
20.70 20.68 23.19 26.91 27.71 27.20 25.84 27.16 27.44 24.83 21.22 18.89 21.05 21.28 22.01 16.65 15.23 17.38 23.61 24.36 22.90 24.42 25.31 25.62 25.15 23.59 20.97 19.04 18.89 18.78 18.72 17.76 17.28 16.59 17.19 16.73 16.51 16.41 15.47 13.25 12.59 12.75 15.50 14.50 14.30 14.16 13.26 11.25 11.03 10.40 10.89 11.56 11.33 9.85
21.03 22.41 17.07 20.97 21.88 24.20 21.79 21.97 21.47 19.88 20.49 24.10 23.21 17.23 16.95 16.61 15.31 21.00 22.32 24.56 24.81 24.08 23.37 23.06 23.13 22.27 20.53 19.04 18.56 17.44 16.11 15.82 15.91 16.78 16.61 16.22 15.78 14.74 13.39 11.93 10.48 10.73 11.03 9.45 11.52 12.61 12.61 12.32 11.70 11.23 10.66 9.85 10.31 10.99
19.72 20.65 17.17 11.44 16.60 16.35 16.17 17.51 17.80 17.97 20.21 23.10 18.71 15.25 13.78 17.51 20.95 21.17 22.20 22.98 23.84 21.88 18.88 17.74 17.81 19.34 18.77 18.96 19.36 19.22 19.57 18.45 15.91 10.57 10.93 12.95 13.98 11.73 14.02 14.15 13.79 13.36 14.16 12.93 7.03 9.85 10.00 9.69 9.66 7.87 8.68 9.75 10.47 10.23
17.45 22.35 15.23 13.32 11.74 11.07 14.25 18.28 16.57 18.85 20.10 18.77 17.34 16.32 16.64 18.39 20.93 23.44 22.46 22.10 20.87 19.73 19.62 19.47 19.25 18.61 16.25 16.14 14.73 14.82 16.65 16.20 14.25 13.57 12.80 11.90 11.78 12.88 13.12 12.88 12.73 12.42 12.32 12.88 12.17 11.47 8.61 9.25 11.30 9.08 6.88 9.10 9.80 9.60
22.30 21.40 16.80 14.92 12.44 14.39 16.83 21.01 22.92 22.82 21.24 18.49 19.62 15.27 13.45 15.01 17.34 19.95 21.66 21.83 20.99 20.42 19.19 18.46 17.64 18.08 16.75 16.26 16.17 13.77 12.78 11.80 9.59 10.20 12.76 13.36 13.13 13.15 11.75 10.77 11.70 12.23 11.97 11.07 9.98 9.65 8.78 7.39 8.51 9.06 8.67 7.87 7.03 6.20
21.34 17.03 14.42 10.40 11.75 18.05 20.81 20.75 18.91 17.21 17.39 17.30 16.42 17.53 17.89 17.58 13.93 15.92 19.11 20.63 19.45 18.93 17.83 18.36 16.74 15.62 15.94 14.97 14.06 12.33 10.76 11.43 10.39 10.85 11.43 12.21 11.93 10.70 10.88 10.76 10.25 10.42 9.34 8.11 8.58 8.06 7.53 6.46 6.16 6.47 6.20 6.08 5.74 4.28
19.85 18.45 17.00 14.97 13.34 14.68 17.66 20.06 18.21 17.53 18.51 17.38 17.65 18.67 18.34 17.65 12.59 14.64 17.96 18.75 20.86 19.71 18.50 16.85 16.45 15.00 14.06 14.30 13.20 12.43 10.92 8.21 5.19 7.20 5.13 3.69 1.92 4.87 8.04 10.38 9.85 8.89 7.66 7.47 7.60 7.72 6.47 5.90 5.06 4.61 3.82 3.28 3.40 3.08

GFSWCAN_sfc_wetblb_087.txt.gz
Wetbulb
41.21 41.45 42.31 43.08 43.53 44.29 44.77 45.43 46.16 46.49 46.92 47.15 47.19 46.94 46.90 46.70 46.79 44.01 40.67 41.73 37.88 32.69 33.89 36.41 37.38 34.04 35.48 34.51 28.19 34.95 32.43 35.29 32.80 27.51 26.71 26.31 24.30 29.96 30.54 33.72 32.60 29.42 27.59 27.02 28.14 24.76 23.27 43.01 43.13 37.37 41.13 44.10 43.53 42.70
40.38 41.19 42.36 43.12 43.71 44.38 45.22 45.73 46.23 46.78 46.78 46.78 47.12 47.08 46.92 47.08 46.97 46.07 39.22 42.09 42.58 35.56 34.36 38.98 39.43 40.03 38.82 40.22 37.24 37.09 36.42 34.78 35.89 30.22 30.12 30.27 26.96 31.50 31.73 28.15 38.04 29.33 33.11 29.62 30.95 30.25 40.52 43.25 42.49 44.27 44.99 42.29 42.70 41.81
40.12 41.78 42.64 43.58 44.16 45.11 46.05 46.12 46.40 46.49 46.44 46.58 46.81 46.88 47.08 47.33 47.42 46.49 41.35 41.17 40.36 36.68 34.64 33.92 33.35 39.08 41.91 41.26 43.61 36.26 37.98 40.45 38.79 41.28 36.78 35.35 29.10 34.42 29.74 30.67 34.83 36.41 40.61 34.26 34.22 39.07 39.65 40.60 42.90 43.14 42.90 41.34 42.31 42.08
40.68 42.06 42.88 43.91 44.93 45.88 45.96 46.14 46.02 45.95 46.16 46.19 46.58 46.67 46.88 47.29 47.61 47.03 40.96 42.31 39.59 37.00 29.38 31.56 40.82 36.72 40.85 40.35 40.81 42.13 41.21 42.79 41.49 40.66 35.07 33.44 32.21 38.71 33.20 35.93 33.91 38.17 39.11 37.18 37.23 38.29 38.88 39.99 40.55 42.42 41.82 41.81 41.22 41.51
41.47 42.48 43.42 44.47 45.34 45.32 45.54 45.52 45.28 45.27 45.73 46.12 46.37 46.67 46.81 47.26 47.51 46.58 42.69 42.58 41.89 35.81 29.61 31.35 37.26 39.62 40.68 39.00 38.33 41.50 40.76 38.58 36.91 35.75 33.40 32.21 36.96 37.09 37.25 37.59 34.83 36.75 34.13 33.78 31.03 35.91 37.63 36.62 37.95 40.23 38.55 38.07 37.63 35.95
42.27 43.14 43.89 44.71 44.74 44.85 44.92 44.92 45.30 45.58 45.57 45.57 46.25 46.56 46.70 46.63 47.06 38.12 32.61 41.81 42.73 41.28 35.40 28.65 39.41 38.82 39.44 39.14 38.19 38.25 39.67 38.33 37.76 36.17 34.51 37.06 41.20 38.12 33.04 31.60 34.31 35.46 35.77 35.07 33.43 37.46 38.16 37.13 37.58 37.91 36.65 37.04 35.54 33.54
42.56 43.72 44.65 44.61 44.51 44.44 45.10 45.33 45.58 45.52 45.74 45.88 45.84 46.37 46.46 46.30 41.56 37.49 35.22 39.21 43.78 42.86 34.82 30.78 29.97 38.00 40.36 38.61 36.62 37.83 39.54 39.96 37.17 36.62 36.05 35.61 37.08 39.01 32.84 28.39 31.37 33.35 34.04 33.67 35.73 37.85 34.27 35.18 33.91 36.08 35.43 36.29 35.05 32.98
42.89 44.33 44.27 43.74 44.39 45.08 45.37 45.49 45.68 45.49 45.94 45.73 46.03 46.30 46.00 44.72 44.24 40.40 43.83 44.27 43.86 39.08 37.87 29.07 29.15 33.93 39.34 34.95 33.98 40.28 37.75 38.53 37.71 36.30 37.21 35.50 37.11 35.76 26.56 28.25 29.69 30.81 32.18 31.54 33.37 33.28 32.61 33.26 33.21 32.43 32.04 31.74 29.94 28.70
43.92 43.44 43.16 44.12 44.75 45.25 45.20 45.57 45.79 45.66 45.98 46.28 45.98 45.27 42.64 40.32 37.25 40.45 45.19 44.75 44.10 39.44 31.10 30.62 25.88 28.39 39.33 35.91 36.95 36.82 37.86 31.26 37.27 32.90 33.97 36.26 29.14 22.41 26.47 26.74 27.00 28.28 28.03 28.13 30.88 29.92 29.74 28.66 29.08 29.66 28.77 27.56 26.07 25.33
43.19 43.50 44.63 44.83 44.99 45.29 45.17 45.26 45.54 45.62 44.73 44.03 42.60 37.32 32.07 40.24 45.39 44.71 40.29 37.07 36.99 37.84 36.44 31.76 35.45 31.83 37.97 34.37 34.05 32.81 32.95 31.73 29.40 31.48 37.83 26.78 22.15 27.38 27.58 27.59 27.37 27.38 27.88 27.66 24.74 23.73 24.96 25.04 27.00 25.55 24.37 24.20 23.70 22.83
43.49 44.63 44.23 44.90 45.01 44.46 44.15 43.83 44.34 44.82 45.17 41.58 35.21 34.91 41.94 45.36 41.41 37.32 31.23 30.78 31.71 29.74 33.53 34.28 35.30 32.93 38.20 32.01 32.01 32.10 30.24 32.01 25.66 30.32 30.99 25.86 20.76 24.25 26.43 25.08 25.97 26.18 26.40 25.48 25.70 25.11 24.84 25.87 24.61 23.15 21.82 21.87 20.98 20.16
44.55 44.67 44.38 44.26 44.15 44.12 44.50 44.60 44.84 43.76 41.59 41.11 40.07 42.42 41.63 38.61 35.56 32.12 28.62 32.00 29.70 28.48 33.41 32.99 34.33 36.61 34.53 36.54 33.25 33.40 29.30 30.54 26.04 33.93 29.72 18.59 21.04 23.43 24.04 22.91 23.02 23.80 23.53 22.69 22.98 21.85 21.77 22.74 22.99 21.96 21.07 20.16 19.46 19.46
44.46 44.58 44.37 44.00 44.53 44.26 43.07 43.95 43.10 43.00 43.53 41.07 37.09 33.89 34.22 30.91 27.02 21.67 21.96 26.41 26.20 29.46 31.27 33.46 32.33 33.37 34.36 35.98 32.34 30.80 28.22 26.59 29.21 24.89 15.76 17.61 21.83 22.81 22.14 22.60 21.85 22.56 22.39 21.20 20.09 20.48 20.15 19.60 20.44 19.62 18.24 18.08 17.58 16.52
43.25 43.45 43.81 44.00 43.70 41.15 41.37 42.24 43.21 41.55 38.52 32.01 28.22 17.39 24.26 22.76 23.30 24.58 26.51 27.30 29.46 31.62 32.73 32.22 32.15 32.16 33.11 29.85 31.27 23.80 26.68 28.71 25.84 15.88 10.17 17.79 20.20 20.97 21.83 22.04 20.31 18.30 18.53 17.22 16.85 15.96 15.56 15.45 14.56 14.99 15.07 15.01 14.39 14.25
41.22 41.55 41.78 41.26 41.20 40.59 41.05 41.90 41.13 38.22 32.95 26.47 26.54 19.79 19.86 25.07 27.09 28.66 30.67 29.62 30.47 32.90 32.76 32.67 29.47 30.00 29.12 23.71 28.41 25.10 24.48 18.16 17.01 9.69 15.23 18.74 18.89 19.56 20.80 21.51 16.30 16.09 14.48 15.83 13.22 12.88 10.74 10.45 12.49 12.97 13.66 13.94 14.53 14.03
41.16 41.02 37.32 39.30 40.08 40.05 40.52 40.13 37.73 35.61 29.89 25.36 24.53 24.75 27.43 23.55 23.88 26.14 28.37 28.07 31.39 31.62 32.73 30.58 26.36 25.28 22.35 26.38 23.00 16.84 18.89 9.68 12.00 16.81 18.99 17.53 17.44 17.66 18.49 19.32 19.22 19.50 17.78 17.10 15.61 15.36 14.80 12.83 11.87 12.65 13.54 13.52 12.50 11.66
41.10 37.45 39.45 39.78 40.42 40.65 41.34 35.81 31.95 28.09 26.10 24.09 21.10 23.79 24.10 22.10 23.47 23.21 24.32 25.20 29.96 29.24 24.66 29.24 23.59 19.80 26.66 18.89 13.05 16.37 10.37 13.98 17.96 18.88 20.38 19.63 18.96 17.79 16.72 19.73 19.70 17.80 15.05 14.04 14.39 13.95 13.33 15.18 15.53 15.37 12.53 12.46 13.69 13.04
37.44 38.28 39.89 40.81 40.29 38.84 35.51 34.30 28.89 26.05 22.62 24.70 19.89 20.62 20.22 25.12 23.72 23.35 24.72 28.08 28.63 27.03 25.30 21.88 24.72 16.03 10.61 13.52 11.50 16.13 18.67 19.75 20.23 19.52 19.02 16.13 16.98 16.16 15.21 13.32 12.89 15.16 17.20 16.81 16.53 16.86 15.96 15.66 15.53 14.55 14.89 15.40 15.55 15.11
36.92 37.32 40.04 39.80 39.47 35.05 30.03 30.04 29.15 22.46 22.97 23.44 25.13 24.47 25.20 24.93 26.35 27.63 27.35 24.82 25.37 25.63 24.68 21.53 16.97 16.56 15.62 16.98 15.75 15.51 14.92 14.03 14.75 12.19 14.33 12.86 13.21 12.76 13.32 15.46 18.09 18.24 20.04 20.07 19.07 18.27 18.56 19.31 19.45 19.59 19.39 18.47 15.32 14.89
40.40 39.68 40.02 40.37 38.91 31.82 28.26 27.36 31.88 25.45 22.97 23.37 25.94 23.27 24.90 24.82 26.27 21.24 22.10 24.14 23.74 22.31 18.19 16.67 15.90 18.73 19.22 21.36 21.41 20.24 17.64 19.04 18.19 15.65 15.10 15.51 17.77 18.24 19.77 20.43 16.87 16.64 18.25 18.73 19.08 19.00 17.96 17.03 16.96 16.64 15.66 15.23 13.19 11.68
39.23 37.69 39.77 39.17 34.70 34.12 29.76 27.34 26.26 25.59 26.33 23.63 25.83 24.74 23.07 23.67 20.36 18.60 18.87 23.20 19.24 17.75 15.56 17.25 16.47 18.63 20.93 21.86 22.26 20.42 22.22 21.69 22.46 19.19 14.55 17.70 20.05 18.98 18.20 18.78 19.23 20.72 18.55 15.89 13.33 15.26 14.95 13.56 14.53 15.04 10.08 3.34 1.97 2.82
36.68 39.38 36.82 36.55 30.46 30.00 28.23 30.07 27.36 28.18 26.09 25.40 25.46 27.07 24.55 18.87 16.48 17.88 22.11 17.23 17.58 19.58 18.13 16.82 16.84 18.22 17.82 15.89 14.48 16.41 14.83 18.94 18.78 18.47 17.80 19.40 18.13 14.25 13.21 16.37 15.49 11.36 10.76 11.21 14.14 9.26 8.65 10.41 11.64 10.70 7.54 6.93 6.81 4.16
38.66 38.89 33.88 31.83 24.99 23.10 24.30 31.07 24.97 27.16 20.43 21.22 24.41 22.02 21.28 18.21 21.08 23.92 13.20 17.28 18.55 21.45 20.63 19.49 18.69 19.70 17.90 17.77 21.28 22.19 21.04 19.43 15.11 13.74 14.88 12.44 12.74 12.66 12.95 13.12 14.41 11.47 11.08 9.21 11.93 7.98 4.05 3.24 5.17 1.69 2.66 3.61 0.11 -3.32
36.23 29.78 26.91 24.49 24.52 22.37 25.38 23.70 26.43 24.73 22.87 22.64 19.93 18.18 18.65 17.91 22.42 16.74 13.79 14.83 15.27 18.02 18.70 19.15 19.40 18.67 19.89 20.59 16.65 16.60 18.31 18.62 16.18 15.64 15.40 15.59 12.44 10.79 12.57 11.48 10.70 9.02 10.90 12.45 11.60 8.02 4.16 -1.24 0.71 3.24 -1.43 -0.77 -0.55 1.73
22.65 19.09 21.27 16.45 23.37 18.69 16.61 17.08 19.87 21.02 15.50 18.80 16.82 13.84 14.96 21.30 14.23 11.95 10.46 13.46 16.39 13.16 15.76 19.70 20.95 20.89 17.08 13.84 13.90 14.54 18.28 18.65 15.74 12.33 12.86 14.16 11.53 11.44 11.53 11.61 10.13 10.00 11.94 11.51 5.88 1.03 -0.87 -0.78 -0.69 4.37 4.62 0.53 -0.26 -4.75
12.35 14.96 18.44 19.79 20.42 18.99 19.42 13.70 15.63 16.91 16.79 13.69 14.06 17.94 17.37 14.47 8.30 8.55 14.29 15.15 17.69 15.90 13.22 16.75 17.95 17.44 17.55 17.94 14.85 13.34 12.86 16.26 16.57 11.95 11.32 13.49 12.17 6.51 6.04 6.59 8.66 7.53 8.57 2.71 2.51 4.21 -0.21 -1.03 0.37 -2.79 -6.69 -4.86 -5.74 -8.41
12.32 14.02 22.03 25.71 25.94 25.38 20.57 22.62 24.05 18.31 12.83 10.14 12.24 11.66 10.21 2.60 2.88 14.27 20.42 18.01 18.54 19.49 22.21 21.88 21.74 18.34 14.97 14.09 14.82 14.20 13.07 12.79 12.40 12.45 12.84 12.74 12.09 11.11 5.13 1.76 2.49 4.23 7.99 5.15 1.23 1.55 3.54 -1.30 -4.51 -4.37 -4.28 -4.21 -3.96 -4.77
17.56 19.53 9.25 18.36 16.31 20.05 16.17 14.38 13.87 11.08 12.15 19.69 15.75 5.19 3.57 3.49 8.40 17.15 20.22 22.42 20.76 19.90 17.88 17.71 18.63 17.71 15.72 14.38 12.52 9.48 6.12 6.72 7.70 9.68 10.32 9.10 6.69 3.18 0.97 -0.55 -0.33 7.45 -2.60 -4.42 -3.75 -3.78 -1.23 0.23 1.50 1.48 -0.82 -5.25 -6.54 -4.69
14.05 16.99 13.95 6.83 10.97 11.54 11.07 11.87 11.45 13.55 15.97 16.41 6.39 4.66 6.17 16.38 18.51 19.13 19.36 18.91 18.52 16.53 13.71 12.60 10.07 12.02 12.40 11.66 10.72 11.98 11.38 9.19 6.48 -1.47 -3.48 1.93 1.97 0.40 0.53 1.92 0.16 -0.70 4.91 1.75 3.62 0.42 -1.84 -3.88 -5.36 -7.38 -6.79 -6.76 -6.31 -7.09
13.41 19.08 10.90 7.25 5.02 6.24 10.75 15.36 8.46 11.63 14.65 12.77 15.62 16.14 15.76 17.18 19.10 18.69 16.93 16.82 15.88 13.79 9.02 7.74 6.95 6.84 5.26 7.94 4.94 7.64 8.37 3.75 0.10 0.48 1.19 0.34 0.30 0.58 -1.20 0.19 2.76 -1.20 -3.17 -2.75 0.78 1.85 6.69 0.26 2.31 -4.22 -2.30 -3.17 -1.00 -2.12
20.38 16.56 10.25 9.44 6.37 9.89 17.40 18.31 17.29 15.93 14.35 13.76 12.20 10.70 8.81 12.03 13.61 18.49 19.80 18.06 16.00 13.99 13.83 13.75 10.62 8.16 9.26 6.91 6.72 6.18 0.35 -0.28 -2.55 -2.59 -0.81 -1.21 3.42 -0.02 -4.59 -4.56 -5.01 -4.63 -1.59 -3.85 -6.00 -5.71 -6.50 -8.99 -9.56 -4.66 -2.58 -4.28 -7.85 -9.32
15.21 9.45 6.53 4.42 7.71 12.81 19.22 11.70 9.63 13.09 11.70 8.86 5.29 5.14 5.59 6.91 5.17 10.13 15.04 13.79 13.34 13.73 10.96 10.43 10.69 8.89 8.57 7.04 6.07 6.68 5.30 1.53 -2.57 -3.29 0.34 4.14 -4.23 -5.13 -3.50 -2.79 -3.78 -3.47 -6.72 -7.20 -5.50 -6.72 -7.41 -9.14 -10.33 -11.01 -10.71 -9.11 -11.06 -12.47
13.19 11.10 10.17 8.16 6.07 6.99 12.13 13.55 11.13 12.96 11.04 11.84 13.30 15.44 10.81 7.82 4.26 6.11 10.15 14.73 17.44 14.92 12.69 11.78 10.97 9.45 8.60 7.73 6.50 4.05 0.49 -3.08 -5.27 1.98 -1.65 -3.46 -6.91 -2.56 0.34 -4.05 -4.02 -5.30 -7.53 -8.05 -8.41 -7.38 -7.20 -6.72 -10.41 -11.56 -11.79 -13.47 -13.80 -15.07

GFSWCAN_sfc_wetblb_090.txt.gz
Wetbulb
41.28 41.74 41.13 41.28 41.30 41.83 42.49 43.43 44.55 45.10 45.96 46.53 46.90 47.01 46.85 47.01 46.78 44.39 41.12 41.23 35.98 29.18 32.00 33.97 35.21 31.47 34.20 35.60 29.80 33.31 28.93 33.87 32.42 28.19 27.02 26.12 23.10 28.11 28.42 31.42 30.26 29.17 27.80 26.31 26.03 25.43 22.49 40.92 42.14 35.98 39.16 41.62 41.64 41.73
41.20 41.49 40.64 40.49 41.69 42.43 42.89 44.02 44.80 45.43 46.18 46.34 46.69 46.85 47.10 46.99 46.83 46.27 39.63 41.87 40.89 33.76 32.86 37.22 37.00 37.80 36.89 37.88 34.63 35.79 34.97 35.00 35.25 31.91 29.96 29.09 24.02 25.33 28.52 25.23 37.20 30.33 32.64 28.80 29.76 28.80 39.58 41.08 39.76 41.87 42.22 40.45 40.60 40.26
41.15 40.20 39.78 40.15 42.17 42.39 43.24 44.46 45.39 46.28 46.35 46.44 46.62 46.69 46.90 47.17 47.28 46.19 41.73 41.07 39.66 35.03 32.55 32.64 31.90 37.16 40.08 39.59 41.44 30.93 35.72 39.05 37.96 38.99 35.24 34.50 29.51 31.85 25.16 28.55 33.06 34.78 37.80 34.42 35.04 37.95 37.76 40.52 40.54 41.16 41.40 39.89 39.21 38.38
39.91 39.33 39.34 40.69 42.07 43.21 43.98 45.11 45.99 46.00 46.23 46.57 46.53 46.50 46.60 47.01 47.43 46.83 41.67 41.93 39.27 36.51 28.25 31.00 39.32 35.76 39.85 39.29 40.39 39.40 39.91 41.69 41.02 38.90 34.82 32.11 28.98 36.51 34.01 35.33 32.98 36.11 37.97 33.71 36.31 37.96 38.07 38.48 39.21 39.76 38.90 37.77 36.61 35.10
39.17 38.91 39.96 41.87 42.75 43.72 44.65 45.39 45.41 45.54 45.95 46.32 46.27 46.51 46.41 46.92 47.20 46.57 44.74 42.40 41.98 35.45 27.43 29.83 36.51 38.07 38.88 37.60 36.29 36.85 38.41 37.93 35.30 33.69 31.75 31.49 33.60 35.70 36.01 35.60 30.71 33.30 31.46 31.40 29.11 34.14 35.84 34.94 36.69 38.05 36.08 34.59 33.45 32.36
38.94 39.24 41.35 42.54 43.15 44.08 44.79 44.88 45.18 45.15 45.45 45.58 46.11 46.34 46.83 46.74 46.71 38.76 32.73 41.60 42.83 42.59 35.03 29.32 35.88 37.05 36.82 36.47 34.66 34.69 40.35 36.54 35.65 33.56 33.08 35.56 39.03 35.40 31.05 29.32 32.12 33.51 34.44 33.95 32.83 34.86 35.25 35.72 35.45 35.74 35.25 33.47 32.01 29.82
39.27 40.62 41.97 42.90 43.48 44.47 44.75 44.65 44.69 45.05 45.53 45.78 46.14 46.16 46.46 46.32 41.99 38.12 34.63 38.06 43.70 42.60 34.60 28.74 29.21 36.27 37.57 36.29 34.91 34.97 36.97 36.81 37.87 35.60 34.26 35.51 35.83 36.65 30.17 23.55 29.27 32.71 32.40 33.60 32.51 36.15 31.23 31.89 30.06 32.98 33.62 32.44 31.41 28.73
40.44 41.20 42.51 43.10 44.38 44.23 44.07 44.41 45.17 45.74 45.80 46.01 45.93 46.11 46.11 45.70 44.54 40.79 43.88 44.22 43.42 37.09 37.06 26.13 24.72 30.64 37.59 32.64 32.12 35.94 33.22 34.99 37.56 35.66 36.47 35.19 36.76 32.94 21.15 26.37 27.16 29.42 31.41 29.65 29.79 31.01 30.30 31.42 31.10 29.63 30.59 30.14 27.82 26.15
41.11 41.98 42.93 43.60 43.75 44.67 44.95 45.22 45.59 45.58 45.84 46.11 46.14 46.14 43.63 40.40 37.82 40.62 44.81 44.37 43.87 38.36 31.23 29.04 20.79 22.64 37.81 33.61 36.26 36.64 37.56 31.37 36.91 32.63 32.59 35.31 26.12 21.10 24.36 24.17 23.93 25.30 25.30 26.33 27.61 27.50 27.70 27.64 27.24 26.52 25.65 25.11 24.16 23.95
41.58 43.37 43.51 44.39 44.87 45.16 45.30 45.19 45.52 45.84 45.81 44.77 42.07 36.01 32.00 39.47 45.07 44.03 40.43 35.67 35.93 37.66 34.19 30.53 31.33 29.74 35.41 34.33 33.39 32.56 33.57 31.85 28.67 31.53 34.47 25.11 21.15 25.03 24.39 24.66 24.99 24.71 24.89 25.86 23.78 22.20 23.78 25.05 23.97 22.76 22.03 22.58 22.52 21.53
43.22 43.44 44.81 45.01 44.83 45.13 45.17 45.19 44.72 44.53 44.67 40.02 36.18 35.55 41.73 44.69 40.56 35.65 31.02 30.63 32.30 29.24 31.01 30.79 33.46 32.26 36.00 32.08 31.21 30.77 30.78 31.90 27.15 30.74 30.35 23.17 19.53 21.81 23.44 22.69 23.87 24.04 23.44 23.04 22.69 22.15 23.86 23.81 22.56 21.20 20.59 20.27 19.77 19.25
42.60 44.79 44.56 44.40 44.44 44.73 44.83 44.84 44.71 42.51 41.30 40.93 40.31 42.04 41.42 37.89 35.14 29.65 27.46 29.41 27.99 25.91 31.64 29.66 33.51 35.89 34.52 37.27 32.80 33.21 29.11 30.80 25.18 33.46 22.65 13.81 19.31 22.53 21.89 21.21 21.49 22.13 21.62 20.91 21.03 20.22 21.10 21.21 20.93 20.12 19.27 18.20 17.40 16.92
44.52 44.56 44.49 43.86 43.42 42.49 41.42 43.58 44.55 44.28 43.36 40.34 36.33 33.10 32.48 28.37 26.30 16.71 21.86 26.17 28.02 30.77 33.16 33.77 31.19 33.21 33.03 36.10 30.93 30.35 25.53 22.16 31.84 19.40 14.17 16.30 20.66 21.05 21.20 21.09 20.08 20.73 20.29 18.99 18.65 19.37 19.16 18.64 19.41 18.89 17.07 17.00 16.28 14.42
44.16 44.46 44.07 43.48 41.62 42.31 42.32 42.99 42.76 41.77 37.40 31.62 25.73 12.83 17.79 11.12 17.21 17.44 24.82 26.42 29.69 31.74 32.62 29.41 31.82 32.06 32.48 29.15 30.63 25.56 24.81 27.15 22.78 6.56 8.79 16.22 19.08 20.02 20.76 20.41 18.51 16.72 15.82 14.79 13.69 13.88 13.28 13.10 12.22 12.01 11.66 11.81 11.51 11.41
43.99 43.84 43.60 42.47 40.88 41.92 41.79 41.18 40.53 36.49 30.56 25.52 23.51 13.04 14.02 21.69 23.65 28.23 28.94 29.45 30.40 32.83 32.85 31.39 29.40 28.92 26.22 22.56 27.21 25.20 23.21 7.15 10.96 7.66 13.55 16.34 16.78 19.26 18.86 18.02 14.11 12.89 10.64 11.55 8.47 9.31 6.71 7.17 9.92 10.79 11.65 11.64 11.04 10.56
41.57 41.00 38.62 40.94 40.64 41.35 40.81 39.50 36.16 33.32 28.04 24.75 23.26 21.88 24.11 19.30 19.72 24.62 26.66 26.08 31.11 31.16 32.82 29.48 24.02 20.47 19.57 22.95 17.00 13.48 14.70 6.78 7.45 8.22 15.03 16.19 15.04 15.03 14.84 16.88 14.62 12.88 12.11 10.94 10.18 10.12 9.50 6.52 5.98 6.22 6.81 7.79 5.57 7.67
41.72 37.14 39.02 40.28 41.05 40.86 40.67 33.16 30.07 27.47 24.90 22.06 19.40 20.04 17.71 16.78 17.98 23.84 25.29 25.93 29.85 28.11 19.24 22.22 15.40 15.95 22.85 13.29 9.17 12.93 5.74 9.15 15.69 17.40 17.26 13.35 12.22 10.61 11.47 13.38 12.09 11.52 10.71 8.82 8.23 9.19 7.35 8.32 9.00 11.81 8.73 7.49 10.75 10.17
34.92 37.50 40.17 41.47 39.73 37.38 34.89 31.73 26.62 24.78 21.64 21.56 19.12 20.06 13.86 16.56 19.67 19.84 24.27 24.35 25.19 24.29 23.61 19.52 22.28 13.72 6.80 8.55 7.15 12.07 15.77 17.54 16.69 14.73 14.25 14.65 14.10 8.89 11.58 9.13 7.16 9.48 7.97 8.32 10.32 9.95 10.42 9.31 11.17 9.32 11.69 14.00 14.04 13.61
35.80 37.17 40.09 39.81 38.89 33.39 29.29 28.28 27.51 20.37 20.84 20.14 21.50 21.63 21.15 20.10 22.71 23.05 21.85 22.88 23.07 24.68 23.93 19.95 14.45 13.03 11.62 14.09 13.54 10.05 7.69 9.15 14.04 10.42 8.25 6.01 8.20 9.72 8.06 9.22 10.26 9.94 14.20 14.03 15.73 16.34 15.95 16.92 15.93 16.19 16.14 16.55 14.46 12.83
40.06 39.58 39.39 39.78 38.80 30.80 27.69 26.86 29.61 24.56 20.28 20.98 23.95 21.85 22.44 19.92 21.71 17.31 21.86 23.37 23.13 21.04 15.79 13.10 11.57 12.28 13.90 10.43 9.56 14.22 13.76 15.86 15.24 12.18 7.53 9.69 9.49 11.64 9.67 11.78 10.58 10.86 14.18 14.96 15.34 17.74 16.90 16.28 16.62 15.49 14.53 13.40 10.88 9.33
37.56 36.77 39.24 37.46 33.27 31.64 27.89 26.11 24.13 24.41 25.05 22.00 24.97 23.99 20.92 22.27 18.18 16.19 17.64 22.51 16.81 15.95 11.31 12.09 13.64 17.49 16.50 14.19 16.99 20.32 16.54 18.57 13.14 13.95 11.96 13.26 9.94 13.94 14.46 15.51 18.26 19.42 16.54 12.77 12.02 12.57 12.52 12.07 13.31 11.01 1.74 -5.16 -3.73 1.28
34.03 39.48 33.05 33.67 28.85 28.29 26.27 26.82 24.95 24.82 24.55 23.72 23.81 25.87 16.04 9.75 9.39 13.87 20.89 15.45 15.50 13.93 13.20 14.70 14.89 16.93 17.20 14.01 14.86 16.16 12.82 19.53 18.71 17.05 15.51 16.47 13.24 12.04 11.75 11.24 10.10 5.22 9.92 9.38 9.58 4.20 4.89 9.80 9.25 5.72 0.21 -4.62 -0.72 -0.07
38.46 36.41 30.26 28.13 21.02 19.31 21.12 28.51 22.24 24.60 17.47 19.70 22.43 19.21 14.73 13.14 18.81 22.20 11.43 16.65 15.52 15.94 15.44 15.97 15.85 18.78 17.73 15.58 19.70 19.21 18.33 17.74 13.88 12.39 12.98 11.72 11.55 8.60 9.59 9.33 9.83 8.15 7.37 6.32 8.31 4.70 2.14 1.87 3.10 -2.68 -3.55 -3.12 -4.34 -8.21
34.63 28.81 22.53 18.86 20.32 16.22 20.16 18.65 24.90 23.32 21.40 20.48 17.91 14.99 14.78 15.36 21.04 13.28 10.87 11.13 13.93 16.69 17.03 18.02 18.78 18.02 18.86 18.47 15.11 15.79 17.01 16.95 14.48 13.20 12.57 13.05 10.45 8.30 10.30 9.27 8.16 6.75 9.11 9.89 7.59 2.51 -0.02 -5.19 -3.74 -2.66 -3.38 -3.72 -4.08 -1.24
20.63 17.58 19.16 12.77 18.41 13.86 10.48 10.51 15.37 17.37 10.49 13.90 12.29 11.25 13.23 19.43 9.11 6.97 6.13 10.89 11.04 9.76 13.85 18.09 18.61 18.46 13.20 9.90 11.81 13.30 16.82 16.62 13.12 10.77 11.08 11.48 7.73 8.60 9.14 9.52 8.71 8.75 8.58 2.30 -1.51 -4.09 -6.28 -8.97 -6.25 -6.67 -5.81 -7.95 -0.00 -6.09
10.40 11.57 15.67 12.24 12.76 15.26 14.47 10.00 10.02 11.62 12.37 9.85 10.41 15.50 14.20 8.24 2.86 3.14 11.62 9.90 6.33 8.83 6.94 13.28 17.71 15.57 14.53 15.01 12.40 11.42 10.97 14.08 14.10 9.34 9.05 11.79 9.60 4.83 2.01 1.56 0.74 2.31 4.82 -2.81 -0.02 -2.73 -5.85 -8.09 -9.14 -8.05 -10.79 -8.22 -8.83 -13.14
6.82 7.66 19.41 24.69 23.80 23.04 17.43 18.07 21.37 14.97 8.27 8.08 10.30 8.02 3.15 -3.92 -3.35 9.89 14.13 12.59 14.26 11.37 17.59 20.85 19.56 15.89 12.96 11.90 11.94 10.84 10.74 11.98 10.42 10.68 11.06 10.64 9.35 7.40 1.87 2.36 0.05 2.49 3.57 -1.93 -3.26 -4.98 -5.54 -8.25 -10.45 -11.33 -10.10 -9.88 -9.12 -8.40
15.92 14.77 8.80 11.41 12.07 15.91 9.06 10.04 8.08 6.98 7.73 15.84 11.26 0.66 -1.18 0.78 5.72 14.68 16.02 17.13 15.64 16.67 16.52 16.66 16.97 15.55 13.09 11.08 9.23 7.64 5.54 6.40 8.04 8.36 8.69 6.20 3.27 -2.25 -3.44 -4.15 -2.87 3.98 -7.19 -10.06 -10.61 -9.70 -5.35 -3.59 -5.89 -9.33 -10.60 -9.15 -8.25 -5.16
6.90 12.85 12.34 5.58 8.14 8.97 9.92 7.82 6.75 11.22 14.81 11.36 0.95 -0.45 4.24 14.02 13.09 15.94 14.40 14.43 15.78 15.09 12.56 10.96 6.02 9.47 9.95 9.06 7.32 6.73 1.79 2.92 1.92 -2.27 -5.89 -5.71 -6.07 -0.48 -3.71 -6.79 -7.70 -7.34 -6.61 -4.49 0.99 -5.16 -7.35 -9.75 -10.33 -10.45 -11.06 -10.18 -12.27 -15.32
9.77 14.43 6.90 2.11 1.08 2.17 4.47 9.85 3.78 2.16 10.96 9.92 14.08 15.32 12.62 13.78 17.62 16.40 15.67 13.43 11.29 8.23 3.27 10.41 5.40 9.24 6.23 5.20 0.07 -0.37 -1.29 -5.53 -3.23 -0.70 -6.65 -7.16 -4.32 -4.50 -7.70 -6.61 -6.79 -9.70 -10.96 -9.51 -6.61 -3.73 1.54 -6.35 -4.34 -9.71 -9.51 -9.33 -7.70 -8.98
16.06 9.77 2.85 1.70 1.69 7.53 5.86 8.94 12.58 9.58 3.62 4.57 2.39 2.08 4.55 10.50 13.00 17.01 14.14 8.42 11.52 10.75 11.02 5.52 0.09 0.36 5.13 2.24 -0.92 -3.57 -4.66 -3.17 -6.98 -5.89 -1.47 -2.67 -6.27 -10.06 -10.42 -11.15 -12.60 -12.05 -12.80 -13.32 -14.23 -14.41 -15.14 -16.22 -18.04 -16.40 -15.32 -13.50 -14.59 -16.40
3.34 -2.03 0.28 0.78 4.12 8.32 8.44 -0.10 -0.56 0.94 -0.52 -1.45 -1.96 -4.44 1.53 1.79 2.22 7.66 13.69 8.10 9.84 9.07 3.35 5.19 6.15 3.15 1.48 1.95 2.11 0.85 2.42 -1.24 -7.34 -3.37 -6.27 -8.25 -14.05 -14.59 -12.96 -11.15 -13.87 -14.43 -14.05 -13.68 -13.50 -13.87 -14.26 -15.13 -17.13 -17.49 -16.95 -17.31 -19.12 -19.67
2.02 -0.07 -2.01 0.88 2.26 2.45 6.18 5.88 2.04 2.87 -1.19 -0.78 0.24 2.04 4.46 0.19 -0.18 4.36 9.43 10.37 7.99 9.52 7.36 4.77 5.93 5.41 4.31 2.85 1.77 -0.45 -2.14 -7.20 -7.34 0.09 -4.80 -6.61 -8.06 -7.34 -14.81 -16.58 -16.04 -16.22 -12.79 -15.13 -16.04 -16.40 -14.05 -12.05 -15.86 -16.95 -18.40 -19.67 -20.03 -21.12

GFSWCAN_sfc_wetblb_093.txt.gz
Wetbulb
40.41 41.31 41.17 41.76 41.90 41.45 41.39 41.58 42.25 43.19 44.28 45.27 45.86 46.62 46.73 46.96 46.88 44.38 41.21 40.17 35.59 25.74 30.02 32.46 33.03 29.25 32.16 33.10 29.30 31.86 27.85 31.76 31.71 24.93 25.61 25.63 23.93 27.68 27.91 29.34 27.79 26.18 24.26 23.33 25.41 24.50 20.55 38.63 39.45 33.96 38.20 39.64 40.54 40.23
40.57 40.88 41.56 42.17 41.78 40.13 40.66 41.06 42.10 43.53 44.62 45.31 46.05 46.51 46.80 46.98 46.90 45.98 39.92 41.06 40.75 34.83 30.42 35.32 35.56 36.37 35.18 35.85 31.46 33.08 32.04 33.57 35.31 31.61 30.40 29.97 23.72 24.13 27.21 23.22 34.37 25.86 31.07 29.29 27.88 26.82 38.27 39.59 38.47 40.16 39.56 36.52 36.32 37.82
40.26 40.37 41.36 41.66 40.32 39.95 40.52 41.49 42.71 43.80 44.73 45.71 46.28 46.60 46.81 46.97 47.24 45.88 41.95 40.49 38.71 34.93 32.66 30.69 30.46 35.75 38.31 37.00 39.35 29.27 32.88 36.44 34.56 37.94 33.31 32.67 28.39 29.76 22.23 23.64 31.07 35.41 35.98 32.56 33.66 37.41 38.00 38.81 38.92 38.46 38.49 36.23 35.00 34.38
40.23 40.52 41.19 40.54 39.60 39.57 40.71 42.21 43.04 44.39 45.66 46.25 46.35 46.42 46.37 46.77 47.32 46.74 41.69 41.64 39.13 35.89 27.24 29.03 37.97 34.01 37.69 37.78 38.31 38.26 36.16 39.93 40.07 38.13 33.99 31.56 28.36 33.63 30.59 34.30 30.81 32.64 33.93 30.97 33.49 35.40 36.73 36.53 38.06 37.14 34.99 35.27 33.45 31.95
39.83 40.43 41.25 39.81 39.18 40.19 41.86 42.80 43.95 44.60 45.87 46.25 46.30 46.38 46.42 46.81 46.79 46.49 44.09 42.30 41.71 35.76 27.55 29.02 36.01 37.75 37.33 36.95 37.55 38.40 37.79 36.85 35.46 33.69 31.73 27.64 32.07 33.39 33.63 33.52 28.28 32.83 29.41 27.56 27.59 31.71 34.34 33.66 35.64 36.66 33.64 31.37 30.45 29.71
39.09 40.72 40.54 39.88 39.23 41.19 42.35 43.47 44.09 44.83 45.54 45.77 46.05 46.48 46.71 46.46 46.56 41.12 32.45 41.62 42.59 42.00 34.73 28.43 35.83 35.07 34.62 35.48 34.75 33.54 34.38 37.01 37.38 34.74 32.81 34.43 37.22 35.01 30.27 26.09 29.55 32.65 33.48 31.14 31.65 34.07 32.82 33.46 34.27 33.58 31.41 30.12 29.22 27.73
39.89 40.23 39.53 39.48 40.82 42.14 43.31 43.58 44.26 44.95 45.45 45.56 45.77 46.02 46.34 46.39 42.82 38.69 34.72 38.97 43.70 42.24 34.04 29.02 28.38 33.71 36.04 34.43 32.91 32.61 35.39 35.69 36.42 33.84 33.64 34.22 35.25 36.88 28.60 23.42 27.42 31.09 30.70 30.62 31.55 34.17 30.64 30.40 28.74 31.32 31.26 30.08 29.10 26.22
39.71 39.15 39.24 40.75 41.94 42.90 43.13 43.88 44.70 44.88 44.92 45.20 45.54 45.84 45.95 46.28 44.53 39.80 43.57 44.36 43.10 38.03 36.93 27.06 23.33 27.68 36.49 30.49 31.89 33.19 31.39 34.24 34.27 32.86 34.87 34.27 34.47 31.27 22.09 24.03 25.40 27.41 28.78 28.59 28.83 29.38 29.44 29.68 28.34 27.10 27.39 27.65 25.91 24.46
38.98 38.98 40.89 41.69 42.23 43.16 43.84 44.22 44.46 44.80 45.19 45.87 45.98 46.01 45.06 40.92 36.66 40.66 44.67 44.24 43.29 38.41 29.76 28.77 21.40 17.78 36.24 32.99 33.60 32.20 33.19 29.45 32.82 32.35 32.63 33.15 24.40 16.49 22.33 22.98 23.22 24.62 24.33 24.50 26.21 26.08 26.27 25.91 23.77 23.31 23.39 23.18 22.69 21.89
39.09 40.93 41.30 41.97 43.42 44.15 44.95 45.17 45.44 45.80 45.77 45.91 42.94 35.48 31.35 39.13 44.94 43.69 39.06 35.09 33.66 35.62 34.42 28.25 26.53 26.35 34.79 32.11 32.08 30.09 33.48 30.40 27.70 31.89 31.14 23.54 17.35 22.58 23.28 23.40 23.52 23.44 23.61 23.72 23.28 21.26 22.73 23.28 21.71 21.29 20.71 21.30 20.44 20.15
40.27 40.67 42.69 43.58 44.26 45.12 45.23 44.50 44.36 44.57 44.13 40.16 33.30 33.16 41.08 44.36 39.21 35.68 29.60 30.21 31.67 28.70 32.39 30.30 30.87 29.76 35.91 30.67 30.11 32.70 30.19 30.85 25.53 29.86 27.61 19.40 17.88 19.89 22.57 21.77 22.51 22.58 21.99 21.65 21.73 22.57 22.79 22.63 21.44 20.33 19.38 19.59 18.64 17.58
41.39 42.95 43.71 45.22 45.22 45.19 44.62 44.64 44.48 42.31 40.29 40.50 40.32 41.56 40.00 35.79 33.49 29.29 27.77 29.25 28.03 24.64 29.59 31.49 33.63 35.71 32.21 34.23 32.30 32.29 27.35 30.16 24.74 30.86 22.41 11.80 18.85 21.27 20.77 20.35 20.68 20.93 20.55 20.06 20.67 20.65 20.78 20.64 20.47 19.43 17.92 16.19 15.36 15.20
42.27 44.23 43.23 43.29 43.77 44.77 44.70 44.41 44.23 44.04 43.15 39.62 35.95 32.10 32.38 28.60 23.49 23.89 22.02 24.04 26.09 31.23 33.19 33.53 31.26 33.03 32.77 33.86 31.32 29.92 25.97 25.32 28.07 16.06 10.35 14.89 19.68 20.90 20.71 20.02 18.79 19.55 19.09 18.47 17.98 18.62 18.18 16.92 18.19 18.09 16.18 15.89 14.71 12.46
43.20 42.76 42.55 43.29 43.84 43.71 44.51 44.48 44.47 40.56 35.12 28.83 25.02 12.05 15.97 8.85 15.77 16.09 21.90 22.40 25.83 32.15 32.86 31.21 31.59 32.14 31.51 26.88 29.06 20.84 22.85 24.73 12.85 6.95 8.78 16.01 18.39 19.02 19.66 19.52 16.73 14.26 13.89 13.06 12.01 12.46 11.76 11.78 10.63 10.05 8.15 5.51 5.65 5.51
43.17 42.21 42.09 42.02 42.11 42.00 42.02 41.25 39.52 34.11 29.14 24.16 21.95 9.92 12.56 18.84 19.36 27.04 29.56 30.05 30.87 33.10 32.24 30.05 28.00 28.78 24.69 22.08 23.71 22.20 16.90 9.02 10.00 6.03 8.71 15.38 18.27 18.04 16.59 16.30 12.68 11.43 7.81 8.84 7.00 7.42 2.72 4.20 6.70 6.78 6.03 4.93 5.85 3.24
42.91 42.29 40.81 40.65 41.65 41.01 40.80 37.91 35.38 33.11 27.51 22.90 20.58 19.55 22.05 18.44 22.39 25.48 26.60 27.75 30.81 32.02 31.72 28.55 24.23 21.11 19.43 19.65 15.44 11.26 15.62 9.44 6.86 7.92 14.17 17.20 16.61 16.94 17.07 16.44 12.97 10.38 8.40 6.22 5.06 6.09 6.27 3.57 4.03 3.62 5.64 5.04 2.40 3.23
41.49 37.52 41.36 40.80 41.34 41.17 39.70 32.96 29.56 27.09 23.47 20.86 16.47 20.78 15.23 15.60 21.55 23.55 24.79 25.77 29.03 26.76 20.67 22.57 16.09 19.09 20.51 11.91 8.74 11.00 5.90 7.77 13.62 15.09 9.78 9.04 11.19 9.43 8.16 10.48 9.85 9.15 7.47 5.11 5.08 6.42 4.59 5.61 6.79 10.69 8.76 9.19 9.95 9.08
36.30 39.39 41.01 41.77 39.05 37.83 34.25 30.38 26.59 24.19 20.54 19.70 17.42 19.19 17.40 17.77 22.26 22.42 22.52 25.52 27.03 24.76 23.09 18.06 21.15 12.74 6.00 8.59 6.46 9.81 12.38 11.35 9.25 11.51 7.07 5.44 5.44 4.16 10.08 8.26 4.31 7.02 5.89 5.64 7.82 6.63 7.78 7.23 9.57 9.14 11.92 12.41 13.01 12.61
37.29 39.47 40.42 40.65 38.59 32.97 28.41 26.15 26.46 19.40 19.12 20.52 20.83 21.95 21.39 18.88 21.77 23.06 23.02 23.39 22.05 23.05 21.92 17.89 11.68 9.42 8.98 10.39 5.42 6.53 6.34 7.17 13.34 9.43 8.83 4.35 7.11 9.53 6.48 5.04 7.07 7.44 11.81 11.64 14.26 13.41 13.54 14.15 14.66 14.12 13.91 14.52 13.19 12.02
40.22 39.91 39.76 40.12 38.12 29.68 26.55 25.05 28.18 23.45 19.61 21.04 24.21 23.03 22.54 19.05 21.21 16.46 21.26 22.62 22.10 19.70 13.68 11.35 9.52 11.97 12.76 8.52 5.84 13.19 8.44 13.49 14.82 11.49 13.40 14.32 6.17 6.80 5.23 9.25 8.58 10.03 15.28 15.11 14.61 16.02 15.61 14.85 15.28 14.04 14.33 13.60 11.24 10.33
37.43 36.97 38.83 36.25 32.10 30.72 27.16 25.20 23.85 24.62 24.25 21.89 25.21 23.50 19.48 21.26 17.85 16.79 18.31 21.75 16.20 14.06 9.64 8.99 15.50 16.76 9.60 9.75 15.84 16.59 15.81 17.26 11.55 12.78 10.48 11.73 8.97 12.19 12.14 9.97 13.41 12.58 10.58 6.61 7.34 8.63 8.54 7.76 8.04 8.11 -1.31 -7.07 -5.98 0.13
34.72 38.54 32.34 32.84 28.13 27.64 25.88 25.96 24.80 24.58 23.56 23.26 22.85 23.55 16.11 12.94 12.32 14.93 19.81 14.54 13.11 11.11 10.40 12.17 12.91 14.32 16.28 13.37 9.92 13.13 13.26 16.11 15.66 14.89 14.03 14.65 13.53 11.01 7.76 5.39 8.84 7.24 11.02 8.52 8.85 1.52 3.05 7.06 5.65 3.06 -4.92 -8.52 -3.09 -1.51
37.97 34.90 28.07 26.50 20.48 18.65 18.80 27.44 21.06 23.82 16.03 18.40 21.42 17.71 14.31 13.35 17.54 20.94 10.41 15.57 11.70 12.73 14.24 16.23 15.81 17.60 15.97 14.02 18.41 18.20 17.78 17.18 13.35 11.90 11.94 9.51 8.44 5.46 7.04 5.83 6.82 5.25 3.30 4.33 6.27 3.39 1.10 0.91 4.97 -4.53 -6.89 -6.39 -5.89 -8.88
33.34 25.89 18.95 16.38 19.51 18.54 17.72 15.08 24.20 22.09 20.05 19.07 16.57 13.09 13.43 13.69 18.71 10.97 8.48 8.15 11.64 16.92 16.98 18.18 18.59 17.52 18.15 17.92 14.89 15.17 15.47 15.77 13.35 12.07 11.63 11.63 8.83 6.80 8.06 7.04 5.86 4.92 7.18 7.56 5.22 -0.41 -2.36 -7.99 -5.25 -2.55 -7.97 -8.16 -9.61 -5.62
21.71 16.57 16.45 10.53 15.59 12.20 8.51 6.86 12.05 15.11 9.11 11.44 10.16 9.33 12.47 17.12 6.65 3.89 5.71 8.60 11.96 10.64 12.65 16.80 17.70 16.53 12.75 8.64 10.92 12.40 15.91 15.33 12.79 9.85 8.89 10.01 7.14 7.67 7.35 7.94 6.50 6.78 6.52 -1.48 -4.00 -6.01 -9.06 -13.41 -13.05 -11.78 -9.61 -9.79 -2.97 -6.16
10.62 9.90 14.13 9.70 10.27 13.17 11.83 7.89 6.91 7.94 7.64 6.64 7.39 11.51 10.70 5.74 1.65 0.15 9.49 8.50 4.13 7.52 4.82 12.02 12.22 13.19 12.73 13.42 11.52 10.67 10.18 12.50 12.65 8.63 7.86 10.24 8.35 4.46 1.54 0.06 -0.66 1.64 2.44 -4.35 -2.80 -6.36 -7.83 -10.88 -11.97 -8.34 -11.42 -9.92 -10.74 -14.86
7.74 7.65 18.07 22.33 21.89 20.74 13.54 14.69 18.45 12.36 7.78 8.31 8.40 8.01 2.12 -3.47 -4.17 6.71 11.00 9.96 11.77 9.87 15.42 17.48 17.68 15.30 12.45 10.35 10.50 9.70 10.46 10.29 9.33 9.31 9.08 8.14 7.05 5.67 2.04 -0.99 -0.44 2.30 2.01 -4.38 -8.16 -7.81 -4.03 -7.43 -12.78 -13.42 -13.23 -16.31 -16.75 -14.23
15.03 13.19 10.68 9.13 9.32 13.94 5.68 5.57 4.38 4.86 5.71 14.39 10.89 -0.49 -1.05 0.04 3.76 11.35 11.68 11.72 14.97 16.95 15.43 14.96 15.58 14.27 11.86 9.11 7.73 6.84 5.83 6.16 5.75 5.69 5.19 4.74 2.63 -2.57 -4.85 -5.10 -3.83 3.08 -9.44 -13.05 -12.69 -12.69 -9.61 -8.52 -8.35 -11.24 -12.69 -10.51 -11.24 -10.15
6.82 10.87 11.30 3.64 6.16 7.57 8.76 6.30 6.66 11.63 14.06 10.15 -0.72 -1.08 3.95 11.90 9.77 10.78 12.55 9.52 15.32 14.30 10.78 8.53 4.65 8.19 6.37 4.76 2.15 1.80 1.84 5.83 0.04 -5.44 -9.24 -9.42 -9.79 -3.83 -9.06 -11.06 -11.24 -11.78 -13.23 -9.01 -2.17 -7.25 -8.34 -11.80 -11.47 -12.22 -12.89 -13.60 -14.68 -18.31
8.15 12.31 4.83 -0.20 0.60 3.70 4.17 7.25 2.67 4.75 11.44 8.93 11.73 12.42 10.07 10.81 15.39 13.97 9.25 8.45 9.76 8.59 5.04 8.20 6.39 6.94 3.20 2.82 -2.37 -0.42 -2.59 -7.43 -4.26 -0.97 -4.31 -6.92 -4.87 -8.93 -14.14 -11.42 -11.60 -13.96 -16.31 -13.78 -11.78 -9.11 -2.03 -10.16 -7.62 -14.68 -16.49 -15.59 -16.86 -17.40
12.96 7.80 3.56 3.18 2.51 2.83 5.40 2.55 3.87 4.17 -1.08 -1.10 -1.35 0.23 2.82 9.74 14.52 15.12 11.75 7.45 9.40 8.60 7.22 1.58 -1.81 -2.42 1.66 -1.96 -4.36 -2.38 -2.08 -1.95 -6.34 -4.05 -4.43 -5.98 -9.06 -11.60 -11.06 -12.32 -15.95 -17.04 -17.40 -16.49 -16.31 -17.40 -18.67 -20.12 -21.93 -20.12 -17.76 -15.77 -17.40 -20.48
3.01 -1.66 0.57 -0.19 3.74 4.33 2.90 -2.97 -2.41 1.01 -0.63 -0.83 1.99 -3.62 -1.84 -0.48 -0.75 5.80 10.63 5.77 5.45 3.63 -2.72 3.18 4.69 -0.42 -4.71 -3.31 -3.12 -1.79 2.28 0.04 -1.57 -2.85 -5.15 -10.15 -15.04 -17.58 -16.49 -15.41 -19.76 -19.03 -17.22 -18.49 -19.21 -18.85 -17.58 -18.49 -20.30 -21.03 -20.85 -19.76 -21.39 -21.93
-2.43 -5.85 -6.89 -1.33 2.45 3.95 3.64 3.40 -0.04 -0.96 -4.18 -2.44 0.73 -2.91 -5.98 -3.32 -1.42 2.65 7.37 7.43 5.07 5.68 1.98 -2.55 0.08 0.23 0.45 1.28 0.60 -0.86 -1.57 -3.26 -4.17 2.00 -2.54 -6.52 -11.60 -12.32 -19.40 -21.21 -21.03 -19.21 -16.68 -18.85 -20.66 -19.76 -17.40 -15.41 -18.31 -19.40 -20.85 -22.30 -22.48 -23.57

GFSWCAN_sfc_wetblb_096.txt.gz
Wetbulb
41.60 40.72 40.63 40.82 41.31 41.30 41.74 42.18 41.09 41.64 42.23 42.84 43.80 44.95 45.40 46.15 46.47 43.97 40.69 40.29 36.53 25.90 27.95 31.35 31.42 27.58 28.51 31.25 27.66 29.60 26.45 30.92 29.81 26.26 25.33 25.67 24.30 27.06 27.52 28.91 27.92 26.02 25.08 22.82 26.05 23.37 19.87 37.57 36.91 31.07 35.82 35.93 37.38 38.36
41.31 40.38 40.56 40.68 41.32 41.50 41.51 41.27 40.67 41.39 41.78 42.99 43.88 45.10 45.62 46.43 46.77 45.94 39.72 40.80 40.74 34.75 29.63 34.25 34.51 35.28 34.33 34.38 30.21 30.34 30.75 34.00 33.72 30.98 30.46 30.40 26.82 25.82 27.37 23.91 32.65 24.56 31.70 29.74 28.41 27.17 37.26 38.51 37.31 37.88 36.54 33.69 33.76 35.61
40.71 40.38 40.28 40.71 40.88 41.12 41.67 40.52 40.24 41.27 42.12 43.06 44.43 45.42 46.04 46.61 47.01 46.11 41.07 39.87 38.28 34.37 33.93 31.09 31.71 34.94 36.76 35.76 36.98 27.56 30.66 35.04 35.10 37.70 32.71 32.35 28.09 30.88 23.16 24.01 31.30 33.38 34.66 32.13 31.40 35.58 36.37 36.87 36.43 36.74 35.83 33.91 32.97 33.81
40.45 40.34 40.32 40.46 40.60 41.31 40.83 39.90 40.36 41.27 42.37 43.56 44.75 46.07 46.36 46.76 46.96 46.50 40.91 40.86 38.91 35.91 27.59 28.86 36.33 32.79 36.13 36.35 35.47 34.96 33.82 36.90 39.30 37.37 33.15 31.56 27.17 32.28 29.66 32.08 30.33 30.58 31.58 28.51 32.19 32.74 34.75 34.47 35.42 34.91 33.96 33.46 30.25 29.22
40.01 40.20 40.20 40.43 40.83 40.95 40.45 39.62 40.51 41.76 42.34 43.95 45.30 46.22 46.55 46.49 46.76 46.20 43.49 41.64 41.55 36.30 25.55 27.55 34.07 36.78 36.38 34.80 34.87 36.18 35.14 33.65 33.89 33.55 30.49 26.55 28.91 32.22 33.26 31.71 26.61 31.57 27.72 24.90 25.97 30.74 32.19 31.27 33.90 33.90 30.63 29.21 28.58 27.62
39.93 39.67 40.10 39.94 40.98 41.26 39.49 39.70 41.08 42.11 42.82 44.15 45.46 46.10 46.29 46.20 46.41 40.79 32.77 41.25 42.54 42.19 34.70 26.86 33.97 33.24 33.98 33.66 33.98 34.15 34.38 36.16 36.90 32.43 32.59 34.16 36.01 34.57 29.69 19.99 29.46 30.13 30.92 29.80 28.25 32.95 31.86 32.04 32.21 32.24 29.14 27.39 26.12 24.37
39.45 39.29 38.46 39.60 40.57 40.65 40.08 40.07 41.35 42.52 43.76 44.40 45.42 46.01 45.99 45.90 43.14 38.33 34.97 38.46 43.78 42.35 33.81 28.58 26.79 32.37 33.79 32.72 31.03 31.61 33.14 34.68 33.18 34.98 31.61 31.15 32.03 35.80 27.65 18.27 26.50 29.53 29.92 29.22 30.28 32.12 30.58 28.12 25.95 28.17 28.90 27.28 26.41 23.59
39.41 38.96 38.94 40.11 40.44 39.84 39.82 40.95 42.38 43.48 43.88 45.03 45.38 45.79 45.81 45.82 44.69 40.03 43.18 44.11 43.85 38.02 36.40 27.52 23.30 27.27 34.29 29.24 28.33 32.56 30.92 31.50 32.97 33.49 32.95 31.15 33.79 30.38 22.50 24.10 25.02 25.91 28.08 26.80 27.19 28.16 28.88 26.98 25.13 24.14 24.82 25.27 23.68 22.49
39.08 39.83 39.94 39.95 39.60 39.74 41.14 42.39 42.88 43.21 44.29 45.19 45.53 45.70 44.15 41.48 35.46 40.25 44.94 44.46 43.34 38.00 30.96 28.46 19.76 16.81 35.06 32.44 33.99 32.68 30.84 24.49 30.03 30.94 29.83 32.66 25.74 17.46 21.98 22.90 22.66 22.93 22.65 22.24 25.64 25.04 25.66 23.46 21.87 21.49 21.52 21.19 20.85 20.09
39.14 39.53 39.82 39.87 40.07 41.07 41.77 42.31 43.33 44.33 44.94 45.10 43.42 36.21 29.98 34.38 44.71 42.46 37.82 33.60 33.83 34.52 34.71 27.09 25.38 27.73 34.25 31.63 31.09 30.86 30.57 22.98 26.20 28.25 29.88 24.51 14.35 22.19 22.97 22.74 22.00 21.87 21.89 22.22 21.70 20.44 21.71 22.32 20.81 19.54 19.14 19.76 19.00 18.26
38.62 39.08 39.19 39.53 41.13 41.44 42.71 43.91 45.00 45.66 45.52 38.95 32.38 32.95 39.82 44.19 37.89 34.08 29.38 29.30 30.64 28.85 32.31 29.87 30.49 28.80 34.88 27.00 28.95 30.41 28.22 29.59 24.96 27.43 27.84 20.32 17.11 19.77 21.95 20.94 21.53 21.42 21.17 20.78 21.60 21.97 21.76 21.38 20.12 18.85 17.51 17.36 16.61 15.89
39.05 39.20 40.44 40.88 41.68 43.07 44.76 45.05 44.80 42.83 39.69 37.87 39.22 41.40 40.49 35.85 32.36 29.28 27.39 29.25 27.77 24.43 28.81 30.05 30.71 34.16 32.66 35.15 31.71 30.87 27.22 29.10 23.40 28.84 21.65 10.83 16.71 20.52 20.42 19.64 19.61 19.97 20.03 19.47 20.37 19.50 19.81 19.96 18.71 17.13 15.85 14.57 13.90 13.53
39.45 40.24 41.05 42.15 42.62 44.83 44.75 44.49 44.40 44.25 43.63 40.24 36.34 31.49 32.66 27.75 24.50 19.76 20.85 23.78 18.03 28.78 30.84 33.64 31.40 33.34 32.33 33.09 31.64 30.22 25.60 23.79 27.04 18.04 13.42 14.51 19.38 20.34 19.48 19.15 18.39 19.16 18.88 18.12 17.30 17.66 16.77 15.61 16.02 16.10 14.07 13.55 12.24 9.93
40.18 41.23 43.82 45.03 44.65 44.73 44.65 44.69 42.74 40.41 36.00 29.87 27.29 20.43 21.41 12.40 17.67 16.41 19.88 23.05 28.58 31.93 33.01 32.88 31.83 31.37 31.64 29.56 29.15 23.54 23.12 25.33 17.66 8.03 8.93 14.80 17.56 19.03 19.49 19.12 16.44 13.77 13.29 12.95 11.54 11.70 10.84 10.24 8.35 7.70 4.93 2.16 3.44 2.42
42.40 44.13 44.30 44.20 44.56 44.64 43.86 40.91 38.32 33.84 28.30 23.47 23.27 12.40 16.45 17.79 21.49 27.27 30.24 31.07 31.21 33.91 32.47 28.72 27.06 28.04 22.33 21.27 19.48 21.03 18.12 12.26 11.68 8.99 8.50 14.09 15.49 16.75 15.42 14.91 11.50 10.07 5.96 6.81 5.50 5.23 1.21 2.44 4.87 4.58 3.65 0.64 1.91 -1.70
41.54 41.09 40.59 42.46 41.61 41.24 39.90 37.45 34.12 30.89 27.06 22.70 19.73 19.15 22.04 22.34 23.64 25.61 27.80 28.12 30.76 32.35 30.97 27.34 23.01 19.21 17.56 18.68 17.10 14.02 17.25 10.77 7.47 5.25 12.75 17.43 16.06 13.78 12.16 13.27 8.37 7.11 5.81 3.96 2.67 4.27 4.29 1.39 2.35 1.22 1.54 0.93 -2.95 -2.30
41.27 39.12 41.14 42.23 40.98 39.90 38.51 32.27 30.27 26.21 22.42 19.82 15.35 18.78 10.82 12.21 21.84 23.33 25.27 25.92 29.11 29.47 24.06 21.51 17.16 18.20 21.37 13.97 10.66 10.18 4.98 5.85 10.68 12.44 7.56 8.29 11.24 9.66 6.15 7.84 6.82 6.78 5.82 2.89 3.58 4.77 2.76 3.47 4.85 8.62 5.40 2.25 4.80 2.84
38.15 39.96 42.11 41.48 38.23 36.79 32.05 29.07 26.15 24.19 19.55 19.43 16.14 15.87 16.32 18.65 23.12 22.69 24.27 25.58 28.14 26.66 23.11 19.18 22.69 13.25 5.99 9.81 5.45 7.76 7.90 7.72 7.00 8.95 5.38 3.04 4.31 3.75 8.75 6.37 2.44 5.14 4.45 3.39 5.98 4.46 4.69 4.12 6.81 5.02 7.09 7.65 8.78 8.40
38.13 38.94 41.15 41.14 38.20 31.78 26.88 25.93 26.19 18.68 18.31 20.23 20.95 21.52 19.46 16.91 22.01 23.48 24.50 25.52 24.75 24.55 21.07 16.07 9.84 8.03 6.84 5.25 2.27 3.58 9.61 8.01 13.63 11.31 10.22 2.86 6.91 8.82 5.34 4.77 6.37 4.12 7.82 6.62 9.32 9.71 9.55 10.28 12.35 12.69 12.66 13.05 11.21 10.33
40.60 39.82 40.34 39.90 38.13 29.24 25.71 24.53 27.53 22.77 18.61 20.84 23.34 22.36 21.82 20.12 21.28 18.29 21.04 22.34 21.66 18.90 12.55 8.97 6.49 6.16 7.73 4.60 4.50 13.86 6.86 13.26 14.59 13.11 12.60 11.62 4.49 6.30 5.20 8.80 8.63 9.82 12.83 14.20 13.35 13.28 13.89 13.92 14.25 14.22 13.15 13.24 11.28 8.44
37.72 37.57 37.92 35.48 31.17 28.97 26.14 24.79 23.36 23.36 23.84 21.62 24.80 23.15 20.45 20.77 17.62 16.93 17.23 20.76 14.76 11.91 9.05 8.01 15.17 15.23 6.28 6.29 14.90 15.99 16.31 17.17 10.69 12.09 10.09 13.50 8.25 9.04 8.29 7.91 9.84 10.74 8.19 5.73 8.75 9.06 9.71 7.64 6.70 6.96 -2.94 -8.38 -7.30 2.63
34.69 37.96 31.46 31.94 28.16 27.20 24.57 25.55 24.26 24.37 23.80 24.09 23.51 22.84 16.04 10.73 9.94 12.91 18.52 12.75 11.60 9.29 8.02 12.85 16.64 11.31 14.62 12.29 9.11 13.28 11.56 14.56 14.14 14.37 13.00 13.67 12.96 10.54 7.20 5.02 12.43 9.11 9.77 7.04 10.81 2.58 2.04 5.74 4.33 1.36 -6.58 -10.02 -4.40 -3.69
36.86 32.75 26.93 25.82 20.11 18.82 18.27 27.67 20.32 23.37 16.82 17.87 20.44 15.97 11.85 10.58 15.66 19.95 10.48 14.05 11.05 12.31 12.52 14.46 14.26 16.54 15.02 14.57 17.81 17.27 16.58 16.25 12.39 10.66 10.60 8.68 7.61 4.56 5.95 4.54 4.88 3.84 1.92 3.40 5.03 2.20 0.59 -0.95 0.32 -5.66 -8.38 -8.03 -7.48 -11.47
31.82 23.07 16.44 15.39 19.16 17.65 16.45 13.70 23.48 21.13 18.69 15.98 14.37 10.87 11.99 11.62 16.72 10.13 6.60 6.65 10.81 16.69 16.64 17.39 18.00 17.13 17.60 17.21 14.62 15.14 15.75 15.13 12.57 11.43 10.82 11.27 8.43 5.65 6.49 5.63 4.72 3.46 5.37 6.36 4.10 -1.88 -3.57 -9.29 -8.38 -5.12 -10.02 -10.02 -15.09 -12.92
20.11 15.41 14.93 9.11 14.39 11.61 6.50 5.12 9.54 13.75 6.82 8.58 8.70 7.12 10.59 15.41 6.23 1.88 5.24 7.44 11.01 12.11 14.28 16.12 16.64 15.87 12.26 8.06 10.11 11.76 14.40 14.81 12.35 9.15 7.62 8.82 6.26 6.09 6.47 6.44 5.07 5.19 4.88 -2.46 -6.21 -8.24 -10.56 -15.82 -15.45 -13.82 -11.28 -15.27 -6.75 -9.65
9.83 8.94 12.94 8.57 9.26 11.84 10.30 6.91 4.52 5.87 5.85 4.93 4.77 8.77 8.11 5.72 1.99 1.93 8.90 8.19 5.67 8.79 7.07 12.36 11.95 12.98 11.98 12.77 10.90 9.84 9.18 11.73 12.19 8.05 6.80 8.96 7.21 3.50 -0.50 -1.38 -0.71 1.49 0.97 -5.30 -4.94 -6.57 -7.30 -12.01 -14.00 -9.47 -12.37 -10.57 -10.59 -14.55
5.46 6.39 17.36 19.88 19.75 18.59 10.38 11.43 15.64 8.77 3.24 3.45 4.36 3.89 0.93 -2.61 -4.76 4.85 11.37 9.22 10.37 8.09 13.37 16.12 16.24 14.54 12.04 9.58 9.98 8.94 8.98 9.28 8.49 8.10 7.47 6.86 5.91 5.54 2.43 -1.75 -1.61 1.80 1.96 -4.44 -9.83 -9.65 -6.57 -6.39 -9.48 -11.47 -14.55 -18.90 -19.09 -14.83
10.87 11.96 11.49 6.50 5.92 11.58 0.93 0.29 -1.15 -0.04 4.05 13.44 11.19 -3.74 -2.38 -2.84 2.01 7.70 10.46 10.05 13.82 16.50 13.83 13.03 13.75 13.42 11.17 8.61 7.20 5.71 3.57 3.99 4.33 4.86 5.53 5.37 2.63 -1.16 -3.92 -5.48 -4.58 1.59 -11.47 -14.73 -15.09 -15.82 -13.28 -8.93 -6.28 -7.32 -9.65 -10.74 -10.74 -14.55
4.64 8.11 8.56 -0.35 2.56 4.58 5.32 1.22 2.84 10.07 12.85 8.85 -1.45 -2.22 3.01 9.81 7.04 7.95 13.14 9.78 14.24 13.55 9.63 7.51 4.03 4.63 3.81 2.38 -0.21 0.70 2.32 4.07 1.58 -2.76 -3.69 -4.76 -5.66 -2.03 -8.38 -12.01 -13.28 -14.18 -16.00 -10.40 -3.31 -8.93 -10.74 -12.56 -14.37 -14.56 -15.28 -15.64 -18.54 -23.43
5.27 9.87 1.88 -4.26 -3.75 0.14 0.94 4.38 2.75 3.09 10.01 7.61 10.09 10.13 8.92 7.89 12.01 13.02 9.28 6.42 8.67 5.85 1.83 6.69 2.74 5.17 2.51 2.66 -2.42 -2.77 -7.12 -7.84 -2.41 1.91 -0.17 -2.38 -0.95 -7.34 -13.64 -12.73 -13.46 -17.63 -19.62 -16.36 -14.18 -11.89 -4.40 -12.02 -9.65 -17.63 -18.54 -16.18 -13.47 -13.46
9.64 3.65 -0.61 -0.18 -0.77 1.51 2.35 0.09 0.17 -0.70 -4.06 -3.21 -6.75 -1.79 1.53 4.38 11.66 13.12 9.55 4.91 5.79 6.59 6.17 0.63 -3.50 -4.82 2.16 -0.03 -1.77 -1.19 -1.55 -3.35 -5.52 -3.46 -1.76 -3.76 -8.02 -9.83 -13.10 -14.91 -19.08 -20.71 -19.81 -18.17 -18.17 -19.62 -20.53 -21.80 -23.79 -21.62 -19.62 -17.99 -20.17 -23.07
-2.29 -6.76 -2.10 -2.76 0.66 3.03 0.58 -4.98 -5.66 -3.67 -0.34 -0.70 -0.33 -6.93 -4.39 -2.80 -3.49 5.34 6.98 7.50 6.64 4.64 0.75 3.67 3.92 -0.83 -6.76 -6.96 -6.80 -4.81 1.21 0.49 -0.26 -0.93 -1.65 -6.05 -11.10 -17.99 -18.54 -18.72 -23.43 -21.80 -19.99 -20.89 -21.44 -20.71 -19.44 -19.81 -21.26 -22.16 -21.62 -20.71 -22.52 -23.79
-7.92 -9.48 -9.12 -3.69 -0.15 -1.13 -0.63 -1.81 -2.28 -1.72 -4.99 -3.87 -1.41 -7.66 -12.55 -5.96 -1.99 0.88 6.41 5.94 5.46 6.68 4.12 -2.99 -3.52 -1.27 -1.37 -1.52 -0.79 -0.37 -0.62 -1.60 -2.22 2.68 -2.76 -5.48 -10.74 -14.91 -22.34 -24.16 -23.43 -21.80 -18.17 -21.07 -22.89 -21.98 -19.44 -17.63 -19.26 -21.26 -22.34 -24.16 -24.34 -24.34

GFSWCAN_sfc_wetblb_099.txt.gz
Wetbulb
42.15 41.96 41.92 40.96 40.54 41.15 42.18 41.19 41.57 42.30 41.10 41.73 42.40 43.30 44.30 45.24 45.78 43.59 40.38 40.65 37.02 30.11 30.00 32.11 32.75 29.88 29.97 31.54 27.80 31.79 30.19 32.70 32.56 28.69 27.94 27.55 26.80 28.64 28.23 30.53 29.84 27.92 26.87 26.23 27.22 24.00 21.25 37.58 37.44 32.23 34.34 35.27 36.04 35.39
41.46 42.00 41.78 40.93 40.74 40.99 41.37 41.09 41.61 41.75 40.76 41.38 42.12 43.11 44.14 45.17 45.85 45.69 39.02 40.76 41.41 34.93 32.53 35.52 35.95 36.77 35.52 36.10 33.65 31.90 31.92 31.85 34.04 28.96 29.20 29.72 28.02 29.40 27.78 25.21 33.87 28.82 31.68 29.10 30.10 30.23 36.50 37.11 35.40 35.93 35.66 33.21 33.76 34.76
41.34 41.42 41.46 40.82 40.58 40.95 41.44 41.23 41.39 41.27 40.45 41.28 41.99 43.16 44.41 45.19 45.80 45.81 40.38 39.84 38.18 34.40 34.54 33.47 33.27 37.32 37.72 37.39 39.34 30.98 32.87 35.93 35.21 37.45 31.92 31.41 28.30 31.81 25.81 27.91 31.19 33.15 33.34 30.67 30.69 32.42 31.67 34.73 34.70 35.00 33.80 30.62 30.34 31.91
41.19 41.04 40.64 40.65 40.42 40.67 41.14 41.23 41.39 40.35 40.19 41.17 42.06 43.20 44.50 45.67 46.27 46.59 40.15 40.58 39.03 35.83 28.81 30.48 37.48 34.96 38.38 37.88 37.02 37.56 36.51 38.63 39.34 37.93 33.07 31.19 27.78 33.72 29.64 31.99 30.42 30.28 31.30 27.48 30.53 31.24 33.65 31.95 33.12 32.50 30.88 31.65 29.25 28.04
41.12 40.74 40.55 40.53 40.57 41.07 41.17 41.02 41.15 39.90 40.36 41.40 42.48 43.58 45.41 46.43 46.65 45.83 41.92 41.21 42.03 37.02 27.93 29.33 35.33 37.89 37.60 36.15 36.10 37.28 36.30 35.22 35.20 33.64 32.79 30.29 32.15 32.15 34.76 31.83 27.43 30.28 26.83 25.78 25.43 29.71 29.88 29.66 31.96 31.30 28.62 27.01 26.70 26.23
40.22 40.68 40.60 40.21 40.50 40.59 41.25 41.35 40.93 39.53 40.24 41.07 42.52 44.43 45.88 46.47 46.38 41.86 32.79 41.02 42.60 42.45 35.07 27.34 35.73 35.59 34.76 34.76 34.72 34.88 35.99 35.90 36.10 34.95 33.63 35.13 36.14 34.21 30.12 26.30 29.43 30.50 30.31 30.01 28.13 32.61 30.47 29.81 30.75 30.83 28.05 26.10 25.24 24.17
39.82 40.29 40.43 40.15 40.35 39.98 40.35 40.89 40.89 39.83 40.25 41.33 42.73 44.53 45.65 46.13 43.71 38.59 35.66 39.05 43.52 42.75 33.29 29.40 29.17 33.67 34.63 33.84 33.23 34.24 35.77 36.27 37.29 34.45 31.92 33.68 34.40 34.94 29.94 25.16 28.07 29.94 29.60 29.09 29.66 32.11 28.29 26.61 24.68 27.07 27.84 25.80 25.19 23.43
39.39 40.03 39.80 39.80 39.53 38.92 40.21 40.53 40.72 39.92 40.53 41.64 43.25 44.59 44.89 45.91 44.71 40.38 43.17 44.13 43.49 37.20 36.24 28.70 26.17 29.97 35.53 31.27 30.08 34.12 31.97 33.44 34.47 33.02 34.17 33.05 33.67 31.77 25.89 24.83 25.74 26.21 27.90 26.76 27.51 29.32 27.14 25.87 24.77 23.81 25.36 25.15 23.67 22.16
39.33 39.55 39.59 39.65 39.75 39.59 40.24 40.57 40.10 40.05 41.38 42.66 43.82 44.69 43.56 41.63 38.31 40.14 44.82 44.59 42.84 37.69 31.78 29.77 23.62 23.01 35.80 33.10 33.66 33.69 33.11 27.15 32.62 31.08 31.82 33.51 28.45 24.95 24.16 24.14 23.30 22.94 22.48 22.36 25.73 26.46 24.96 23.05 21.60 21.58 21.60 21.88 20.85 20.23
39.04 39.35 39.61 39.62 39.96 39.94 40.15 39.94 40.18 41.14 42.36 43.11 42.19 37.60 31.49 35.33 44.94 43.63 38.28 34.01 34.22 34.93 34.54 28.01 28.12 28.96 34.85 33.26 31.35 30.71 30.37 28.03 25.68 28.90 32.03 28.65 22.37 22.92 23.41 22.99 22.85 22.22 22.08 23.57 23.96 20.92 22.64 21.78 20.64 19.69 18.88 19.40 18.86 18.07
38.99 39.24 38.96 39.06 39.23 39.76 39.76 39.88 40.77 41.50 42.48 39.68 32.06 32.59 38.23 43.21 38.88 34.34 29.59 29.68 31.39 27.88 31.80 30.03 30.14 30.04 36.00 29.81 29.48 32.00 28.87 30.11 23.77 27.61 27.33 23.12 21.06 20.75 22.50 21.56 22.20 22.21 22.11 22.06 22.44 22.37 22.34 21.64 20.25 18.36 17.39 17.42 16.80 16.05
39.01 38.88 38.67 38.83 39.38 39.55 40.10 41.23 41.32 40.31 38.97 36.46 38.70 41.16 39.49 35.48 32.24 28.92 27.46 29.66 27.31 26.00 30.66 28.93 29.51 32.52 33.74 36.03 30.78 30.93 27.89 28.55 22.82 31.18 25.37 18.32 18.84 21.21 21.24 20.26 20.42 21.13 20.85 20.53 21.07 20.31 20.79 19.51 18.93 17.50 16.20 15.07 14.44 13.74
38.40 38.53 39.12 39.40 39.73 40.88 40.79 41.84 42.55 43.12 42.97 41.28 37.19 32.38 31.82 28.93 25.43 24.03 20.14 23.02 23.87 27.46 30.37 32.46 30.47 32.43 33.06 33.93 32.06 30.21 25.15 25.30 29.08 24.33 21.59 17.37 19.83 20.94 20.25 19.82 19.02 19.97 19.64 18.72 17.64 18.07 17.42 16.29 17.59 16.63 14.56 14.09 12.97 11.02
38.65 39.28 39.77 40.24 40.79 40.97 41.75 43.75 43.89 42.48 37.32 32.19 29.28 22.60 25.27 21.40 21.69 19.75 23.37 23.64 26.70 29.26 31.96 32.38 31.91 30.65 31.36 29.55 30.99 27.11 27.29 27.38 21.80 18.12 17.54 17.85 19.56 20.00 19.88 19.28 17.50 14.89 14.24 13.70 13.34 13.42 12.46 11.45 9.53 8.26 6.66 7.34 7.21 5.89
38.92 39.29 39.66 40.21 41.18 42.81 44.09 42.46 40.03 35.53 31.42 26.47 24.76 16.33 14.90 19.90 21.02 27.56 30.97 31.96 32.56 34.46 32.33 31.41 29.74 30.34 27.68 27.27 25.02 23.82 22.08 20.76 20.91 19.71 15.35 18.20 19.04 18.46 16.99 15.64 13.89 12.58 10.67 10.43 10.81 9.24 7.24 7.71 8.24 7.39 6.40 7.80 7.37 5.54
38.92 39.40 42.17 44.36 43.89 41.33 40.07 38.35 34.99 32.51 28.49 23.66 19.64 17.90 22.34 23.90 25.29 27.59 30.14 29.15 31.75 32.07 31.67 30.62 26.23 25.40 22.96 23.43 21.96 21.70 21.17 19.66 18.07 14.76 16.97 18.66 16.78 16.03 15.21 14.80 12.14 11.33 11.21 10.10 9.87 9.94 9.13 7.81 8.68 8.82 7.80 7.91 5.53 6.64
40.76 38.40 42.78 41.41 40.85 39.05 37.95 32.86 30.99 26.24 22.73 20.02 16.11 19.84 15.68 20.31 23.29 24.17 26.35 27.35 29.93 31.57 24.45 24.82 20.33 21.35 22.75 17.56 17.26 17.39 19.06 15.81 13.70 16.18 17.01 16.51 15.74 13.27 11.30 11.28 10.43 10.89 10.30 10.45 10.05 10.65 9.47 9.11 9.10 11.48 10.47 10.08 10.58 9.48
37.92 40.00 41.28 40.04 37.34 35.35 31.81 29.41 27.36 24.03 19.51 20.44 17.81 18.67 17.46 21.03 23.56 23.19 24.65 26.62 28.90 27.13 25.12 23.07 25.03 19.54 18.78 19.02 16.10 13.17 12.59 12.64 14.60 16.09 15.15 12.54 12.71 11.79 14.00 12.10 9.89 11.83 10.80 9.95 11.43 10.38 10.16 9.97 11.98 13.04 11.57 11.56 11.44 11.56
40.21 39.36 40.87 40.42 37.20 30.92 27.79 27.29 27.40 19.45 20.42 21.35 21.89 22.87 20.90 21.41 23.16 24.14 25.50 25.96 25.53 26.05 23.47 19.75 17.14 17.28 15.63 13.13 11.41 10.98 14.41 16.64 14.87 14.61 12.27 10.37 13.19 12.54 10.63 11.24 10.68 10.81 12.05 12.12 13.39 14.44 14.44 13.48 15.23 15.79 15.01 14.15 13.73 13.70
40.33 40.51 40.08 39.68 37.32 28.69 25.68 25.09 28.57 23.25 19.83 22.74 24.80 23.06 21.91 21.37 22.07 21.27 22.66 23.10 22.16 21.01 17.37 14.07 13.68 12.70 13.64 13.47 13.12 17.00 14.13 16.73 16.58 14.70 13.43 13.13 12.38 12.55 13.24 14.51 15.25 14.52 14.93 15.60 16.04 14.91 15.78 15.83 16.45 15.85 15.20 15.12 15.13 13.82
37.90 37.74 37.55 35.57 30.99 29.56 26.68 25.12 23.29 23.93 24.35 22.32 24.64 23.40 20.89 21.42 19.28 19.01 18.68 20.52 16.73 13.38 12.45 11.80 15.91 14.18 10.99 11.20 17.49 18.33 18.49 19.23 16.60 17.01 16.25 14.65 13.25 15.52 14.52 14.70 15.65 16.79 15.76 15.22 15.41 14.90 14.57 14.79 13.59 12.49 11.78 9.42 8.81 12.38
35.83 38.08 32.40 32.82 28.46 26.80 25.11 25.98 24.44 25.15 24.17 24.09 23.67 22.60 18.58 16.57 14.96 16.11 19.19 15.15 13.19 13.23 13.16 15.98 15.24 15.35 16.10 15.70 14.92 17.63 16.05 16.90 16.16 15.75 14.92 15.50 15.63 15.54 15.13 14.74 16.02 14.53 14.56 14.33 15.12 13.92 12.63 11.75 10.91 9.53 9.51 7.90 5.64 8.86
35.66 32.78 28.47 27.31 20.81 18.72 20.24 28.41 21.59 23.54 18.62 20.80 21.03 16.93 14.52 13.86 16.91 20.01 13.21 14.83 13.79 15.12 15.38 16.29 16.04 16.95 15.46 16.18 17.60 17.49 17.76 17.68 15.83 15.19 14.64 14.19 13.16 13.30 14.16 13.31 14.54 13.26 12.66 11.79 12.03 11.62 11.22 3.60 5.25 7.71 6.85 7.21 8.64 8.20
31.05 23.45 18.95 16.73 19.29 17.74 17.63 15.35 24.32 22.08 20.89 17.66 15.11 11.85 13.01 13.62 16.89 12.60 9.98 10.53 13.50 17.98 17.68 18.03 18.56 17.35 18.10 17.61 16.19 16.57 16.81 16.46 14.31 13.72 14.56 14.79 13.28 11.23 12.32 12.11 11.74 11.60 12.40 11.90 11.11 9.39 8.17 7.25 -0.05 7.24 4.95 5.66 4.53 5.82
20.55 14.97 15.96 8.85 14.43 12.68 8.53 9.09 12.09 14.37 7.83 8.89 9.84 9.04 11.89 16.06 9.45 6.78 9.24 11.27 13.88 15.73 16.78 17.96 18.35 18.03 15.27 12.85 14.25 15.01 16.00 17.09 14.88 12.32 11.96 13.43 10.93 11.11 10.55 10.33 9.80 9.69 9.51 9.06 8.15 8.02 6.22 2.41 2.99 4.31 4.76 4.42 6.32 4.70
10.41 13.55 12.48 13.08 9.13 12.48 11.39 8.38 5.73 6.96 7.75 5.71 6.30 10.68 10.78 9.55 5.72 6.13 11.04 10.84 11.72 13.29 13.05 15.50 15.60 15.08 14.18 15.30 13.52 13.60 13.40 15.08 15.01 12.24 10.60 12.17 11.92 11.13 9.39 9.39 9.44 9.47 7.34 7.52 7.23 7.78 6.36 3.59 3.46 3.41 4.28 1.80 -5.01 1.13
5.63 6.09 17.17 18.24 18.33 17.46 10.34 11.47 14.84 9.22 4.02 4.63 7.63 5.98 5.99 2.80 1.69 7.52 12.54 12.16 13.77 13.33 15.39 17.49 18.07 16.48 14.11 11.51 10.84 10.46 11.30 11.79 12.43 11.17 9.38 8.99 8.66 8.91 9.94 8.67 6.97 9.01 7.10 5.75 5.77 6.69 7.28 5.61 4.13 3.20 2.82 0.69 0.05 -0.06
10.68 11.50 10.94 5.16 5.90 10.31 1.12 0.99 0.15 0.70 5.83 13.43 10.36 -1.00 -0.34 0.84 5.08 9.93 11.94 13.54 13.39 16.47 13.94 12.82 14.53 15.29 13.16 10.65 8.76 7.20 6.33 6.57 6.43 7.27 7.77 7.02 5.59 4.43 3.80 4.68 5.25 4.48 1.16 1.19 2.30 0.81 3.02 3.70 3.72 2.85 2.53 3.35 2.22 -1.77
4.73 7.86 8.20 -0.94 2.07 3.83 4.95 0.86 4.05 10.08 11.82 9.22 1.51 0.34 3.85 9.37 9.50 8.66 12.50 13.96 15.41 14.22 10.51 8.54 4.82 6.42 5.29 4.08 3.33 6.02 7.98 8.75 7.42 4.47 4.04 4.83 4.81 6.15 2.22 1.97 1.91 0.37 0.25 4.54 2.68 1.11 2.73 2.00 0.78 1.20 -0.82 0.48 -2.05 -5.30
4.74 9.20 1.75 -4.82 -3.39 0.34 1.48 4.43 5.94 5.70 9.81 8.73 10.69 10.13 9.06 8.80 11.50 12.70 12.23 12.64 12.22 10.27 7.49 7.98 5.31 7.68 5.40 5.60 3.74 4.19 1.50 2.05 6.04 7.93 7.02 6.42 6.88 5.99 2.22 2.21 2.20 -1.29 -1.66 2.55 3.28 2.33 -0.48 -0.92 0.22 -2.18 -2.20 -1.92 -1.61 -0.80
7.42 3.42 0.09 0.69 -0.39 2.59 3.78 2.94 0.90 2.32 -0.56 1.17 -3.30 1.56 4.43 6.42 10.63 11.62 9.06 7.71 7.67 7.62 7.18 4.83 2.44 2.34 5.19 5.12 5.41 4.87 5.83 3.69 0.16 2.34 3.98 2.67 2.17 1.81 0.85 -1.11 -3.47 -3.87 -1.76 -0.64 -0.71 -0.90 -1.96 -2.98 -3.22 -2.74 -2.20 -2.26 -4.49 -7.00
-2.41 -7.64 -1.89 -2.93 0.63 3.75 1.24 -3.69 -5.65 -2.58 0.06 2.17 2.23 -3.54 -0.89 2.34 3.49 7.05 7.93 10.04 9.65 7.73 5.11 5.64 5.43 4.05 0.99 2.15 1.47 3.84 4.50 2.55 3.02 3.52 2.76 2.04 -0.22 -2.75 -3.23 -4.76 -7.68 -4.01 -2.38 -3.29 -3.65 -3.34 -3.97 -3.01 -2.23 -3.11 -3.15 -3.63 -5.41 -6.95
-8.25 -9.27 -8.00 -2.59 0.21 -0.76 -1.34 -1.34 -1.17 -0.96 -2.38 -1.86 -0.06 -6.91 -7.83 -1.87 1.81 5.84 8.52 7.00 10.05 9.25 6.94 3.72 2.21 1.45 1.69 2.26 3.33 2.57 2.25 2.24 2.96 3.94 0.69 -2.20 -4.49 -4.75 -6.57 -7.10 -6.07 -4.99 -4.07 -4.38 -5.46 -5.28 -4.74 -5.12 -3.91 -5.55 -6.26 -8.65 -8.70 -9.13

GFSWCAN_sfc_wetblb_102.txt.gz
Wetbulb
42.84 42.66 42.33 42.77 42.35 41.75 41.44 41.90 42.46 42.20 42.54 41.67 41.40 42.31 43.18 43.95 44.91 43.78 41.20 42.15 39.57 35.59 37.80 37.11 37.28 34.82 35.50 35.48 31.26 35.51 36.00 36.30 35.04 31.12 29.94 29.76 29.75 32.45 32.03 33.57 31.66 30.94 30.85 30.62 30.83 26.36 23.56 36.21 39.54 33.56 34.47 34.74 35.20 34.67
43.10 42.94 42.75 42.43 42.04 41.50 41.30 41.57 41.30 42.31 42.13 41.56 41.42 42.06 42.97 44.02 44.79 45.40 39.57 41.99 42.44 36.70 37.89 40.53 41.23 41.76 40.33 39.40 36.29 37.75 34.61 33.81 36.02 31.78 30.75 31.39 30.25 32.52 29.95 27.86 36.65 30.29 31.76 30.27 29.31 28.18 33.29 34.27 32.61 33.35 33.61 31.64 33.20 34.34
42.47 42.40 42.11 41.79 41.90 41.87 41.22 41.62 42.02 42.10 42.05 41.24 40.75 41.83 42.64 43.94 44.77 44.78 40.98 40.85 38.90 35.78 35.86 36.95 38.22 42.98 44.06 42.75 43.84 35.21 38.95 38.13 38.50 39.97 34.10 32.51 29.84 34.42 29.05 30.65 32.31 33.80 36.38 32.18 32.70 30.96 31.31 33.41 33.38 32.85 32.21 31.59 31.88 32.00
41.88 42.06 42.47 42.22 41.48 41.39 41.76 41.57 42.24 42.20 41.88 40.52 40.59 41.94 42.98 43.83 44.65 45.37 40.62 41.66 39.98 37.21 32.38 36.69 42.09 40.17 42.89 43.14 42.13 41.97 40.33 42.89 41.53 40.51 35.02 33.91 32.75 36.76 31.76 33.20 32.87 34.35 34.89 29.60 31.96 32.77 32.07 31.63 32.40 32.64 31.41 32.42 32.03 31.50
41.19 41.52 41.39 41.75 41.25 41.32 41.47 41.54 42.00 42.07 41.25 40.05 40.64 42.04 42.74 43.96 45.35 46.13 42.96 41.97 43.31 38.30 35.07 37.06 41.37 41.82 42.07 41.51 40.51 40.94 39.69 38.04 37.23 35.82 35.20 33.32 37.99 36.02 38.12 35.75 33.14 33.41 28.64 29.03 27.95 30.74 31.21 30.24 31.85 32.07 29.73 28.46 28.91 29.52
40.09 41.04 41.11 41.03 41.12 41.37 41.41 41.59 41.75 41.66 41.14 40.14 40.88 41.96 43.28 44.64 45.96 40.98 32.93 41.13 43.18 43.21 36.90 32.88 40.70 39.33 39.57 39.81 39.17 38.97 39.59 38.98 38.92 36.54 36.17 39.01 38.50 37.08 32.46 31.34 30.46 31.79 31.75 31.46 30.42 32.36 31.17 31.21 31.79 31.27 29.04 27.91 28.82 28.50
39.65 40.49 41.10 40.99 40.99 40.59 40.91 41.34 41.54 41.46 40.24 40.16 40.89 42.26 43.55 45.20 45.18 38.90 38.14 43.43 43.96 43.81 35.06 32.84 34.84 38.60 38.71 38.63 39.39 38.63 39.83 40.20 39.81 39.02 36.24 36.84 36.95 37.42 33.01 29.83 29.99 30.55 30.89 31.06 32.41 32.36 29.47 29.75 27.74 29.71 28.93 28.60 28.04 27.42
39.19 39.86 40.66 40.89 40.87 40.61 41.27 41.24 40.89 40.90 40.35 40.30 41.29 42.33 44.16 44.68 44.82 40.93 45.93 44.53 43.96 38.17 36.48 32.59 33.31 34.61 38.67 36.12 34.95 39.98 36.75 37.92 38.07 37.90 36.00 35.45 36.57 34.78 29.35 28.90 30.04 30.52 29.94 29.37 29.98 30.16 28.62 27.95 27.62 27.30 28.67 28.10 26.76 25.39
38.46 39.30 39.97 40.61 40.55 40.56 40.64 40.48 40.47 40.93 40.41 40.73 41.63 43.05 43.23 40.55 37.48 40.26 44.77 44.49 44.77 38.77 34.22 31.78 31.23 30.07 38.90 35.51 35.17 35.18 38.51 32.08 38.99 33.36 34.39 36.15 32.41 30.05 29.49 29.84 28.88 28.54 28.42 27.11 28.66 27.98 27.07 24.87 25.06 25.42 25.21 25.45 24.17 22.73
37.93 38.97 39.69 40.25 40.55 40.33 40.13 40.07 40.68 40.70 40.23 41.35 40.44 36.81 31.84 37.41 45.25 43.90 38.80 35.57 35.80 35.95 36.21 31.85 37.33 31.53 36.14 34.15 33.74 32.46 36.10 32.91 28.21 31.71 35.44 32.19 31.23 27.15 28.12 29.66 28.75 27.13 26.93 28.29 26.62 25.19 25.57 23.80 23.20 22.64 22.09 22.56 22.24 21.22
37.81 38.90 39.60 40.05 40.10 39.76 40.24 40.06 40.57 40.36 40.63 39.39 33.83 34.53 41.33 44.42 41.03 36.94 32.02 31.43 31.82 30.50 33.12 34.52 35.29 33.13 38.95 32.18 31.45 35.52 30.91 32.22 25.73 30.91 29.07 28.29 28.14 25.09 26.25 26.35 26.97 26.84 26.94 26.72 27.32 26.17 25.46 24.92 23.54 22.03 21.08 21.06 20.79 19.89
37.94 38.98 39.65 39.91 39.75 39.51 39.74 40.29 40.38 39.94 38.54 38.94 39.12 41.46 40.00 36.80 33.83 31.01 30.14 32.33 29.79 29.25 33.38 31.12 31.42 36.64 37.39 40.66 35.52 33.96 29.89 30.11 24.53 33.71 29.53 26.78 24.25 24.70 25.45 24.59 25.02 25.71 25.64 25.05 25.59 24.21 23.36 22.81 22.69 21.64 20.39 19.06 18.36 17.03
38.30 39.06 39.46 39.63 39.45 39.65 39.88 40.28 40.54 40.79 41.04 39.24 37.38 33.46 32.35 32.56 28.25 26.92 24.42 27.47 29.28 33.18 32.98 33.67 31.11 34.29 35.21 37.41 33.38 31.52 26.96 26.17 34.24 29.73 28.58 26.75 24.09 24.46 24.83 24.39 23.43 24.29 23.73 23.11 22.46 22.32 22.17 21.45 21.67 20.55 18.26 17.93 17.40 14.85
38.64 39.12 39.21 39.19 39.65 40.20 40.65 40.43 41.40 40.32 37.71 31.79 31.21 25.63 29.44 26.48 30.25 31.46 31.88 33.14 35.54 35.61 34.94 34.71 33.59 32.30 33.31 31.39 33.29 29.48 31.21 30.82 26.90 24.67 26.90 24.58 23.89 23.87 23.58 23.10 21.46 19.30 18.99 19.33 19.18 18.68 17.02 15.84 13.85 13.13 13.14 13.32 12.56 11.32
38.86 38.74 38.98 39.19 40.28 40.66 41.21 40.72 41.06 39.29 33.53 30.82 30.78 27.35 26.60 30.82 30.77 32.28 34.51 33.89 36.10 37.84 36.36 33.60 33.63 35.03 31.56 30.57 31.86 29.30 26.39 25.04 26.92 28.12 25.67 25.21 24.28 23.10 21.39 20.15 18.29 16.63 15.45 16.00 16.50 14.48 13.37 13.30 13.27 12.61 12.96 14.14 12.60 11.06
38.94 38.72 38.43 39.70 40.15 40.49 40.44 41.01 36.92 34.87 31.57 27.46 26.18 25.87 27.55 29.12 28.82 31.41 32.38 31.84 36.87 36.44 38.37 37.94 32.87 30.41 29.70 30.88 26.92 27.12 26.22 26.09 27.55 25.02 25.59 24.30 22.40 21.29 19.87 19.43 17.89 17.69 17.30 16.93 16.26 15.98 15.20 14.26 14.98 14.96 14.29 13.56 12.45 12.51
37.78 36.18 39.56 40.18 40.58 40.57 39.00 35.34 33.80 28.50 26.63 24.78 25.20 27.62 28.92 32.10 30.06 29.97 31.98 31.07 33.86 37.09 33.23 33.02 28.38 28.19 28.99 26.82 25.75 27.86 28.73 25.02 23.04 24.55 26.02 24.70 21.61 19.42 18.09 17.05 15.95 16.66 17.28 17.35 17.20 17.18 16.22 16.00 15.54 16.91 16.34 15.58 16.15 14.59
36.53 41.10 41.08 40.23 37.72 36.73 34.63 34.27 30.51 27.67 23.10 26.28 25.88 26.13 26.97 28.83 28.83 28.72 28.87 32.91 34.04 33.44 32.39 30.09 31.00 26.00 26.64 25.98 27.52 24.94 22.54 24.83 25.92 25.41 24.29 22.62 20.37 19.00 19.87 18.82 17.35 17.96 17.85 17.16 17.12 16.76 16.12 15.61 17.47 20.30 17.41 17.47 16.41 16.21
40.15 40.08 40.64 40.37 39.50 35.93 30.35 29.54 31.39 23.75 24.66 26.65 26.81 27.53 27.26 27.15 27.65 28.44 29.53 28.61 29.67 32.64 30.60 29.11 28.10 28.19 28.07 26.56 25.69 24.65 23.51 23.51 21.93 22.44 21.24 20.90 20.20 18.63 18.71 18.15 17.63 18.44 18.09 18.12 19.02 20.61 20.75 19.03 20.27 20.50 20.31 19.48 17.91 18.83
40.64 40.37 39.87 39.21 38.99 32.87 27.68 27.80 33.06 27.17 25.33 26.34 27.97 26.62 26.45 26.28 27.28 28.46 27.30 26.27 26.08 27.84 27.14 26.26 26.50 25.76 26.51 24.78 26.50 26.23 26.23 25.46 22.86 20.37 19.91 20.89 21.12 19.68 20.17 20.47 21.54 21.14 20.48 20.10 20.62 19.14 20.70 20.27 21.39 21.00 20.39 19.15 18.27 18.21
39.16 38.61 38.39 38.39 35.09 33.67 30.44 28.73 27.22 28.13 27.40 25.73 27.17 27.07 24.99 26.83 26.64 27.17 26.59 25.89 27.12 23.81 25.04 23.68 24.28 21.66 20.13 23.09 26.41 25.63 24.76 25.74 24.72 24.49 22.01 20.16 22.16 23.00 21.78 22.74 22.41 22.29 21.89 21.85 21.08 20.02 18.34 20.23 20.34 20.14 19.85 19.29 18.66 19.10
38.22 37.68 36.12 36.39 31.32 30.28 28.67 30.45 27.83 28.94 27.10 26.56 26.48 26.91 25.85 25.94 25.63 25.63 25.11 25.42 23.28 22.91 23.86 24.11 22.14 20.89 21.34 22.24 23.87 25.70 24.56 23.75 23.64 23.00 22.13 21.05 20.93 21.77 22.35 22.75 22.22 21.26 21.43 21.48 21.08 20.45 20.28 19.88 19.60 18.64 18.59 17.74 14.85 17.44
36.93 36.07 33.13 31.69 27.26 27.18 24.83 31.89 25.70 26.28 23.87 23.87 25.26 22.81 23.16 23.41 23.47 25.56 22.43 22.00 22.03 22.38 23.03 22.56 22.01 23.86 21.92 21.92 22.56 22.63 23.36 23.70 23.79 23.31 22.70 23.75 23.70 23.82 22.96 22.56 23.20 21.30 20.19 20.10 21.25 20.28 19.30 12.18 14.08 17.12 17.06 16.13 16.77 15.89
32.60 27.50 26.18 25.68 26.87 22.96 26.70 25.07 27.28 25.14 25.02 23.03 21.87 19.05 20.44 23.12 23.47 23.31 21.29 21.37 20.84 22.17 22.18 21.27 22.83 21.64 22.17 22.17 21.87 21.54 22.78 24.40 22.57 22.19 22.90 22.32 20.84 20.39 21.64 20.92 20.94 21.58 21.48 20.19 19.41 18.79 17.53 17.70 11.56 15.56 15.58 14.81 14.88 13.41
27.56 21.32 24.01 20.27 23.55 22.55 21.89 21.87 21.49 22.19 19.68 20.13 19.25 19.49 20.72 23.05 21.10 20.00 20.20 19.37 20.29 21.70 22.41 22.95 23.39 23.53 22.26 21.77 21.52 21.23 22.19 23.07 21.33 19.83 21.46 22.87 20.35 18.97 18.34 18.64 18.32 18.34 19.49 18.82 17.20 17.30 16.91 15.83 15.17 14.95 14.27 13.93 12.18 11.59
19.04 19.32 20.66 20.53 21.89 21.96 22.02 19.48 19.69 19.57 20.10 18.43 18.13 20.56 23.14 21.93 18.25 18.65 18.84 20.41 21.45 21.90 22.67 23.51 23.20 21.78 20.89 22.49 20.95 20.55 20.74 23.00 22.58 19.99 18.98 20.65 20.55 20.15 18.19 16.50 16.34 16.34 18.26 18.78 18.44 16.52 15.75 14.55 13.70 12.01 12.59 10.58 5.04 8.28
18.39 18.23 20.59 21.22 22.61 22.59 21.57 21.91 21.92 21.46 18.23 17.49 19.48 18.58 19.56 17.21 17.21 16.45 19.10 20.38 21.66 24.21 25.53 25.86 24.74 23.24 21.31 20.35 19.92 19.77 20.23 20.26 20.68 19.22 18.20 17.39 16.51 16.96 19.27 17.75 15.70 16.90 15.92 15.56 16.00 15.50 14.23 13.42 12.50 11.99 11.82 13.07 12.15 10.81
18.42 18.31 17.98 16.34 16.57 17.93 15.34 15.79 15.51 14.10 16.11 18.35 19.31 14.21 15.48 14.23 14.57 16.54 18.29 20.32 23.58 23.60 21.75 21.52 23.39 22.85 20.99 18.99 17.83 17.16 15.82 14.57 13.74 14.49 14.46 13.99 13.42 13.75 13.17 13.52 13.34 10.83 12.52 12.86 12.97 12.82 13.06 12.93 12.63 11.81 10.67 10.66 10.48 10.53
16.00 17.43 17.53 8.44 12.32 12.81 11.93 12.66 13.67 15.06 15.66 17.71 16.25 12.68 12.10 13.76 15.28 16.42 18.10 20.50 21.96 21.58 19.47 17.48 15.66 16.63 15.46 15.82 16.53 16.77 16.61 16.62 14.67 11.84 12.56 12.51 12.14 11.69 11.80 12.14 11.82 11.80 12.94 12.58 9.34 10.17 10.23 10.54 9.89 10.23 5.77 9.57 9.65 8.77
14.00 16.90 12.79 9.06 8.42 9.85 11.80 13.39 14.37 15.13 15.50 15.93 16.78 14.88 14.28 14.96 15.44 17.62 19.55 20.00 21.25 21.37 20.43 18.82 16.93 17.84 15.28 15.06 11.90 11.58 13.66 15.15 16.05 17.19 15.16 14.00 14.78 12.86 11.67 11.31 11.16 10.65 12.26 13.45 12.64 10.85 5.82 9.44 7.32 9.13 8.41 8.56 9.72 8.64
15.20 16.59 12.49 12.40 10.82 13.60 14.27 13.82 15.13 15.41 15.76 14.85 14.63 15.21 13.09 14.94 16.16 15.98 15.86 16.75 16.55 16.22 16.22 14.85 14.94 16.46 15.46 13.95 14.38 12.49 12.35 13.60 9.70 11.16 13.68 13.32 12.62 11.93 11.31 10.31 10.35 10.94 11.61 11.05 10.49 10.21 9.37 8.68 8.79 5.90 5.22 5.25 4.28 3.42
13.89 10.61 11.25 9.56 10.87 13.77 15.14 15.89 15.32 14.86 15.68 16.00 13.80 14.70 13.80 16.15 12.73 14.09 13.33 16.35 17.01 16.77 14.26 16.57 14.79 13.32 14.65 15.08 14.07 13.96 12.84 11.79 10.85 10.78 11.13 11.56 11.07 9.52 8.64 7.42 7.18 9.28 9.36 8.69 8.93 8.37 4.72 3.66 6.97 6.15 5.63 4.58 3.55 2.01
10.84 11.89 11.73 12.32 11.81 11.61 13.10 13.91 12.01 11.82 13.65 13.44 12.43 11.02 10.40 12.73 10.08 11.91 14.34 12.59 15.38 16.72 15.51 14.32 12.81 12.13 11.08 11.21 11.22 10.44 10.27 10.42 9.06 8.44 7.02 6.07 5.44 6.16 7.03 7.41 7.47 7.34 5.28 7.70 7.41 6.32 1.83 1.37 4.30 3.19 2.84 1.29 1.03 0.77

GFSWCAN_sfc_wetblb_105.txt.gz
Wetbulb
44.48 44.46 44.00 43.56 43.60 43.58 43.50 43.05 42.80 43.54 43.24 42.82 42.62 42.82 43.25 43.69 44.40 45.92 44.30 46.30 42.06 38.12 39.50 40.65 40.45 37.26 37.46 38.21 33.91 37.50 37.86 38.29 36.22 32.46 31.13 30.49 31.48 33.60 33.13 34.92 33.22 32.32 30.89 31.19 32.60 29.58 25.81 32.90 38.51 31.78 32.59 34.33 34.87 34.44
44.05 44.11 43.73 43.11 43.34 43.07 43.11 42.75 42.46 43.26 43.27 42.98 42.57 42.26 42.29 43.14 44.16 45.36 40.87 44.52 43.02 40.59 39.77 44.17 44.20 44.66 42.82 42.18 38.56 39.15 35.41 36.79 37.41 33.50 32.91 33.03 32.54 35.66 33.07 29.88 38.08 31.22 32.29 30.38 29.41 27.66 32.37 33.10 31.82 33.51 35.39 33.98 33.95 34.56
43.58 43.43 42.74 42.92 42.99 42.78 42.42 42.00 42.02 42.58 42.84 42.89 42.12 41.68 41.85 43.22 43.94 44.13 42.37 42.62 40.48 36.34 38.32 40.51 41.01 45.37 46.97 45.92 46.31 37.13 40.77 40.23 39.34 41.65 35.48 34.89 31.91 36.56 29.98 31.54 33.91 35.29 38.50 32.56 31.10 30.95 31.52 33.26 34.07 34.69 34.67 33.45 33.87 34.41
42.57 43.05 43.09 42.92 42.85 42.47 42.52 42.20 41.77 42.00 42.74 42.49 41.55 41.28 41.53 42.81 44.13 44.02 41.42 42.37 40.60 38.31 34.34 38.48 45.38 42.88 46.20 45.62 45.02 44.63 42.67 43.72 42.87 41.59 36.47 34.69 33.82 38.96 33.74 35.01 33.44 35.36 35.65 31.60 30.81 31.82 32.72 32.22 32.85 33.56 32.89 33.71 34.09 34.67
41.98 42.39 42.53 42.56 42.59 42.41 42.10 42.27 42.25 42.78 42.67 42.09 41.16 41.26 42.11 42.91 43.94 45.85 45.38 44.13 43.34 39.10 35.44 38.01 43.48 44.88 45.21 44.27 42.82 43.73 42.12 40.33 39.08 36.95 36.78 34.99 37.90 37.06 39.14 37.83 32.22 35.39 31.16 30.65 28.99 32.53 32.30 30.60 32.43 33.45 32.14 31.27 32.34 32.83
41.70 41.75 41.96 42.13 42.46 42.45 41.90 42.11 42.38 42.22 42.54 41.86 40.69 41.02 42.22 42.80 43.94 41.82 33.77 42.71 44.12 43.54 35.79 34.54 42.87 41.82 43.17 43.46 41.68 41.41 41.66 40.73 39.84 36.82 37.08 39.69 40.34 37.28 32.75 31.48 33.04 33.55 33.66 33.60 31.46 33.06 32.63 32.79 32.28 32.45 30.86 30.75 31.55 31.46
41.27 41.28 41.86 41.63 41.63 41.67 41.81 41.55 42.00 41.97 42.20 41.39 40.68 41.40 42.06 42.93 43.72 39.29 38.97 42.58 44.44 43.70 35.68 33.44 36.17 39.31 42.07 41.88 42.72 40.96 40.89 39.74 39.68 37.03 36.99 37.70 39.06 38.45 35.55 31.26 31.85 32.42 32.07 32.21 33.88 33.65 31.04 32.21 29.97 31.79 31.41 31.69 31.23 31.10
40.11 40.75 41.66 41.67 41.85 41.61 41.50 41.53 41.61 42.01 41.33 40.58 40.66 41.42 42.50 44.27 44.57 40.76 47.16 45.28 44.76 39.62 38.04 33.00 34.50 36.14 41.14 36.68 35.19 40.20 36.68 37.59 38.05 37.19 39.30 36.61 38.28 36.68 29.74 32.56 32.70 31.89 32.27 31.56 32.30 32.94 31.24 30.53 30.61 30.09 31.73 31.43 29.45 28.40
39.80 40.15 40.78 41.43 41.61 41.62 41.45 41.29 41.21 41.61 41.28 40.65 41.08 42.19 42.96 40.43 36.30 41.12 45.01 44.96 45.52 40.87 33.96 33.38 32.26 30.70 40.56 37.23 37.97 38.54 37.72 33.26 39.80 34.40 33.96 37.31 34.06 30.78 31.98 33.15 32.87 32.51 31.74 31.75 31.35 30.60 29.60 28.21 27.55 27.83 28.79 28.37 27.16 25.46
38.98 39.35 40.41 40.70 41.26 41.26 41.18 41.36 41.11 41.42 41.24 40.82 40.87 36.78 31.95 38.16 44.82 43.91 39.54 36.04 36.57 36.43 37.67 33.02 39.35 33.43 37.30 35.36 34.56 34.47 37.05 33.17 30.50 32.82 37.40 32.68 32.62 32.51 33.62 35.15 33.94 31.97 31.78 32.26 30.19 28.49 28.39 27.08 26.18 25.85 25.19 25.82 25.19 24.19
38.04 38.67 39.49 40.22 40.77 40.96 41.05 40.58 40.96 41.17 40.83 39.13 34.13 34.64 42.28 45.01 41.22 37.45 32.32 32.50 33.22 30.01 34.50 36.02 38.06 35.08 40.75 33.99 33.85 37.22 33.85 34.78 27.26 32.91 30.92 29.46 29.67 28.65 31.31 31.13 31.73 31.58 31.17 31.25 31.60 30.42 29.71 29.20 27.21 25.49 24.26 24.12 23.82 22.52
37.56 38.04 39.28 40.04 40.65 40.87 40.75 40.58 40.74 40.77 38.90 38.39 40.38 41.56 39.34 36.78 35.76 32.02 31.70 33.38 31.65 30.34 35.97 33.06 36.26 38.00 38.65 41.27 35.69 35.84 31.29 32.17 25.77 36.21 30.81 27.91 26.30 29.06 29.19 28.85 29.44 30.22 29.87 29.09 29.34 27.51 27.13 26.57 26.34 25.19 23.88 22.01 20.63 19.34
37.50 38.37 39.12 39.94 40.35 40.54 40.75 40.51 40.27 41.58 41.30 40.61 37.15 34.64 33.40 33.40 29.55 27.98 25.45 29.01 31.27 36.47 36.06 36.12 33.78 37.26 38.58 38.78 35.50 32.85 27.89 28.78 37.15 29.74 28.93 28.57 27.81 28.09 28.04 28.37 27.82 28.24 27.84 27.20 26.25 26.37 25.44 24.65 24.64 23.47 21.06 20.76 19.97 16.93
37.56 38.07 39.12 40.00 40.32 40.71 40.74 40.71 40.59 41.19 37.80 34.49 31.46 28.87 29.71 28.44 31.53 33.23 33.76 36.23 39.26 38.51 37.46 36.86 33.81 34.59 35.16 33.18 35.04 29.36 33.52 33.55 27.47 26.18 27.95 27.62 26.83 26.75 27.13 26.83 25.14 23.16 23.22 23.58 22.70 22.02 20.27 18.67 16.60 16.18 15.93 16.11 15.35 13.69
38.07 38.69 39.43 40.00 40.30 40.28 40.53 40.89 41.08 40.10 35.67 31.77 32.12 28.78 30.26 35.51 35.70 36.41 37.97 38.99 39.84 40.72 39.80 36.09 34.86 34.38 32.76 31.54 31.66 31.87 28.44 26.71 28.20 29.57 29.30 28.29 26.92 25.64 24.59 24.21 21.72 20.27 19.73 20.26 20.08 17.81 16.17 16.07 16.03 15.83 16.54 16.93 15.43 13.82
38.63 38.92 39.15 40.10 40.06 40.17 40.61 40.53 37.30 35.54 34.28 31.52 29.19 28.85 31.57 32.86 30.92 33.59 33.22 34.49 40.46 40.61 40.90 38.69 33.78 30.64 30.50 32.80 28.63 28.18 27.58 27.24 30.96 30.62 28.74 27.17 25.61 25.21 23.83 22.47 20.97 20.92 21.32 20.42 19.10 18.51 18.01 16.87 17.79 18.01 17.16 16.07 15.15 14.55
38.98 36.48 39.66 39.97 40.30 40.69 39.72 35.04 35.05 32.24 30.29 28.25 28.37 30.61 31.77 35.40 33.95 33.77 36.64 35.64 41.05 39.03 34.35 35.41 31.04 29.71 34.12 30.01 28.39 33.28 31.60 30.22 29.77 28.03 28.48 27.53 25.45 23.55 22.16 20.98 20.03 20.50 21.03 21.12 20.71 20.29 19.28 19.97 18.75 19.20 18.59 18.14 18.96 16.95
36.67 39.49 40.32 40.58 40.50 38.28 34.53 35.31 32.33 29.74 26.35 29.23 28.58 29.00 31.79 31.82 32.68 32.32 33.90 37.72 38.35 36.77 36.74 33.09 35.94 30.25 30.15 28.77 31.37 30.81 29.21 29.55 29.68 27.77 26.68 26.08 24.26 22.37 22.55 21.57 20.75 21.67 21.50 20.92 20.63 20.02 19.46 18.86 20.20 21.43 20.14 20.17 19.01 18.58
37.95 39.73 39.95 40.60 38.27 36.47 32.09 31.23 33.02 26.91 27.44 29.04 29.52 30.34 31.14 30.53 32.30 33.71 34.25 35.06 37.89 39.55 36.65 34.79 32.37 31.93 32.73 32.28 31.33 29.86 29.00 27.92 25.81 25.74 24.98 24.51 24.06 22.42 22.06 21.66 21.75 22.28 21.51 21.37 22.13 23.76 23.55 21.84 22.69 23.30 23.70 23.33 21.42 22.49
39.59 40.92 40.20 40.53 39.93 34.58 29.99 29.58 36.48 30.30 27.33 28.22 29.91 29.52 30.77 30.22 30.66 32.21 32.21 30.63 33.97 35.53 32.85 30.94 32.02 30.82 31.16 30.07 33.10 30.86 30.46 29.89 26.75 24.02 23.38 23.61 23.59 22.81 22.53 23.34 24.52 23.76 23.51 23.02 23.19 21.07 23.33 22.92 23.99 23.68 22.80 21.37 20.19 20.70
38.37 38.32 39.01 39.78 36.93 36.47 31.20 30.70 29.81 30.10 29.24 28.62 29.88 30.81 28.48 31.15 30.84 31.89 30.98 32.78 32.92 33.20 31.23 30.30 29.27 26.14 28.27 31.10 31.91 30.45 29.37 29.23 28.14 27.87 25.24 22.89 24.91 25.50 24.92 25.67 24.91 25.19 24.50 24.28 23.93 23.06 20.83 22.89 23.69 23.30 21.77 21.29 20.55 20.17
38.82 38.97 39.46 38.58 33.66 32.80 31.39 34.79 31.61 32.49 29.73 28.93 29.75 30.81 29.01 29.44 29.56 30.23 31.15 31.13 31.09 29.27 30.60 30.20 27.61 26.20 26.58 26.74 28.36 30.17 30.81 30.34 30.13 28.16 27.14 25.94 24.90 24.66 25.24 25.61 24.92 23.99 24.61 24.68 24.50 24.08 23.64 23.56 22.69 21.69 20.48 20.80 16.55 19.51
38.99 39.29 36.62 34.74 30.41 29.59 26.71 34.42 28.91 29.78 26.41 26.90 29.64 27.28 27.80 28.46 29.19 30.26 28.97 30.13 27.75 28.18 28.94 28.31 27.52 29.00 27.18 27.29 26.78 26.33 27.08 27.55 27.12 26.32 25.88 27.02 27.36 27.44 26.97 26.13 26.52 24.81 23.86 24.03 24.93 24.07 22.71 15.17 18.66 18.56 20.26 18.41 18.74 18.26
35.42 31.47 29.83 29.31 29.35 25.08 29.71 27.47 29.93 27.73 27.50 26.53 26.25 23.57 25.76 27.75 28.31 27.78 27.99 28.17 26.03 26.94 26.10 25.58 26.83 25.35 25.67 25.37 25.22 25.76 27.38 28.97 26.98 27.17 27.70 26.47 25.06 24.88 25.69 25.11 25.09 25.49 25.47 24.69 23.20 22.40 21.25 20.97 16.10 18.25 18.56 17.13 17.06 15.99
29.44 24.67 27.66 23.86 28.11 26.24 24.77 25.25 25.29 25.88 23.51 24.61 23.41 23.82 25.18 27.66 26.53 26.46 25.92 25.12 24.72 26.21 25.90 26.99 27.28 27.32 25.99 26.38 25.74 25.46 27.08 27.42 25.80 24.36 25.80 26.66 25.20 23.73 22.98 23.19 22.90 22.75 23.64 22.62 20.87 20.40 20.05 19.72 18.63 17.78 17.23 16.58 15.44 14.97
22.73 22.92 24.11 24.96 25.59 25.79 26.03 23.46 24.00 24.41 24.46 23.30 23.52 26.52 27.38 26.91 24.61 24.74 24.99 25.51 25.08 25.35 26.68 27.32 27.19 27.01 26.27 26.34 24.09 23.99 25.18 27.33 26.34 23.61 23.53 24.72 24.27 23.77 21.82 20.00 19.44 19.60 22.19 22.70 21.93 19.85 18.96 18.48 17.02 15.92 15.44 15.15 10.34 11.37
22.38 22.10 23.45 25.50 26.75 27.17 26.09 26.53 27.53 26.43 22.87 21.80 24.16 24.03 24.47 22.37 23.33 21.67 23.25 26.00 25.79 26.95 28.27 29.32 29.48 27.79 26.52 26.05 25.99 25.59 26.21 26.04 25.40 23.94 23.68 22.66 21.99 22.65 24.07 21.82 19.21 20.13 20.44 19.84 19.74 18.44 17.18 16.63 15.96 15.46 15.10 16.05 15.59 14.19
22.28 23.36 21.21 22.15 22.74 25.10 21.49 22.76 21.57 19.40 21.61 24.00 25.87 20.93 20.42 20.81 20.05 20.08 21.96 24.91 28.76 28.27 27.70 27.95 28.98 28.51 26.88 25.08 24.27 22.99 21.18 20.06 19.47 19.75 19.48 19.20 19.52 19.14 18.24 18.26 17.04 15.83 17.18 16.82 16.47 16.04 16.12 16.06 15.86 15.08 14.00 13.52 13.73 13.95
22.07 23.20 22.59 14.15 18.76 19.20 18.38 19.18 19.64 19.62 20.09 22.90 22.20 19.11 17.38 17.66 18.80 20.50 21.54 26.01 26.09 24.67 22.80 22.36 22.65 24.31 23.56 23.87 23.70 23.03 22.49 21.71 18.98 14.92 15.77 16.50 15.75 15.25 17.23 16.26 16.03 16.29 16.26 14.78 12.05 13.59 12.49 13.25 12.76 12.77 10.94 12.72 13.12 12.84
19.39 23.56 19.27 15.16 14.80 15.64 16.48 18.81 18.19 19.19 20.28 20.75 20.89 18.65 17.92 17.52 18.66 22.45 23.21 24.32 25.28 24.85 24.56 23.67 22.79 22.64 20.54 20.26 18.99 18.96 20.74 21.04 21.57 20.77 18.88 17.88 18.81 16.41 15.80 15.36 14.80 15.08 16.62 16.96 15.69 13.71 9.22 12.09 11.97 12.28 11.57 11.76 12.79 11.79
22.23 23.37 19.15 19.19 16.18 17.42 17.91 19.80 20.85 20.82 20.85 19.92 22.04 20.30 17.52 17.56 19.29 20.09 20.70 22.79 24.22 23.90 23.29 22.80 22.59 22.65 21.24 19.19 18.89 17.26 15.83 17.62 15.98 17.27 19.12 18.42 16.85 16.58 15.94 15.30 15.29 15.74 15.58 14.45 13.52 13.31 12.81 11.99 12.94 10.76 10.73 9.74 9.06 7.82
20.78 18.39 17.67 14.92 15.31 18.23 20.24 21.16 20.56 19.83 20.19 19.74 17.97 19.41 19.11 20.19 16.05 17.60 17.88 21.47 23.54 22.28 20.64 21.99 20.78 20.46 22.10 21.54 19.79 18.61 18.75 16.94 15.94 16.02 16.30 16.46 15.80 14.37 13.51 12.65 12.59 14.06 13.13 12.24 12.42 11.89 8.98 8.84 10.19 9.92 9.47 8.82 8.17 6.40
18.45 19.17 19.13 17.66 16.03 16.41 18.21 19.36 17.91 16.58 18.98 17.84 16.75 17.61 16.91 17.70 13.50 15.86 18.31 18.45 21.28 21.78 20.70 19.64 18.93 18.43 17.25 16.78 16.43 16.07 15.33 14.21 12.25 11.96 11.40 11.19 11.07 11.43 12.35 12.56 12.26 11.44 9.25 11.37 11.52 10.23 7.71 7.87 8.27 7.59 7.15 6.11 5.65 5.21

GFSWCAN_sfc_wetblb_108.txt.gz
Wetbulb
44.95 44.59 44.62 44.48 44.26 44.20 44.17 44.09 43.94 44.09 43.79 43.27 43.05 42.85 43.38 44.13 44.94 45.26 44.89 46.83 41.84 38.02 39.04 40.81 40.87 36.91 37.85 37.50 32.86 36.59 36.89 37.06 35.78 31.93 30.55 30.67 30.46 32.46 32.39 34.31 32.85 29.78 29.58 28.63 30.74 27.55 23.26 32.58 34.96 28.74 31.37 34.92 35.25 34.50
44.22 44.28 44.22 44.01 44.07 44.03 43.81 43.58 43.87 43.98 43.62 43.82 43.03 42.97 43.15 43.30 43.70 45.00 42.21 46.33 45.74 39.63 39.62 43.67 43.96 44.71 43.11 41.97 38.24 38.46 36.16 36.80 37.50 33.78 33.27 32.56 31.15 34.94 32.56 28.77 36.64 28.45 32.26 28.96 27.81 26.76 32.32 33.25 32.00 34.40 35.14 33.17 33.29 33.64
44.08 44.09 44.07 44.01 43.77 43.63 43.55 43.34 43.53 43.85 43.68 43.66 43.30 42.32 42.37 42.87 43.65 44.67 42.33 43.23 42.59 37.17 37.43 40.24 41.11 45.65 47.33 46.42 46.74 36.47 40.08 41.12 38.57 41.24 37.34 35.12 31.14 35.24 29.60 31.17 33.47 35.67 37.85 32.16 30.68 31.11 31.23 32.99 33.62 33.98 34.69 33.73 34.16 34.49
43.66 43.93 43.72 43.01 43.40 43.14 43.07 43.04 42.76 43.36 43.10 43.39 43.08 42.27 41.84 42.37 42.92 44.09 42.20 42.87 41.23 37.87 33.02 38.43 46.15 43.35 46.87 46.26 45.41 44.89 42.41 43.09 42.07 40.99 37.38 34.68 32.75 38.65 33.29 34.86 33.82 34.67 35.80 31.67 29.80 31.86 32.01 31.62 32.41 33.11 33.01 34.29 34.23 35.12
43.11 43.41 43.34 43.14 43.25 43.03 42.82 42.71 42.04 42.58 42.71 42.78 42.23 41.63 41.44 42.17 43.33 44.02 44.75 43.84 43.90 38.42 34.05 37.25 43.75 45.57 45.92 44.88 43.31 43.86 42.40 40.17 38.54 36.30 36.06 33.94 37.72 36.80 37.76 37.49 32.44 35.36 31.50 29.81 27.69 32.90 31.57 30.39 32.10 33.65 32.28 31.57 32.41 32.00
42.06 42.23 42.51 42.73 42.81 42.83 42.53 42.82 42.67 42.38 42.75 42.81 41.92 41.59 41.72 42.77 43.45 43.41 34.57 44.59 45.20 43.90 34.85 32.75 42.97 42.69 43.98 44.08 42.40 41.63 41.66 40.37 39.42 36.94 36.16 38.21 40.96 37.46 32.82 31.17 32.35 33.36 33.58 34.14 31.33 33.20 32.93 32.53 32.46 33.30 31.66 31.10 31.96 31.05
42.19 42.17 42.35 42.58 42.57 42.46 42.45 42.31 42.26 42.24 42.63 42.52 41.81 41.18 41.96 42.84 44.27 38.71 37.52 42.03 45.43 44.73 35.47 32.58 35.73 41.31 42.67 41.76 41.68 40.62 41.15 39.64 39.10 37.74 36.32 37.01 37.95 38.29 35.32 30.27 32.26 32.17 32.57 33.08 34.33 33.49 30.43 32.05 30.31 32.63 32.88 32.78 32.80 31.51
42.12 42.28 42.20 42.15 42.21 42.32 42.15 41.92 41.64 41.97 42.16 41.84 41.12 41.19 41.85 42.68 42.59 39.95 45.14 45.21 44.91 39.93 38.08 31.99 34.35 36.36 41.58 36.38 35.40 40.52 37.10 37.96 38.44 37.50 38.63 35.70 37.99 37.44 30.34 33.38 33.72 32.50 32.75 32.10 32.40 32.97 31.92 32.11 32.04 31.34 32.64 32.45 30.21 27.84
41.55 41.92 41.90 41.93 42.04 42.22 42.13 41.95 41.61 41.68 42.19 41.06 40.85 41.54 41.95 39.49 36.68 40.77 45.42 45.26 45.79 40.81 34.12 33.03 30.69 30.74 40.60 38.13 39.05 38.24 38.80 33.05 39.08 35.30 35.24 36.40 34.03 30.38 33.89 34.02 33.10 32.92 32.60 31.94 32.07 31.44 30.99 29.58 29.09 29.01 29.25 29.04 26.81 24.90
40.65 41.20 41.73 41.82 41.67 41.61 41.66 41.90 41.95 41.76 41.76 41.12 40.78 36.97 32.06 37.16 44.77 43.95 40.62 35.80 36.48 37.39 37.85 33.68 38.40 33.70 38.06 36.39 34.79 33.99 36.70 33.04 30.33 33.61 38.19 33.06 32.15 34.44 36.14 36.67 36.00 34.81 33.84 34.57 30.47 28.91 29.46 27.81 26.29 25.88 25.16 25.24 24.28 23.16
39.77 40.22 40.70 41.21 41.89 41.63 41.52 41.76 41.55 41.76 41.48 39.04 33.87 33.69 41.95 44.77 40.13 36.04 32.06 32.06 32.97 30.87 34.27 35.99 37.59 35.37 40.65 33.97 33.43 37.34 33.25 34.10 27.42 32.05 31.43 29.95 29.08 30.29 33.68 32.90 33.56 33.27 33.23 32.72 32.16 30.93 30.77 29.87 26.91 25.32 24.09 24.12 22.99 21.35
39.11 39.58 40.09 40.66 41.37 41.63 41.38 41.59 41.62 40.44 39.12 39.20 39.30 41.24 39.95 37.27 34.05 31.88 31.10 33.15 31.24 29.88 35.54 33.76 36.90 39.06 40.26 41.45 36.04 35.99 31.48 32.64 25.27 36.24 30.67 27.03 27.28 31.16 31.31 30.37 31.07 31.53 31.05 29.84 29.82 27.97 27.53 27.10 26.62 25.07 23.34 21.41 19.81 18.60
38.65 38.90 39.66 40.37 40.95 41.50 41.37 41.24 41.14 41.64 41.85 40.94 36.39 32.42 33.15 33.33 29.09 27.10 25.22 28.62 30.83 37.58 37.43 38.35 35.17 38.45 39.08 39.74 36.39 33.41 27.77 28.22 36.25 29.67 27.30 28.07 29.08 29.68 29.47 29.41 28.63 29.22 28.84 27.40 26.25 26.26 25.64 24.71 24.61 23.14 20.84 20.30 18.89 15.76
38.48 38.90 39.20 40.25 40.75 41.32 41.26 41.42 41.33 40.79 38.06 33.15 32.06 27.79 29.41 27.83 29.76 32.10 33.20 34.82 40.40 39.01 38.99 39.05 35.88 34.93 37.36 34.10 33.51 27.25 33.09 33.15 26.64 24.86 27.24 28.19 28.78 28.69 28.94 28.08 25.98 24.47 24.47 23.93 22.66 21.26 19.32 17.61 15.75 15.55 15.06 15.19 13.60 12.13
38.08 38.41 39.15 39.87 40.80 41.22 41.44 41.27 41.33 40.33 35.09 31.29 32.12 27.06 29.81 36.09 36.56 36.41 39.85 40.03 40.71 42.01 39.29 36.03 35.05 35.32 32.48 30.23 30.71 30.79 28.01 25.32 28.08 28.64 29.32 28.59 28.32 26.79 25.64 24.46 22.61 21.74 21.03 21.02 19.84 17.08 15.61 15.55 15.87 15.76 16.07 16.41 14.93 12.31
37.93 38.24 38.42 40.29 40.73 41.15 40.94 40.68 37.55 37.29 34.84 32.02 30.53 28.77 33.51 33.75 31.86 33.33 35.32 36.23 42.64 40.80 40.05 38.43 32.71 30.46 29.13 30.48 27.53 26.51 27.05 26.43 31.00 28.87 28.76 28.43 26.74 26.33 24.82 23.27 21.83 21.88 22.06 20.85 19.02 18.20 17.72 16.20 17.10 17.84 17.51 16.01 13.52 13.83
38.00 35.95 39.95 40.49 40.56 40.64 39.99 37.18 36.83 33.28 31.47 29.54 29.32 32.94 31.37 32.04 33.87 33.69 34.93 38.54 42.97 38.79 33.55 35.04 30.18 28.22 34.37 29.69 27.13 33.04 31.56 30.43 29.03 28.39 29.32 28.19 26.35 24.70 23.20 21.74 20.96 22.12 21.52 20.90 20.80 20.27 19.23 20.80 18.85 18.02 16.42 16.83 16.71 16.93
36.81 40.06 40.47 40.52 40.49 38.18 36.59 36.40 33.88 31.28 27.38 30.49 28.54 31.72 32.35 32.42 32.78 33.51 37.32 40.12 39.99 37.28 36.45 33.32 36.56 30.97 29.78 27.73 30.81 31.17 30.06 30.47 30.52 28.92 27.95 27.02 25.55 23.75 23.28 21.96 22.00 22.90 22.46 22.18 21.73 20.85 20.35 18.83 19.37 20.79 20.86 20.96 19.57 19.39
39.35 40.28 40.39 40.45 38.79 36.87 33.03 33.40 34.92 28.31 29.27 30.79 31.09 31.86 32.73 32.91 33.63 36.14 36.91 39.34 38.93 40.52 37.61 35.18 32.11 31.77 33.82 33.09 31.54 31.05 30.54 29.11 26.43 25.79 25.23 25.22 24.39 23.23 22.69 22.94 23.06 23.13 22.21 21.32 21.41 21.62 22.20 22.56 22.28 22.83 23.12 22.89 21.39 22.51
40.09 39.97 40.20 40.04 39.95 35.48 30.50 30.87 36.71 30.96 26.90 29.27 31.35 29.18 31.21 31.39 32.35 33.28 34.70 34.88 35.45 35.39 33.47 31.44 31.97 31.04 30.93 31.45 34.88 33.18 31.46 29.57 26.21 23.21 22.44 23.47 23.90 23.40 22.87 23.08 23.81 23.74 22.66 23.70 23.84 22.28 23.07 22.66 23.67 23.28 22.31 20.57 18.70 19.51
38.66 39.07 39.83 40.01 36.68 36.56 32.72 31.47 31.55 31.45 29.91 29.17 31.13 30.20 29.56 31.52 30.84 31.34 31.52 34.45 33.24 34.30 32.15 31.96 30.01 28.35 30.65 33.30 34.12 32.69 30.60 29.75 28.00 26.75 24.09 22.60 24.79 25.16 24.27 26.49 25.14 25.16 24.61 23.95 23.97 22.20 20.98 22.81 23.68 22.87 22.36 21.42 20.98 20.26
37.66 39.32 34.79 36.57 34.37 32.59 31.49 34.42 31.79 33.12 30.93 29.55 29.80 31.35 28.93 28.87 29.72 31.43 33.32 32.30 34.07 31.42 32.40 31.79 29.28 28.07 28.51 29.15 30.28 31.47 32.09 31.76 30.87 28.83 27.17 25.82 24.80 25.03 25.77 25.80 25.50 25.03 25.16 25.52 24.84 24.33 23.71 23.34 22.21 21.56 20.74 20.64 17.36 19.21
39.32 38.82 35.24 33.00 29.83 29.57 28.08 35.03 29.45 29.93 26.34 28.19 30.24 27.59 27.80 29.23 30.80 33.13 30.18 32.18 28.87 30.85 31.55 30.28 29.26 30.66 28.82 29.38 29.09 29.27 30.26 29.46 28.27 27.78 26.79 28.06 27.92 28.28 27.29 26.64 27.37 26.07 24.69 24.29 24.65 23.84 21.95 15.07 15.76 18.35 19.93 18.94 18.93 19.09
37.92 33.63 31.51 31.14 30.26 25.70 31.06 28.46 30.75 28.55 28.84 28.33 27.91 24.93 26.96 28.21 30.13 28.79 28.96 28.96 27.74 29.74 28.85 28.27 28.59 26.61 26.81 26.95 26.43 27.00 28.58 29.58 27.47 27.65 28.81 27.59 26.21 26.28 26.95 26.33 26.38 26.54 25.59 25.25 23.27 22.61 21.36 21.00 15.18 18.38 19.06 17.53 17.53 17.33
30.64 26.41 29.14 25.08 29.88 26.94 25.51 26.07 26.05 26.50 24.64 26.40 25.81 25.39 26.85 29.43 26.55 27.27 27.47 26.13 26.45 27.57 27.66 28.62 28.12 27.62 25.88 26.81 27.39 27.79 29.39 28.57 27.09 25.69 27.47 27.91 26.63 25.30 23.94 23.74 23.52 23.00 23.89 23.11 21.21 21.08 20.74 20.55 19.58 18.35 17.58 17.46 16.08 15.67
24.07 24.33 25.62 27.01 27.25 27.13 26.88 24.20 25.30 25.54 25.88 25.33 25.70 28.39 29.28 26.99 25.60 25.72 26.51 27.04 27.15 27.55 28.30 29.11 28.99 27.95 27.87 27.84 25.35 25.02 26.66 29.21 27.91 25.10 25.50 26.24 25.10 24.46 22.53 20.39 19.16 19.02 22.16 23.00 21.99 20.27 19.78 19.80 18.52 16.94 16.48 15.89 10.34 12.37
23.52 23.52 24.83 27.33 28.32 28.59 27.14 28.64 29.47 27.78 24.62 23.58 25.51 25.35 25.43 22.83 24.39 21.64 24.96 26.90 27.58 28.88 30.17 30.95 30.85 29.81 27.94 26.86 27.14 27.25 27.67 27.74 26.76 24.09 23.73 22.87 22.61 22.88 23.94 22.24 20.56 19.63 21.16 20.34 19.71 18.27 17.44 16.97 16.78 16.44 16.05 16.68 16.58 15.86
23.74 24.95 22.03 24.06 25.32 27.00 24.78 25.36 24.40 22.77 24.34 26.41 27.78 24.15 23.57 21.81 19.49 21.72 23.35 26.23 30.01 29.95 30.39 30.47 31.16 30.35 27.63 25.84 25.28 24.03 22.07 21.70 20.92 20.86 20.52 20.07 19.93 19.65 18.67 17.77 16.72 17.34 17.38 17.72 16.63 16.34 15.94 15.35 15.02 14.98 14.61 13.60 13.77 14.10
23.47 24.31 22.69 18.67 22.03 21.67 21.34 21.43 21.59 21.19 22.12 24.27 24.63 21.27 18.76 18.42 21.06 22.05 23.52 27.42 28.56 27.41 25.06 23.98 25.01 26.34 25.43 24.85 24.48 23.63 22.68 21.82 18.92 15.64 15.95 14.83 14.85 15.24 17.36 16.73 16.94 16.63 16.02 13.75 14.20 14.56 12.58 12.90 11.88 11.36 12.26 12.35 12.95 13.22
21.53 25.94 20.96 18.20 17.77 17.23 17.68 20.90 19.52 21.47 22.48 23.29 21.57 19.03 17.44 17.85 21.21 24.67 24.86 25.96 25.39 25.02 24.59 24.14 24.00 23.67 22.02 21.44 21.00 21.17 22.82 23.36 23.67 21.82 19.43 18.06 17.82 17.09 17.05 16.22 15.65 16.12 17.13 17.00 15.38 12.34 11.12 12.10 12.90 11.67 10.57 12.47 12.67 11.96
24.69 25.44 22.45 20.93 17.45 18.56 19.63 21.48 22.77 23.04 23.22 22.75 25.07 20.44 16.39 16.92 19.77 21.47 21.27 24.12 26.79 25.76 23.83 22.40 23.22 23.34 21.99 20.46 18.88 17.05 15.21 17.52 18.31 19.72 19.40 18.45 18.09 17.54 17.01 16.67 16.45 16.41 15.94 14.85 13.71 13.19 12.50 11.46 12.48 11.84 11.49 10.80 9.80 8.66
23.96 21.58 20.06 16.58 15.70 19.15 21.70 23.37 22.64 21.27 22.23 20.54 18.81 19.89 20.15 20.71 15.52 17.62 19.18 21.12 25.31 24.76 24.07 23.58 22.30 21.50 22.13 20.75 19.91 19.91 17.67 17.50 17.37 17.67 17.51 17.62 16.26 15.23 14.75 13.89 14.25 14.59 13.48 12.53 12.37 11.88 10.76 9.79 9.78 10.04 9.55 8.99 8.01 6.34
22.23 22.28 21.58 19.29 17.10 18.46 19.50 21.47 19.86 18.73 21.02 19.02 18.49 19.42 18.08 18.23 12.94 16.42 19.99 20.89 23.46 22.73 21.24 20.41 20.75 20.33 19.52 18.64 17.84 16.34 14.11 13.15 12.13 13.27 12.84 13.03 12.88 13.69 13.82 13.79 13.17 12.14 11.49 11.85 11.36 10.50 9.37 8.51 8.05 7.31 6.87 6.54 5.56 4.16

GFSWCAN_sfc_wetblb_114.txt.gz
Wetbulb
45.44 45.24 45.00 44.84 44.89 44.82 44.96 44.91 45.08 44.74 44.64 43.92 44.23 44.16 44.98 44.91 45.43 41.16 38.54 40.13 36.23 28.81 31.96 37.16 37.87 32.00 32.52 30.84 24.12 29.57 27.22 29.92 28.05 24.38 24.73 24.57 25.67 29.65 29.30 31.20 29.72 27.52 25.55 22.67 25.29 21.13 18.20 30.60 30.24 27.15 30.31 33.07 32.76 33.04
45.13 44.94 44.80 44.31 44.25 44.58 44.53 44.53 44.51 44.48 44.39 44.04 44.24 44.34 44.81 44.91 44.77 43.23 37.14 42.12 40.40 32.79 31.40 37.54 37.96 39.13 38.28 36.71 32.13 31.79 33.77 33.04 31.05 25.25 29.11 27.36 26.69 28.42 27.52 22.19 33.64 25.28 27.54 24.80 26.10 23.79 30.67 32.08 31.73 33.40 32.94 31.02 30.12 29.92
44.70 44.71 44.25 43.85 43.81 44.11 44.25 44.42 44.32 44.06 44.10 44.20 43.90 43.95 44.00 44.43 45.01 43.21 40.83 38.01 35.27 29.89 30.49 33.04 35.47 40.22 41.62 40.03 39.36 30.79 33.31 36.09 33.12 34.42 32.18 30.85 27.61 29.93 25.52 29.12 28.49 32.77 34.63 26.09 26.31 29.94 30.24 31.46 32.25 32.30 31.36 31.39 29.41 29.05
44.45 44.38 44.38 44.21 44.00 44.02 43.97 44.07 44.03 44.01 43.93 43.95 43.91 43.98 44.07 44.45 44.64 42.66 36.40 38.11 35.59 35.31 25.27 34.25 43.24 38.93 42.46 41.60 40.02 38.41 36.87 37.07 34.93 33.02 29.65 31.51 27.43 33.03 29.26 31.69 26.62 30.18 31.58 28.39 27.84 29.55 30.31 31.40 31.92 31.24 29.81 30.01 28.73 28.51
44.02 43.79 43.79 43.63 43.90 43.90 43.71 43.82 43.53 43.63 43.75 43.82 43.62 42.89 43.43 43.67 44.07 40.88 38.15 38.47 38.88 34.29 30.05 30.79 36.76 42.93 42.25 40.80 38.90 38.22 37.18 33.88 30.38 28.70 26.12 26.37 30.36 30.74 30.97 31.53 25.95 29.90 28.38 27.99 25.31 31.35 29.93 29.78 31.76 31.34 27.95 26.38 27.05 26.36
43.92 43.43 43.32 43.24 43.27 43.48 43.51 43.30 43.40 43.25 43.29 43.39 43.25 42.36 42.21 42.94 42.76 36.75 28.52 36.48 39.65 37.64 33.14 25.10 35.49 38.19 40.72 39.42 37.89 36.51 36.36 33.87 31.71 29.77 28.05 30.39 35.61 29.53 25.00 25.14 30.00 31.59 32.84 33.13 30.37 32.60 31.89 32.00 30.69 29.73 26.84 26.30 26.37 25.31
42.46 42.66 43.38 43.15 42.88 43.31 43.25 43.14 43.07 43.17 43.22 43.10 42.98 42.17 41.81 42.74 37.73 33.55 30.60 40.98 43.03 41.04 33.72 27.00 29.99 37.65 40.01 39.29 37.94 33.92 34.29 32.59 31.52 30.24 28.96 28.98 30.79 32.07 19.72 21.00 30.02 31.42 32.36 32.47 33.08 32.04 29.43 31.05 27.07 30.17 27.92 26.92 26.84 24.53
42.65 43.55 43.44 42.90 42.46 43.08 42.90 42.66 42.95 42.93 42.97 42.82 42.62 41.94 42.47 43.10 39.73 33.91 41.65 45.10 43.94 37.25 36.24 26.66 24.96 29.69 35.97 29.69 28.58 33.13 30.55 31.17 30.84 29.64 30.16 29.05 30.41 28.78 22.09 29.45 31.03 31.39 32.55 31.42 31.11 32.29 30.54 28.67 27.39 27.29 26.93 25.20 22.25 21.06
42.38 42.52 42.83 42.28 42.43 42.63 42.58 42.80 42.90 42.89 42.76 42.50 41.96 42.23 37.53 35.47 31.65 34.79 44.25 44.77 44.06 38.13 30.55 29.85 22.20 18.59 34.63 34.54 31.40 32.67 32.81 26.19 30.68 26.46 28.42 28.73 24.42 24.85 27.86 29.22 28.95 30.54 29.76 29.47 30.74 30.21 26.39 24.35 23.25 23.46 22.81 21.99 19.72 18.66
42.41 42.17 42.29 42.35 42.41 42.12 42.10 42.31 42.43 42.33 42.39 42.05 37.15 33.76 30.22 36.13 42.45 43.91 39.61 35.91 34.87 36.36 35.16 30.70 28.34 26.89 31.74 28.37 26.33 29.63 29.64 24.20 21.70 26.28 29.87 23.77 26.20 30.84 33.53 32.11 31.07 30.95 30.59 30.15 26.59 24.35 23.31 22.41 21.75 21.12 19.94 19.70 18.75 17.78
42.38 42.34 42.48 42.59 42.62 42.15 42.15 42.23 42.26 42.24 41.19 34.27 32.18 32.01 38.20 42.13 38.86 35.48 30.22 30.22 30.68 28.63 31.36 31.38 28.97 25.06 32.72 23.83 23.96 28.07 23.26 23.75 19.62 24.45 22.93 19.67 24.44 26.08 28.85 27.97 27.76 27.37 28.03 26.54 27.41 27.20 25.34 23.65 21.05 19.59 18.85 18.88 18.18 16.91
42.07 42.12 42.49 42.65 42.52 42.07 42.06 42.06 41.88 36.82 34.37 34.51 36.46 40.35 40.22 36.33 32.50 29.65 26.12 29.61 27.16 24.59 27.01 25.33 27.57 31.59 28.38 33.39 27.09 28.10 23.66 22.38 19.89 26.25 22.12 14.00 21.81 26.65 26.96 25.43 25.54 25.67 25.07 23.92 24.81 23.98 23.32 22.59 21.18 19.70 18.60 17.06 16.03 15.08
41.72 41.77 42.20 42.53 42.30 42.08 41.96 41.97 41.04 41.09 40.27 37.16 35.18 32.10 31.05 29.80 24.59 23.05 21.63 25.47 18.70 24.09 25.85 26.40 25.25 33.05 31.53 29.11 22.48 26.78 22.72 15.99 24.41 23.22 17.51 20.83 25.67 26.21 25.33 24.88 23.40 23.68 22.45 21.42 20.73 21.71 21.23 20.48 20.63 19.31 16.82 15.69 14.18 10.63
41.66 41.72 41.81 41.95 41.91 41.96 41.83 41.65 41.47 40.16 33.09 26.81 27.01 22.70 23.77 23.24 23.80 21.76 24.16 23.63 26.44 25.77 28.60 26.84 24.94 31.15 29.87 24.53 25.18 16.29 20.75 25.98 22.56 17.34 18.18 19.41 25.13 24.98 24.93 23.75 21.83 19.25 18.93 18.47 17.05 15.85 14.35 13.64 10.06 8.70 6.51 4.57 3.52 -0.58
41.14 41.18 41.76 41.70 41.81 41.89 41.72 41.33 40.37 36.90 32.66 26.66 28.52 18.27 23.56 24.78 25.82 29.88 32.00 29.04 27.17 30.04 29.55 27.03 25.74 25.54 22.88 26.97 28.25 23.78 24.88 22.59 19.85 16.93 18.78 23.43 23.75 21.94 20.61 19.72 16.77 14.80 12.89 11.87 10.27 9.00 6.79 6.96 7.47 2.60 -0.23 1.25 1.67 -3.25
40.51 39.98 37.64 41.37 41.79 41.82 41.18 38.54 36.40 36.66 31.41 27.84 26.89 21.78 28.48 29.38 29.91 31.22 30.60 31.86 27.74 28.50 26.47 27.90 24.18 19.91 24.95 24.13 24.82 22.87 22.44 15.76 17.37 19.89 17.22 21.89 21.27 20.08 18.46 17.91 15.75 14.08 12.24 10.22 9.49 9.64 8.69 6.63 7.48 6.76 1.90 1.86 -2.16 -0.41
37.60 32.20 40.39 41.24 41.27 40.98 39.51 34.59 33.18 30.13 25.70 25.59 24.62 28.74 28.77 27.92 29.81 31.32 32.33 32.42 34.10 29.18 20.14 24.65 17.62 19.91 24.93 22.65 23.48 27.12 17.24 17.54 26.80 23.73 18.81 19.99 18.94 16.45 15.54 15.52 14.04 13.24 11.14 10.84 9.61 11.01 9.20 8.99 7.72 10.86 8.10 4.81 6.28 7.79
30.68 37.31 40.90 41.06 39.25 37.68 35.42 34.36 27.98 27.51 24.57 20.77 20.72 26.49 27.16 29.63 30.24 31.06 29.44 33.39 33.91 30.56 27.33 25.52 26.82 23.02 16.45 18.63 14.71 20.72 24.17 26.20 26.60 23.14 16.25 18.63 14.81 14.20 16.87 14.16 13.15 13.10 12.19 11.79 12.18 11.05 10.87 9.80 11.77 11.50 11.83 10.73 10.42 10.29
34.66 37.47 40.75 39.87 36.75 32.14 28.54 30.18 31.85 23.81 21.06 26.44 24.74 27.70 23.47 23.03 28.92 29.75 29.33 31.52 34.58 34.74 29.64 24.72 24.19 18.84 17.90 23.92 19.28 23.74 26.81 24.30 23.53 23.19 18.28 12.30 15.79 14.92 13.19 13.85 13.90 13.06 14.39 13.31 15.20 16.00 15.66 14.44 14.68 15.67 16.51 16.91 14.83 14.62
39.81 40.49 39.73 39.90 38.78 31.04 27.18 26.85 30.83 27.37 21.99 22.45 23.73 22.10 23.21 23.23 26.39 30.05 28.86 28.02 31.51 32.26 30.60 26.46 19.54 26.48 21.82 21.23 27.41 23.91 22.48 23.51 22.64 20.37 17.53 13.98 13.55 15.48 15.22 17.27 17.21 16.19 16.66 16.92 16.20 15.79 16.83 16.51 18.11 18.14 15.81 14.82 11.32 8.44
38.06 38.57 39.51 37.19 34.46 33.37 29.95 26.95 26.12 26.40 25.51 22.77 25.95 26.34 22.86 26.22 26.17 20.84 23.59 30.48 28.79 29.30 27.52 21.04 22.31 16.95 23.46 21.17 22.17 24.18 24.28 23.63 21.38 19.61 18.21 16.88 16.11 17.98 17.52 16.91 18.26 18.78 17.00 14.96 16.37 15.19 15.74 16.78 16.70 16.05 8.09 2.87 1.92 5.75
36.86 38.54 35.14 35.19 31.58 31.51 29.27 32.84 29.70 26.89 25.14 25.42 27.10 27.22 22.06 21.42 22.85 21.33 27.10 26.57 26.24 28.39 23.21 20.84 19.37 19.65 22.10 26.39 20.33 23.29 22.66 22.97 21.83 20.01 18.03 19.25 18.11 17.62 18.36 18.78 18.61 15.44 16.36 16.33 18.40 16.01 13.46 15.34 13.81 12.10 7.36 2.19 3.59 4.94
37.46 35.66 31.67 30.83 27.67 27.49 23.91 32.96 27.51 27.07 20.77 24.14 27.53 24.67 22.41 22.10 24.98 29.76 20.48 26.68 21.21 21.69 23.21 25.79 26.53 26.60 23.46 21.16 26.08 25.64 24.41 23.21 20.09 18.96 19.26 19.47 18.52 17.60 18.86 18.31 18.97 16.15 17.21 18.22 20.08 17.64 15.00 11.06 8.37 5.98 4.75 4.50 4.64 1.51
36.49 30.89 26.61 25.07 24.90 20.67 26.38 24.68 29.37 27.25 26.39 23.51 22.66 19.23 22.44 21.39 28.42 24.27 20.86 19.02 18.27 20.97 22.52 25.06 25.25 23.23 23.60 25.44 21.81 22.37 24.04 23.97 21.29 20.71 21.00 20.90 19.48 19.78 21.17 20.15 19.43 19.56 20.13 18.53 17.10 13.58 10.44 5.84 5.36 7.28 4.31 4.19 0.77 0.60
23.61 24.03 26.41 22.70 25.94 22.35 19.85 20.15 23.56 23.83 16.77 20.65 24.01 18.65 21.59 23.86 17.54 19.71 23.30 23.72 22.92 13.89 17.09 22.30 23.50 23.14 19.46 16.72 18.48 20.09 24.27 23.68 21.58 19.70 17.98 21.48 17.56 19.60 18.30 17.78 17.21 17.73 18.66 15.04 9.23 10.73 6.80 3.11 4.14 4.89 5.82 4.00 7.54 5.32
21.31 20.63 20.51 21.88 16.58 18.17 18.67 13.80 13.75 15.80 18.71 21.86 21.10 21.24 19.53 21.24 20.77 20.16 20.26 21.15 24.30 21.38 22.00 21.18 22.83 20.16 20.37 21.53 19.42 20.49 20.20 21.60 22.63 18.95 18.35 21.83 21.13 18.31 15.00 13.21 11.28 11.68 13.51 11.64 10.01 5.87 7.83 6.51 6.44 6.99 5.08 6.04 5.87 4.55
16.25 17.50 23.75 26.84 26.98 27.73 19.41 21.26 24.42 17.23 12.79 16.11 19.59 21.03 23.26 20.29 20.12 14.68 18.51 21.01 22.40 24.89 27.02 27.40 27.09 24.77 21.19 18.99 18.70 18.19 19.79 20.24 19.42 17.59 17.11 16.24 15.60 16.44 16.88 13.68 10.09 10.40 11.35 10.53 7.75 8.02 7.49 6.06 6.48 4.95 3.75 3.17 3.49 4.15
23.59 24.68 19.76 23.86 23.86 24.55 17.31 16.99 15.91 16.31 16.42 20.94 23.36 21.52 20.85 17.24 9.95 13.96 15.99 20.90 22.66 22.44 23.34 23.91 24.43 23.22 20.48 17.30 17.05 16.35 15.39 15.67 15.21 14.47 14.18 12.60 11.47 9.69 9.73 12.24 13.18 13.11 8.89 7.75 6.71 6.53 6.71 6.05 4.10 3.24 3.58 4.04 2.92 0.57
19.94 23.30 22.76 18.89 19.98 18.08 16.47 16.51 14.91 17.46 19.40 19.99 16.95 13.51 12.10 15.01 14.85 13.79 18.40 21.06 22.97 19.04 19.24 18.37 18.51 19.05 18.15 18.00 17.37 16.34 15.86 16.62 13.76 9.69 4.43 -1.21 -0.48 4.66 5.87 7.09 7.08 6.91 7.18 8.49 12.28 8.74 6.47 3.86 3.87 4.39 4.02 2.52 0.63 -1.85
21.28 24.69 19.00 17.44 15.98 14.12 15.17 18.00 16.95 16.95 18.97 16.58 15.99 13.94 12.64 10.01 13.96 16.27 16.26 15.44 15.40 14.27 14.97 18.14 18.99 18.25 16.71 15.66 13.50 13.34 13.05 8.82 7.23 9.42 5.65 1.84 4.26 1.41 2.00 4.19 5.17 5.00 6.83 6.70 1.92 3.48 10.75 5.31 7.39 3.71 1.64 -0.12 -4.56 -10.48
24.32 23.83 18.66 16.09 13.58 14.22 14.03 13.05 15.23 15.11 12.05 11.23 6.61 4.25 4.52 7.74 11.41 11.98 15.33 14.74 11.20 18.51 18.91 18.28 18.32 17.26 15.80 13.56 12.97 10.41 8.48 9.64 7.98 10.13 10.56 10.86 10.00 6.81 6.47 7.50 8.26 8.64 6.89 2.56 0.80 1.92 1.48 1.56 -1.33 -4.22 -7.06 -10.45 -14.62 -16.44
19.52 16.82 13.13 8.47 9.26 12.67 14.99 12.40 11.32 6.38 4.85 1.27 1.51 -1.03 2.01 1.98 1.32 9.60 15.34 15.92 14.79 16.04 13.16 13.79 12.78 10.52 13.27 12.02 9.40 9.74 11.03 8.49 9.11 9.85 9.03 10.41 9.29 8.67 7.07 6.51 5.48 4.84 2.43 2.64 1.34 0.74 -2.82 -6.39 -11.72 -14.80 -16.62 -17.70 -19.16 -20.42
15.17 12.78 10.74 9.12 6.11 6.02 7.24 11.40 9.77 11.61 8.24 6.44 6.58 6.04 1.30 -2.27 0.20 6.19 12.45 17.10 11.17 9.31 11.84 11.27 9.84 9.62 8.73 7.88 6.95 6.39 7.56 7.96 9.09 11.39 10.32 8.34 6.52 7.32 3.97 0.36 0.28 3.04 4.33 2.55 -3.21 -6.64 -9.93 -11.54 -16.07 -17.16 -19.88 -21.51 -23.33 -24.05

GFSWCAN_sfc_wetblb_117.txt.gz
Wetbulb
45.98 45.15 45.20 45.04 45.14 44.63 44.69 44.92 44.96 44.72 44.37 44.12 43.93 44.51 44.94 45.74 45.58 41.00 38.19 39.89 35.54 29.38 31.49 36.03 36.66 31.34 30.96 29.27 23.44 28.28 25.46 28.55 26.31 22.99 24.22 24.02 24.26 28.28 29.55 29.88 28.78 25.28 24.36 22.84 24.88 20.23 17.98 30.15 30.15 25.90 29.55 31.47 32.54 31.80
45.59 45.26 45.10 44.96 44.80 44.59 44.63 44.78 44.85 44.53 44.39 44.37 44.29 45.01 45.67 45.77 45.39 42.97 37.30 40.79 38.77 32.57 31.01 36.12 37.37 37.77 37.14 35.31 30.94 32.25 32.78 30.57 29.57 24.10 28.20 25.86 24.45 26.96 26.94 21.46 32.32 23.87 26.74 24.15 25.03 22.99 29.54 31.36 30.53 32.54 31.79 27.24 26.95 29.74
45.40 45.49 44.63 44.80 44.44 44.05 44.13 44.71 44.66 44.37 44.08 44.35 44.51 44.68 44.77 45.44 45.11 42.98 37.58 37.17 35.02 29.96 30.49 32.83 34.64 38.90 39.55 38.47 37.92 30.15 31.58 34.78 31.71 32.68 30.02 28.47 24.88 28.62 24.07 24.95 28.65 30.85 33.01 26.15 25.66 28.88 29.37 30.29 30.35 29.66 28.86 26.82 27.57 28.56
44.84 44.56 44.62 44.24 44.03 43.70 43.89 44.16 44.26 44.18 44.28 44.01 44.50 44.66 45.25 44.90 44.34 41.77 36.77 37.19 35.07 31.79 28.80 33.86 40.30 37.35 41.07 39.98 38.30 37.09 35.74 35.45 33.46 31.51 28.16 27.29 26.29 32.18 27.63 29.39 26.27 28.29 30.45 25.33 26.40 29.11 29.91 30.60 29.25 28.60 27.55 27.45 26.77 27.44
44.56 44.43 44.00 44.01 43.72 43.39 43.42 43.93 43.88 43.93 44.00 44.18 43.63 44.20 44.41 44.78 43.96 40.31 38.07 37.70 37.48 32.29 25.61 29.46 37.24 40.63 40.79 39.53 38.33 37.35 35.93 32.51 29.42 27.85 25.30 25.63 29.30 29.74 29.64 29.92 26.38 29.73 28.54 25.53 23.07 28.99 28.57 28.96 29.36 28.56 25.68 24.91 25.40 24.42
44.36 44.20 43.87 43.65 43.35 43.24 43.11 42.88 43.58 43.67 43.57 43.70 43.59 43.51 43.88 43.98 41.65 35.52 29.52 35.92 39.04 35.77 28.45 24.19 33.48 36.66 40.14 37.88 36.77 35.39 34.85 32.26 30.32 28.73 27.34 28.61 33.20 28.49 23.88 23.24 29.81 31.63 32.87 33.48 30.87 33.25 31.77 31.53 28.16 27.30 24.73 24.60 24.84 23.69
44.02 43.97 43.61 43.70 43.63 43.53 43.20 43.07 43.44 43.40 43.36 43.34 43.26 42.88 42.87 42.64 37.77 32.77 30.68 40.60 41.19 36.75 30.04 21.83 29.99 37.69 40.09 38.12 37.24 32.73 33.00 31.21 30.31 28.99 28.34 28.00 29.38 29.38 18.52 22.00 29.71 31.56 32.19 32.18 32.28 31.38 28.78 29.71 24.74 26.20 25.71 24.81 24.33 21.92
43.31 43.20 43.09 42.84 43.31 43.17 43.01 43.20 43.09 43.23 43.07 43.16 42.85 42.14 42.63 42.29 39.32 34.95 41.33 44.39 41.85 34.65 33.24 24.40 25.61 29.36 35.05 29.07 27.72 31.64 29.50 29.89 29.53 28.22 28.61 28.70 28.97 27.43 21.94 28.21 30.73 31.86 31.89 31.64 31.56 31.71 27.69 27.42 25.92 24.39 24.28 23.01 21.29 20.19
43.08 43.04 42.72 42.61 43.09 43.02 42.80 42.82 43.04 43.11 42.97 42.81 42.56 41.49 37.37 34.79 30.70 36.20 43.10 43.99 41.06 35.40 29.97 22.18 22.27 18.75 33.05 32.38 30.19 29.81 30.44 20.66 28.66 25.30 27.33 27.69 23.74 20.52 28.89 28.53 28.35 30.94 30.73 29.70 29.01 27.33 26.67 24.26 22.61 22.35 21.91 20.89 19.28 18.62
42.68 42.99 42.50 42.45 42.63 42.46 42.59 42.66 42.62 42.82 42.89 42.19 36.90 32.14 28.14 32.81 41.38 42.95 37.45 34.64 33.51 35.89 34.90 29.03 26.72 29.34 30.58 26.80 24.65 24.51 25.70 23.13 21.43 25.36 28.37 23.02 24.35 28.34 30.38 32.89 31.80 30.24 29.83 28.85 24.41 22.30 22.81 21.76 21.50 21.23 20.51 20.28 19.09 17.90
43.01 42.73 42.24 42.56 42.53 42.57 42.58 42.39 42.47 42.69 40.36 34.23 31.00 31.81 36.79 42.68 38.81 35.16 30.14 29.31 30.27 28.67 31.26 30.31 28.09 24.24 31.31 23.57 23.26 25.78 22.26 22.83 20.97 24.03 22.50 19.01 23.87 23.10 27.95 27.82 28.63 29.92 29.27 28.40 27.00 25.82 25.44 23.80 21.07 19.73 19.08 19.21 18.39 17.11
42.64 42.62 42.57 42.52 42.33 42.46 42.19 42.24 42.11 36.37 34.36 34.34 36.63 40.07 39.81 35.88 32.38 27.99 25.19 29.27 27.79 24.54 26.55 26.35 26.99 29.68 27.16 31.30 26.18 26.90 22.63 21.26 18.70 24.60 22.65 15.67 18.47 23.52 24.62 25.50 25.36 25.51 25.81 25.55 25.66 23.81 22.87 22.64 21.44 20.14 18.61 16.99 15.77 14.76
42.43 42.60 42.79 42.37 42.12 42.37 42.42 41.98 40.51 40.88 40.02 38.57 36.03 31.76 30.68 29.79 23.37 19.55 16.62 24.03 24.23 23.20 24.16 25.47 23.93 32.51 28.70 27.45 21.53 26.06 16.21 15.28 23.14 24.55 15.24 18.82 21.92 24.09 24.06 24.83 23.90 23.47 23.05 22.52 21.93 22.36 21.63 20.35 20.38 18.81 16.17 14.77 13.29 10.19
42.27 42.59 42.67 42.37 42.21 42.39 42.25 41.73 41.87 38.41 34.06 26.86 22.94 22.78 23.81 21.48 20.60 21.36 23.15 23.49 25.57 24.03 25.69 26.13 29.85 27.70 26.88 24.19 21.22 15.46 19.05 24.48 19.09 15.56 16.83 18.26 23.14 23.17 24.26 25.07 22.38 19.80 19.12 19.55 18.60 17.69 16.05 14.87 10.88 8.36 6.65 5.21 4.65 1.87
41.75 42.22 42.29 41.83 42.07 42.09 41.78 41.14 39.83 36.46 31.01 25.61 28.10 21.21 23.31 23.60 24.76 29.94 30.58 31.11 30.67 26.42 26.69 25.56 24.87 25.56 20.13 22.07 26.11 19.24 17.85 18.23 17.96 15.79 17.85 17.43 22.88 22.73 21.44 19.98 16.92 15.53 13.13 12.78 11.10 10.19 7.23 6.16 6.91 0.93 -2.68 -2.15 0.18 -4.27
40.84 40.58 38.80 41.87 41.95 41.53 40.32 38.24 36.75 35.15 31.19 27.68 25.25 21.75 26.76 28.16 28.17 29.42 30.80 31.74 31.68 25.83 25.62 27.21 22.95 18.00 18.05 20.15 22.41 19.79 18.63 13.50 16.18 16.43 16.78 21.01 21.50 20.18 18.59 17.50 15.30 14.34 13.23 10.63 9.07 8.99 7.46 5.67 6.57 5.80 1.39 0.32 -4.61 -2.87
37.38 34.66 41.04 41.21 41.34 40.18 39.13 33.68 31.13 28.06 27.14 25.54 23.19 21.43 19.28 26.89 27.73 29.91 32.01 32.31 31.37 26.17 19.00 23.86 16.86 18.98 24.16 19.92 17.72 22.40 14.95 16.92 17.72 26.37 13.84 16.52 19.92 16.37 14.24 13.62 12.58 12.00 10.29 8.88 7.73 8.69 6.79 8.32 8.58 10.40 7.18 2.10 2.95 4.65
32.89 39.11 41.18 41.05 37.96 36.54 32.70 31.50 28.40 26.85 23.60 20.82 20.09 20.86 23.09 28.42 28.85 30.58 30.98 32.71 33.11 30.42 26.81 24.83 25.64 21.42 17.63 20.50 14.45 16.57 25.51 24.50 26.52 23.64 12.66 11.13 11.91 13.04 15.98 13.80 11.25 11.26 9.18 8.83 10.81 10.14 9.44 7.51 9.77 8.84 9.42 8.10 8.58 8.40
37.08 39.26 40.44 39.34 36.11 31.69 27.82 28.68 30.54 22.29 20.32 20.12 20.07 26.21 26.85 23.81 27.89 30.84 31.22 31.90 33.63 34.04 29.95 25.76 20.52 18.21 17.54 18.70 17.43 15.82 27.16 17.29 22.48 22.02 11.54 8.62 13.03 14.96 11.83 11.10 10.36 9.09 11.19 10.92 13.43 13.49 13.01 12.41 12.90 12.72 13.28 14.38 12.43 12.70
40.81 40.28 39.73 39.30 38.07 30.72 26.84 25.79 29.84 26.83 21.74 22.57 24.92 23.45 23.82 23.82 27.49 28.57 28.63 26.64 31.86 32.14 31.24 25.02 20.38 18.68 20.18 19.20 20.71 20.28 17.89 19.96 20.99 20.95 17.84 10.78 9.61 12.41 12.72 14.29 14.17 12.42 13.07 14.44 14.85 14.65 15.42 15.07 16.12 16.09 15.06 14.10 12.03 10.49
38.21 38.51 39.00 36.30 33.77 32.48 28.67 26.50 25.41 25.41 25.42 22.93 26.26 27.02 23.60 26.22 21.39 22.93 22.04 28.71 24.39 25.83 26.83 20.99 19.21 16.98 17.31 18.50 19.78 20.41 22.43 23.59 19.73 20.38 17.13 13.97 11.35 15.33 14.82 13.96 15.40 15.99 14.66 14.11 14.55 12.61 13.00 14.43 13.85 15.53 7.49 2.56 3.43 6.22
35.55 36.87 34.90 34.55 28.84 29.69 28.05 31.06 28.35 26.31 24.24 24.53 26.44 28.03 20.02 21.06 22.08 18.23 26.59 20.70 21.12 21.66 26.32 22.56 19.13 18.91 20.19 21.65 19.14 21.31 19.79 21.81 20.59 18.49 16.52 17.40 16.21 15.90 16.08 15.10 16.58 12.73 13.64 12.32 15.04 12.60 13.83 15.00 12.26 10.92 5.84 1.44 4.31 4.12
37.23 34.45 28.92 27.49 21.82 21.67 18.31 32.37 26.54 25.58 22.31 24.01 26.92 22.84 22.08 16.80 22.04 28.62 19.42 23.43 20.91 20.48 20.75 21.19 22.53 25.27 22.83 19.78 24.46 23.59 22.34 21.70 17.72 15.99 16.66 15.33 16.63 16.20 17.08 16.53 16.17 13.15 12.93 14.39 17.62 16.12 12.13 8.87 7.38 5.53 5.54 5.88 2.84 -0.18
35.16 24.00 19.06 19.08 21.33 17.21 25.75 25.77 29.57 26.16 23.02 23.03 19.81 18.70 23.18 22.79 27.81 22.35 17.50 17.15 18.68 19.29 21.08 24.13 23.68 21.93 23.11 25.37 20.63 20.61 22.19 21.71 19.13 18.01 18.55 18.57 16.66 15.28 17.81 17.22 16.70 17.35 18.36 18.11 16.71 12.28 10.28 9.43 9.47 9.47 3.21 -1.12 -2.98 -0.36
20.17 18.96 24.78 21.71 24.37 19.52 15.45 18.01 20.31 23.18 16.03 19.15 18.60 17.11 21.76 24.09 16.02 16.81 19.56 17.63 17.20 16.34 16.08 19.75 22.60 21.91 18.19 15.44 16.88 18.51 22.70 22.00 19.80 17.55 15.62 18.52 16.28 17.31 16.29 16.41 15.05 15.53 17.38 11.79 7.23 7.89 5.53 4.53 4.61 1.05 1.77 0.46 6.42 2.78
16.11 20.43 22.57 21.36 21.25 19.98 19.87 16.99 17.81 17.43 19.88 19.24 21.23 22.60 19.93 14.20 14.45 15.37 17.26 13.80 21.49 23.32 18.04 14.61 16.85 20.71 21.24 21.00 18.42 18.03 17.76 20.16 21.12 17.50 16.94 19.94 19.62 16.76 12.26 11.77 9.93 12.12 12.55 13.27 12.29 10.46 8.76 5.42 1.39 2.73 2.79 3.95 3.98 2.38
18.79 17.65 22.92 27.20 27.04 26.05 19.52 20.14 22.37 16.47 14.00 13.19 16.02 17.37 17.45 12.62 15.88 12.55 16.20 17.70 18.14 21.46 25.56 27.06 26.61 25.18 23.11 19.91 18.84 18.14 18.57 18.72 17.77 16.80 15.36 14.79 14.55 15.46 16.58 14.70 12.49 11.39 10.16 11.05 8.05 7.94 8.17 5.75 2.85 5.66 6.48 1.99 1.97 2.96
20.58 22.43 18.95 22.70 23.76 24.40 19.35 17.73 18.15 17.64 15.66 19.10 21.58 20.53 17.12 17.89 12.49 11.89 13.59 16.22 19.84 22.71 21.39 20.65 21.30 21.54 18.65 16.51 16.27 15.53 14.49 14.38 14.26 14.27 14.74 13.28 11.31 9.76 10.61 11.62 11.05 10.85 5.15 4.51 5.20 5.00 5.18 5.54 5.92 4.01 1.52 1.55 0.34 -1.64
19.86 22.49 23.33 18.44 19.15 17.96 16.91 17.83 17.57 17.85 18.72 18.62 14.49 7.97 6.09 13.10 11.41 11.57 14.84 17.47 20.65 19.63 16.36 15.71 16.10 17.03 15.62 15.74 15.07 14.74 14.64 14.98 16.27 12.73 8.28 6.82 3.74 7.04 4.87 5.77 5.19 5.36 6.22 8.47 11.62 7.44 7.97 5.62 2.72 -0.72 0.65 0.38 -3.52 -10.93
19.90 23.76 18.89 16.79 16.74 15.08 14.16 15.86 14.93 16.94 18.42 17.70 16.66 15.11 13.29 10.82 11.88 15.21 14.63 14.29 14.56 11.59 9.49 12.80 15.80 15.71 14.77 14.23 12.98 12.78 11.74 10.89 12.61 14.74 10.91 5.57 6.14 4.81 0.36 4.62 4.40 3.92 5.78 6.43 6.20 6.16 7.85 -0.31 4.39 0.62 -2.24 -7.89 -12.92 -14.19
24.58 22.25 17.45 15.97 13.85 15.22 16.53 17.26 19.25 18.06 15.90 13.26 11.93 11.52 11.29 12.31 12.18 12.35 13.83 12.52 9.91 10.31 14.25 14.84 15.12 16.03 15.44 14.57 12.09 11.40 10.04 10.18 8.67 8.31 8.10 8.73 7.61 5.09 3.51 3.97 4.34 5.14 3.33 3.67 0.27 -4.00 -4.34 -2.97 -8.04 -10.93 -12.20 -14.01 -18.73 -21.63
21.00 17.48 14.73 11.82 12.81 15.56 17.55 16.47 14.32 12.86 10.55 9.32 6.52 5.25 5.90 1.83 -1.15 4.98 12.55 12.63 9.67 7.95 8.30 12.43 11.65 7.89 9.81 10.15 10.63 9.44 9.47 6.54 7.06 8.31 9.23 9.32 7.03 5.63 5.06 2.98 2.56 3.45 -0.15 -2.73 -2.24 -3.29 -4.36 -9.52 -17.27 -18.91 -20.36 -22.17 -24.53 -25.80
14.05 12.78 12.77 9.57 7.88 8.98 9.21 10.49 10.70 8.43 3.07 2.46 3.48 0.31 -6.03 -3.28 -0.84 3.23 8.91 13.03 8.76 5.63 7.96 7.24 6.72 7.05 6.49 6.84 6.95 7.01 7.98 8.36 9.04 10.72 8.31 6.65 3.84 3.15 0.55 0.02 0.07 -0.00 -0.82 -2.64 -5.84 -8.81 -11.84 -15.46 -20.18 -22.90 -25.25 -25.80 -26.52 -27.07

GFSWCAN_sfc_wetblb_120.txt.gz
Wetbulb
45.69 45.64 45.41 45.22 45.21 44.76 44.53 44.31 45.03 44.69 44.10 43.83 43.97 44.65 45.34 45.81 44.58 40.96 37.68 39.39 35.76 30.69 31.15 35.62 35.81 31.12 30.34 28.59 22.94 26.96 24.76 26.86 25.28 22.15 23.79 23.49 23.94 27.26 26.32 28.93 27.07 23.95 23.55 22.67 25.24 20.79 18.16 29.63 30.56 25.61 28.84 31.03 30.56 27.75
45.72 45.29 45.07 44.46 44.85 44.65 44.32 43.82 44.58 44.44 44.37 43.86 43.95 44.80 45.67 46.02 44.81 42.54 37.00 39.85 37.96 33.04 31.92 35.86 36.43 36.77 36.00 34.29 30.30 29.74 28.70 29.76 28.88 22.76 23.44 25.20 24.05 25.14 26.57 19.58 30.04 23.33 25.72 23.89 24.12 22.10 28.80 29.39 29.35 30.19 28.41 26.36 28.02 28.03
45.40 45.06 44.90 44.72 44.67 44.49 44.18 43.88 44.25 44.18 44.29 44.11 44.58 45.01 45.48 45.45 45.13 41.81 37.18 36.93 34.58 31.69 32.41 33.84 34.22 37.80 38.31 37.28 36.66 29.88 30.38 33.49 30.51 31.33 29.76 24.68 24.60 27.35 23.97 24.94 28.95 30.37 31.69 26.08 25.89 27.35 27.75 27.84 28.15 27.83 27.35 26.62 28.23 27.06
44.99 44.69 44.91 44.90 44.48 44.33 44.26 43.81 44.23 43.94 44.40 44.49 44.87 45.16 45.79 44.94 44.08 41.87 37.33 36.59 35.00 32.08 29.36 32.38 39.35 36.77 39.50 38.46 37.16 36.04 34.83 33.84 32.18 30.48 27.65 26.29 25.25 30.29 26.21 28.14 25.88 27.84 29.23 25.05 26.37 29.02 29.01 27.44 27.04 27.12 26.95 27.53 26.19 25.69
45.05 44.62 44.47 44.39 44.13 43.96 43.82 43.81 43.69 43.96 44.05 44.31 44.64 45.16 44.77 44.35 43.39 40.29 38.19 37.73 37.76 33.62 27.45 30.46 35.78 39.23 39.30 38.80 37.58 36.43 34.72 31.26 28.84 27.45 24.79 25.29 28.75 28.91 28.97 27.19 25.96 29.26 28.08 25.02 18.21 28.35 27.23 26.91 26.98 27.67 25.66 24.83 24.92 22.83
44.91 44.19 44.15 44.05 43.50 43.67 43.53 43.17 42.93 43.64 43.80 44.14 44.40 44.66 44.35 42.95 40.15 35.70 30.65 36.71 39.41 35.97 30.38 25.24 32.92 36.76 39.28 37.05 36.27 34.70 33.73 30.93 29.39 28.16 26.91 28.07 31.14 27.86 20.67 19.65 29.81 31.82 32.87 33.50 29.44 31.55 29.65 28.36 26.54 26.09 24.29 24.04 23.92 22.79
44.16 44.09 43.97 43.37 43.24 43.21 43.49 43.21 42.68 43.33 43.78 43.83 43.95 44.05 42.86 42.54 37.99 32.84 31.69 38.68 40.59 36.64 28.21 24.50 31.49 36.82 38.86 37.52 35.35 31.24 31.91 29.88 29.23 28.31 28.16 27.77 28.61 27.97 17.83 20.18 28.51 30.17 32.01 32.00 31.82 30.25 26.53 26.52 23.52 25.10 24.53 23.71 23.71 21.57
43.87 43.73 43.52 43.46 43.17 43.21 43.02 42.75 42.77 43.33 43.06 43.20 43.05 42.94 42.58 41.64 39.55 37.56 40.62 43.57 39.80 34.28 31.22 24.12 27.81 32.91 36.62 29.65 27.24 30.15 28.94 29.05 28.79 27.46 27.78 28.48 28.52 26.74 20.80 26.67 29.65 31.65 31.55 31.34 31.20 30.91 28.54 25.83 24.26 22.86 23.02 21.94 20.63 19.92
43.53 43.25 43.05 43.07 43.02 42.86 42.86 42.55 42.53 43.20 43.03 42.85 42.84 41.22 37.00 34.22 31.65 36.97 43.91 43.12 39.75 33.66 24.91 20.94 25.84 24.02 32.12 29.21 29.21 28.70 28.94 20.22 27.44 22.45 26.89 27.24 23.59 21.33 26.27 27.99 28.29 30.32 30.60 28.42 27.83 26.54 24.81 23.70 22.09 21.83 21.55 20.76 19.21 18.95
42.96 42.90 43.03 42.95 42.94 42.77 42.67 42.35 42.31 43.16 43.01 41.34 36.63 30.59 22.65 31.65 40.42 42.74 36.25 31.04 29.85 34.55 31.83 23.42 25.65 21.95 28.72 25.97 24.38 23.34 23.42 22.70 20.66 24.15 27.56 22.18 21.61 27.67 29.57 30.63 31.74 30.01 30.33 28.24 23.89 22.35 22.74 21.87 21.74 21.12 20.82 20.87 19.78 18.46
42.65 42.89 42.90 42.72 42.71 42.71 42.53 42.10 42.59 42.65 39.73 33.92 29.23 31.06 35.68 41.61 38.42 34.59 28.82 25.95 27.08 26.82 29.50 28.31 27.28 23.88 30.03 23.40 22.81 24.68 21.76 22.42 19.69 23.21 23.92 18.34 23.33 23.83 27.22 29.61 32.06 29.48 28.85 27.11 26.69 26.13 25.61 24.15 22.35 20.64 19.60 19.43 18.40 17.09
43.00 43.15 42.55 42.45 42.55 42.71 42.59 42.29 41.83 35.94 33.84 34.18 37.43 39.72 39.26 35.58 31.60 25.50 25.65 29.11 27.06 24.35 26.95 26.19 26.25 29.01 26.25 29.73 25.97 26.27 21.49 20.40 17.92 23.37 23.33 18.57 19.65 24.02 25.63 27.90 29.79 28.39 27.92 26.59 25.41 24.28 23.61 23.66 22.15 20.75 18.84 17.10 15.62 14.45
42.59 42.64 42.59 42.50 42.45 42.56 42.44 41.76 40.67 41.26 40.51 38.56 36.23 31.97 27.57 29.20 19.67 17.32 19.56 23.61 24.91 24.21 23.37 25.47 23.00 31.04 25.95 26.76 20.89 25.10 14.56 15.18 22.14 22.76 14.86 18.94 20.72 23.85 24.14 24.29 25.27 24.74 25.05 23.99 22.83 22.93 22.18 20.91 20.51 18.98 16.31 14.88 12.73 10.07
42.32 42.20 42.35 42.50 42.37 42.37 41.80 41.88 41.62 38.40 34.91 27.28 23.95 18.85 17.26 20.17 20.55 21.30 23.86 22.66 23.99 23.37 25.08 23.32 24.56 25.29 23.40 23.47 17.39 14.89 17.52 20.77 9.03 8.78 15.42 18.19 21.71 23.14 23.91 24.76 24.20 21.35 19.81 20.13 19.34 18.56 17.18 15.91 11.91 9.29 7.59 6.08 5.23 2.27
42.21 42.20 42.13 41.96 42.18 41.92 41.66 40.71 39.51 35.78 30.05 25.10 24.83 20.92 23.08 21.94 25.43 27.70 27.10 30.27 30.45 24.89 25.58 24.24 24.10 24.75 17.76 18.74 19.33 17.62 14.29 11.62 15.16 14.09 16.94 17.46 19.95 22.50 21.05 19.97 17.33 15.92 14.24 14.25 12.89 12.43 9.11 7.39 7.65 1.05 -3.47 -2.48 0.44 -2.99
42.23 41.10 38.60 42.17 41.92 41.32 40.40 38.18 35.59 33.43 29.59 25.17 24.38 20.40 24.49 26.85 27.24 29.00 30.46 31.07 29.44 24.03 25.11 26.32 21.76 17.04 17.19 18.96 18.14 13.80 16.78 12.19 15.12 15.89 16.83 17.35 19.49 19.54 18.04 17.24 15.52 14.15 13.61 11.32 10.01 9.43 7.56 6.37 6.97 5.03 -1.77 -2.69 -6.59 -4.27
38.80 34.69 41.43 41.43 40.95 39.97 38.84 33.79 30.45 28.59 26.11 23.62 18.77 25.75 25.98 23.58 23.86 30.20 31.86 32.23 28.66 28.65 24.78 22.55 15.82 17.83 23.10 16.94 16.00 19.29 13.27 15.76 16.01 18.18 21.34 14.57 16.88 15.95 14.71 14.15 12.45 12.25 10.87 9.64 7.44 8.40 5.11 5.83 7.31 8.24 6.05 0.87 2.03 2.68
35.08 39.48 41.34 40.76 37.72 36.00 32.82 32.21 28.29 26.62 23.19 20.22 19.71 23.85 21.69 24.37 28.14 29.46 30.72 32.18 32.05 30.39 29.10 24.26 24.88 19.68 11.71 13.74 12.07 16.85 12.98 20.92 22.56 25.87 12.90 9.71 10.53 12.18 14.79 13.17 11.01 11.43 9.58 8.23 9.01 7.31 6.65 6.52 9.05 8.53 8.52 7.24 7.30 6.74
38.34 39.07 40.32 39.64 35.86 31.26 27.66 28.53 29.44 22.01 21.01 21.93 20.16 24.78 25.48 26.54 28.84 29.86 30.99 31.77 33.04 33.04 30.38 23.86 18.70 16.91 16.70 18.29 16.87 13.08 18.88 26.49 23.09 18.90 9.77 6.86 9.80 13.19 11.10 10.52 9.64 8.06 10.20 9.39 11.72 11.53 10.72 10.85 11.06 11.04 11.37 12.40 9.79 10.68
40.30 40.00 39.88 39.29 37.12 28.88 26.62 26.23 29.99 26.46 22.62 22.08 24.56 23.63 23.54 22.61 26.99 28.03 28.78 29.03 32.35 32.20 30.72 25.89 19.47 18.46 19.83 19.73 20.53 20.33 18.26 18.74 18.60 20.34 20.18 9.54 7.85 11.01 10.61 13.02 13.58 11.37 11.32 12.16 12.61 12.36 13.18 12.72 14.06 14.08 13.04 12.20 9.50 9.12
38.09 37.88 38.49 35.62 32.09 30.64 27.27 26.65 25.39 25.12 25.05 22.25 25.44 26.58 23.70 27.78 21.81 19.00 20.47 28.43 29.04 27.77 26.44 25.07 23.72 19.25 16.39 16.51 19.61 19.54 20.54 22.32 19.42 19.92 16.84 10.49 8.13 13.58 13.25 12.76 13.52 13.98 12.05 12.42 12.38 10.39 11.56 12.33 12.29 14.11 6.14 4.29 5.12 4.42
35.21 37.99 34.02 33.35 28.94 29.12 27.59 29.82 26.66 25.86 23.56 24.65 25.03 26.44 23.06 22.07 22.40 23.22 25.28 23.68 22.58 21.44 22.67 20.49 22.70 19.00 20.11 21.10 17.97 20.15 19.66 21.40 19.87 16.77 15.18 15.68 14.58 13.87 14.02 13.17 14.63 11.56 12.44 10.82 14.30 11.98 11.78 13.07 12.62 10.52 4.65 0.16 0.80 3.25
36.89 33.79 28.88 27.63 20.74 21.11 17.16 31.69 25.47 25.08 21.52 23.96 27.02 23.01 23.41 20.37 21.10 27.04 22.62 24.35 19.85 18.21 20.14 20.20 22.06 24.32 21.78 18.67 23.09 22.45 21.49 20.94 16.38 14.23 14.97 13.43 14.61 14.72 15.59 15.44 14.79 12.42 11.37 12.23 14.68 12.98 11.03 8.75 6.27 1.06 0.83 1.29 2.52 -0.49
34.46 27.75 21.46 16.94 17.76 11.85 21.92 23.89 27.82 26.11 24.09 23.33 21.50 18.71 22.06 24.10 28.71 25.00 21.99 14.98 16.56 18.21 22.34 23.33 21.85 21.00 22.47 24.11 19.24 19.06 20.39 20.29 17.56 16.50 16.60 16.83 15.24 14.12 16.14 16.13 15.23 15.09 15.79 14.99 14.53 10.38 7.09 1.21 5.07 7.83 3.76 1.96 -3.48 -2.10
19.41 15.48 15.31 7.96 23.72 21.79 17.56 19.01 22.15 21.53 11.94 19.41 17.08 16.02 20.35 24.16 17.92 19.44 16.86 13.61 17.06 19.97 20.27 21.08 22.75 21.20 18.49 14.65 15.70 17.14 21.27 20.38 18.34 15.61 14.43 16.68 14.68 16.09 14.81 14.60 13.29 13.39 14.36 9.74 3.42 3.24 1.23 7.04 8.71 8.58 6.27 -0.35 5.35 -0.20
8.55 15.56 21.29 16.50 20.72 19.26 14.75 8.48 12.15 14.38 12.00 16.10 19.43 19.93 18.41 14.09 17.27 16.44 16.63 16.75 15.06 22.78 23.33 23.45 24.23 23.72 22.69 22.76 20.38 18.35 17.53 18.86 19.46 16.55 16.45 17.42 17.36 14.99 11.59 10.58 8.63 9.80 10.88 10.76 11.67 10.48 9.71 7.63 6.85 4.64 0.68 2.12 3.53 2.82
10.98 18.09 21.84 26.69 25.93 24.82 19.74 20.80 21.68 15.77 13.62 14.06 16.05 17.82 18.16 11.96 11.64 12.89 16.22 16.47 16.02 18.84 22.44 25.40 26.70 25.16 23.09 20.38 17.27 17.30 17.41 17.56 17.30 16.40 14.85 13.71 13.11 13.49 13.14 11.68 10.45 11.79 11.05 11.60 10.18 10.63 9.05 6.59 1.25 3.16 5.47 4.66 4.82 2.33
19.92 21.75 18.18 21.29 22.82 23.99 21.20 20.34 19.77 18.99 19.20 20.52 21.98 17.16 15.35 11.06 10.69 9.33 12.36 15.52 17.95 20.71 19.97 19.28 18.66 19.21 17.57 15.06 15.54 14.57 13.53 13.49 13.67 13.62 14.31 13.25 10.92 9.47 11.01 11.50 11.36 11.77 7.11 6.02 3.98 5.05 6.60 8.33 7.97 7.98 6.88 0.31 -6.72 -4.73
18.55 22.70 23.31 18.12 18.84 18.50 17.61 19.21 20.43 19.18 19.31 19.90 18.09 14.28 8.92 11.64 8.18 8.57 10.17 14.46 17.07 17.67 13.81 9.47 11.04 13.29 14.25 14.34 14.04 14.06 13.12 13.67 15.50 12.28 9.80 7.61 6.32 8.44 6.40 8.09 7.81 6.98 9.01 10.92 13.09 9.81 7.72 6.23 4.31 -0.66 -4.93 -3.64 -13.79 -16.33
18.95 22.92 18.78 17.06 17.51 14.23 10.82 15.05 11.40 11.64 16.26 16.45 15.89 13.28 11.50 11.22 12.12 13.34 13.46 13.91 13.49 8.30 7.31 9.80 10.66 12.03 12.39 12.27 11.63 11.57 11.39 11.08 11.09 14.65 12.10 9.99 9.95 5.78 2.15 5.49 5.19 4.73 7.45 8.26 6.61 5.11 7.63 -2.02 -2.22 -8.47 -8.94 -10.91 -13.43 -15.61
24.23 21.34 17.48 16.55 14.42 13.12 15.16 16.76 16.04 15.61 13.48 11.21 10.97 11.11 10.78 11.90 14.20 14.28 13.44 12.46 11.01 11.15 10.06 10.25 11.97 13.43 15.13 14.26 12.52 11.26 10.44 9.09 8.25 8.15 8.33 8.14 6.21 4.23 3.03 3.43 3.99 4.73 4.08 0.78 -0.67 -3.94 -5.92 -10.36 -13.25 -12.00 -12.52 -15.97 -21.95 -24.85
20.32 17.53 15.15 12.40 12.86 15.80 17.80 16.71 15.63 14.53 12.37 12.91 10.93 10.88 9.64 10.52 9.74 10.46 11.31 10.99 11.07 10.37 9.52 10.00 9.36 5.58 7.51 9.25 9.05 8.20 7.87 6.32 7.02 7.71 8.18 7.58 5.46 3.67 5.68 4.21 2.01 1.23 -1.05 -3.80 -5.00 -6.40 -8.15 -11.80 -15.79 -17.24 -20.32 -24.31 -27.57 -27.75
15.35 14.09 13.93 13.16 12.49 12.83 13.94 14.65 12.61 10.33 8.38 9.27 8.40 7.13 4.65 5.45 5.27 5.38 8.03 9.71 6.11 3.44 5.01 4.65 5.17 5.65 5.83 5.50 6.41 6.63 6.76 6.42 6.62 8.73 6.49 5.66 3.74 3.86 0.93 -0.20 -0.83 -1.46 -3.23 -6.92 -10.77 -10.86 -13.31 -15.91 -20.74 -24.49 -25.21 -26.66 -28.66 -29.56

GFSWCAN_sfc_wetblb_123.txt.gz
Wetbulb
46.30 45.88 45.62 45.81 45.52 45.16 44.75 45.29 45.08 44.48 43.88 43.85 44.12 44.72 45.73 45.12 44.81 41.00 39.16 39.89 37.72 33.20 33.83 36.98 36.36 32.66 31.93 30.68 26.69 29.62 29.14 30.91 29.38 26.92 27.61 26.69 27.56 29.30 28.48 28.97 27.35 24.89 24.67 23.96 26.23 22.76 19.95 29.53 31.65 26.91 29.38 31.32 29.86 28.47
45.65 45.49 45.33 45.20 45.29 44.74 44.49 45.03 44.86 44.67 44.13 43.85 44.47 44.75 45.69 45.57 45.17 42.40 37.75 39.76 38.78 35.42 34.88 37.32 37.80 38.69 38.22 35.76 32.78 32.58 31.18 31.83 31.78 28.64 28.70 29.34 28.48 29.22 28.27 23.09 31.33 24.93 27.20 25.45 25.29 23.88 28.98 29.61 29.01 30.83 32.20 30.72 29.84 28.08
45.37 45.14 45.09 44.94 44.73 44.48 44.11 44.47 44.33 44.43 43.65 43.79 44.61 45.38 45.66 45.34 44.58 41.57 38.17 37.45 37.73 35.58 35.34 36.14 35.75 38.33 40.33 39.52 39.51 32.70 33.20 35.42 33.15 34.24 32.22 31.21 28.48 31.04 26.65 26.52 28.64 30.72 32.00 26.51 26.31 27.47 27.64 28.16 28.55 29.42 30.84 30.55 29.72 28.68
45.34 45.11 44.96 44.88 44.67 44.42 43.93 44.21 43.72 43.97 44.09 44.55 45.13 45.72 45.67 44.67 43.79 41.65 37.49 38.01 37.38 35.71 31.98 34.44 40.48 38.28 40.43 40.49 39.57 38.32 37.05 35.67 34.91 34.25 32.48 30.87 30.28 32.94 30.31 30.35 29.33 30.55 30.70 27.92 26.76 28.91 28.03 27.77 28.03 28.50 28.26 28.08 26.65 26.69
45.30 44.77 44.46 44.60 44.36 44.15 44.14 43.79 42.83 42.97 44.15 44.66 45.28 45.28 44.59 44.04 43.41 40.74 39.40 39.10 38.84 36.14 31.02 33.41 37.45 39.67 40.20 40.44 38.49 38.25 36.61 34.10 33.02 31.85 31.11 30.30 32.43 32.39 32.73 30.52 28.07 31.12 28.46 26.09 25.35 30.41 29.41 27.86 28.55 29.08 27.60 25.87 25.79 24.76
44.94 44.50 44.48 44.38 44.36 44.19 43.88 43.60 42.78 41.85 44.13 44.78 45.07 44.69 43.86 42.18 39.98 37.96 32.89 38.95 39.97 37.93 34.35 30.10 35.45 38.51 38.86 38.73 37.28 36.33 35.78 33.68 33.48 32.27 31.29 32.14 33.04 32.53 28.31 27.18 30.25 32.12 33.18 34.22 30.37 32.60 31.15 29.95 28.68 28.23 26.56 25.71 25.49 24.15
44.44 44.51 44.46 44.25 44.02 43.75 43.63 42.61 42.60 43.52 44.07 44.63 43.75 43.43 43.30 43.35 40.72 35.20 33.40 37.97 41.50 38.67 33.62 30.60 32.02 36.86 38.85 38.23 35.44 34.03 34.25 33.10 33.31 32.24 31.84 31.65 32.73 32.31 28.05 26.99 30.12 32.30 33.05 32.20 31.17 29.84 26.33 27.30 25.56 27.00 26.43 26.02 24.94 23.57
44.38 44.31 43.86 43.73 43.65 43.48 42.60 42.16 42.16 43.29 43.92 43.83 43.62 43.19 42.94 42.51 41.49 38.36 40.94 43.24 40.69 35.14 33.44 28.80 30.03 33.12 37.32 31.41 31.75 32.72 32.54 32.54 32.10 31.49 32.24 32.22 32.24 31.43 28.44 29.09 31.15 32.16 31.76 30.70 31.58 32.12 30.15 28.01 26.23 25.06 24.88 23.94 22.29 21.34
43.91 43.75 43.22 43.47 43.49 43.01 42.67 42.43 42.32 43.26 43.66 43.20 42.30 40.92 37.88 35.06 35.12 38.66 43.67 41.09 40.51 35.37 28.29 27.38 27.73 26.51 34.90 31.67 31.89 32.05 31.58 28.63 30.47 29.89 30.79 31.55 29.01 27.52 30.42 29.88 30.58 31.37 31.15 30.08 28.63 27.82 26.98 25.59 24.06 23.52 23.75 23.29 21.96 21.20
43.21 43.04 42.93 42.90 42.81 42.65 42.48 42.37 42.65 43.02 43.07 40.70 36.84 31.38 27.48 34.29 41.52 41.27 36.48 31.57 31.96 33.88 32.75 27.30 28.38 29.99 32.04 29.89 28.82 28.91 28.20 27.90 26.76 28.87 31.00 29.14 28.94 29.87 32.10 32.88 33.01 33.01 31.54 29.72 26.07 24.27 24.57 23.85 23.57 23.24 23.28 23.65 23.28 21.71
43.36 42.88 42.82 42.71 42.53 42.51 42.00 42.42 42.90 42.73 39.46 34.07 31.63 30.30 35.36 39.98 38.45 34.05 27.18 26.05 29.05 26.62 29.73 28.53 29.59 29.28 32.57 28.90 27.97 28.53 27.45 27.09 23.31 27.27 28.08 25.69 25.52 28.54 30.92 32.05 33.08 32.60 31.15 30.81 31.17 30.10 28.78 27.38 25.33 23.84 22.86 22.44 21.67 20.71
43.24 42.97 42.95 42.62 42.46 42.35 42.35 41.85 41.65 36.05 34.16 34.33 36.10 39.79 39.69 34.87 31.67 26.92 26.19 28.42 26.99 25.00 28.91 28.31 29.20 31.62 31.26 32.49 30.33 28.37 25.96 25.63 22.22 27.73 26.94 22.91 27.02 27.85 30.44 31.47 32.44 31.60 30.02 29.34 29.69 28.13 27.48 26.84 26.32 24.64 22.76 20.75 19.90 18.26
43.09 42.89 42.88 42.57 42.50 42.23 41.80 41.00 40.67 41.37 40.47 38.68 34.83 32.25 29.01 29.15 22.94 19.71 20.25 23.69 24.82 27.35 27.76 29.02 28.12 31.52 30.37 30.65 26.16 27.31 22.91 22.27 26.58 25.83 21.82 25.18 25.80 27.20 28.48 29.90 30.27 30.58 29.73 27.57 26.31 26.64 25.76 24.42 24.05 22.66 19.91 18.89 16.34 13.80
42.39 42.52 42.67 42.45 42.26 42.17 40.65 41.95 41.79 39.00 34.07 27.90 23.90 23.28 21.46 20.55 22.32 22.46 25.40 25.97 26.99 27.30 27.75 28.39 29.00 29.81 27.78 26.62 22.56 22.55 22.82 24.18 18.91 17.86 20.47 26.83 26.10 26.45 27.04 27.46 27.35 26.52 25.14 24.68 23.73 22.90 21.13 20.00 17.05 15.88 14.74 13.71 11.27 8.53
42.12 42.34 42.62 42.07 41.88 41.69 41.34 40.13 39.08 36.34 30.90 26.42 25.14 18.63 22.89 23.93 25.45 28.28 28.79 30.36 30.02 28.65 29.62 28.42 27.83 28.42 23.65 22.51 22.79 22.10 20.68 18.32 20.15 21.07 24.99 26.86 24.04 25.05 24.57 24.15 22.81 21.57 19.38 19.81 19.80 18.09 15.36 13.27 12.98 9.20 9.30 10.52 9.91 5.65
42.34 41.77 39.93 41.64 41.58 40.95 39.55 37.55 35.15 33.64 29.17 26.19 24.82 23.77 26.61 27.47 27.81 29.98 31.28 31.15 30.16 29.25 28.88 29.40 24.50 22.15 22.10 22.86 21.44 19.55 19.80 17.62 22.69 24.59 25.74 24.06 22.59 23.29 22.58 22.15 21.21 19.30 19.21 17.40 17.05 16.40 13.86 12.24 12.34 11.64 6.57 8.15 6.15 6.99
39.87 36.28 41.38 41.48 40.66 39.97 38.67 32.95 31.59 28.41 26.13 24.08 23.98 27.42 26.61 25.67 27.54 31.16 32.31 31.92 29.57 30.15 25.21 25.44 19.46 20.75 25.03 21.13 19.87 22.69 20.40 24.27 25.62 25.74 29.01 24.22 22.22 21.43 20.04 18.73 16.90 16.86 16.33 15.91 14.45 14.70 13.27 11.57 10.20 10.64 10.13 8.45 7.73 8.74
36.39 39.68 40.49 39.98 37.93 36.27 33.24 31.70 28.88 27.05 23.26 22.46 23.77 25.69 26.89 27.43 28.49 30.34 31.26 32.39 33.10 31.17 30.42 25.68 27.34 22.17 17.74 18.56 20.35 24.04 23.70 22.69 26.39 26.91 25.23 19.21 18.45 18.94 20.73 19.83 16.44 17.04 15.88 14.02 14.83 12.65 11.13 10.74 12.63 14.03 13.76 11.86 10.84 11.58
38.55 38.78 40.13 39.24 35.88 32.09 28.78 28.45 29.48 23.07 22.98 23.45 23.03 25.15 28.11 28.11 29.01 30.66 31.77 32.00 33.58 33.64 30.38 26.90 23.26 22.62 23.07 23.71 25.54 24.85 22.60 26.04 27.50 25.65 19.61 14.25 15.07 17.39 16.36 16.11 14.81 14.73 14.89 14.18 14.89 15.72 15.19 15.11 17.33 16.45 16.17 14.80 15.39 16.14
40.52 39.85 39.44 38.80 36.57 29.46 27.03 26.83 30.41 27.15 23.48 24.26 26.29 25.75 25.51 26.57 28.89 29.01 29.89 31.14 32.37 32.95 30.08 27.44 25.60 26.26 26.10 27.18 26.29 28.67 27.84 25.98 23.35 24.43 24.87 18.81 15.99 15.79 16.56 17.35 17.78 16.42 15.31 15.30 16.40 15.00 15.42 15.52 16.86 16.87 17.07 17.18 17.50 18.05
36.72 36.16 37.16 34.30 31.36 29.76 27.93 26.88 25.42 25.68 25.90 24.06 26.41 26.86 24.87 27.52 25.16 24.12 25.14 30.81 29.99 28.97 28.68 29.37 28.44 25.00 21.38 23.14 25.70 25.05 24.68 25.47 25.69 27.47 26.41 20.13 15.27 17.85 16.52 17.21 16.66 17.10 16.78 16.35 16.36 15.79 15.34 17.18 17.89 18.03 17.59 17.92 18.11 18.95
35.49 37.11 30.98 32.04 28.26 28.09 27.67 30.01 26.81 26.84 25.47 26.57 25.76 26.50 23.41 22.12 22.78 24.37 26.94 25.44 25.38 24.60 25.34 24.96 25.58 23.71 24.73 26.36 24.31 24.21 23.57 23.69 21.78 18.87 16.88 17.19 16.87 16.77 16.67 16.76 17.18 16.35 16.95 16.73 17.66 17.14 17.26 18.05 18.63 18.68 18.36 18.46 10.91 15.49
35.54 33.00 28.90 27.12 21.47 19.65 22.95 31.13 25.11 26.34 18.41 22.64 25.38 22.53 22.65 22.81 23.50 27.71 23.62 25.29 24.04 22.01 23.87 24.12 24.08 25.29 23.94 22.44 23.79 23.49 23.01 22.72 21.50 20.45 19.08 19.42 19.09 18.91 18.36 17.64 18.86 17.12 16.48 16.74 18.54 18.00 17.66 14.31 14.32 17.46 16.23 13.63 14.74 14.42
33.79 25.49 19.56 17.68 18.81 14.10 23.21 20.98 27.04 25.39 24.95 23.26 19.62 18.53 20.98 23.50 28.70 25.33 22.84 20.63 20.68 21.38 24.06 25.43 25.28 24.67 25.11 24.96 23.27 22.60 22.28 22.27 19.98 19.07 19.64 19.37 18.12 17.88 18.92 18.61 18.92 19.42 19.92 18.76 18.73 18.76 17.17 16.81 11.47 14.36 13.66 13.70 13.49 15.30
20.66 16.90 14.69 7.66 23.04 15.30 16.98 13.98 23.39 21.25 15.45 19.98 19.74 19.58 23.64 26.62 22.84 21.09 20.02 18.36 21.88 24.35 24.14 24.54 25.24 25.05 24.83 23.52 21.45 21.72 22.23 21.85 20.92 19.22 18.85 19.78 18.11 18.14 17.63 18.16 18.15 18.83 19.44 18.11 16.46 16.70 15.14 14.21 15.33 14.98 13.82 15.11 14.25 12.25
10.50 15.70 11.85 11.51 11.23 14.87 15.71 9.47 16.15 17.41 12.02 19.29 20.28 20.42 21.67 20.25 18.69 16.91 17.60 15.99 16.86 21.75 21.33 22.26 24.31 24.87 23.89 24.06 22.69 21.98 22.21 21.89 21.46 19.86 19.08 19.68 19.62 18.78 17.37 17.18 17.54 18.67 18.28 19.56 17.26 17.47 16.82 15.14 15.16 13.97 13.99 9.53 7.49 12.27
9.14 11.42 21.56 25.43 24.30 24.16 17.79 19.28 20.81 17.19 13.87 15.45 15.61 15.95 15.53 10.70 12.35 14.76 16.92 17.54 17.08 19.38 21.04 22.41 23.23 26.06 25.11 21.57 19.26 18.36 18.76 18.79 18.98 18.05 16.47 15.72 15.93 18.17 19.52 18.14 17.74 18.82 16.92 18.49 18.85 18.55 16.51 14.17 13.61 11.40 10.24 10.50 9.94 10.44
16.80 18.15 14.89 18.26 19.34 22.95 15.90 16.69 13.79 13.57 14.37 19.63 20.67 16.89 12.71 13.27 13.67 15.62 16.62 17.68 18.02 18.50 20.19 18.81 18.21 19.36 18.50 17.18 16.77 16.20 15.23 15.03 15.02 15.64 16.20 15.28 13.16 12.70 13.26 13.58 14.01 13.80 13.04 13.76 14.70 14.50 14.46 13.12 12.91 12.68 10.74 6.31 1.98 1.49
19.95 20.17 20.41 15.38 19.26 20.77 20.43 21.34 21.28 19.53 19.50 21.70 21.72 19.64 14.27 13.36 13.90 12.73 13.31 14.34 16.29 17.36 16.17 17.18 14.95 16.30 15.79 15.88 15.93 17.06 17.65 18.77 18.54 15.79 14.13 13.13 13.43 11.96 11.27 12.72 12.87 13.68 14.83 14.37 14.18 12.17 11.05 10.35 8.19 5.40 2.24 -0.73 -3.48 -4.76
18.16 22.78 19.59 18.02 16.09 17.47 15.74 17.60 15.06 14.02 16.71 16.59 16.08 14.33 12.71 12.71 13.89 14.93 14.31 14.33 14.13 13.47 12.44 13.65 14.20 15.81 14.94 15.41 14.43 13.48 12.72 12.39 14.61 18.46 15.60 14.54 13.22 10.19 10.91 10.92 10.72 11.21 12.30 11.51 9.88 8.21 8.36 4.62 3.66 0.31 -1.04 -2.80 -2.80 -4.51
23.48 20.96 17.13 15.28 13.66 13.03 15.61 16.72 16.73 15.22 13.40 12.57 13.08 12.29 10.90 11.93 13.24 13.18 11.52 11.50 13.15 13.59 13.52 13.26 13.04 14.63 16.33 16.05 15.80 14.79 12.58 10.31 9.48 10.67 12.04 11.20 9.61 9.04 8.74 8.15 8.96 9.49 8.93 7.40 5.57 3.32 1.06 -0.34 -0.74 -2.34 -4.38 -7.46 -10.56 -8.21
20.14 18.38 16.26 12.99 13.54 16.67 18.30 17.40 15.64 13.10 11.91 12.17 10.75 11.40 10.55 12.14 10.77 10.57 9.90 10.29 14.75 12.94 11.38 12.89 11.47 8.86 9.65 10.00 9.89 9.25 9.02 9.02 9.41 9.88 9.58 8.67 8.09 7.99 7.46 7.12 6.85 6.05 4.02 1.99 1.13 0.06 -1.06 -2.40 -4.16 -5.93 -8.06 -10.22 -11.61 -12.34
15.89 15.35 15.15 14.06 13.54 14.42 15.19 16.07 14.17 11.69 11.71 11.52 10.28 9.92 8.47 10.46 8.44 8.52 10.43 8.86 7.47 7.96 6.88 6.33 6.68 7.03 6.86 7.10 7.00 6.85 7.06 7.16 7.30 9.06 7.54 7.37 6.01 5.95 5.12 4.88 3.74 2.54 0.24 -1.40 -2.43 -3.58 -5.44 -7.64 -9.62 -10.78 -11.78 -13.20 -14.47 -14.85

GFSWCAN_sfc_wetblb_126.txt.gz
Wetbulb
46.09 46.12 45.65 45.94 45.75 44.99 45.07 45.14 44.85 43.22 43.60 44.28 44.97 45.61 45.60 45.53 44.68 45.39 42.86 45.00 45.23 39.57 38.81 40.29 39.52 37.14 36.59 37.04 32.51 35.30 34.77 35.28 35.61 32.55 32.98 33.13 32.96 33.69 32.25 32.16 30.74 29.73 29.44 30.04 30.21 27.15 24.07 31.75 32.75 29.85 31.44 33.84 33.55 32.74
45.98 45.70 45.50 45.68 45.43 44.95 44.95 45.11 44.75 44.33 44.18 44.40 44.88 45.93 45.70 45.89 45.45 45.22 42.46 45.10 47.09 41.73 38.94 42.30 41.98 42.05 41.12 40.48 37.99 36.58 35.99 36.05 37.84 35.65 36.10 36.40 33.05 34.61 32.78 27.89 34.71 29.70 32.38 31.71 28.48 27.71 31.61 32.88 33.26 36.05 36.52 33.83 33.06 32.44
45.50 45.35 45.17 45.67 45.30 44.78 44.96 44.88 44.81 44.53 44.07 44.64 45.18 45.86 45.66 44.76 44.08 45.51 43.86 45.18 45.52 41.90 40.37 40.38 38.52 42.52 44.86 44.05 44.56 37.16 38.99 38.92 38.20 40.93 39.78 38.47 32.36 37.53 31.04 32.77 31.90 32.69 34.96 31.83 29.79 28.85 30.44 31.95 33.29 34.77 35.46 34.11 33.78 33.01
45.50 45.17 45.10 45.14 44.59 44.45 44.81 44.49 44.34 44.25 44.61 45.33 45.80 45.79 45.14 44.38 43.99 44.86 43.86 44.18 46.30 42.18 36.16 36.71 43.51 40.89 43.28 45.22 44.00 44.41 41.33 41.17 41.20 42.25 39.43 38.50 35.61 38.26 34.99 35.21 35.38 35.67 35.42 30.85 28.14 29.75 31.19 31.50 33.18 33.42 32.79 32.95 31.58 31.58
45.23 44.99 44.81 44.72 44.65 44.35 44.34 43.31 43.58 44.38 45.18 45.48 45.73 45.30 44.62 44.35 44.35 45.21 45.02 44.02 44.06 42.21 35.19 36.50 42.01 42.29 43.76 44.41 42.69 43.09 41.83 40.43 40.13 37.83 38.01 36.49 39.30 37.78 38.32 37.54 35.01 36.90 33.71 32.38 32.83 33.14 33.15 32.05 33.20 33.26 31.15 29.78 30.05 28.97
45.00 44.80 44.78 44.64 44.34 44.13 43.79 43.07 42.62 44.26 45.04 45.57 45.28 44.55 42.93 42.24 40.99 45.25 37.09 44.78 44.73 46.90 39.13 33.23 40.36 40.07 41.67 42.56 41.55 40.84 41.06 40.33 40.96 39.21 37.87 39.20 39.05 38.60 34.66 33.64 34.19 36.23 36.59 36.94 34.76 36.53 35.02 33.83 33.53 33.85 31.12 30.44 30.30 29.22
44.87 44.74 44.59 44.38 44.18 43.89 43.36 42.44 41.36 42.81 44.88 44.81 43.92 44.16 44.03 44.24 44.99 40.06 38.54 42.54 43.47 45.67 39.85 33.76 34.10 39.85 41.54 40.92 40.64 40.22 40.72 40.04 39.97 38.99 37.99 38.76 38.97 39.28 36.73 32.83 34.46 36.04 36.66 37.18 36.93 34.38 30.45 31.50 29.89 32.07 31.05 30.02 29.54 28.80
44.53 44.53 44.31 44.17 44.05 43.73 42.75 42.07 41.66 43.99 44.29 44.78 44.73 44.35 44.34 44.62 44.27 40.88 44.05 43.66 44.06 41.86 41.27 33.13 32.77 35.87 40.07 36.86 36.15 39.90 38.37 39.71 38.63 38.28 39.19 37.74 38.07 38.75 32.03 34.79 36.02 36.07 35.88 35.52 35.78 36.22 35.17 33.97 31.79 30.52 30.31 28.99 27.24 26.08
44.18 44.09 43.95 43.73 43.50 42.82 42.36 42.45 42.88 43.88 43.83 43.37 42.46 41.87 43.02 41.59 39.60 40.81 43.27 43.53 45.95 41.91 35.16 35.24 31.12 29.68 39.21 37.23 38.28 38.19 39.15 34.73 38.90 36.82 37.19 37.16 35.52 30.78 34.34 35.32 35.28 35.70 34.78 34.63 35.18 34.58 32.96 31.30 29.93 28.80 28.74 28.13 26.83 25.39
44.11 43.86 43.54 43.29 42.47 42.27 42.11 42.29 42.92 43.01 42.36 40.97 41.05 37.96 33.50 39.53 42.46 42.50 42.08 39.18 38.82 38.15 38.12 33.47 36.64 31.96 37.37 36.63 34.71 34.75 37.17 34.13 31.31 35.00 38.61 34.50 33.56 35.87 36.54 38.80 38.36 37.22 37.35 35.83 32.36 30.68 31.57 30.13 29.39 29.07 28.87 29.34 28.66 26.82
43.72 43.56 43.17 42.86 42.47 42.41 42.41 42.65 42.60 41.79 39.95 39.18 35.71 33.41 38.09 41.48 41.27 37.73 32.44 33.43 33.59 31.23 35.50 34.92 35.85 32.95 38.16 33.74 32.49 36.15 33.44 34.40 28.56 32.32 32.03 31.99 31.68 34.62 37.24 37.86 38.69 38.54 37.78 36.85 37.33 35.98 34.85 33.38 30.96 29.71 28.87 28.15 27.56 26.12
43.73 43.46 43.35 42.81 42.50 42.47 42.80 42.71 41.54 39.76 37.86 39.07 38.24 40.65 41.28 37.55 33.82 30.70 29.33 31.01 30.48 28.53 32.70 33.73 34.79 36.87 36.31 39.22 35.14 34.93 30.75 32.51 24.73 35.99 30.26 27.73 34.66 34.36 36.63 36.96 37.35 37.73 37.11 36.16 36.32 34.71 33.93 32.88 32.25 30.91 29.36 27.81 26.63 25.51
43.07 43.04 42.90 42.57 42.26 42.64 42.51 41.18 40.29 41.86 42.61 40.90 37.55 33.60 33.65 31.56 25.84 25.46 22.91 26.47 27.66 31.08 32.43 34.30 32.99 36.56 36.49 38.59 34.33 33.44 28.83 28.53 34.74 29.66 28.23 32.51 33.56 33.71 36.45 37.45 37.08 37.06 36.11 35.21 34.32 34.09 33.08 31.77 31.55 29.75 27.10 26.15 23.03 21.38
42.69 42.65 42.54 42.52 41.81 41.86 41.81 42.30 41.53 40.46 39.62 34.24 31.27 25.20 27.90 25.07 27.97 28.92 30.21 30.46 31.69 33.41 33.45 36.02 33.13 36.05 35.83 32.31 32.41 29.00 29.49 31.40 25.90 23.43 25.66 35.36 32.85 32.96 35.17 36.35 35.70 33.58 32.91 32.66 31.47 30.86 29.39 27.36 25.64 25.36 23.89 21.70 19.61 15.83
42.48 42.36 42.45 42.05 41.63 40.82 41.92 41.44 39.81 40.26 36.09 30.67 30.54 23.92 26.29 29.87 31.85 32.20 32.73 32.50 32.76 35.65 35.70 34.05 34.30 35.86 31.77 29.35 31.09 28.81 26.00 24.45 26.66 28.16 34.14 36.01 31.74 31.22 31.43 32.13 32.39 31.35 29.72 29.23 28.40 25.94 23.99 21.72 21.26 20.32 19.77 20.23 19.08 14.58
42.38 41.71 40.35 41.36 41.22 40.88 39.69 39.50 39.75 38.45 33.83 31.03 29.41 28.02 30.45 30.98 30.48 32.05 32.96 31.87 34.25 36.01 35.95 36.45 31.06 30.19 28.30 29.82 27.13 25.78 24.86 24.07 30.35 34.76 36.31 34.54 30.48 30.25 30.91 30.66 30.76 29.98 29.12 28.02 27.14 24.79 22.42 20.51 19.85 20.84 18.64 18.15 15.97 15.50
40.98 38.27 41.37 40.94 39.80 39.26 39.16 38.15 36.66 31.50 29.66 28.10 28.47 31.06 31.02 32.10 31.48 32.41 33.14 32.64 36.26 35.26 32.64 32.11 27.61 24.83 30.19 27.21 25.44 30.13 29.00 33.33 36.11 36.38 35.73 31.31 30.05 30.24 29.61 28.33 25.73 25.89 26.12 26.31 24.93 23.80 22.59 22.01 18.71 17.39 16.97 16.66 16.89 16.60
37.79 40.72 40.88 40.20 40.40 38.67 37.17 36.27 32.37 30.03 25.87 28.70 29.02 29.85 31.41 31.48 32.05 32.77 33.14 34.73 36.52 35.02 34.51 29.84 32.32 27.17 27.13 25.12 27.92 33.40 35.07 35.95 34.94 33.75 33.60 30.24 28.10 27.73 28.93 28.64 25.32 25.83 25.56 23.95 23.34 21.89 19.85 18.19 19.89 21.42 21.57 18.51 17.96 17.72
40.19 40.78 40.49 39.51 39.36 36.67 32.10 32.08 33.29 26.48 27.64 29.74 30.54 31.69 31.23 31.27 32.43 33.75 33.36 36.23 38.58 38.17 35.47 33.71 31.22 29.84 31.05 33.70 35.23 36.41 36.30 36.55 35.97 33.17 31.48 25.02 24.84 25.79 25.93 26.45 24.49 25.11 24.24 23.14 23.06 24.02 23.48 22.90 25.53 24.99 23.83 20.84 21.90 21.91
40.44 39.84 39.24 38.39 38.80 34.35 29.23 29.61 34.59 29.55 26.74 29.66 31.41 30.56 30.55 29.56 30.83 32.20 33.06 33.89 35.24 35.57 33.75 32.66 33.54 36.07 37.18 37.65 37.53 38.09 37.23 36.49 34.28 33.43 32.69 29.34 27.15 24.25 25.93 25.85 27.21 26.18 24.60 23.96 24.81 23.76 23.64 22.95 23.63 24.00 23.79 23.02 23.34 23.03
38.85 38.61 37.97 39.13 36.61 35.33 31.76 29.72 28.16 29.90 29.44 28.81 30.15 30.40 28.84 31.04 30.71 31.69 32.32 33.10 33.51 33.69 33.70 36.48 36.02 35.22 31.28 32.45 33.92 35.29 33.98 34.51 35.40 35.29 35.01 31.37 27.05 28.46 26.12 26.79 26.09 26.06 25.88 25.50 25.04 23.86 23.10 24.85 24.72 24.36 23.95 24.48 25.40 26.17
37.97 37.41 37.70 36.52 32.47 31.68 30.73 32.51 29.97 31.06 29.72 28.79 29.79 29.91 27.83 28.32 28.89 30.44 30.76 30.74 30.74 31.73 31.73 32.55 32.57 32.36 31.96 30.13 32.53 31.68 31.09 30.39 28.67 27.10 25.82 26.40 27.11 26.51 26.43 26.74 25.75 25.99 26.43 26.85 26.55 25.97 24.95 25.68 25.55 24.82 25.10 25.63 23.25 25.07
37.66 37.07 34.03 31.72 27.28 27.78 26.36 33.78 27.36 27.85 24.15 25.62 28.59 25.62 26.38 27.11 29.14 31.25 28.49 29.03 29.08 29.12 29.04 29.34 29.57 29.79 29.87 27.83 28.81 28.42 28.51 29.76 31.33 30.45 28.47 29.19 28.70 28.59 28.15 26.70 27.22 26.87 26.03 25.45 26.64 26.42 25.69 23.97 23.26 25.27 25.29 24.54 24.64 23.84
35.45 29.68 26.17 25.19 26.61 23.20 27.95 26.10 28.38 26.25 26.43 25.13 23.92 20.38 23.07 25.69 29.74 28.19 26.07 28.85 28.56 28.10 28.77 28.11 28.81 29.09 29.05 28.97 30.52 29.35 27.94 29.83 28.54 27.44 27.72 27.86 27.53 26.19 27.32 26.80 26.58 27.27 27.47 26.52 25.29 25.16 24.69 24.95 22.84 23.96 24.58 23.95 23.51 23.15
26.68 23.75 25.31 20.84 25.40 23.34 22.32 23.70 24.52 23.28 20.34 21.57 20.24 21.56 25.06 28.30 23.87 23.79 24.10 27.44 27.71 27.35 27.54 28.54 28.12 27.71 28.27 29.72 29.67 27.72 25.84 27.28 27.99 27.39 26.23 26.98 26.26 25.39 24.66 25.16 25.17 25.56 26.32 25.92 24.84 24.86 24.36 24.36 24.85 24.35 22.72 22.94 21.42 19.84
20.81 22.25 22.09 21.48 22.72 21.83 21.72 20.82 22.16 21.76 22.78 21.03 22.43 26.38 27.88 25.07 21.61 21.56 24.95 24.32 25.59 25.48 24.87 25.31 26.06 27.87 27.78 27.10 26.88 26.98 27.07 27.94 28.27 27.20 24.74 25.89 26.25 26.97 25.31 23.72 23.57 23.42 26.51 28.07 26.23 25.02 23.69 23.58 23.27 21.55 21.05 17.70 16.73 18.89
20.36 21.50 25.34 28.61 27.71 25.75 24.60 25.17 26.18 25.68 22.87 22.21 25.61 24.56 24.80 20.65 21.54 23.49 23.44 23.44 24.13 24.07 24.04 25.15 25.09 26.53 28.02 26.48 24.56 23.78 24.63 24.75 25.06 23.84 22.72 22.74 23.11 24.84 27.03 25.48 24.49 25.51 26.06 26.37 26.47 26.43 24.92 22.82 21.59 20.58 18.68 18.23 17.37 17.33
25.74 26.07 21.94 25.24 25.64 27.16 23.16 22.91 23.28 23.27 25.64 27.02 26.87 23.23 21.81 22.11 22.11 22.56 22.50 22.84 22.97 23.00 24.39 23.70 22.93 23.88 24.56 23.55 23.57 23.23 21.96 21.63 21.42 21.97 22.15 21.45 20.72 21.11 20.64 21.19 19.88 19.74 22.48 23.85 24.41 24.59 23.75 22.07 20.31 19.00 15.92 12.61 10.59 11.89
24.47 27.97 27.16 20.69 24.04 25.85 25.72 25.53 26.44 25.42 23.89 26.54 26.55 25.55 21.24 19.00 19.59 19.71 21.31 21.05 22.65 23.42 24.52 24.72 22.62 23.59 22.46 22.54 22.88 23.71 24.39 24.92 23.92 21.75 21.22 20.49 20.39 17.95 20.36 21.41 21.39 21.25 20.75 18.67 17.44 19.01 19.28 17.98 15.55 13.05 10.79 8.91 7.41 6.67
23.84 28.29 25.29 23.35 22.03 23.28 25.24 24.44 24.05 22.65 21.86 22.22 21.21 19.04 18.45 18.78 19.01 20.05 20.04 21.36 22.00 21.92 21.60 22.38 23.06 24.17 22.31 22.06 20.66 19.93 20.07 20.47 21.77 25.33 22.99 21.37 19.25 18.36 19.07 18.87 18.70 18.76 18.06 16.06 13.64 12.36 11.85 10.99 10.13 9.06 8.22 7.86 7.17 4.54
26.70 26.29 23.37 23.33 21.80 21.97 22.76 22.54 22.63 21.59 21.30 20.60 20.71 21.25 18.51 18.02 18.61 17.74 16.27 16.80 19.91 21.25 21.55 20.25 19.74 21.70 21.99 21.88 22.54 21.35 19.25 17.11 16.18 18.58 19.51 18.41 17.79 17.05 16.54 16.40 16.85 16.90 15.79 14.61 13.19 12.08 11.09 10.04 8.83 6.41 3.73 1.18 0.05 1.21
24.42 22.60 21.35 18.20 18.31 20.37 21.73 21.66 21.34 20.00 19.12 19.29 17.81 18.27 16.88 17.68 15.60 15.35 13.16 14.35 20.24 18.45 15.78 18.18 17.38 14.14 14.92 15.60 15.28 14.76 15.23 15.69 15.52 15.49 15.58 15.16 15.08 14.65 14.89 14.65 14.51 14.31 12.80 11.45 10.51 9.36 8.06 6.66 5.25 3.12 1.24 -0.89 -2.29 -3.40
20.21 20.30 19.48 18.39 17.09 17.05 19.16 19.46 17.78 15.38 16.83 16.20 15.14 15.67 15.59 15.95 11.92 12.00 13.78 11.90 11.47 12.86 11.77 11.43 11.95 11.95 12.08 12.69 12.91 12.62 12.52 12.71 12.38 12.39 11.88 11.89 12.00 12.68 12.89 12.70 11.73 10.61 9.27 8.17 6.90 5.31 3.47 2.11 0.84 -0.58 -2.45 -4.05 -4.91 -5.29